<?xml version="1.0" encoding="UTF-8" standalone="no" ?>
<gpx xmlns="http://www.topografix.com/GPX/1/1" xmlns:xsi="http://www.w3.org/2001/XMLSchema-instance" xsi:schemaLocation="http://www.topografix.com/GPX/1/1 http://www.topografix.com/GPX/1/1/gpx.xsd" version="1.1" creator="VisuGPX - https://www.visugpx.com">
  <metadata>
    <name>VTT ENDURO / Rocher des vierges</name>
    <desc><![CDATA[Sortie typée enduro autour de st jean de la blaquière. On va chercher le départ des toboggans et on enchaine les descentes jusqu'au ruisseau, y'a de tout : pentes, marches, belles marches à sauter, etc...c'est un régal. on remonte pour faire la descente des ruches, marches et devers...on aboutit à la rivière que l'on traverse pour remonter faire une descente plus ludique dans le schiste.Puis on traverse st jean ensuite on va chercher la cote du retour et au passage au fait les "compressions" ce petit single qui coupe le chemin de l'ascension. Retour par la piste pour faire la dernière petite descente aménagée. Une très belle sortie.]]></desc>
  </metadata>
  <trk>
    <name><![CDATA[VTT ENDURO / Rocher des vierges_1]]></name>
    <trkseg>
      <trkpt lat="43.70672" lon="3.4676">
        <ele>355.2</ele>
        <time>2017-03-29T06:29:58Z</time>
      </trkpt>
      <trkpt lat="43.70672" lon="3.4676">
        <ele>355.2</ele>
        <time>2017-03-29T06:30:07Z</time>
      </trkpt>
      <trkpt lat="43.70678" lon="3.46767">
        <ele>347.4</ele>
        <time>2017-03-29T06:30:11Z</time>
      </trkpt>
      <trkpt lat="43.70673" lon="3.4677">
        <ele>345.3</ele>
        <time>2017-03-29T06:35:26Z</time>
      </trkpt>
      <trkpt lat="43.70673" lon="3.46772">
        <ele>346</ele>
        <time>2017-03-29T06:36:20Z</time>
      </trkpt>
      <trkpt lat="43.70673" lon="3.46771">
        <ele>346.5</ele>
        <time>2017-03-29T06:36:27Z</time>
      </trkpt>
      <trkpt lat="43.70673" lon="3.46774">
        <ele>345.8</ele>
        <time>2017-03-29T06:36:49Z</time>
      </trkpt>
      <trkpt lat="43.70674" lon="3.46768">
        <ele>346.9</ele>
        <time>2017-03-29T06:38:10Z</time>
      </trkpt>
      <trkpt lat="43.70678" lon="3.46763">
        <ele>346.1</ele>
        <time>2017-03-29T06:38:26Z</time>
      </trkpt>
      <trkpt lat="43.70675" lon="3.46771">
        <ele>346</ele>
        <time>2017-03-29T06:38:43Z</time>
      </trkpt>
      <trkpt lat="43.70674" lon="3.46775">
        <ele>346</ele>
        <time>2017-03-29T06:38:50Z</time>
      </trkpt>
      <trkpt lat="43.70671" lon="3.46775">
        <ele>346</ele>
        <time>2017-03-29T06:39:00Z</time>
      </trkpt>
      <trkpt lat="43.70679" lon="3.46775">
        <ele>344.4</ele>
        <time>2017-03-29T06:39:19Z</time>
      </trkpt>
      <trkpt lat="43.70681" lon="3.46772">
        <ele>344.2</ele>
        <time>2017-03-29T06:39:26Z</time>
      </trkpt>
      <trkpt lat="43.70679" lon="3.46775">
        <ele>345.2</ele>
        <time>2017-03-29T06:39:33Z</time>
      </trkpt>
      <trkpt lat="43.70686" lon="3.46772">
        <ele>345.4</ele>
        <time>2017-03-29T06:39:38Z</time>
      </trkpt>
      <trkpt lat="43.70692" lon="3.46766">
        <ele>345.4</ele>
        <time>2017-03-29T06:39:45Z</time>
      </trkpt>
      <trkpt lat="43.70699" lon="3.46764">
        <ele>345.1</ele>
        <time>2017-03-29T06:39:51Z</time>
      </trkpt>
      <trkpt lat="43.70702" lon="3.46768">
        <ele>344.7</ele>
        <time>2017-03-29T06:39:58Z</time>
      </trkpt>
      <trkpt lat="43.70698" lon="3.46768">
        <ele>344.3</ele>
        <time>2017-03-29T06:40:05Z</time>
      </trkpt>
      <trkpt lat="43.70701" lon="3.46769">
        <ele>344.3</ele>
        <time>2017-03-29T06:40:12Z</time>
      </trkpt>
      <trkpt lat="43.70708" lon="3.46774">
        <ele>344.3</ele>
        <time>2017-03-29T06:40:17Z</time>
      </trkpt>
      <trkpt lat="43.70715" lon="3.46779">
        <ele>344.2</ele>
        <time>2017-03-29T06:40:22Z</time>
      </trkpt>
      <trkpt lat="43.70723" lon="3.46781">
        <ele>344</ele>
        <time>2017-03-29T06:40:26Z</time>
      </trkpt>
      <trkpt lat="43.7073" lon="3.46784">
        <ele>343.8</ele>
        <time>2017-03-29T06:40:30Z</time>
      </trkpt>
      <trkpt lat="43.70739" lon="3.46789">
        <ele>343.8</ele>
        <time>2017-03-29T06:40:34Z</time>
      </trkpt>
      <trkpt lat="43.70747" lon="3.46794">
        <ele>343.6</ele>
        <time>2017-03-29T06:40:38Z</time>
      </trkpt>
      <trkpt lat="43.70755" lon="3.46797">
        <ele>343.6</ele>
        <time>2017-03-29T06:40:42Z</time>
      </trkpt>
      <trkpt lat="43.70763" lon="3.46802">
        <ele>343.4</ele>
        <time>2017-03-29T06:40:46Z</time>
      </trkpt>
      <trkpt lat="43.70768" lon="3.46814">
        <ele>343.2</ele>
        <time>2017-03-29T06:40:50Z</time>
      </trkpt>
      <trkpt lat="43.70766" lon="3.46825">
        <ele>343.2</ele>
        <time>2017-03-29T06:40:54Z</time>
      </trkpt>
      <trkpt lat="43.70761" lon="3.46832">
        <ele>343.3</ele>
        <time>2017-03-29T06:40:57Z</time>
      </trkpt>
      <trkpt lat="43.70753" lon="3.46837">
        <ele>343.5</ele>
        <time>2017-03-29T06:41:01Z</time>
      </trkpt>
      <trkpt lat="43.70745" lon="3.46843">
        <ele>343.6</ele>
        <time>2017-03-29T06:41:05Z</time>
      </trkpt>
      <trkpt lat="43.70738" lon="3.4685">
        <ele>343.6</ele>
        <time>2017-03-29T06:41:09Z</time>
      </trkpt>
      <trkpt lat="43.70732" lon="3.46857">
        <ele>343.8</ele>
        <time>2017-03-29T06:41:13Z</time>
      </trkpt>
      <trkpt lat="43.70727" lon="3.46865">
        <ele>344</ele>
        <time>2017-03-29T06:41:17Z</time>
      </trkpt>
      <trkpt lat="43.70722" lon="3.46875">
        <ele>344.4</ele>
        <time>2017-03-29T06:41:22Z</time>
      </trkpt>
      <trkpt lat="43.70718" lon="3.46884">
        <ele>344.7</ele>
        <time>2017-03-29T06:41:26Z</time>
      </trkpt>
      <trkpt lat="43.70714" lon="3.46894">
        <ele>345.1</ele>
        <time>2017-03-29T06:41:30Z</time>
      </trkpt>
      <trkpt lat="43.7071" lon="3.46903">
        <ele>345.6</ele>
        <time>2017-03-29T06:41:34Z</time>
      </trkpt>
      <trkpt lat="43.70707" lon="3.46913">
        <ele>345.9</ele>
        <time>2017-03-29T06:41:38Z</time>
      </trkpt>
      <trkpt lat="43.70703" lon="3.46924">
        <ele>346.4</ele>
        <time>2017-03-29T06:41:43Z</time>
      </trkpt>
      <trkpt lat="43.70699" lon="3.46934">
        <ele>346.9</ele>
        <time>2017-03-29T06:41:47Z</time>
      </trkpt>
      <trkpt lat="43.70696" lon="3.46943">
        <ele>347.3</ele>
        <time>2017-03-29T06:41:51Z</time>
      </trkpt>
      <trkpt lat="43.70694" lon="3.46955">
        <ele>347.8</ele>
        <time>2017-03-29T06:41:56Z</time>
      </trkpt>
      <trkpt lat="43.70692" lon="3.46966">
        <ele>348.2</ele>
        <time>2017-03-29T06:42:00Z</time>
      </trkpt>
      <trkpt lat="43.70691" lon="3.46977">
        <ele>348.6</ele>
        <time>2017-03-29T06:42:04Z</time>
      </trkpt>
      <trkpt lat="43.7069" lon="3.46987">
        <ele>348.9</ele>
        <time>2017-03-29T06:42:08Z</time>
      </trkpt>
      <trkpt lat="43.70691" lon="3.46998">
        <ele>349.1</ele>
        <time>2017-03-29T06:42:12Z</time>
      </trkpt>
      <trkpt lat="43.70692" lon="3.4701">
        <ele>349.4</ele>
        <time>2017-03-29T06:42:16Z</time>
      </trkpt>
      <trkpt lat="43.70695" lon="3.4702">
        <ele>349.9</ele>
        <time>2017-03-29T06:42:20Z</time>
      </trkpt>
      <trkpt lat="43.70698" lon="3.4703">
        <ele>350.2</ele>
        <time>2017-03-29T06:42:24Z</time>
      </trkpt>
      <trkpt lat="43.707" lon="3.47041">
        <ele>350.7</ele>
        <time>2017-03-29T06:42:28Z</time>
      </trkpt>
      <trkpt lat="43.70703" lon="3.4705">
        <ele>351.2</ele>
        <time>2017-03-29T06:42:32Z</time>
      </trkpt>
      <trkpt lat="43.70706" lon="3.47059">
        <ele>351.7</ele>
        <time>2017-03-29T06:42:36Z</time>
      </trkpt>
      <trkpt lat="43.7071" lon="3.47069">
        <ele>352.2</ele>
        <time>2017-03-29T06:42:40Z</time>
      </trkpt>
      <trkpt lat="43.70716" lon="3.47078">
        <ele>352.5</ele>
        <time>2017-03-29T06:42:44Z</time>
      </trkpt>
      <trkpt lat="43.70723" lon="3.47085">
        <ele>353</ele>
        <time>2017-03-29T06:42:49Z</time>
      </trkpt>
      <trkpt lat="43.70731" lon="3.47092">
        <ele>353.6</ele>
        <time>2017-03-29T06:42:54Z</time>
      </trkpt>
      <trkpt lat="43.70738" lon="3.47097">
        <ele>354</ele>
        <time>2017-03-29T06:42:58Z</time>
      </trkpt>
      <trkpt lat="43.70746" lon="3.47101">
        <ele>354.6</ele>
        <time>2017-03-29T06:43:03Z</time>
      </trkpt>
      <trkpt lat="43.70753" lon="3.47105">
        <ele>355.4</ele>
        <time>2017-03-29T06:43:07Z</time>
      </trkpt>
      <trkpt lat="43.7076" lon="3.47109">
        <ele>356.2</ele>
        <time>2017-03-29T06:43:11Z</time>
      </trkpt>
      <trkpt lat="43.70768" lon="3.47112">
        <ele>357</ele>
        <time>2017-03-29T06:43:15Z</time>
      </trkpt>
      <trkpt lat="43.70775" lon="3.47114">
        <ele>357.9</ele>
        <time>2017-03-29T06:43:19Z</time>
      </trkpt>
      <trkpt lat="43.70784" lon="3.47115">
        <ele>358.5</ele>
        <time>2017-03-29T06:43:23Z</time>
      </trkpt>
      <trkpt lat="43.70791" lon="3.47116">
        <ele>359.1</ele>
        <time>2017-03-29T06:43:27Z</time>
      </trkpt>
      <trkpt lat="43.70801" lon="3.47116">
        <ele>360.4</ele>
        <time>2017-03-29T06:43:32Z</time>
      </trkpt>
      <trkpt lat="43.7081" lon="3.47118">
        <ele>361.3</ele>
        <time>2017-03-29T06:43:36Z</time>
      </trkpt>
      <trkpt lat="43.70817" lon="3.47117">
        <ele>362</ele>
        <time>2017-03-29T06:43:40Z</time>
      </trkpt>
      <trkpt lat="43.70824" lon="3.47118">
        <ele>363</ele>
        <time>2017-03-29T06:43:45Z</time>
      </trkpt>
      <trkpt lat="43.70833" lon="3.47119">
        <ele>363.8</ele>
        <time>2017-03-29T06:43:49Z</time>
      </trkpt>
      <trkpt lat="43.70843" lon="3.47119">
        <ele>364.5</ele>
        <time>2017-03-29T06:43:54Z</time>
      </trkpt>
      <trkpt lat="43.70851" lon="3.47121">
        <ele>365</ele>
        <time>2017-03-29T06:43:58Z</time>
      </trkpt>
      <trkpt lat="43.70861" lon="3.4712">
        <ele>365.9</ele>
        <time>2017-03-29T06:44:03Z</time>
      </trkpt>
      <trkpt lat="43.70869" lon="3.47118">
        <ele>366.5</ele>
        <time>2017-03-29T06:44:08Z</time>
      </trkpt>
      <trkpt lat="43.70877" lon="3.47115">
        <ele>366.8</ele>
        <time>2017-03-29T06:44:12Z</time>
      </trkpt>
      <trkpt lat="43.70885" lon="3.47113">
        <ele>367.1</ele>
        <time>2017-03-29T06:44:16Z</time>
      </trkpt>
      <trkpt lat="43.70893" lon="3.47111">
        <ele>367.5</ele>
        <time>2017-03-29T06:44:21Z</time>
      </trkpt>
      <trkpt lat="43.70903" lon="3.47109">
        <ele>368.1</ele>
        <time>2017-03-29T06:44:26Z</time>
      </trkpt>
      <trkpt lat="43.70911" lon="3.47107">
        <ele>368.5</ele>
        <time>2017-03-29T06:44:30Z</time>
      </trkpt>
      <trkpt lat="43.70918" lon="3.47104">
        <ele>369</ele>
        <time>2017-03-29T06:44:34Z</time>
      </trkpt>
      <trkpt lat="43.70925" lon="3.471">
        <ele>369.8</ele>
        <time>2017-03-29T06:44:39Z</time>
      </trkpt>
      <trkpt lat="43.70933" lon="3.47095">
        <ele>370.5</ele>
        <time>2017-03-29T06:44:44Z</time>
      </trkpt>
      <trkpt lat="43.7094" lon="3.47089">
        <ele>371.1</ele>
        <time>2017-03-29T06:44:48Z</time>
      </trkpt>
      <trkpt lat="43.70948" lon="3.47084">
        <ele>372</ele>
        <time>2017-03-29T06:44:53Z</time>
      </trkpt>
      <trkpt lat="43.70955" lon="3.47077">
        <ele>373</ele>
        <time>2017-03-29T06:44:58Z</time>
      </trkpt>
      <trkpt lat="43.70961" lon="3.47071">
        <ele>373.6</ele>
        <time>2017-03-29T06:45:02Z</time>
      </trkpt>
      <trkpt lat="43.70967" lon="3.47065">
        <ele>374.1</ele>
        <time>2017-03-29T06:45:06Z</time>
      </trkpt>
      <trkpt lat="43.70974" lon="3.47058">
        <ele>374.9</ele>
        <time>2017-03-29T06:45:11Z</time>
      </trkpt>
      <trkpt lat="43.70981" lon="3.4705">
        <ele>375.4</ele>
        <time>2017-03-29T06:45:15Z</time>
      </trkpt>
      <trkpt lat="43.70988" lon="3.47043">
        <ele>376.3</ele>
        <time>2017-03-29T06:45:21Z</time>
      </trkpt>
      <trkpt lat="43.70994" lon="3.47037">
        <ele>376.8</ele>
        <time>2017-03-29T06:45:25Z</time>
      </trkpt>
      <trkpt lat="43.71" lon="3.4703">
        <ele>377.5</ele>
        <time>2017-03-29T06:45:30Z</time>
      </trkpt>
      <trkpt lat="43.71007" lon="3.47022">
        <ele>378.2</ele>
        <time>2017-03-29T06:45:35Z</time>
      </trkpt>
      <trkpt lat="43.71013" lon="3.47015">
        <ele>378.9</ele>
        <time>2017-03-29T06:45:40Z</time>
      </trkpt>
      <trkpt lat="43.71019" lon="3.47007">
        <ele>379.7</ele>
        <time>2017-03-29T06:45:45Z</time>
      </trkpt>
      <trkpt lat="43.71025" lon="3.46999">
        <ele>380.3</ele>
        <time>2017-03-29T06:45:50Z</time>
      </trkpt>
      <trkpt lat="43.71032" lon="3.46991">
        <ele>380.9</ele>
        <time>2017-03-29T06:45:55Z</time>
      </trkpt>
      <trkpt lat="43.71038" lon="3.46984">
        <ele>381.4</ele>
        <time>2017-03-29T06:45:59Z</time>
      </trkpt>
      <trkpt lat="43.71045" lon="3.46978">
        <ele>382.1</ele>
        <time>2017-03-29T06:46:04Z</time>
      </trkpt>
      <trkpt lat="43.71053" lon="3.46973">
        <ele>382.7</ele>
        <time>2017-03-29T06:46:09Z</time>
      </trkpt>
      <trkpt lat="43.71059" lon="3.46968">
        <ele>383.1</ele>
        <time>2017-03-29T06:46:13Z</time>
      </trkpt>
      <trkpt lat="43.71067" lon="3.46964">
        <ele>383.6</ele>
        <time>2017-03-29T06:46:17Z</time>
      </trkpt>
      <trkpt lat="43.71075" lon="3.4696">
        <ele>384.4</ele>
        <time>2017-03-29T06:46:22Z</time>
      </trkpt>
      <trkpt lat="43.71083" lon="3.46957">
        <ele>385</ele>
        <time>2017-03-29T06:46:26Z</time>
      </trkpt>
      <trkpt lat="43.7109" lon="3.46956">
        <ele>386</ele>
        <time>2017-03-29T06:46:31Z</time>
      </trkpt>
      <trkpt lat="43.71098" lon="3.46954">
        <ele>386.8</ele>
        <time>2017-03-29T06:46:36Z</time>
      </trkpt>
      <trkpt lat="43.71106" lon="3.46952">
        <ele>387.7</ele>
        <time>2017-03-29T06:46:41Z</time>
      </trkpt>
      <trkpt lat="43.71114" lon="3.46951">
        <ele>388.5</ele>
        <time>2017-03-29T06:46:46Z</time>
      </trkpt>
      <trkpt lat="43.71122" lon="3.46949">
        <ele>389.2</ele>
        <time>2017-03-29T06:46:50Z</time>
      </trkpt>
      <trkpt lat="43.71129" lon="3.46947">
        <ele>389.8</ele>
        <time>2017-03-29T06:46:54Z</time>
      </trkpt>
      <trkpt lat="43.71137" lon="3.46945">
        <ele>390.7</ele>
        <time>2017-03-29T06:46:59Z</time>
      </trkpt>
      <trkpt lat="43.71145" lon="3.46944">
        <ele>391.4</ele>
        <time>2017-03-29T06:47:03Z</time>
      </trkpt>
      <trkpt lat="43.71152" lon="3.46941">
        <ele>392.1</ele>
        <time>2017-03-29T06:47:07Z</time>
      </trkpt>
      <trkpt lat="43.71159" lon="3.4694">
        <ele>392.6</ele>
        <time>2017-03-29T06:47:11Z</time>
      </trkpt>
      <trkpt lat="43.71166" lon="3.46937">
        <ele>393.4</ele>
        <time>2017-03-29T06:47:16Z</time>
      </trkpt>
      <trkpt lat="43.71173" lon="3.46934">
        <ele>394</ele>
        <time>2017-03-29T06:47:20Z</time>
      </trkpt>
      <trkpt lat="43.71182" lon="3.46932">
        <ele>394.7</ele>
        <time>2017-03-29T06:47:25Z</time>
      </trkpt>
      <trkpt lat="43.7119" lon="3.4693">
        <ele>395.3</ele>
        <time>2017-03-29T06:47:30Z</time>
      </trkpt>
      <trkpt lat="43.71198" lon="3.46928">
        <ele>395.8</ele>
        <time>2017-03-29T06:47:34Z</time>
      </trkpt>
      <trkpt lat="43.71205" lon="3.46928">
        <ele>396.5</ele>
        <time>2017-03-29T06:47:39Z</time>
      </trkpt>
      <trkpt lat="43.71213" lon="3.46929">
        <ele>397.2</ele>
        <time>2017-03-29T06:47:43Z</time>
      </trkpt>
      <trkpt lat="43.71221" lon="3.46932">
        <ele>397.7</ele>
        <time>2017-03-29T06:47:47Z</time>
      </trkpt>
      <trkpt lat="43.71228" lon="3.46938">
        <ele>398</ele>
        <time>2017-03-29T06:47:51Z</time>
      </trkpt>
      <trkpt lat="43.71233" lon="3.46946">
        <ele>398.9</ele>
        <time>2017-03-29T06:47:56Z</time>
      </trkpt>
      <trkpt lat="43.71237" lon="3.46956">
        <ele>399.5</ele>
        <time>2017-03-29T06:48:00Z</time>
      </trkpt>
      <trkpt lat="43.7124" lon="3.46966">
        <ele>400</ele>
        <time>2017-03-29T06:48:04Z</time>
      </trkpt>
      <trkpt lat="43.71242" lon="3.46976">
        <ele>400.5</ele>
        <time>2017-03-29T06:48:08Z</time>
      </trkpt>
      <trkpt lat="43.71246" lon="3.46985">
        <ele>401</ele>
        <time>2017-03-29T06:48:12Z</time>
      </trkpt>
      <trkpt lat="43.71253" lon="3.46989">
        <ele>401.4</ele>
        <time>2017-03-29T06:48:16Z</time>
      </trkpt>
      <trkpt lat="43.7126" lon="3.46986">
        <ele>401.9</ele>
        <time>2017-03-29T06:48:20Z</time>
      </trkpt>
      <trkpt lat="43.71264" lon="3.46977">
        <ele>402.2</ele>
        <time>2017-03-29T06:48:24Z</time>
      </trkpt>
      <trkpt lat="43.71266" lon="3.46966">
        <ele>402.6</ele>
        <time>2017-03-29T06:48:28Z</time>
      </trkpt>
      <trkpt lat="43.71269" lon="3.46956">
        <ele>403.1</ele>
        <time>2017-03-29T06:48:32Z</time>
      </trkpt>
      <trkpt lat="43.71271" lon="3.46945">
        <ele>403.5</ele>
        <time>2017-03-29T06:48:36Z</time>
      </trkpt>
      <trkpt lat="43.71274" lon="3.46935">
        <ele>403.8</ele>
        <time>2017-03-29T06:48:40Z</time>
      </trkpt>
      <trkpt lat="43.71277" lon="3.46926">
        <ele>404.4</ele>
        <time>2017-03-29T06:48:44Z</time>
      </trkpt>
      <trkpt lat="43.7128" lon="3.46916">
        <ele>404.9</ele>
        <time>2017-03-29T06:48:48Z</time>
      </trkpt>
      <trkpt lat="43.71285" lon="3.46906">
        <ele>405.5</ele>
        <time>2017-03-29T06:48:53Z</time>
      </trkpt>
      <trkpt lat="43.7129" lon="3.46897">
        <ele>406</ele>
        <time>2017-03-29T06:48:57Z</time>
      </trkpt>
      <trkpt lat="43.71295" lon="3.46889">
        <ele>406.4</ele>
        <time>2017-03-29T06:49:01Z</time>
      </trkpt>
      <trkpt lat="43.713" lon="3.46881">
        <ele>406.9</ele>
        <time>2017-03-29T06:49:05Z</time>
      </trkpt>
      <trkpt lat="43.71305" lon="3.46873">
        <ele>407.4</ele>
        <time>2017-03-29T06:49:09Z</time>
      </trkpt>
      <trkpt lat="43.71311" lon="3.46862">
        <ele>408.1</ele>
        <time>2017-03-29T06:49:14Z</time>
      </trkpt>
      <trkpt lat="43.71313" lon="3.46851">
        <ele>408.9</ele>
        <time>2017-03-29T06:49:19Z</time>
      </trkpt>
      <trkpt lat="43.71314" lon="3.46841">
        <ele>409.5</ele>
        <time>2017-03-29T06:49:23Z</time>
      </trkpt>
      <trkpt lat="43.71314" lon="3.4683">
        <ele>410.1</ele>
        <time>2017-03-29T06:49:27Z</time>
      </trkpt>
      <trkpt lat="43.71313" lon="3.46819">
        <ele>410.7</ele>
        <time>2017-03-29T06:49:31Z</time>
      </trkpt>
      <trkpt lat="43.71312" lon="3.46808">
        <ele>411.2</ele>
        <time>2017-03-29T06:49:35Z</time>
      </trkpt>
      <trkpt lat="43.71311" lon="3.46798">
        <ele>411.9</ele>
        <time>2017-03-29T06:49:39Z</time>
      </trkpt>
      <trkpt lat="43.7131" lon="3.46788">
        <ele>412.7</ele>
        <time>2017-03-29T06:49:43Z</time>
      </trkpt>
      <trkpt lat="43.71308" lon="3.46777">
        <ele>413.4</ele>
        <time>2017-03-29T06:49:47Z</time>
      </trkpt>
      <trkpt lat="43.71306" lon="3.46766">
        <ele>414.3</ele>
        <time>2017-03-29T06:49:51Z</time>
      </trkpt>
      <trkpt lat="43.71303" lon="3.46754">
        <ele>415.2</ele>
        <time>2017-03-29T06:49:56Z</time>
      </trkpt>
      <trkpt lat="43.71301" lon="3.46743">
        <ele>415.9</ele>
        <time>2017-03-29T06:50:01Z</time>
      </trkpt>
      <trkpt lat="43.71298" lon="3.46734">
        <ele>416.5</ele>
        <time>2017-03-29T06:50:05Z</time>
      </trkpt>
      <trkpt lat="43.71294" lon="3.46725">
        <ele>417.1</ele>
        <time>2017-03-29T06:50:09Z</time>
      </trkpt>
      <trkpt lat="43.71291" lon="3.46714">
        <ele>417.4</ele>
        <time>2017-03-29T06:50:13Z</time>
      </trkpt>
      <trkpt lat="43.71289" lon="3.46705">
        <ele>417.7</ele>
        <time>2017-03-29T06:50:17Z</time>
      </trkpt>
      <trkpt lat="43.71287" lon="3.46693">
        <ele>418.2</ele>
        <time>2017-03-29T06:50:21Z</time>
      </trkpt>
      <trkpt lat="43.71287" lon="3.46682">
        <ele>418.7</ele>
        <time>2017-03-29T06:50:25Z</time>
      </trkpt>
      <trkpt lat="43.71287" lon="3.46672">
        <ele>419.1</ele>
        <time>2017-03-29T06:50:29Z</time>
      </trkpt>
      <trkpt lat="43.71284" lon="3.46661">
        <ele>419.5</ele>
        <time>2017-03-29T06:50:33Z</time>
      </trkpt>
      <trkpt lat="43.71279" lon="3.46654">
        <ele>419.9</ele>
        <time>2017-03-29T06:50:36Z</time>
      </trkpt>
      <trkpt lat="43.71272" lon="3.46649">
        <ele>420.2</ele>
        <time>2017-03-29T06:50:40Z</time>
      </trkpt>
      <trkpt lat="43.71263" lon="3.46646">
        <ele>420.5</ele>
        <time>2017-03-29T06:50:44Z</time>
      </trkpt>
      <trkpt lat="43.71256" lon="3.46642">
        <ele>420.8</ele>
        <time>2017-03-29T06:50:47Z</time>
      </trkpt>
      <trkpt lat="43.71249" lon="3.46637">
        <ele>420.9</ele>
        <time>2017-03-29T06:50:50Z</time>
      </trkpt>
      <trkpt lat="43.71244" lon="3.46629">
        <ele>421.1</ele>
        <time>2017-03-29T06:50:53Z</time>
      </trkpt>
      <trkpt lat="43.7124" lon="3.46618">
        <ele>421.4</ele>
        <time>2017-03-29T06:50:56Z</time>
      </trkpt>
      <trkpt lat="43.71241" lon="3.46607">
        <ele>421.6</ele>
        <time>2017-03-29T06:50:59Z</time>
      </trkpt>
      <trkpt lat="43.71242" lon="3.46595">
        <ele>421.9</ele>
        <time>2017-03-29T06:51:02Z</time>
      </trkpt>
      <trkpt lat="43.71244" lon="3.46585">
        <ele>422.2</ele>
        <time>2017-03-29T06:51:05Z</time>
      </trkpt>
      <trkpt lat="43.71249" lon="3.46576">
        <ele>422.7</ele>
        <time>2017-03-29T06:51:09Z</time>
      </trkpt>
      <trkpt lat="43.71255" lon="3.46568">
        <ele>422.9</ele>
        <time>2017-03-29T06:51:13Z</time>
      </trkpt>
      <trkpt lat="43.71263" lon="3.46565">
        <ele>423.2</ele>
        <time>2017-03-29T06:51:17Z</time>
      </trkpt>
      <trkpt lat="43.71271" lon="3.46563">
        <ele>423.4</ele>
        <time>2017-03-29T06:51:20Z</time>
      </trkpt>
      <trkpt lat="43.71279" lon="3.46562">
        <ele>423.3</ele>
        <time>2017-03-29T06:51:23Z</time>
      </trkpt>
      <trkpt lat="43.71287" lon="3.46561">
        <ele>423.4</ele>
        <time>2017-03-29T06:51:26Z</time>
      </trkpt>
      <trkpt lat="43.71296" lon="3.46559">
        <ele>423.5</ele>
        <time>2017-03-29T06:51:29Z</time>
      </trkpt>
      <trkpt lat="43.71305" lon="3.46558">
        <ele>423.7</ele>
        <time>2017-03-29T06:51:32Z</time>
      </trkpt>
      <trkpt lat="43.71313" lon="3.46556">
        <ele>423.7</ele>
        <time>2017-03-29T06:51:35Z</time>
      </trkpt>
      <trkpt lat="43.71323" lon="3.46555">
        <ele>423.8</ele>
        <time>2017-03-29T06:51:38Z</time>
      </trkpt>
      <trkpt lat="43.71334" lon="3.46554">
        <ele>423.8</ele>
        <time>2017-03-29T06:51:41Z</time>
      </trkpt>
      <trkpt lat="43.71344" lon="3.46557">
        <ele>423.9</ele>
        <time>2017-03-29T06:51:44Z</time>
      </trkpt>
      <trkpt lat="43.71352" lon="3.46559">
        <ele>424</ele>
        <time>2017-03-29T06:51:46Z</time>
      </trkpt>
      <trkpt lat="43.71362" lon="3.46559">
        <ele>424.2</ele>
        <time>2017-03-29T06:51:49Z</time>
      </trkpt>
      <trkpt lat="43.71369" lon="3.46557">
        <ele>424.4</ele>
        <time>2017-03-29T06:51:51Z</time>
      </trkpt>
      <trkpt lat="43.71377" lon="3.46556">
        <ele>424.4</ele>
        <time>2017-03-29T06:51:53Z</time>
      </trkpt>
      <trkpt lat="43.71387" lon="3.46553">
        <ele>424.5</ele>
        <time>2017-03-29T06:51:56Z</time>
      </trkpt>
      <trkpt lat="43.71396" lon="3.4655">
        <ele>424.5</ele>
        <time>2017-03-29T06:51:59Z</time>
      </trkpt>
      <trkpt lat="43.71405" lon="3.46548">
        <ele>424.6</ele>
        <time>2017-03-29T06:52:02Z</time>
      </trkpt>
      <trkpt lat="43.71415" lon="3.46545">
        <ele>424.6</ele>
        <time>2017-03-29T06:52:05Z</time>
      </trkpt>
      <trkpt lat="43.71423" lon="3.46542">
        <ele>424.8</ele>
        <time>2017-03-29T06:52:08Z</time>
      </trkpt>
      <trkpt lat="43.71433" lon="3.4654">
        <ele>425</ele>
        <time>2017-03-29T06:52:11Z</time>
      </trkpt>
      <trkpt lat="43.7144" lon="3.46537">
        <ele>425.1</ele>
        <time>2017-03-29T06:52:13Z</time>
      </trkpt>
      <trkpt lat="43.71448" lon="3.46535">
        <ele>425.1</ele>
        <time>2017-03-29T06:52:15Z</time>
      </trkpt>
      <trkpt lat="43.71457" lon="3.46532">
        <ele>425.1</ele>
        <time>2017-03-29T06:52:18Z</time>
      </trkpt>
      <trkpt lat="43.71466" lon="3.4653">
        <ele>425.3</ele>
        <time>2017-03-29T06:52:21Z</time>
      </trkpt>
      <trkpt lat="43.71473" lon="3.46526">
        <ele>425.4</ele>
        <time>2017-03-29T06:52:23Z</time>
      </trkpt>
      <trkpt lat="43.71482" lon="3.4652">
        <ele>425.5</ele>
        <time>2017-03-29T06:52:26Z</time>
      </trkpt>
      <trkpt lat="43.71489" lon="3.46511">
        <ele>425.5</ele>
        <time>2017-03-29T06:52:29Z</time>
      </trkpt>
      <trkpt lat="43.71493" lon="3.46503">
        <ele>425.6</ele>
        <time>2017-03-29T06:52:31Z</time>
      </trkpt>
      <trkpt lat="43.71499" lon="3.46493">
        <ele>425.7</ele>
        <time>2017-03-29T06:52:34Z</time>
      </trkpt>
      <trkpt lat="43.71504" lon="3.46481">
        <ele>426</ele>
        <time>2017-03-29T06:52:37Z</time>
      </trkpt>
      <trkpt lat="43.71508" lon="3.46472">
        <ele>426.2</ele>
        <time>2017-03-29T06:52:39Z</time>
      </trkpt>
      <trkpt lat="43.71511" lon="3.46461">
        <ele>426.5</ele>
        <time>2017-03-29T06:52:42Z</time>
      </trkpt>
      <trkpt lat="43.71517" lon="3.46448">
        <ele>426.7</ele>
        <time>2017-03-29T06:52:45Z</time>
      </trkpt>
      <trkpt lat="43.71523" lon="3.46436">
        <ele>426.9</ele>
        <time>2017-03-29T06:52:48Z</time>
      </trkpt>
      <trkpt lat="43.71529" lon="3.46429">
        <ele>427</ele>
        <time>2017-03-29T06:52:50Z</time>
      </trkpt>
      <trkpt lat="43.71537" lon="3.4642">
        <ele>427.2</ele>
        <time>2017-03-29T06:52:53Z</time>
      </trkpt>
      <trkpt lat="43.71544" lon="3.46414">
        <ele>427.3</ele>
        <time>2017-03-29T06:52:55Z</time>
      </trkpt>
      <trkpt lat="43.71551" lon="3.4641">
        <ele>427.4</ele>
        <time>2017-03-29T06:52:57Z</time>
      </trkpt>
      <trkpt lat="43.7156" lon="3.46404">
        <ele>427.6</ele>
        <time>2017-03-29T06:53:00Z</time>
      </trkpt>
      <trkpt lat="43.7157" lon="3.46398">
        <ele>427.7</ele>
        <time>2017-03-29T06:53:03Z</time>
      </trkpt>
      <trkpt lat="43.71578" lon="3.46391">
        <ele>427.8</ele>
        <time>2017-03-29T06:53:06Z</time>
      </trkpt>
      <trkpt lat="43.71587" lon="3.46381">
        <ele>427.8</ele>
        <time>2017-03-29T06:53:09Z</time>
      </trkpt>
      <trkpt lat="43.71592" lon="3.46373">
        <ele>427.9</ele>
        <time>2017-03-29T06:53:11Z</time>
      </trkpt>
      <trkpt lat="43.71597" lon="3.46365">
        <ele>428.4</ele>
        <time>2017-03-29T06:53:13Z</time>
      </trkpt>
      <trkpt lat="43.71602" lon="3.46356">
        <ele>429.2</ele>
        <time>2017-03-29T06:53:15Z</time>
      </trkpt>
      <trkpt lat="43.71607" lon="3.46344">
        <ele>429.4</ele>
        <time>2017-03-29T06:53:18Z</time>
      </trkpt>
      <trkpt lat="43.71611" lon="3.46334">
        <ele>429.6</ele>
        <time>2017-03-29T06:53:20Z</time>
      </trkpt>
      <trkpt lat="43.71616" lon="3.46322">
        <ele>429.8</ele>
        <time>2017-03-29T06:53:23Z</time>
      </trkpt>
      <trkpt lat="43.71622" lon="3.46312">
        <ele>429.9</ele>
        <time>2017-03-29T06:53:26Z</time>
      </trkpt>
      <trkpt lat="43.71627" lon="3.46303">
        <ele>430</ele>
        <time>2017-03-29T06:53:28Z</time>
      </trkpt>
      <trkpt lat="43.71632" lon="3.46295">
        <ele>430.1</ele>
        <time>2017-03-29T06:53:30Z</time>
      </trkpt>
      <trkpt lat="43.71637" lon="3.46283">
        <ele>430.3</ele>
        <time>2017-03-29T06:53:33Z</time>
      </trkpt>
      <trkpt lat="43.71641" lon="3.46269">
        <ele>430.5</ele>
        <time>2017-03-29T06:53:36Z</time>
      </trkpt>
      <trkpt lat="43.71644" lon="3.46257">
        <ele>430.6</ele>
        <time>2017-03-29T06:53:39Z</time>
      </trkpt>
      <trkpt lat="43.71647" lon="3.46242">
        <ele>430.7</ele>
        <time>2017-03-29T06:53:42Z</time>
      </trkpt>
      <trkpt lat="43.71649" lon="3.4623">
        <ele>430.9</ele>
        <time>2017-03-29T06:53:45Z</time>
      </trkpt>
      <trkpt lat="43.71649" lon="3.46221">
        <ele>430.9</ele>
        <time>2017-03-29T06:53:47Z</time>
      </trkpt>
      <trkpt lat="43.71651" lon="3.46209">
        <ele>431.9</ele>
        <time>2017-03-29T06:53:49Z</time>
      </trkpt>
      <trkpt lat="43.71655" lon="3.46196">
        <ele>432.1</ele>
        <time>2017-03-29T06:53:52Z</time>
      </trkpt>
      <trkpt lat="43.71658" lon="3.46187">
        <ele>432.1</ele>
        <time>2017-03-29T06:53:54Z</time>
      </trkpt>
      <trkpt lat="43.71663" lon="3.46177">
        <ele>432.6</ele>
        <time>2017-03-29T06:53:56Z</time>
      </trkpt>
      <trkpt lat="43.71669" lon="3.46165">
        <ele>432.7</ele>
        <time>2017-03-29T06:53:59Z</time>
      </trkpt>
      <trkpt lat="43.71674" lon="3.46156">
        <ele>433.2</ele>
        <time>2017-03-29T06:54:01Z</time>
      </trkpt>
      <trkpt lat="43.7168" lon="3.46146">
        <ele>433.2</ele>
        <time>2017-03-29T06:54:04Z</time>
      </trkpt>
      <trkpt lat="43.71686" lon="3.46138">
        <ele>433.2</ele>
        <time>2017-03-29T06:54:06Z</time>
      </trkpt>
      <trkpt lat="43.71691" lon="3.4613">
        <ele>433.3</ele>
        <time>2017-03-29T06:54:08Z</time>
      </trkpt>
      <trkpt lat="43.71698" lon="3.4612">
        <ele>433.5</ele>
        <time>2017-03-29T06:54:10Z</time>
      </trkpt>
      <trkpt lat="43.71702" lon="3.46109">
        <ele>433.7</ele>
        <time>2017-03-29T06:54:12Z</time>
      </trkpt>
      <trkpt lat="43.71707" lon="3.46096">
        <ele>434</ele>
        <time>2017-03-29T06:54:15Z</time>
      </trkpt>
      <trkpt lat="43.71711" lon="3.46085">
        <ele>434.2</ele>
        <time>2017-03-29T06:54:17Z</time>
      </trkpt>
      <trkpt lat="43.71713" lon="3.46071">
        <ele>434.5</ele>
        <time>2017-03-29T06:54:20Z</time>
      </trkpt>
      <trkpt lat="43.71717" lon="3.46057">
        <ele>434.8</ele>
        <time>2017-03-29T06:54:23Z</time>
      </trkpt>
      <trkpt lat="43.71721" lon="3.46044">
        <ele>435</ele>
        <time>2017-03-29T06:54:26Z</time>
      </trkpt>
      <trkpt lat="43.71726" lon="3.46033">
        <ele>435.3</ele>
        <time>2017-03-29T06:54:29Z</time>
      </trkpt>
      <trkpt lat="43.71733" lon="3.46023">
        <ele>435.5</ele>
        <time>2017-03-29T06:54:32Z</time>
      </trkpt>
      <trkpt lat="43.71741" lon="3.46014">
        <ele>435.8</ele>
        <time>2017-03-29T06:54:35Z</time>
      </trkpt>
      <trkpt lat="43.71748" lon="3.46006">
        <ele>436</ele>
        <time>2017-03-29T06:54:37Z</time>
      </trkpt>
      <trkpt lat="43.71753" lon="3.45998">
        <ele>436</ele>
        <time>2017-03-29T06:54:39Z</time>
      </trkpt>
      <trkpt lat="43.71758" lon="3.45988">
        <ele>436.1</ele>
        <time>2017-03-29T06:54:41Z</time>
      </trkpt>
      <trkpt lat="43.71762" lon="3.45979">
        <ele>436.2</ele>
        <time>2017-03-29T06:54:43Z</time>
      </trkpt>
      <trkpt lat="43.71768" lon="3.45967">
        <ele>436.3</ele>
        <time>2017-03-29T06:54:46Z</time>
      </trkpt>
      <trkpt lat="43.71774" lon="3.45955">
        <ele>436.3</ele>
        <time>2017-03-29T06:54:49Z</time>
      </trkpt>
      <trkpt lat="43.71783" lon="3.45954">
        <ele>436.3</ele>
        <time>2017-03-29T06:54:52Z</time>
      </trkpt>
      <trkpt lat="43.71791" lon="3.45954">
        <ele>435.9</ele>
        <time>2017-03-29T06:54:54Z</time>
      </trkpt>
      <trkpt lat="43.71801" lon="3.45955">
        <ele>436</ele>
        <time>2017-03-29T06:54:57Z</time>
      </trkpt>
      <trkpt lat="43.71812" lon="3.45951">
        <ele>436.2</ele>
        <time>2017-03-29T06:55:00Z</time>
      </trkpt>
      <trkpt lat="43.7182" lon="3.45947">
        <ele>436.4</ele>
        <time>2017-03-29T06:55:03Z</time>
      </trkpt>
      <trkpt lat="43.71827" lon="3.45945">
        <ele>436.5</ele>
        <time>2017-03-29T06:55:05Z</time>
      </trkpt>
      <trkpt lat="43.71836" lon="3.45939">
        <ele>436.6</ele>
        <time>2017-03-29T06:55:08Z</time>
      </trkpt>
      <trkpt lat="43.71844" lon="3.45933">
        <ele>436.7</ele>
        <time>2017-03-29T06:55:11Z</time>
      </trkpt>
      <trkpt lat="43.71852" lon="3.45925">
        <ele>436.8</ele>
        <time>2017-03-29T06:55:14Z</time>
      </trkpt>
      <trkpt lat="43.71859" lon="3.45917">
        <ele>437.1</ele>
        <time>2017-03-29T06:55:17Z</time>
      </trkpt>
      <trkpt lat="43.71865" lon="3.45908">
        <ele>437.4</ele>
        <time>2017-03-29T06:55:20Z</time>
      </trkpt>
      <trkpt lat="43.71873" lon="3.45901">
        <ele>437.6</ele>
        <time>2017-03-29T06:55:23Z</time>
      </trkpt>
      <trkpt lat="43.7188" lon="3.45896">
        <ele>437.7</ele>
        <time>2017-03-29T06:55:25Z</time>
      </trkpt>
      <trkpt lat="43.71887" lon="3.45893">
        <ele>437.8</ele>
        <time>2017-03-29T06:55:27Z</time>
      </trkpt>
      <trkpt lat="43.71898" lon="3.45887">
        <ele>437.8</ele>
        <time>2017-03-29T06:55:30Z</time>
      </trkpt>
      <trkpt lat="43.71906" lon="3.45881">
        <ele>438</ele>
        <time>2017-03-29T06:55:33Z</time>
      </trkpt>
      <trkpt lat="43.71915" lon="3.45876">
        <ele>438.1</ele>
        <time>2017-03-29T06:55:36Z</time>
      </trkpt>
      <trkpt lat="43.71922" lon="3.45874">
        <ele>438.3</ele>
        <time>2017-03-29T06:55:38Z</time>
      </trkpt>
      <trkpt lat="43.71931" lon="3.45873">
        <ele>438.4</ele>
        <time>2017-03-29T06:55:40Z</time>
      </trkpt>
      <trkpt lat="43.71938" lon="3.45874">
        <ele>438.4</ele>
        <time>2017-03-29T06:55:42Z</time>
      </trkpt>
      <trkpt lat="43.71947" lon="3.45883">
        <ele>438.7</ele>
        <time>2017-03-29T06:55:45Z</time>
      </trkpt>
      <trkpt lat="43.71954" lon="3.45891">
        <ele>439.1</ele>
        <time>2017-03-29T06:55:48Z</time>
      </trkpt>
      <trkpt lat="43.71962" lon="3.459">
        <ele>439.4</ele>
        <time>2017-03-29T06:55:51Z</time>
      </trkpt>
      <trkpt lat="43.7197" lon="3.45908">
        <ele>439.6</ele>
        <time>2017-03-29T06:55:54Z</time>
      </trkpt>
      <trkpt lat="43.71978" lon="3.45916">
        <ele>440</ele>
        <time>2017-03-29T06:55:57Z</time>
      </trkpt>
      <trkpt lat="43.71985" lon="3.45921">
        <ele>440.2</ele>
        <time>2017-03-29T06:55:59Z</time>
      </trkpt>
      <trkpt lat="43.71992" lon="3.45929">
        <ele>440.5</ele>
        <time>2017-03-29T06:56:02Z</time>
      </trkpt>
      <trkpt lat="43.71999" lon="3.45934">
        <ele>440.6</ele>
        <time>2017-03-29T06:56:04Z</time>
      </trkpt>
      <trkpt lat="43.72007" lon="3.45942">
        <ele>440.8</ele>
        <time>2017-03-29T06:56:07Z</time>
      </trkpt>
      <trkpt lat="43.72013" lon="3.45952">
        <ele>440.9</ele>
        <time>2017-03-29T06:56:10Z</time>
      </trkpt>
      <trkpt lat="43.7202" lon="3.45963">
        <ele>441.1</ele>
        <time>2017-03-29T06:56:13Z</time>
      </trkpt>
      <trkpt lat="43.72027" lon="3.45968">
        <ele>441.2</ele>
        <time>2017-03-29T06:56:15Z</time>
      </trkpt>
      <trkpt lat="43.72034" lon="3.45968">
        <ele>441.4</ele>
        <time>2017-03-29T06:56:18Z</time>
      </trkpt>
      <trkpt lat="43.72044" lon="3.45964">
        <ele>441.5</ele>
        <time>2017-03-29T06:56:21Z</time>
      </trkpt>
      <trkpt lat="43.72052" lon="3.45962">
        <ele>441.6</ele>
        <time>2017-03-29T06:56:23Z</time>
      </trkpt>
      <trkpt lat="43.72061" lon="3.45956">
        <ele>441.2</ele>
        <time>2017-03-29T06:56:25Z</time>
      </trkpt>
      <trkpt lat="43.72071" lon="3.45945">
        <ele>440.2</ele>
        <time>2017-03-29T06:56:27Z</time>
      </trkpt>
      <trkpt lat="43.72084" lon="3.45935">
        <ele>438.8</ele>
        <time>2017-03-29T06:56:29Z</time>
      </trkpt>
      <trkpt lat="43.72092" lon="3.45928">
        <ele>437.9</ele>
        <time>2017-03-29T06:56:30Z</time>
      </trkpt>
      <trkpt lat="43.72099" lon="3.45921">
        <ele>437.2</ele>
        <time>2017-03-29T06:56:31Z</time>
      </trkpt>
      <trkpt lat="43.72106" lon="3.45915">
        <ele>436.4</ele>
        <time>2017-03-29T06:56:32Z</time>
      </trkpt>
      <trkpt lat="43.72112" lon="3.4591">
        <ele>435.6</ele>
        <time>2017-03-29T06:56:33Z</time>
      </trkpt>
      <trkpt lat="43.72123" lon="3.45903">
        <ele>433.8</ele>
        <time>2017-03-29T06:56:35Z</time>
      </trkpt>
      <trkpt lat="43.72135" lon="3.45896">
        <ele>432.2</ele>
        <time>2017-03-29T06:56:37Z</time>
      </trkpt>
      <trkpt lat="43.72142" lon="3.45894">
        <ele>431.6</ele>
        <time>2017-03-29T06:56:38Z</time>
      </trkpt>
      <trkpt lat="43.7215" lon="3.4589">
        <ele>431.4</ele>
        <time>2017-03-29T06:56:39Z</time>
      </trkpt>
      <trkpt lat="43.72157" lon="3.45887">
        <ele>430.9</ele>
        <time>2017-03-29T06:56:40Z</time>
      </trkpt>
      <trkpt lat="43.72164" lon="3.45884">
        <ele>430.3</ele>
        <time>2017-03-29T06:56:41Z</time>
      </trkpt>
      <trkpt lat="43.72172" lon="3.45879">
        <ele>429.4</ele>
        <time>2017-03-29T06:56:42Z</time>
      </trkpt>
      <trkpt lat="43.72185" lon="3.45871">
        <ele>428.4</ele>
        <time>2017-03-29T06:56:44Z</time>
      </trkpt>
      <trkpt lat="43.72192" lon="3.45865">
        <ele>427.7</ele>
        <time>2017-03-29T06:56:45Z</time>
      </trkpt>
      <trkpt lat="43.722" lon="3.4586">
        <ele>427.1</ele>
        <time>2017-03-29T06:56:46Z</time>
      </trkpt>
      <trkpt lat="43.72208" lon="3.45854">
        <ele>426.9</ele>
        <time>2017-03-29T06:56:47Z</time>
      </trkpt>
      <trkpt lat="43.72215" lon="3.45849">
        <ele>426.4</ele>
        <time>2017-03-29T06:56:48Z</time>
      </trkpt>
      <trkpt lat="43.72223" lon="3.45843">
        <ele>426</ele>
        <time>2017-03-29T06:56:49Z</time>
      </trkpt>
      <trkpt lat="43.72231" lon="3.45839">
        <ele>425.6</ele>
        <time>2017-03-29T06:56:50Z</time>
      </trkpt>
      <trkpt lat="43.72239" lon="3.45835">
        <ele>425</ele>
        <time>2017-03-29T06:56:51Z</time>
      </trkpt>
      <trkpt lat="43.72248" lon="3.45831">
        <ele>424.6</ele>
        <time>2017-03-29T06:56:52Z</time>
      </trkpt>
      <trkpt lat="43.72258" lon="3.45829">
        <ele>423.8</ele>
        <time>2017-03-29T06:56:53Z</time>
      </trkpt>
      <trkpt lat="43.72265" lon="3.45827">
        <ele>422.8</ele>
        <time>2017-03-29T06:56:54Z</time>
      </trkpt>
      <trkpt lat="43.72275" lon="3.45825">
        <ele>422.7</ele>
        <time>2017-03-29T06:56:55Z</time>
      </trkpt>
      <trkpt lat="43.72284" lon="3.45823">
        <ele>422.4</ele>
        <time>2017-03-29T06:56:56Z</time>
      </trkpt>
      <trkpt lat="43.72292" lon="3.45821">
        <ele>421.6</ele>
        <time>2017-03-29T06:56:57Z</time>
      </trkpt>
      <trkpt lat="43.723" lon="3.45818">
        <ele>421.1</ele>
        <time>2017-03-29T06:56:58Z</time>
      </trkpt>
      <trkpt lat="43.72312" lon="3.45814">
        <ele>421.4</ele>
        <time>2017-03-29T06:57:00Z</time>
      </trkpt>
      <trkpt lat="43.72322" lon="3.45811">
        <ele>421</ele>
        <time>2017-03-29T06:57:02Z</time>
      </trkpt>
      <trkpt lat="43.72331" lon="3.45809">
        <ele>420.7</ele>
        <time>2017-03-29T06:57:04Z</time>
      </trkpt>
      <trkpt lat="43.72343" lon="3.45808">
        <ele>420.2</ele>
        <time>2017-03-29T06:57:06Z</time>
      </trkpt>
      <trkpt lat="43.72355" lon="3.45803">
        <ele>419.5</ele>
        <time>2017-03-29T06:57:08Z</time>
      </trkpt>
      <trkpt lat="43.72362" lon="3.45799">
        <ele>419.1</ele>
        <time>2017-03-29T06:57:09Z</time>
      </trkpt>
      <trkpt lat="43.72369" lon="3.45794">
        <ele>418.8</ele>
        <time>2017-03-29T06:57:10Z</time>
      </trkpt>
      <trkpt lat="43.72379" lon="3.45785">
        <ele>417.8</ele>
        <time>2017-03-29T06:57:12Z</time>
      </trkpt>
      <trkpt lat="43.72388" lon="3.45776">
        <ele>417.4</ele>
        <time>2017-03-29T06:57:14Z</time>
      </trkpt>
      <trkpt lat="43.72397" lon="3.45766">
        <ele>417.3</ele>
        <time>2017-03-29T06:57:17Z</time>
      </trkpt>
      <trkpt lat="43.724" lon="3.45753">
        <ele>417</ele>
        <time>2017-03-29T06:57:19Z</time>
      </trkpt>
      <trkpt lat="43.72402" lon="3.4574">
        <ele>417.1</ele>
        <time>2017-03-29T06:57:21Z</time>
      </trkpt>
      <trkpt lat="43.72403" lon="3.45728">
        <ele>417.1</ele>
        <time>2017-03-29T06:57:23Z</time>
      </trkpt>
      <trkpt lat="43.72408" lon="3.45715">
        <ele>417.1</ele>
        <time>2017-03-29T06:57:25Z</time>
      </trkpt>
      <trkpt lat="43.72414" lon="3.45702">
        <ele>417.2</ele>
        <time>2017-03-29T06:57:27Z</time>
      </trkpt>
      <trkpt lat="43.7242" lon="3.4569">
        <ele>417.2</ele>
        <time>2017-03-29T06:57:29Z</time>
      </trkpt>
      <trkpt lat="43.72426" lon="3.45678">
        <ele>417.5</ele>
        <time>2017-03-29T06:57:31Z</time>
      </trkpt>
      <trkpt lat="43.72432" lon="3.45665">
        <ele>417.8</ele>
        <time>2017-03-29T06:57:33Z</time>
      </trkpt>
      <trkpt lat="43.72438" lon="3.45654">
        <ele>417.1</ele>
        <time>2017-03-29T06:57:35Z</time>
      </trkpt>
      <trkpt lat="43.72443" lon="3.45646">
        <ele>417.1</ele>
        <time>2017-03-29T06:57:37Z</time>
      </trkpt>
      <trkpt lat="43.7245" lon="3.45633">
        <ele>417</ele>
        <time>2017-03-29T06:57:40Z</time>
      </trkpt>
      <trkpt lat="43.72456" lon="3.45621">
        <ele>416.9</ele>
        <time>2017-03-29T06:57:43Z</time>
      </trkpt>
      <trkpt lat="43.72461" lon="3.45609">
        <ele>416.9</ele>
        <time>2017-03-29T06:57:46Z</time>
      </trkpt>
      <trkpt lat="43.72467" lon="3.45599">
        <ele>416.9</ele>
        <time>2017-03-29T06:57:49Z</time>
      </trkpt>
      <trkpt lat="43.72471" lon="3.45588">
        <ele>417</ele>
        <time>2017-03-29T06:57:52Z</time>
      </trkpt>
      <trkpt lat="43.72476" lon="3.45578">
        <ele>417.1</ele>
        <time>2017-03-29T06:57:55Z</time>
      </trkpt>
      <trkpt lat="43.7248" lon="3.45567">
        <ele>417.3</ele>
        <time>2017-03-29T06:57:58Z</time>
      </trkpt>
      <trkpt lat="43.72483" lon="3.45557">
        <ele>417.3</ele>
        <time>2017-03-29T06:58:00Z</time>
      </trkpt>
      <trkpt lat="43.72485" lon="3.45545">
        <ele>417.3</ele>
        <time>2017-03-29T06:58:02Z</time>
      </trkpt>
      <trkpt lat="43.72486" lon="3.45534">
        <ele>417.3</ele>
        <time>2017-03-29T06:58:04Z</time>
      </trkpt>
      <trkpt lat="43.72486" lon="3.45524">
        <ele>417</ele>
        <time>2017-03-29T06:58:06Z</time>
      </trkpt>
      <trkpt lat="43.72487" lon="3.45507">
        <ele>417</ele>
        <time>2017-03-29T06:58:09Z</time>
      </trkpt>
      <trkpt lat="43.72487" lon="3.45494">
        <ele>417.3</ele>
        <time>2017-03-29T06:58:11Z</time>
      </trkpt>
      <trkpt lat="43.72487" lon="3.45482">
        <ele>417.3</ele>
        <time>2017-03-29T06:58:13Z</time>
      </trkpt>
      <trkpt lat="43.72487" lon="3.45467">
        <ele>417.6</ele>
        <time>2017-03-29T06:58:16Z</time>
      </trkpt>
      <trkpt lat="43.72488" lon="3.45456">
        <ele>417.8</ele>
        <time>2017-03-29T06:58:18Z</time>
      </trkpt>
      <trkpt lat="43.72491" lon="3.45443">
        <ele>418</ele>
        <time>2017-03-29T06:58:21Z</time>
      </trkpt>
      <trkpt lat="43.72493" lon="3.45433">
        <ele>418.1</ele>
        <time>2017-03-29T06:58:23Z</time>
      </trkpt>
      <trkpt lat="43.72495" lon="3.45423">
        <ele>418</ele>
        <time>2017-03-29T06:58:25Z</time>
      </trkpt>
      <trkpt lat="43.72496" lon="3.4541">
        <ele>418.1</ele>
        <time>2017-03-29T06:58:28Z</time>
      </trkpt>
      <trkpt lat="43.72499" lon="3.45398">
        <ele>418.2</ele>
        <time>2017-03-29T06:58:31Z</time>
      </trkpt>
      <trkpt lat="43.72501" lon="3.45383">
        <ele>418.4</ele>
        <time>2017-03-29T06:58:34Z</time>
      </trkpt>
      <trkpt lat="43.72503" lon="3.45372">
        <ele>418.4</ele>
        <time>2017-03-29T06:58:37Z</time>
      </trkpt>
      <trkpt lat="43.72504" lon="3.4536">
        <ele>418.5</ele>
        <time>2017-03-29T06:58:40Z</time>
      </trkpt>
      <trkpt lat="43.72506" lon="3.45347">
        <ele>418.7</ele>
        <time>2017-03-29T06:58:43Z</time>
      </trkpt>
      <trkpt lat="43.72507" lon="3.45335">
        <ele>418.8</ele>
        <time>2017-03-29T06:58:45Z</time>
      </trkpt>
      <trkpt lat="43.72507" lon="3.45325">
        <ele>418.9</ele>
        <time>2017-03-29T06:58:47Z</time>
      </trkpt>
      <trkpt lat="43.72507" lon="3.4531">
        <ele>419.1</ele>
        <time>2017-03-29T06:58:50Z</time>
      </trkpt>
      <trkpt lat="43.72506" lon="3.45298">
        <ele>419.4</ele>
        <time>2017-03-29T06:58:53Z</time>
      </trkpt>
      <trkpt lat="43.72503" lon="3.45286">
        <ele>419.7</ele>
        <time>2017-03-29T06:58:56Z</time>
      </trkpt>
      <trkpt lat="43.72506" lon="3.45272">
        <ele>420</ele>
        <time>2017-03-29T06:58:59Z</time>
      </trkpt>
      <trkpt lat="43.72514" lon="3.45268">
        <ele>420.3</ele>
        <time>2017-03-29T06:59:02Z</time>
      </trkpt>
      <trkpt lat="43.72522" lon="3.45269">
        <ele>420.4</ele>
        <time>2017-03-29T06:59:04Z</time>
      </trkpt>
      <trkpt lat="43.72532" lon="3.45271">
        <ele>420.5</ele>
        <time>2017-03-29T06:59:07Z</time>
      </trkpt>
      <trkpt lat="43.72539" lon="3.45272">
        <ele>420.6</ele>
        <time>2017-03-29T06:59:10Z</time>
      </trkpt>
      <trkpt lat="43.72548" lon="3.45274">
        <ele>420.7</ele>
        <time>2017-03-29T06:59:13Z</time>
      </trkpt>
      <trkpt lat="43.72556" lon="3.45276">
        <ele>421</ele>
        <time>2017-03-29T06:59:16Z</time>
      </trkpt>
      <trkpt lat="43.72564" lon="3.45277">
        <ele>421.2</ele>
        <time>2017-03-29T06:59:19Z</time>
      </trkpt>
      <trkpt lat="43.72572" lon="3.45279">
        <ele>421.6</ele>
        <time>2017-03-29T06:59:22Z</time>
      </trkpt>
      <trkpt lat="43.7258" lon="3.4528">
        <ele>422</ele>
        <time>2017-03-29T06:59:25Z</time>
      </trkpt>
      <trkpt lat="43.72588" lon="3.45281">
        <ele>422.3</ele>
        <time>2017-03-29T06:59:28Z</time>
      </trkpt>
      <trkpt lat="43.72596" lon="3.45282">
        <ele>422.5</ele>
        <time>2017-03-29T06:59:31Z</time>
      </trkpt>
      <trkpt lat="43.72605" lon="3.45284">
        <ele>422.9</ele>
        <time>2017-03-29T06:59:34Z</time>
      </trkpt>
      <trkpt lat="43.72613" lon="3.45285">
        <ele>423.3</ele>
        <time>2017-03-29T06:59:37Z</time>
      </trkpt>
      <trkpt lat="43.72622" lon="3.45285">
        <ele>423.8</ele>
        <time>2017-03-29T06:59:41Z</time>
      </trkpt>
      <trkpt lat="43.72629" lon="3.45286">
        <ele>424.1</ele>
        <time>2017-03-29T06:59:44Z</time>
      </trkpt>
      <trkpt lat="43.72638" lon="3.45288">
        <ele>424.5</ele>
        <time>2017-03-29T06:59:48Z</time>
      </trkpt>
      <trkpt lat="43.72647" lon="3.45289">
        <ele>425.2</ele>
        <time>2017-03-29T06:59:52Z</time>
      </trkpt>
      <trkpt lat="43.72655" lon="3.45287">
        <ele>425.4</ele>
        <time>2017-03-29T06:59:55Z</time>
      </trkpt>
      <trkpt lat="43.72663" lon="3.45285">
        <ele>425.5</ele>
        <time>2017-03-29T06:59:57Z</time>
      </trkpt>
      <trkpt lat="43.72673" lon="3.45282">
        <ele>425.6</ele>
        <time>2017-03-29T07:00:00Z</time>
      </trkpt>
      <trkpt lat="43.72681" lon="3.45279">
        <ele>425.7</ele>
        <time>2017-03-29T07:00:03Z</time>
      </trkpt>
      <trkpt lat="43.72688" lon="3.45276">
        <ele>425.8</ele>
        <time>2017-03-29T07:00:06Z</time>
      </trkpt>
      <trkpt lat="43.72696" lon="3.45273">
        <ele>425.9</ele>
        <time>2017-03-29T07:00:09Z</time>
      </trkpt>
      <trkpt lat="43.72704" lon="3.45271">
        <ele>426</ele>
        <time>2017-03-29T07:00:12Z</time>
      </trkpt>
      <trkpt lat="43.72712" lon="3.45268">
        <ele>426.1</ele>
        <time>2017-03-29T07:00:15Z</time>
      </trkpt>
      <trkpt lat="43.72721" lon="3.45265">
        <ele>426.1</ele>
        <time>2017-03-29T07:00:18Z</time>
      </trkpt>
      <trkpt lat="43.7273" lon="3.45262">
        <ele>426.4</ele>
        <time>2017-03-29T07:00:21Z</time>
      </trkpt>
      <trkpt lat="43.72738" lon="3.45259">
        <ele>426.6</ele>
        <time>2017-03-29T07:00:24Z</time>
      </trkpt>
      <trkpt lat="43.72746" lon="3.45256">
        <ele>426.8</ele>
        <time>2017-03-29T07:00:27Z</time>
      </trkpt>
      <trkpt lat="43.72754" lon="3.45255">
        <ele>427</ele>
        <time>2017-03-29T07:00:30Z</time>
      </trkpt>
      <trkpt lat="43.72764" lon="3.45255">
        <ele>427.1</ele>
        <time>2017-03-29T07:00:33Z</time>
      </trkpt>
      <trkpt lat="43.72773" lon="3.45256">
        <ele>427.3</ele>
        <time>2017-03-29T07:00:36Z</time>
      </trkpt>
      <trkpt lat="43.72782" lon="3.45256">
        <ele>427.6</ele>
        <time>2017-03-29T07:00:39Z</time>
      </trkpt>
      <trkpt lat="43.72792" lon="3.45256">
        <ele>428</ele>
        <time>2017-03-29T07:00:43Z</time>
      </trkpt>
      <trkpt lat="43.728" lon="3.45256">
        <ele>428.2</ele>
        <time>2017-03-29T07:00:46Z</time>
      </trkpt>
      <trkpt lat="43.72808" lon="3.45254">
        <ele>428.5</ele>
        <time>2017-03-29T07:00:49Z</time>
      </trkpt>
      <trkpt lat="43.72817" lon="3.45255">
        <ele>428.8</ele>
        <time>2017-03-29T07:00:52Z</time>
      </trkpt>
      <trkpt lat="43.72825" lon="3.45255">
        <ele>429</ele>
        <time>2017-03-29T07:00:55Z</time>
      </trkpt>
      <trkpt lat="43.72834" lon="3.45255">
        <ele>429.2</ele>
        <time>2017-03-29T07:00:58Z</time>
      </trkpt>
      <trkpt lat="43.72841" lon="3.45254">
        <ele>429.5</ele>
        <time>2017-03-29T07:01:01Z</time>
      </trkpt>
      <trkpt lat="43.72849" lon="3.45254">
        <ele>429.7</ele>
        <time>2017-03-29T07:01:03Z</time>
      </trkpt>
      <trkpt lat="43.72857" lon="3.45255">
        <ele>429.8</ele>
        <time>2017-03-29T07:01:06Z</time>
      </trkpt>
      <trkpt lat="43.72866" lon="3.45254">
        <ele>429.8</ele>
        <time>2017-03-29T07:01:09Z</time>
      </trkpt>
      <trkpt lat="43.72876" lon="3.45253">
        <ele>430</ele>
        <time>2017-03-29T07:01:12Z</time>
      </trkpt>
      <trkpt lat="43.72883" lon="3.45252">
        <ele>430.1</ele>
        <time>2017-03-29T07:01:15Z</time>
      </trkpt>
      <trkpt lat="43.72891" lon="3.45252">
        <ele>430.4</ele>
        <time>2017-03-29T07:01:18Z</time>
      </trkpt>
      <trkpt lat="43.72898" lon="3.45251">
        <ele>430.7</ele>
        <time>2017-03-29T07:01:21Z</time>
      </trkpt>
      <trkpt lat="43.72908" lon="3.45252">
        <ele>431.2</ele>
        <time>2017-03-29T07:01:25Z</time>
      </trkpt>
      <trkpt lat="43.72918" lon="3.45251">
        <ele>431.7</ele>
        <time>2017-03-29T07:01:28Z</time>
      </trkpt>
      <trkpt lat="43.72928" lon="3.4525">
        <ele>432</ele>
        <time>2017-03-29T07:01:31Z</time>
      </trkpt>
      <trkpt lat="43.72937" lon="3.45247">
        <ele>432.4</ele>
        <time>2017-03-29T07:01:34Z</time>
      </trkpt>
      <trkpt lat="43.72945" lon="3.45245">
        <ele>432.6</ele>
        <time>2017-03-29T07:01:37Z</time>
      </trkpt>
      <trkpt lat="43.72954" lon="3.45242">
        <ele>432.6</ele>
        <time>2017-03-29T07:01:41Z</time>
      </trkpt>
      <trkpt lat="43.72964" lon="3.45237">
        <ele>432.7</ele>
        <time>2017-03-29T07:01:44Z</time>
      </trkpt>
      <trkpt lat="43.72973" lon="3.45231">
        <ele>432.8</ele>
        <time>2017-03-29T07:01:48Z</time>
      </trkpt>
      <trkpt lat="43.7298" lon="3.45227">
        <ele>432.9</ele>
        <time>2017-03-29T07:01:50Z</time>
      </trkpt>
      <trkpt lat="43.72989" lon="3.45223">
        <ele>433.2</ele>
        <time>2017-03-29T07:01:53Z</time>
      </trkpt>
      <trkpt lat="43.72997" lon="3.4522">
        <ele>433.6</ele>
        <time>2017-03-29T07:01:56Z</time>
      </trkpt>
      <trkpt lat="43.73005" lon="3.45216">
        <ele>433.9</ele>
        <time>2017-03-29T07:01:59Z</time>
      </trkpt>
      <trkpt lat="43.73014" lon="3.4521">
        <ele>434.1</ele>
        <time>2017-03-29T07:02:03Z</time>
      </trkpt>
      <trkpt lat="43.73022" lon="3.45206">
        <ele>434.1</ele>
        <time>2017-03-29T07:02:06Z</time>
      </trkpt>
      <trkpt lat="43.73029" lon="3.45202">
        <ele>434.2</ele>
        <time>2017-03-29T07:02:09Z</time>
      </trkpt>
      <trkpt lat="43.73036" lon="3.45198">
        <ele>434.2</ele>
        <time>2017-03-29T07:02:12Z</time>
      </trkpt>
      <trkpt lat="43.73044" lon="3.45194">
        <ele>434.2</ele>
        <time>2017-03-29T07:02:15Z</time>
      </trkpt>
      <trkpt lat="43.73052" lon="3.45193">
        <ele>434.3</ele>
        <time>2017-03-29T07:02:19Z</time>
      </trkpt>
      <trkpt lat="43.7306" lon="3.452">
        <ele>434.7</ele>
        <time>2017-03-29T07:02:23Z</time>
      </trkpt>
      <trkpt lat="43.73065" lon="3.45208">
        <ele>435.3</ele>
        <time>2017-03-29T07:02:27Z</time>
      </trkpt>
      <trkpt lat="43.73071" lon="3.45217">
        <ele>436.2</ele>
        <time>2017-03-29T07:02:31Z</time>
      </trkpt>
      <trkpt lat="43.73076" lon="3.45225">
        <ele>437.2</ele>
        <time>2017-03-29T07:02:35Z</time>
      </trkpt>
      <trkpt lat="43.7308" lon="3.45235">
        <ele>438.1</ele>
        <time>2017-03-29T07:02:39Z</time>
      </trkpt>
      <trkpt lat="43.73085" lon="3.45244">
        <ele>438.9</ele>
        <time>2017-03-29T07:02:43Z</time>
      </trkpt>
      <trkpt lat="43.73091" lon="3.45253">
        <ele>439.5</ele>
        <time>2017-03-29T07:02:47Z</time>
      </trkpt>
      <trkpt lat="43.73097" lon="3.45261">
        <ele>440.1</ele>
        <time>2017-03-29T07:02:51Z</time>
      </trkpt>
      <trkpt lat="43.73103" lon="3.45268">
        <ele>440.7</ele>
        <time>2017-03-29T07:02:55Z</time>
      </trkpt>
      <trkpt lat="43.73109" lon="3.45278">
        <ele>441.5</ele>
        <time>2017-03-29T07:03:00Z</time>
      </trkpt>
      <trkpt lat="43.73114" lon="3.45285">
        <ele>442.3</ele>
        <time>2017-03-29T07:03:04Z</time>
      </trkpt>
      <trkpt lat="43.73118" lon="3.45294">
        <ele>443.3</ele>
        <time>2017-03-29T07:03:09Z</time>
      </trkpt>
      <trkpt lat="43.73121" lon="3.45306">
        <ele>444.2</ele>
        <time>2017-03-29T07:03:13Z</time>
      </trkpt>
      <trkpt lat="43.73119" lon="3.45316">
        <ele>444.9</ele>
        <time>2017-03-29T07:03:17Z</time>
      </trkpt>
      <trkpt lat="43.73117" lon="3.45327">
        <ele>445.7</ele>
        <time>2017-03-29T07:03:22Z</time>
      </trkpt>
      <trkpt lat="43.73113" lon="3.45337">
        <ele>446.5</ele>
        <time>2017-03-29T07:03:26Z</time>
      </trkpt>
      <trkpt lat="43.7311" lon="3.45348">
        <ele>447.2</ele>
        <time>2017-03-29T07:03:30Z</time>
      </trkpt>
      <trkpt lat="43.73116" lon="3.45352">
        <ele>448</ele>
        <time>2017-03-29T07:03:37Z</time>
      </trkpt>
      <trkpt lat="43.7312" lon="3.45341">
        <ele>448.4</ele>
        <time>2017-03-29T07:03:43Z</time>
      </trkpt>
      <trkpt lat="43.73125" lon="3.45332">
        <ele>448.9</ele>
        <time>2017-03-29T07:03:48Z</time>
      </trkpt>
      <trkpt lat="43.73129" lon="3.45323">
        <ele>449.3</ele>
        <time>2017-03-29T07:03:53Z</time>
      </trkpt>
      <trkpt lat="43.73134" lon="3.45313">
        <ele>449.7</ele>
        <time>2017-03-29T07:03:58Z</time>
      </trkpt>
      <trkpt lat="43.73138" lon="3.45304">
        <ele>449.9</ele>
        <time>2017-03-29T07:04:02Z</time>
      </trkpt>
      <trkpt lat="43.73143" lon="3.45297">
        <ele>450.2</ele>
        <time>2017-03-29T07:04:07Z</time>
      </trkpt>
      <trkpt lat="43.73149" lon="3.45288">
        <ele>450.7</ele>
        <time>2017-03-29T07:04:12Z</time>
      </trkpt>
      <trkpt lat="43.73154" lon="3.45281">
        <ele>451.2</ele>
        <time>2017-03-29T07:04:16Z</time>
      </trkpt>
      <trkpt lat="43.7316" lon="3.45275">
        <ele>451.9</ele>
        <time>2017-03-29T07:04:20Z</time>
      </trkpt>
      <trkpt lat="43.73164" lon="3.45264">
        <ele>452.5</ele>
        <time>2017-03-29T07:04:25Z</time>
      </trkpt>
      <trkpt lat="43.73164" lon="3.45253">
        <ele>453.1</ele>
        <time>2017-03-29T07:04:29Z</time>
      </trkpt>
      <trkpt lat="43.73164" lon="3.45242">
        <ele>454</ele>
        <time>2017-03-29T07:04:34Z</time>
      </trkpt>
      <trkpt lat="43.73164" lon="3.45231">
        <ele>454.7</ele>
        <time>2017-03-29T07:04:38Z</time>
      </trkpt>
      <trkpt lat="43.73164" lon="3.45219">
        <ele>455.7</ele>
        <time>2017-03-29T07:04:43Z</time>
      </trkpt>
      <trkpt lat="43.73166" lon="3.45208">
        <ele>456.4</ele>
        <time>2017-03-29T07:04:47Z</time>
      </trkpt>
      <trkpt lat="43.73172" lon="3.45198">
        <ele>457.3</ele>
        <time>2017-03-29T07:04:52Z</time>
      </trkpt>
      <trkpt lat="43.73179" lon="3.45192">
        <ele>458.3</ele>
        <time>2017-03-29T07:04:57Z</time>
      </trkpt>
      <trkpt lat="43.73187" lon="3.45188">
        <ele>458.9</ele>
        <time>2017-03-29T07:05:01Z</time>
      </trkpt>
      <trkpt lat="43.73194" lon="3.45184">
        <ele>459.8</ele>
        <time>2017-03-29T07:05:06Z</time>
      </trkpt>
      <trkpt lat="43.73202" lon="3.45183">
        <ele>461.1</ele>
        <time>2017-03-29T07:05:12Z</time>
      </trkpt>
      <trkpt lat="43.73209" lon="3.45188">
        <ele>462.7</ele>
        <time>2017-03-29T07:05:17Z</time>
      </trkpt>
      <trkpt lat="43.73216" lon="3.4519">
        <ele>463.8</ele>
        <time>2017-03-29T07:05:21Z</time>
      </trkpt>
      <trkpt lat="43.73224" lon="3.4519">
        <ele>464.5</ele>
        <time>2017-03-29T07:05:25Z</time>
      </trkpt>
      <trkpt lat="43.73231" lon="3.45185">
        <ele>465.5</ele>
        <time>2017-03-29T07:05:29Z</time>
      </trkpt>
      <trkpt lat="43.73235" lon="3.45175">
        <ele>466.1</ele>
        <time>2017-03-29T07:05:33Z</time>
      </trkpt>
      <trkpt lat="43.73238" lon="3.45164">
        <ele>467</ele>
        <time>2017-03-29T07:05:38Z</time>
      </trkpt>
      <trkpt lat="43.73244" lon="3.45155">
        <ele>467.6</ele>
        <time>2017-03-29T07:05:42Z</time>
      </trkpt>
      <trkpt lat="43.73248" lon="3.45146">
        <ele>468.2</ele>
        <time>2017-03-29T07:05:45Z</time>
      </trkpt>
      <trkpt lat="43.73249" lon="3.45135">
        <ele>469</ele>
        <time>2017-03-29T07:05:49Z</time>
      </trkpt>
      <trkpt lat="43.73251" lon="3.45124">
        <ele>470</ele>
        <time>2017-03-29T07:05:53Z</time>
      </trkpt>
      <trkpt lat="43.73251" lon="3.45113">
        <ele>471.1</ele>
        <time>2017-03-29T07:05:57Z</time>
      </trkpt>
      <trkpt lat="43.73251" lon="3.45103">
        <ele>472.2</ele>
        <time>2017-03-29T07:06:01Z</time>
      </trkpt>
      <trkpt lat="43.73249" lon="3.4509">
        <ele>473.1</ele>
        <time>2017-03-29T07:06:05Z</time>
      </trkpt>
      <trkpt lat="43.73247" lon="3.45079">
        <ele>473.9</ele>
        <time>2017-03-29T07:06:09Z</time>
      </trkpt>
      <trkpt lat="43.73244" lon="3.45069">
        <ele>474.6</ele>
        <time>2017-03-29T07:06:13Z</time>
      </trkpt>
      <trkpt lat="43.73243" lon="3.45059">
        <ele>474.9</ele>
        <time>2017-03-29T07:06:16Z</time>
      </trkpt>
      <trkpt lat="43.73241" lon="3.45048">
        <ele>475.4</ele>
        <time>2017-03-29T07:06:20Z</time>
      </trkpt>
      <trkpt lat="43.73238" lon="3.45037">
        <ele>476</ele>
        <time>2017-03-29T07:06:24Z</time>
      </trkpt>
      <trkpt lat="43.73236" lon="3.45024">
        <ele>476.4</ele>
        <time>2017-03-29T07:06:28Z</time>
      </trkpt>
      <trkpt lat="43.73235" lon="3.45013">
        <ele>477</ele>
        <time>2017-03-29T07:06:32Z</time>
      </trkpt>
      <trkpt lat="43.7323" lon="3.45004">
        <ele>477.6</ele>
        <time>2017-03-29T07:06:36Z</time>
      </trkpt>
      <trkpt lat="43.73223" lon="3.44995">
        <ele>478.3</ele>
        <time>2017-03-29T07:06:40Z</time>
      </trkpt>
      <trkpt lat="43.73219" lon="3.44986">
        <ele>479</ele>
        <time>2017-03-29T07:06:43Z</time>
      </trkpt>
      <trkpt lat="43.73214" lon="3.44977">
        <ele>480</ele>
        <time>2017-03-29T07:06:47Z</time>
      </trkpt>
      <trkpt lat="43.73208" lon="3.44968">
        <ele>480.8</ele>
        <time>2017-03-29T07:06:51Z</time>
      </trkpt>
      <trkpt lat="43.73203" lon="3.4496">
        <ele>481.6</ele>
        <time>2017-03-29T07:06:55Z</time>
      </trkpt>
      <trkpt lat="43.73196" lon="3.44953">
        <ele>482.3</ele>
        <time>2017-03-29T07:06:59Z</time>
      </trkpt>
      <trkpt lat="43.73192" lon="3.44944">
        <ele>483</ele>
        <time>2017-03-29T07:07:03Z</time>
      </trkpt>
      <trkpt lat="43.73186" lon="3.44937">
        <ele>483.7</ele>
        <time>2017-03-29T07:07:07Z</time>
      </trkpt>
      <trkpt lat="43.73177" lon="3.44933">
        <ele>484.5</ele>
        <time>2017-03-29T07:07:12Z</time>
      </trkpt>
      <trkpt lat="43.73169" lon="3.44929">
        <ele>485.2</ele>
        <time>2017-03-29T07:07:16Z</time>
      </trkpt>
      <trkpt lat="43.73163" lon="3.44924">
        <ele>485.7</ele>
        <time>2017-03-29T07:07:19Z</time>
      </trkpt>
      <trkpt lat="43.73155" lon="3.44918">
        <ele>486.5</ele>
        <time>2017-03-29T07:07:23Z</time>
      </trkpt>
      <trkpt lat="43.73149" lon="3.44911">
        <ele>487.1</ele>
        <time>2017-03-29T07:07:27Z</time>
      </trkpt>
      <trkpt lat="43.73146" lon="3.44899">
        <ele>487.9</ele>
        <time>2017-03-29T07:07:32Z</time>
      </trkpt>
      <trkpt lat="43.73143" lon="3.44889">
        <ele>488.4</ele>
        <time>2017-03-29T07:07:36Z</time>
      </trkpt>
      <trkpt lat="43.73142" lon="3.44878">
        <ele>489.3</ele>
        <time>2017-03-29T07:07:42Z</time>
      </trkpt>
      <trkpt lat="43.73143" lon="3.4487">
        <ele>490.5</ele>
        <time>2017-03-29T07:07:49Z</time>
      </trkpt>
      <trkpt lat="43.73151" lon="3.44873">
        <ele>491.1</ele>
        <time>2017-03-29T07:07:52Z</time>
      </trkpt>
      <trkpt lat="43.7315" lon="3.44865">
        <ele>492.1</ele>
        <time>2017-03-29T07:07:59Z</time>
      </trkpt>
      <trkpt lat="43.73143" lon="3.44869">
        <ele>492.9</ele>
        <time>2017-03-29T07:08:06Z</time>
      </trkpt>
      <trkpt lat="43.73147" lon="3.4487">
        <ele>493.6</ele>
        <time>2017-03-29T07:08:13Z</time>
      </trkpt>
      <trkpt lat="43.73149" lon="3.44864">
        <ele>494.1</ele>
        <time>2017-03-29T07:08:20Z</time>
      </trkpt>
      <trkpt lat="43.73147" lon="3.4487">
        <ele>494.4</ele>
        <time>2017-03-29T07:08:27Z</time>
      </trkpt>
      <trkpt lat="43.73147" lon="3.44867">
        <ele>494.9</ele>
        <time>2017-03-29T07:08:34Z</time>
      </trkpt>
      <trkpt lat="43.73153" lon="3.44865">
        <ele>495.4</ele>
        <time>2017-03-29T07:08:41Z</time>
      </trkpt>
      <trkpt lat="43.73146" lon="3.44867">
        <ele>495.8</ele>
        <time>2017-03-29T07:08:48Z</time>
      </trkpt>
      <trkpt lat="43.7315" lon="3.44873">
        <ele>496</ele>
        <time>2017-03-29T07:08:55Z</time>
      </trkpt>
      <trkpt lat="43.73145" lon="3.44865">
        <ele>496.1</ele>
        <time>2017-03-29T07:09:00Z</time>
      </trkpt>
      <trkpt lat="43.73149" lon="3.44866">
        <ele>496.6</ele>
        <time>2017-03-29T07:09:07Z</time>
      </trkpt>
      <trkpt lat="43.73143" lon="3.44868">
        <ele>497.2</ele>
        <time>2017-03-29T07:09:14Z</time>
      </trkpt>
      <trkpt lat="43.73135" lon="3.44871">
        <ele>497.5</ele>
        <time>2017-03-29T07:09:19Z</time>
      </trkpt>
      <trkpt lat="43.73128" lon="3.44874">
        <ele>497.8</ele>
        <time>2017-03-29T07:09:23Z</time>
      </trkpt>
      <trkpt lat="43.7312" lon="3.44875">
        <ele>498.3</ele>
        <time>2017-03-29T07:09:28Z</time>
      </trkpt>
      <trkpt lat="43.73111" lon="3.44872">
        <ele>498.8</ele>
        <time>2017-03-29T07:09:33Z</time>
      </trkpt>
      <trkpt lat="43.73102" lon="3.44869">
        <ele>499.3</ele>
        <time>2017-03-29T07:09:39Z</time>
      </trkpt>
      <trkpt lat="43.73095" lon="3.44867">
        <ele>499.9</ele>
        <time>2017-03-29T07:09:44Z</time>
      </trkpt>
      <trkpt lat="43.73087" lon="3.44865">
        <ele>500.5</ele>
        <time>2017-03-29T07:09:49Z</time>
      </trkpt>
      <trkpt lat="43.73079" lon="3.44862">
        <ele>501.4</ele>
        <time>2017-03-29T07:09:55Z</time>
      </trkpt>
      <trkpt lat="43.73071" lon="3.44864">
        <ele>502.1</ele>
        <time>2017-03-29T07:10:00Z</time>
      </trkpt>
      <trkpt lat="43.73063" lon="3.44862">
        <ele>502.7</ele>
        <time>2017-03-29T07:10:06Z</time>
      </trkpt>
      <trkpt lat="43.73056" lon="3.44862">
        <ele>503.4</ele>
        <time>2017-03-29T07:10:10Z</time>
      </trkpt>
      <trkpt lat="43.73048" lon="3.44862">
        <ele>504.2</ele>
        <time>2017-03-29T07:10:15Z</time>
      </trkpt>
      <trkpt lat="43.73041" lon="3.4486">
        <ele>504.8</ele>
        <time>2017-03-29T07:10:19Z</time>
      </trkpt>
      <trkpt lat="43.73033" lon="3.44856">
        <ele>505.4</ele>
        <time>2017-03-29T07:10:23Z</time>
      </trkpt>
      <trkpt lat="43.73025" lon="3.44855">
        <ele>506</ele>
        <time>2017-03-29T07:10:27Z</time>
      </trkpt>
      <trkpt lat="43.73015" lon="3.44854">
        <ele>507</ele>
        <time>2017-03-29T07:10:32Z</time>
      </trkpt>
      <trkpt lat="43.73008" lon="3.44853">
        <ele>507.8</ele>
        <time>2017-03-29T07:10:36Z</time>
      </trkpt>
      <trkpt lat="43.72999" lon="3.44855">
        <ele>508.4</ele>
        <time>2017-03-29T07:10:40Z</time>
      </trkpt>
      <trkpt lat="43.72991" lon="3.44857">
        <ele>508.9</ele>
        <time>2017-03-29T07:10:44Z</time>
      </trkpt>
      <trkpt lat="43.72983" lon="3.44859">
        <ele>509.3</ele>
        <time>2017-03-29T07:10:48Z</time>
      </trkpt>
      <trkpt lat="43.72974" lon="3.4486">
        <ele>509.7</ele>
        <time>2017-03-29T07:10:52Z</time>
      </trkpt>
      <trkpt lat="43.72966" lon="3.44861">
        <ele>510.2</ele>
        <time>2017-03-29T07:10:56Z</time>
      </trkpt>
      <trkpt lat="43.72956" lon="3.4486">
        <ele>510.9</ele>
        <time>2017-03-29T07:11:01Z</time>
      </trkpt>
      <trkpt lat="43.72947" lon="3.44858">
        <ele>511.6</ele>
        <time>2017-03-29T07:11:05Z</time>
      </trkpt>
      <trkpt lat="43.72939" lon="3.44856">
        <ele>512.3</ele>
        <time>2017-03-29T07:11:09Z</time>
      </trkpt>
      <trkpt lat="43.72931" lon="3.44854">
        <ele>512.8</ele>
        <time>2017-03-29T07:11:13Z</time>
      </trkpt>
      <trkpt lat="43.72922" lon="3.44852">
        <ele>513.1</ele>
        <time>2017-03-29T07:11:16Z</time>
      </trkpt>
      <trkpt lat="43.72913" lon="3.44847">
        <ele>513.4</ele>
        <time>2017-03-29T07:11:20Z</time>
      </trkpt>
      <trkpt lat="43.72904" lon="3.44843">
        <ele>513.7</ele>
        <time>2017-03-29T07:11:24Z</time>
      </trkpt>
      <trkpt lat="43.72896" lon="3.44839">
        <ele>514.1</ele>
        <time>2017-03-29T07:11:27Z</time>
      </trkpt>
      <trkpt lat="43.72888" lon="3.44838">
        <ele>514.4</ele>
        <time>2017-03-29T07:11:29Z</time>
      </trkpt>
      <trkpt lat="43.72878" lon="3.44839">
        <ele>515.4</ele>
        <time>2017-03-29T07:11:31Z</time>
      </trkpt>
      <trkpt lat="43.72867" lon="3.44842">
        <ele>516.9</ele>
        <time>2017-03-29T07:11:33Z</time>
      </trkpt>
      <trkpt lat="43.72855" lon="3.44845">
        <ele>518.5</ele>
        <time>2017-03-29T07:11:35Z</time>
      </trkpt>
      <trkpt lat="43.72847" lon="3.44847">
        <ele>518.7</ele>
        <time>2017-03-29T07:11:36Z</time>
      </trkpt>
      <trkpt lat="43.72834" lon="3.44847">
        <ele>518</ele>
        <time>2017-03-29T07:11:38Z</time>
      </trkpt>
      <trkpt lat="43.72821" lon="3.44846">
        <ele>517.7</ele>
        <time>2017-03-29T07:11:40Z</time>
      </trkpt>
      <trkpt lat="43.72812" lon="3.44844">
        <ele>517.1</ele>
        <time>2017-03-29T07:11:41Z</time>
      </trkpt>
      <trkpt lat="43.72797" lon="3.44841">
        <ele>516.1</ele>
        <time>2017-03-29T07:11:43Z</time>
      </trkpt>
      <trkpt lat="43.72788" lon="3.4484">
        <ele>515.2</ele>
        <time>2017-03-29T07:11:44Z</time>
      </trkpt>
      <trkpt lat="43.7278" lon="3.44839">
        <ele>514.3</ele>
        <time>2017-03-29T07:11:45Z</time>
      </trkpt>
      <trkpt lat="43.72767" lon="3.44837">
        <ele>512.5</ele>
        <time>2017-03-29T07:11:47Z</time>
      </trkpt>
      <trkpt lat="43.72755" lon="3.44836">
        <ele>512.1</ele>
        <time>2017-03-29T07:11:49Z</time>
      </trkpt>
      <trkpt lat="43.72745" lon="3.44838">
        <ele>512.9</ele>
        <time>2017-03-29T07:11:51Z</time>
      </trkpt>
      <trkpt lat="43.72737" lon="3.44836">
        <ele>513.7</ele>
        <time>2017-03-29T07:11:53Z</time>
      </trkpt>
      <trkpt lat="43.72728" lon="3.44835">
        <ele>514.9</ele>
        <time>2017-03-29T07:11:55Z</time>
      </trkpt>
      <trkpt lat="43.72719" lon="3.44835">
        <ele>515.5</ele>
        <time>2017-03-29T07:11:57Z</time>
      </trkpt>
      <trkpt lat="43.72711" lon="3.44835">
        <ele>516.2</ele>
        <time>2017-03-29T07:11:59Z</time>
      </trkpt>
      <trkpt lat="43.72703" lon="3.44835">
        <ele>516.4</ele>
        <time>2017-03-29T07:12:01Z</time>
      </trkpt>
      <trkpt lat="43.72694" lon="3.44834">
        <ele>516.6</ele>
        <time>2017-03-29T07:12:04Z</time>
      </trkpt>
      <trkpt lat="43.72686" lon="3.44833">
        <ele>516.6</ele>
        <time>2017-03-29T07:12:07Z</time>
      </trkpt>
      <trkpt lat="43.72678" lon="3.44833">
        <ele>516.6</ele>
        <time>2017-03-29T07:12:10Z</time>
      </trkpt>
      <trkpt lat="43.72666" lon="3.44834">
        <ele>516.7</ele>
        <time>2017-03-29T07:12:13Z</time>
      </trkpt>
      <trkpt lat="43.72658" lon="3.44833">
        <ele>517.4</ele>
        <time>2017-03-29T07:12:15Z</time>
      </trkpt>
      <trkpt lat="43.72649" lon="3.44833">
        <ele>519</ele>
        <time>2017-03-29T07:12:17Z</time>
      </trkpt>
      <trkpt lat="43.72639" lon="3.44829">
        <ele>519.3</ele>
        <time>2017-03-29T07:12:20Z</time>
      </trkpt>
      <trkpt lat="43.72629" lon="3.44829">
        <ele>519.1</ele>
        <time>2017-03-29T07:12:22Z</time>
      </trkpt>
      <trkpt lat="43.72621" lon="3.44828">
        <ele>518.9</ele>
        <time>2017-03-29T07:12:24Z</time>
      </trkpt>
      <trkpt lat="43.72614" lon="3.44829">
        <ele>518.8</ele>
        <time>2017-03-29T07:12:26Z</time>
      </trkpt>
      <trkpt lat="43.72606" lon="3.4483">
        <ele>518.7</ele>
        <time>2017-03-29T07:12:28Z</time>
      </trkpt>
      <trkpt lat="43.72596" lon="3.4483">
        <ele>518.7</ele>
        <time>2017-03-29T07:12:31Z</time>
      </trkpt>
      <trkpt lat="43.72587" lon="3.44827">
        <ele>518.6</ele>
        <time>2017-03-29T07:12:34Z</time>
      </trkpt>
      <trkpt lat="43.7258" lon="3.44823">
        <ele>518.3</ele>
        <time>2017-03-29T07:12:37Z</time>
      </trkpt>
      <trkpt lat="43.72571" lon="3.44822">
        <ele>518.2</ele>
        <time>2017-03-29T07:12:40Z</time>
      </trkpt>
      <trkpt lat="43.72562" lon="3.4482">
        <ele>518.1</ele>
        <time>2017-03-29T07:12:43Z</time>
      </trkpt>
      <trkpt lat="43.72553" lon="3.44817">
        <ele>518.3</ele>
        <time>2017-03-29T07:12:46Z</time>
      </trkpt>
      <trkpt lat="43.72545" lon="3.44817">
        <ele>518.6</ele>
        <time>2017-03-29T07:12:49Z</time>
      </trkpt>
      <trkpt lat="43.72536" lon="3.44817">
        <ele>518.8</ele>
        <time>2017-03-29T07:12:52Z</time>
      </trkpt>
      <trkpt lat="43.72525" lon="3.44817">
        <ele>519</ele>
        <time>2017-03-29T07:12:55Z</time>
      </trkpt>
      <trkpt lat="43.72515" lon="3.44819">
        <ele>518.9</ele>
        <time>2017-03-29T07:12:58Z</time>
      </trkpt>
      <trkpt lat="43.72507" lon="3.4482">
        <ele>518.9</ele>
        <time>2017-03-29T07:13:00Z</time>
      </trkpt>
      <trkpt lat="43.72499" lon="3.44822">
        <ele>518.1</ele>
        <time>2017-03-29T07:13:02Z</time>
      </trkpt>
      <trkpt lat="43.72488" lon="3.44821">
        <ele>518.2</ele>
        <time>2017-03-29T07:13:04Z</time>
      </trkpt>
      <trkpt lat="43.7248" lon="3.44819">
        <ele>519</ele>
        <time>2017-03-29T07:13:06Z</time>
      </trkpt>
      <trkpt lat="43.72472" lon="3.44817">
        <ele>519</ele>
        <time>2017-03-29T07:13:08Z</time>
      </trkpt>
      <trkpt lat="43.72462" lon="3.44814">
        <ele>519.4</ele>
        <time>2017-03-29T07:13:10Z</time>
      </trkpt>
      <trkpt lat="43.72455" lon="3.44813">
        <ele>519.5</ele>
        <time>2017-03-29T07:13:12Z</time>
      </trkpt>
      <trkpt lat="43.72445" lon="3.44812">
        <ele>519</ele>
        <time>2017-03-29T07:13:14Z</time>
      </trkpt>
      <trkpt lat="43.72436" lon="3.44812">
        <ele>519</ele>
        <time>2017-03-29T07:13:16Z</time>
      </trkpt>
      <trkpt lat="43.72429" lon="3.44815">
        <ele>519.8</ele>
        <time>2017-03-29T07:13:18Z</time>
      </trkpt>
      <trkpt lat="43.72421" lon="3.44819">
        <ele>520.9</ele>
        <time>2017-03-29T07:13:20Z</time>
      </trkpt>
      <trkpt lat="43.72414" lon="3.44824">
        <ele>521</ele>
        <time>2017-03-29T07:13:22Z</time>
      </trkpt>
      <trkpt lat="43.72405" lon="3.44827">
        <ele>521</ele>
        <time>2017-03-29T07:13:25Z</time>
      </trkpt>
      <trkpt lat="43.72397" lon="3.44831">
        <ele>520.9</ele>
        <time>2017-03-29T07:13:27Z</time>
      </trkpt>
      <trkpt lat="43.72388" lon="3.44832">
        <ele>518.9</ele>
        <time>2017-03-29T07:13:30Z</time>
      </trkpt>
      <trkpt lat="43.72379" lon="3.44834">
        <ele>518.3</ele>
        <time>2017-03-29T07:13:32Z</time>
      </trkpt>
      <trkpt lat="43.7237" lon="3.44837">
        <ele>518.1</ele>
        <time>2017-03-29T07:13:34Z</time>
      </trkpt>
      <trkpt lat="43.7236" lon="3.4484">
        <ele>517.9</ele>
        <time>2017-03-29T07:13:36Z</time>
      </trkpt>
      <trkpt lat="43.72352" lon="3.44841">
        <ele>517.8</ele>
        <time>2017-03-29T07:13:39Z</time>
      </trkpt>
      <trkpt lat="43.72343" lon="3.44838">
        <ele>517.6</ele>
        <time>2017-03-29T07:13:42Z</time>
      </trkpt>
      <trkpt lat="43.72334" lon="3.44834">
        <ele>517.6</ele>
        <time>2017-03-29T07:13:46Z</time>
      </trkpt>
      <trkpt lat="43.72325" lon="3.44831">
        <ele>517.4</ele>
        <time>2017-03-29T07:13:50Z</time>
      </trkpt>
      <trkpt lat="43.72316" lon="3.44831">
        <ele>517.2</ele>
        <time>2017-03-29T07:13:54Z</time>
      </trkpt>
      <trkpt lat="43.7231" lon="3.44827">
        <ele>517.3</ele>
        <time>2017-03-29T07:13:57Z</time>
      </trkpt>
      <trkpt lat="43.72301" lon="3.44821">
        <ele>517.3</ele>
        <time>2017-03-29T07:14:02Z</time>
      </trkpt>
      <trkpt lat="43.72294" lon="3.44815">
        <ele>517</ele>
        <time>2017-03-29T07:14:06Z</time>
      </trkpt>
      <trkpt lat="43.72288" lon="3.44808">
        <ele>517.3</ele>
        <time>2017-03-29T07:14:10Z</time>
      </trkpt>
      <trkpt lat="43.72282" lon="3.44801">
        <ele>518</ele>
        <time>2017-03-29T07:14:17Z</time>
      </trkpt>
      <trkpt lat="43.72274" lon="3.44804">
        <ele>518.5</ele>
        <time>2017-03-29T07:14:24Z</time>
      </trkpt>
      <trkpt lat="43.72266" lon="3.44803">
        <ele>518.9</ele>
        <time>2017-03-29T07:14:31Z</time>
      </trkpt>
      <trkpt lat="43.72261" lon="3.44795">
        <ele>518.9</ele>
        <time>2017-03-29T07:14:37Z</time>
      </trkpt>
      <trkpt lat="43.72264" lon="3.44785">
        <ele>518.9</ele>
        <time>2017-03-29T07:14:43Z</time>
      </trkpt>
      <trkpt lat="43.72271" lon="3.44781">
        <ele>518.9</ele>
        <time>2017-03-29T07:14:48Z</time>
      </trkpt>
      <trkpt lat="43.72276" lon="3.44773">
        <ele>518.9</ele>
        <time>2017-03-29T07:14:53Z</time>
      </trkpt>
      <trkpt lat="43.72271" lon="3.44766">
        <ele>519</ele>
        <time>2017-03-29T07:14:57Z</time>
      </trkpt>
      <trkpt lat="43.72265" lon="3.44758">
        <ele>519.8</ele>
        <time>2017-03-29T07:15:04Z</time>
      </trkpt>
      <trkpt lat="43.72263" lon="3.44753">
        <ele>521.4</ele>
        <time>2017-03-29T07:15:11Z</time>
      </trkpt>
      <trkpt lat="43.72256" lon="3.44745">
        <ele>522</ele>
        <time>2017-03-29T07:15:14Z</time>
      </trkpt>
      <trkpt lat="43.72261" lon="3.44736">
        <ele>522.7</ele>
        <time>2017-03-29T07:15:21Z</time>
      </trkpt>
      <trkpt lat="43.72269" lon="3.44719">
        <ele>526.8</ele>
        <time>2017-03-29T07:16:09Z</time>
      </trkpt>
      <trkpt lat="43.72279" lon="3.44703">
        <ele>528.3</ele>
        <time>2017-03-29T07:16:49Z</time>
      </trkpt>
      <trkpt lat="43.72287" lon="3.44705">
        <ele>529</ele>
        <time>2017-03-29T07:16:54Z</time>
      </trkpt>
      <trkpt lat="43.72294" lon="3.44703">
        <ele>529.5</ele>
        <time>2017-03-29T07:17:01Z</time>
      </trkpt>
      <trkpt lat="43.72301" lon="3.447">
        <ele>530</ele>
        <time>2017-03-29T07:17:06Z</time>
      </trkpt>
      <trkpt lat="43.72302" lon="3.4469">
        <ele>530.4</ele>
        <time>2017-03-29T07:17:12Z</time>
      </trkpt>
      <trkpt lat="43.72296" lon="3.44684">
        <ele>530.7</ele>
        <time>2017-03-29T07:17:16Z</time>
      </trkpt>
      <trkpt lat="43.72295" lon="3.44675">
        <ele>531.1</ele>
        <time>2017-03-29T07:17:23Z</time>
      </trkpt>
      <trkpt lat="43.72293" lon="3.44673">
        <ele>531.6</ele>
        <time>2017-03-29T07:17:30Z</time>
      </trkpt>
      <trkpt lat="43.72291" lon="3.44684">
        <ele>531.2</ele>
        <time>2017-03-29T07:18:11Z</time>
      </trkpt>
      <trkpt lat="43.72288" lon="3.44686">
        <ele>531.1</ele>
        <time>2017-03-29T07:18:18Z</time>
      </trkpt>
      <trkpt lat="43.72289" lon="3.44684">
        <ele>531.5</ele>
        <time>2017-03-29T07:18:35Z</time>
      </trkpt>
      <trkpt lat="43.72293" lon="3.44681">
        <ele>530.8</ele>
        <time>2017-03-29T07:18:49Z</time>
      </trkpt>
      <trkpt lat="43.72295" lon="3.44681">
        <ele>530.8</ele>
        <time>2017-03-29T07:18:56Z</time>
      </trkpt>
      <trkpt lat="43.72292" lon="3.44679">
        <ele>530.7</ele>
        <time>2017-03-29T07:19:17Z</time>
      </trkpt>
      <trkpt lat="43.72293" lon="3.44674">
        <ele>531</ele>
        <time>2017-03-29T07:19:24Z</time>
      </trkpt>
      <trkpt lat="43.7229" lon="3.44679">
        <ele>533.5</ele>
        <time>2017-03-29T07:19:49Z</time>
      </trkpt>
      <trkpt lat="43.72294" lon="3.44682">
        <ele>533.9</ele>
        <time>2017-03-29T07:20:03Z</time>
      </trkpt>
      <trkpt lat="43.72296" lon="3.44679">
        <ele>533.3</ele>
        <time>2017-03-29T07:20:10Z</time>
      </trkpt>
      <trkpt lat="43.72296" lon="3.44679">
        <ele>531.9</ele>
        <time>2017-03-29T07:20:34Z</time>
      </trkpt>
      <trkpt lat="43.72302" lon="3.44673">
        <ele>530.8</ele>
        <time>2017-03-29T07:20:41Z</time>
      </trkpt>
      <trkpt lat="43.72307" lon="3.44666">
        <ele>530.6</ele>
        <time>2017-03-29T07:20:45Z</time>
      </trkpt>
      <trkpt lat="43.72314" lon="3.44661">
        <ele>530.4</ele>
        <time>2017-03-29T07:20:48Z</time>
      </trkpt>
      <trkpt lat="43.72324" lon="3.44659">
        <ele>530.1</ele>
        <time>2017-03-29T07:20:52Z</time>
      </trkpt>
      <trkpt lat="43.72332" lon="3.44652">
        <ele>529.6</ele>
        <time>2017-03-29T07:20:56Z</time>
      </trkpt>
      <trkpt lat="43.72335" lon="3.44642">
        <ele>529.2</ele>
        <time>2017-03-29T07:20:58Z</time>
      </trkpt>
      <trkpt lat="43.72337" lon="3.44632">
        <ele>528.9</ele>
        <time>2017-03-29T07:21:00Z</time>
      </trkpt>
      <trkpt lat="43.7234" lon="3.44619">
        <ele>527.8</ele>
        <time>2017-03-29T07:21:04Z</time>
      </trkpt>
      <trkpt lat="43.72344" lon="3.44609">
        <ele>526.9</ele>
        <time>2017-03-29T07:21:07Z</time>
      </trkpt>
      <trkpt lat="43.72344" lon="3.44596">
        <ele>526.1</ele>
        <time>2017-03-29T07:21:09Z</time>
      </trkpt>
      <trkpt lat="43.72347" lon="3.44586">
        <ele>524.7</ele>
        <time>2017-03-29T07:21:12Z</time>
      </trkpt>
      <trkpt lat="43.72351" lon="3.44576">
        <ele>523.1</ele>
        <time>2017-03-29T07:21:15Z</time>
      </trkpt>
      <trkpt lat="43.72355" lon="3.44568">
        <ele>521.5</ele>
        <time>2017-03-29T07:21:18Z</time>
      </trkpt>
      <trkpt lat="43.72362" lon="3.44559">
        <ele>520</ele>
        <time>2017-03-29T07:21:21Z</time>
      </trkpt>
      <trkpt lat="43.72368" lon="3.44547">
        <ele>517.8</ele>
        <time>2017-03-29T07:21:25Z</time>
      </trkpt>
      <trkpt lat="43.72374" lon="3.4454">
        <ele>516.7</ele>
        <time>2017-03-29T07:21:27Z</time>
      </trkpt>
      <trkpt lat="43.72382" lon="3.44541">
        <ele>514.9</ele>
        <time>2017-03-29T07:21:30Z</time>
      </trkpt>
      <trkpt lat="43.72383" lon="3.44528">
        <ele>512.9</ele>
        <time>2017-03-29T07:21:33Z</time>
      </trkpt>
      <trkpt lat="43.72383" lon="3.44514">
        <ele>511</ele>
        <time>2017-03-29T07:21:36Z</time>
      </trkpt>
      <trkpt lat="43.72384" lon="3.44503">
        <ele>509</ele>
        <time>2017-03-29T07:21:39Z</time>
      </trkpt>
      <trkpt lat="43.72378" lon="3.44494">
        <ele>506.8</ele>
        <time>2017-03-29T07:21:42Z</time>
      </trkpt>
      <trkpt lat="43.72374" lon="3.44483">
        <ele>504.5</ele>
        <time>2017-03-29T07:21:45Z</time>
      </trkpt>
      <trkpt lat="43.72372" lon="3.4447">
        <ele>503</ele>
        <time>2017-03-29T07:21:47Z</time>
      </trkpt>
      <trkpt lat="43.72372" lon="3.44459">
        <ele>501.7</ele>
        <time>2017-03-29T07:21:49Z</time>
      </trkpt>
      <trkpt lat="43.7237" lon="3.44447">
        <ele>499.9</ele>
        <time>2017-03-29T07:21:52Z</time>
      </trkpt>
      <trkpt lat="43.7237" lon="3.44433">
        <ele>498.7</ele>
        <time>2017-03-29T07:21:54Z</time>
      </trkpt>
      <trkpt lat="43.72372" lon="3.44421">
        <ele>497.4</ele>
        <time>2017-03-29T07:21:56Z</time>
      </trkpt>
      <trkpt lat="43.7237" lon="3.44409">
        <ele>489.5</ele>
        <time>2017-03-29T07:21:59Z</time>
      </trkpt>
      <trkpt lat="43.72363" lon="3.44399">
        <ele>483.7</ele>
        <time>2017-03-29T07:22:01Z</time>
      </trkpt>
      <trkpt lat="43.72357" lon="3.44392">
        <ele>482.8</ele>
        <time>2017-03-29T07:22:03Z</time>
      </trkpt>
      <trkpt lat="43.72357" lon="3.4438">
        <ele>475.5</ele>
        <time>2017-03-29T07:22:06Z</time>
      </trkpt>
      <trkpt lat="43.72358" lon="3.44366">
        <ele>463.5</ele>
        <time>2017-03-29T07:22:08Z</time>
      </trkpt>
      <trkpt lat="43.72361" lon="3.44352">
        <ele>455.6</ele>
        <time>2017-03-29T07:22:10Z</time>
      </trkpt>
      <trkpt lat="43.72361" lon="3.44339">
        <ele>450.2</ele>
        <time>2017-03-29T07:22:12Z</time>
      </trkpt>
      <trkpt lat="43.72363" lon="3.44325">
        <ele>447.4</ele>
        <time>2017-03-29T07:22:14Z</time>
      </trkpt>
      <trkpt lat="43.72367" lon="3.44311">
        <ele>445.2</ele>
        <time>2017-03-29T07:22:16Z</time>
      </trkpt>
      <trkpt lat="43.72368" lon="3.44299">
        <ele>443.6</ele>
        <time>2017-03-29T07:22:18Z</time>
      </trkpt>
      <trkpt lat="43.72368" lon="3.44285">
        <ele>443.3</ele>
        <time>2017-03-29T07:22:20Z</time>
      </trkpt>
      <trkpt lat="43.72372" lon="3.44275">
        <ele>442.9</ele>
        <time>2017-03-29T07:22:23Z</time>
      </trkpt>
      <trkpt lat="43.7237" lon="3.4427">
        <ele>441.7</ele>
        <time>2017-03-29T07:22:30Z</time>
      </trkpt>
      <trkpt lat="43.7237" lon="3.44267">
        <ele>441.6</ele>
        <time>2017-03-29T07:22:50Z</time>
      </trkpt>
      <trkpt lat="43.72366" lon="3.44269">
        <ele>441.8</ele>
        <time>2017-03-29T07:23:00Z</time>
      </trkpt>
      <trkpt lat="43.72366" lon="3.4427">
        <ele>441.7</ele>
        <time>2017-03-29T07:23:07Z</time>
      </trkpt>
      <trkpt lat="43.72369" lon="3.4427">
        <ele>441.7</ele>
        <time>2017-03-29T07:23:16Z</time>
      </trkpt>
      <trkpt lat="43.72375" lon="3.44259">
        <ele>439.4</ele>
        <time>2017-03-29T07:23:48Z</time>
      </trkpt>
      <trkpt lat="43.72381" lon="3.4425">
        <ele>438.9</ele>
        <time>2017-03-29T07:23:51Z</time>
      </trkpt>
      <trkpt lat="43.72388" lon="3.44246">
        <ele>438.3</ele>
        <time>2017-03-29T07:23:55Z</time>
      </trkpt>
      <trkpt lat="43.72395" lon="3.44242">
        <ele>437.5</ele>
        <time>2017-03-29T07:24:00Z</time>
      </trkpt>
      <trkpt lat="43.72397" lon="3.44232">
        <ele>437.1</ele>
        <time>2017-03-29T07:24:03Z</time>
      </trkpt>
      <trkpt lat="43.724" lon="3.44219">
        <ele>436.5</ele>
        <time>2017-03-29T07:24:07Z</time>
      </trkpt>
      <trkpt lat="43.72405" lon="3.44208">
        <ele>435.8</ele>
        <time>2017-03-29T07:24:10Z</time>
      </trkpt>
      <trkpt lat="43.72411" lon="3.44201">
        <ele>434.8</ele>
        <time>2017-03-29T07:24:13Z</time>
      </trkpt>
      <trkpt lat="43.72411" lon="3.44188">
        <ele>434</ele>
        <time>2017-03-29T07:24:16Z</time>
      </trkpt>
      <trkpt lat="43.7241" lon="3.44174">
        <ele>433.6</ele>
        <time>2017-03-29T07:24:18Z</time>
      </trkpt>
      <trkpt lat="43.72412" lon="3.44161">
        <ele>432.8</ele>
        <time>2017-03-29T07:24:21Z</time>
      </trkpt>
      <trkpt lat="43.7241" lon="3.44151">
        <ele>432.3</ele>
        <time>2017-03-29T07:24:23Z</time>
      </trkpt>
      <trkpt lat="43.72407" lon="3.44138">
        <ele>431.5</ele>
        <time>2017-03-29T07:24:26Z</time>
      </trkpt>
      <trkpt lat="43.72403" lon="3.4413">
        <ele>430.9</ele>
        <time>2017-03-29T07:24:28Z</time>
      </trkpt>
      <trkpt lat="43.72399" lon="3.44118">
        <ele>429.9</ele>
        <time>2017-03-29T07:24:31Z</time>
      </trkpt>
      <trkpt lat="43.72405" lon="3.44112">
        <ele>428.2</ele>
        <time>2017-03-29T07:24:35Z</time>
      </trkpt>
      <trkpt lat="43.7241" lon="3.44104">
        <ele>426.9</ele>
        <time>2017-03-29T07:24:38Z</time>
      </trkpt>
      <trkpt lat="43.72417" lon="3.441">
        <ele>425.1</ele>
        <time>2017-03-29T07:24:42Z</time>
      </trkpt>
      <trkpt lat="43.72426" lon="3.44099">
        <ele>422.1</ele>
        <time>2017-03-29T07:24:47Z</time>
      </trkpt>
      <trkpt lat="43.72435" lon="3.44102">
        <ele>420.1</ele>
        <time>2017-03-29T07:24:50Z</time>
      </trkpt>
      <trkpt lat="43.72443" lon="3.44105">
        <ele>418.8</ele>
        <time>2017-03-29T07:24:52Z</time>
      </trkpt>
      <trkpt lat="43.72452" lon="3.44109">
        <ele>416.9</ele>
        <time>2017-03-29T07:24:55Z</time>
      </trkpt>
      <trkpt lat="43.7246" lon="3.44101">
        <ele>414.3</ele>
        <time>2017-03-29T07:24:59Z</time>
      </trkpt>
      <trkpt lat="43.72466" lon="3.44094">
        <ele>412.6</ele>
        <time>2017-03-29T07:25:02Z</time>
      </trkpt>
      <trkpt lat="43.72474" lon="3.44084">
        <ele>410.9</ele>
        <time>2017-03-29T07:25:05Z</time>
      </trkpt>
      <trkpt lat="43.72482" lon="3.44082">
        <ele>409.3</ele>
        <time>2017-03-29T07:25:08Z</time>
      </trkpt>
      <trkpt lat="43.72491" lon="3.44078">
        <ele>406.9</ele>
        <time>2017-03-29T07:25:12Z</time>
      </trkpt>
      <trkpt lat="43.72501" lon="3.44074">
        <ele>405.2</ele>
        <time>2017-03-29T07:25:15Z</time>
      </trkpt>
      <trkpt lat="43.72505" lon="3.44066">
        <ele>403.3</ele>
        <time>2017-03-29T07:25:18Z</time>
      </trkpt>
      <trkpt lat="43.72512" lon="3.44061">
        <ele>399.6</ele>
        <time>2017-03-29T07:25:23Z</time>
      </trkpt>
      <trkpt lat="43.72519" lon="3.44052">
        <ele>397.2</ele>
        <time>2017-03-29T07:25:26Z</time>
      </trkpt>
      <trkpt lat="43.72524" lon="3.44044">
        <ele>394.9</ele>
        <time>2017-03-29T07:25:29Z</time>
      </trkpt>
      <trkpt lat="43.7253" lon="3.44036">
        <ele>392.4</ele>
        <time>2017-03-29T07:25:32Z</time>
      </trkpt>
      <trkpt lat="43.7253" lon="3.44032">
        <ele>386.3</ele>
        <time>2017-03-29T07:25:39Z</time>
      </trkpt>
      <trkpt lat="43.72529" lon="3.44028">
        <ele>381.8</ele>
        <time>2017-03-29T07:25:46Z</time>
      </trkpt>
      <trkpt lat="43.72532" lon="3.44017">
        <ele>378.1</ele>
        <time>2017-03-29T07:25:53Z</time>
      </trkpt>
      <trkpt lat="43.72533" lon="3.44007">
        <ele>376.8</ele>
        <time>2017-03-29T07:25:55Z</time>
      </trkpt>
      <trkpt lat="43.72531" lon="3.44007">
        <ele>372.3</ele>
        <time>2017-03-29T07:26:09Z</time>
      </trkpt>
      <trkpt lat="43.72532" lon="3.44003">
        <ele>371.7</ele>
        <time>2017-03-29T07:26:16Z</time>
      </trkpt>
      <trkpt lat="43.72527" lon="3.43995">
        <ele>366.8</ele>
        <time>2017-03-29T07:27:40Z</time>
      </trkpt>
      <trkpt lat="43.72522" lon="3.43986">
        <ele>366.3</ele>
        <time>2017-03-29T07:27:43Z</time>
      </trkpt>
      <trkpt lat="43.72517" lon="3.43979">
        <ele>365.7</ele>
        <time>2017-03-29T07:27:46Z</time>
      </trkpt>
      <trkpt lat="43.72514" lon="3.43969">
        <ele>364.7</ele>
        <time>2017-03-29T07:27:51Z</time>
      </trkpt>
      <trkpt lat="43.72515" lon="3.43958">
        <ele>362.3</ele>
        <time>2017-03-29T07:27:56Z</time>
      </trkpt>
      <trkpt lat="43.72515" lon="3.43946">
        <ele>361.1</ele>
        <time>2017-03-29T07:27:58Z</time>
      </trkpt>
      <trkpt lat="43.72514" lon="3.43935">
        <ele>360.2</ele>
        <time>2017-03-29T07:28:00Z</time>
      </trkpt>
      <trkpt lat="43.72516" lon="3.43922">
        <ele>358.8</ele>
        <time>2017-03-29T07:28:03Z</time>
      </trkpt>
      <trkpt lat="43.7252" lon="3.43911">
        <ele>357.2</ele>
        <time>2017-03-29T07:28:06Z</time>
      </trkpt>
      <trkpt lat="43.72518" lon="3.43899">
        <ele>355.7</ele>
        <time>2017-03-29T07:28:09Z</time>
      </trkpt>
      <trkpt lat="43.72522" lon="3.43888">
        <ele>354.2</ele>
        <time>2017-03-29T07:28:12Z</time>
      </trkpt>
      <trkpt lat="43.72522" lon="3.43875">
        <ele>352.4</ele>
        <time>2017-03-29T07:28:15Z</time>
      </trkpt>
      <trkpt lat="43.72519" lon="3.43863">
        <ele>350.4</ele>
        <time>2017-03-29T07:28:18Z</time>
      </trkpt>
      <trkpt lat="43.72518" lon="3.43849">
        <ele>349.1</ele>
        <time>2017-03-29T07:28:20Z</time>
      </trkpt>
      <trkpt lat="43.72517" lon="3.43835">
        <ele>347.1</ele>
        <time>2017-03-29T07:28:23Z</time>
      </trkpt>
      <trkpt lat="43.72517" lon="3.43823">
        <ele>345</ele>
        <time>2017-03-29T07:28:26Z</time>
      </trkpt>
      <trkpt lat="43.72522" lon="3.43813">
        <ele>342.8</ele>
        <time>2017-03-29T07:28:29Z</time>
      </trkpt>
      <trkpt lat="43.72529" lon="3.43803">
        <ele>339.5</ele>
        <time>2017-03-29T07:28:33Z</time>
      </trkpt>
      <trkpt lat="43.72537" lon="3.43795">
        <ele>337</ele>
        <time>2017-03-29T07:28:36Z</time>
      </trkpt>
      <trkpt lat="43.72543" lon="3.43789">
        <ele>334.6</ele>
        <time>2017-03-29T07:28:39Z</time>
      </trkpt>
      <trkpt lat="43.72544" lon="3.43782">
        <ele>331</ele>
        <time>2017-03-29T07:28:46Z</time>
      </trkpt>
      <trkpt lat="43.72543" lon="3.43777">
        <ele>330</ele>
        <time>2017-03-29T07:28:53Z</time>
      </trkpt>
      <trkpt lat="43.72545" lon="3.43771">
        <ele>329.8</ele>
        <time>2017-03-29T07:29:00Z</time>
      </trkpt>
      <trkpt lat="43.72549" lon="3.43776">
        <ele>329.2</ele>
        <time>2017-03-29T07:29:15Z</time>
      </trkpt>
      <trkpt lat="43.72547" lon="3.43779">
        <ele>327</ele>
        <time>2017-03-29T07:29:22Z</time>
      </trkpt>
      <trkpt lat="43.72542" lon="3.43783">
        <ele>323.5</ele>
        <time>2017-03-29T07:29:29Z</time>
      </trkpt>
      <trkpt lat="43.72539" lon="3.43782">
        <ele>320.4</ele>
        <time>2017-03-29T07:29:36Z</time>
      </trkpt>
      <trkpt lat="43.72533" lon="3.4378">
        <ele>317.8</ele>
        <time>2017-03-29T07:29:43Z</time>
      </trkpt>
      <trkpt lat="43.72526" lon="3.43777">
        <ele>315.7</ele>
        <time>2017-03-29T07:29:50Z</time>
      </trkpt>
      <trkpt lat="43.72521" lon="3.43775">
        <ele>313.9</ele>
        <time>2017-03-29T07:29:57Z</time>
      </trkpt>
      <trkpt lat="43.72517" lon="3.43772">
        <ele>312.5</ele>
        <time>2017-03-29T07:30:04Z</time>
      </trkpt>
      <trkpt lat="43.72512" lon="3.43768">
        <ele>311</ele>
        <time>2017-03-29T07:30:11Z</time>
      </trkpt>
      <trkpt lat="43.72507" lon="3.43766">
        <ele>310.5</ele>
        <time>2017-03-29T07:30:18Z</time>
      </trkpt>
      <trkpt lat="43.72496" lon="3.4376">
        <ele>311.8</ele>
        <time>2017-03-29T07:30:32Z</time>
      </trkpt>
      <trkpt lat="43.72491" lon="3.43761">
        <ele>311.8</ele>
        <time>2017-03-29T07:30:39Z</time>
      </trkpt>
      <trkpt lat="43.72486" lon="3.43758">
        <ele>311.8</ele>
        <time>2017-03-29T07:30:46Z</time>
      </trkpt>
      <trkpt lat="43.72481" lon="3.43757">
        <ele>311.9</ele>
        <time>2017-03-29T07:30:53Z</time>
      </trkpt>
      <trkpt lat="43.72473" lon="3.43754">
        <ele>312.1</ele>
        <time>2017-03-29T07:31:00Z</time>
      </trkpt>
      <trkpt lat="43.72465" lon="3.43751">
        <ele>313</ele>
        <time>2017-03-29T07:31:14Z</time>
      </trkpt>
      <trkpt lat="43.72463" lon="3.43748">
        <ele>313.5</ele>
        <time>2017-03-29T07:31:21Z</time>
      </trkpt>
      <trkpt lat="43.72468" lon="3.4374">
        <ele>313.2</ele>
        <time>2017-03-29T07:31:26Z</time>
      </trkpt>
      <trkpt lat="43.72475" lon="3.43732">
        <ele>313.1</ele>
        <time>2017-03-29T07:31:30Z</time>
      </trkpt>
      <trkpt lat="43.72482" lon="3.43728">
        <ele>312.1</ele>
        <time>2017-03-29T07:31:37Z</time>
      </trkpt>
      <trkpt lat="43.72486" lon="3.43718">
        <ele>311.4</ele>
        <time>2017-03-29T07:31:40Z</time>
      </trkpt>
      <trkpt lat="43.7249" lon="3.43708">
        <ele>311</ele>
        <time>2017-03-29T07:31:42Z</time>
      </trkpt>
      <trkpt lat="43.72489" lon="3.43704">
        <ele>309.4</ele>
        <time>2017-03-29T07:31:49Z</time>
      </trkpt>
      <trkpt lat="43.72484" lon="3.43713">
        <ele>308.4</ele>
        <time>2017-03-29T07:31:55Z</time>
      </trkpt>
      <trkpt lat="43.72483" lon="3.43715">
        <ele>307.6</ele>
        <time>2017-03-29T07:32:02Z</time>
      </trkpt>
      <trkpt lat="43.72488" lon="3.43704">
        <ele>305.5</ele>
        <time>2017-03-29T07:32:09Z</time>
      </trkpt>
      <trkpt lat="43.72493" lon="3.43691">
        <ele>302.9</ele>
        <time>2017-03-29T07:32:12Z</time>
      </trkpt>
      <trkpt lat="43.72497" lon="3.43684">
        <ele>302.6</ele>
        <time>2017-03-29T07:32:14Z</time>
      </trkpt>
      <trkpt lat="43.72504" lon="3.43679">
        <ele>302.3</ele>
        <time>2017-03-29T07:32:16Z</time>
      </trkpt>
      <trkpt lat="43.72511" lon="3.43674">
        <ele>301.8</ele>
        <time>2017-03-29T07:32:19Z</time>
      </trkpt>
      <trkpt lat="43.7252" lon="3.43672">
        <ele>301</ele>
        <time>2017-03-29T07:32:23Z</time>
      </trkpt>
      <trkpt lat="43.72529" lon="3.43669">
        <ele>300.2</ele>
        <time>2017-03-29T07:32:26Z</time>
      </trkpt>
      <trkpt lat="43.72536" lon="3.43659">
        <ele>299.2</ele>
        <time>2017-03-29T07:32:30Z</time>
      </trkpt>
      <trkpt lat="43.7254" lon="3.43649">
        <ele>298.4</ele>
        <time>2017-03-29T07:32:33Z</time>
      </trkpt>
      <trkpt lat="43.72547" lon="3.43637">
        <ele>297.3</ele>
        <time>2017-03-29T07:32:36Z</time>
      </trkpt>
      <trkpt lat="43.72551" lon="3.43629">
        <ele>296.4</ele>
        <time>2017-03-29T07:32:38Z</time>
      </trkpt>
      <trkpt lat="43.72553" lon="3.43615">
        <ele>295.1</ele>
        <time>2017-03-29T07:32:41Z</time>
      </trkpt>
      <trkpt lat="43.72552" lon="3.43602">
        <ele>293.7</ele>
        <time>2017-03-29T07:32:44Z</time>
      </trkpt>
      <trkpt lat="43.72553" lon="3.43592">
        <ele>292.7</ele>
        <time>2017-03-29T07:32:46Z</time>
      </trkpt>
      <trkpt lat="43.72557" lon="3.43583">
        <ele>291.7</ele>
        <time>2017-03-29T07:32:48Z</time>
      </trkpt>
      <trkpt lat="43.72562" lon="3.43575">
        <ele>283.1</ele>
        <time>2017-03-29T07:32:50Z</time>
      </trkpt>
      <trkpt lat="43.72567" lon="3.43565">
        <ele>282.3</ele>
        <time>2017-03-29T07:32:52Z</time>
      </trkpt>
      <trkpt lat="43.72575" lon="3.43558">
        <ele>281.1</ele>
        <time>2017-03-29T07:32:55Z</time>
      </trkpt>
      <trkpt lat="43.72573" lon="3.43547">
        <ele>279.4</ele>
        <time>2017-03-29T07:32:59Z</time>
      </trkpt>
      <trkpt lat="43.72571" lon="3.43536">
        <ele>277.7</ele>
        <time>2017-03-29T07:33:04Z</time>
      </trkpt>
      <trkpt lat="43.72567" lon="3.43516">
        <ele>271.6</ele>
        <time>2017-03-29T07:33:25Z</time>
      </trkpt>
      <trkpt lat="43.72565" lon="3.43512">
        <ele>268.2</ele>
        <time>2017-03-29T07:33:52Z</time>
      </trkpt>
      <trkpt lat="43.72564" lon="3.43508">
        <ele>267.6</ele>
        <time>2017-03-29T07:33:59Z</time>
      </trkpt>
      <trkpt lat="43.72566" lon="3.43503">
        <ele>266.2</ele>
        <time>2017-03-29T07:34:06Z</time>
      </trkpt>
      <trkpt lat="43.72564" lon="3.43492">
        <ele>265.5</ele>
        <time>2017-03-29T07:34:13Z</time>
      </trkpt>
      <trkpt lat="43.72564" lon="3.43491">
        <ele>265.5</ele>
        <time>2017-03-29T07:34:20Z</time>
      </trkpt>
      <trkpt lat="43.72566" lon="3.4349">
        <ele>264.4</ele>
        <time>2017-03-29T07:34:38Z</time>
      </trkpt>
      <trkpt lat="43.7256" lon="3.43485">
        <ele>263.2</ele>
        <time>2017-03-29T07:35:01Z</time>
      </trkpt>
      <trkpt lat="43.72557" lon="3.43476">
        <ele>262.9</ele>
        <time>2017-03-29T07:35:06Z</time>
      </trkpt>
      <trkpt lat="43.72558" lon="3.43466">
        <ele>262.5</ele>
        <time>2017-03-29T07:35:09Z</time>
      </trkpt>
      <trkpt lat="43.72566" lon="3.43459">
        <ele>261.9</ele>
        <time>2017-03-29T07:35:12Z</time>
      </trkpt>
      <trkpt lat="43.72575" lon="3.43458">
        <ele>261.4</ele>
        <time>2017-03-29T07:35:15Z</time>
      </trkpt>
      <trkpt lat="43.72583" lon="3.43456">
        <ele>260.2</ele>
        <time>2017-03-29T07:35:22Z</time>
      </trkpt>
      <trkpt lat="43.72592" lon="3.43452">
        <ele>259.6</ele>
        <time>2017-03-29T07:35:26Z</time>
      </trkpt>
      <trkpt lat="43.72589" lon="3.43444">
        <ele>258.6</ele>
        <time>2017-03-29T07:35:33Z</time>
      </trkpt>
      <trkpt lat="43.72589" lon="3.43436">
        <ele>258.3</ele>
        <time>2017-03-29T07:35:40Z</time>
      </trkpt>
      <trkpt lat="43.72591" lon="3.43436">
        <ele>257.9</ele>
        <time>2017-03-29T07:35:47Z</time>
      </trkpt>
      <trkpt lat="43.72595" lon="3.43434">
        <ele>257.7</ele>
        <time>2017-03-29T07:35:54Z</time>
      </trkpt>
      <trkpt lat="43.72603" lon="3.43431">
        <ele>256.9</ele>
        <time>2017-03-29T07:36:06Z</time>
      </trkpt>
      <trkpt lat="43.72606" lon="3.43422">
        <ele>256.4</ele>
        <time>2017-03-29T07:36:10Z</time>
      </trkpt>
      <trkpt lat="43.72613" lon="3.43416">
        <ele>256.5</ele>
        <time>2017-03-29T07:36:14Z</time>
      </trkpt>
      <trkpt lat="43.72622" lon="3.43414">
        <ele>256.4</ele>
        <time>2017-03-29T07:36:19Z</time>
      </trkpt>
      <trkpt lat="43.72628" lon="3.4341">
        <ele>256.8</ele>
        <time>2017-03-29T07:36:24Z</time>
      </trkpt>
      <trkpt lat="43.72635" lon="3.43404">
        <ele>257.2</ele>
        <time>2017-03-29T07:36:28Z</time>
      </trkpt>
      <trkpt lat="43.72632" lon="3.43393">
        <ele>257.4</ele>
        <time>2017-03-29T07:36:32Z</time>
      </trkpt>
      <trkpt lat="43.72625" lon="3.43391">
        <ele>258.1</ele>
        <time>2017-03-29T07:36:39Z</time>
      </trkpt>
      <trkpt lat="43.72619" lon="3.43385">
        <ele>259.5</ele>
        <time>2017-03-29T07:36:45Z</time>
      </trkpt>
      <trkpt lat="43.72613" lon="3.43377">
        <ele>261.2</ele>
        <time>2017-03-29T07:36:52Z</time>
      </trkpt>
      <trkpt lat="43.72606" lon="3.43372">
        <ele>261.7</ele>
        <time>2017-03-29T07:36:56Z</time>
      </trkpt>
      <trkpt lat="43.72598" lon="3.43368">
        <ele>262.2</ele>
        <time>2017-03-29T07:37:00Z</time>
      </trkpt>
      <trkpt lat="43.72592" lon="3.43362">
        <ele>262.6</ele>
        <time>2017-03-29T07:37:04Z</time>
      </trkpt>
      <trkpt lat="43.72589" lon="3.4336">
        <ele>263.5</ele>
        <time>2017-03-29T07:37:11Z</time>
      </trkpt>
      <trkpt lat="43.72582" lon="3.43352">
        <ele>264</ele>
        <time>2017-03-29T07:37:15Z</time>
      </trkpt>
      <trkpt lat="43.72577" lon="3.43344">
        <ele>264.8</ele>
        <time>2017-03-29T07:37:19Z</time>
      </trkpt>
      <trkpt lat="43.72571" lon="3.43337">
        <ele>265.7</ele>
        <time>2017-03-29T07:37:24Z</time>
      </trkpt>
      <trkpt lat="43.72564" lon="3.43331">
        <ele>266.6</ele>
        <time>2017-03-29T07:37:29Z</time>
      </trkpt>
      <trkpt lat="43.72557" lon="3.43323">
        <ele>267.9</ele>
        <time>2017-03-29T07:37:35Z</time>
      </trkpt>
      <trkpt lat="43.72552" lon="3.43315">
        <ele>269</ele>
        <time>2017-03-29T07:37:39Z</time>
      </trkpt>
      <trkpt lat="43.72546" lon="3.43306">
        <ele>270.1</ele>
        <time>2017-03-29T07:37:45Z</time>
      </trkpt>
      <trkpt lat="43.72542" lon="3.43296">
        <ele>271.1</ele>
        <time>2017-03-29T07:37:50Z</time>
      </trkpt>
      <trkpt lat="43.72537" lon="3.43289">
        <ele>272</ele>
        <time>2017-03-29T07:37:56Z</time>
      </trkpt>
      <trkpt lat="43.72531" lon="3.43282">
        <ele>272.6</ele>
        <time>2017-03-29T07:38:00Z</time>
      </trkpt>
      <trkpt lat="43.72528" lon="3.43272">
        <ele>273.6</ele>
        <time>2017-03-29T07:38:04Z</time>
      </trkpt>
      <trkpt lat="43.72533" lon="3.43267">
        <ele>274.8</ele>
        <time>2017-03-29T07:38:11Z</time>
      </trkpt>
      <trkpt lat="43.72538" lon="3.43275">
        <ele>275.1</ele>
        <time>2017-03-29T07:38:16Z</time>
      </trkpt>
      <trkpt lat="43.72545" lon="3.43282">
        <ele>275.9</ele>
        <time>2017-03-29T07:38:21Z</time>
      </trkpt>
      <trkpt lat="43.72553" lon="3.43287">
        <ele>276.2</ele>
        <time>2017-03-29T07:38:26Z</time>
      </trkpt>
      <trkpt lat="43.72561" lon="3.43288">
        <ele>276.9</ele>
        <time>2017-03-29T07:38:30Z</time>
      </trkpt>
      <trkpt lat="43.72569" lon="3.43289">
        <ele>277.5</ele>
        <time>2017-03-29T07:38:35Z</time>
      </trkpt>
      <trkpt lat="43.72578" lon="3.43289">
        <ele>277.5</ele>
        <time>2017-03-29T07:38:40Z</time>
      </trkpt>
      <trkpt lat="43.72585" lon="3.43289">
        <ele>277.5</ele>
        <time>2017-03-29T07:38:44Z</time>
      </trkpt>
      <trkpt lat="43.72593" lon="3.43288">
        <ele>277.6</ele>
        <time>2017-03-29T07:38:48Z</time>
      </trkpt>
      <trkpt lat="43.72602" lon="3.43285">
        <ele>277.9</ele>
        <time>2017-03-29T07:38:53Z</time>
      </trkpt>
      <trkpt lat="43.72609" lon="3.43281">
        <ele>278.3</ele>
        <time>2017-03-29T07:38:58Z</time>
      </trkpt>
      <trkpt lat="43.72615" lon="3.43273">
        <ele>278.9</ele>
        <time>2017-03-29T07:39:03Z</time>
      </trkpt>
      <trkpt lat="43.7262" lon="3.43266">
        <ele>279.7</ele>
        <time>2017-03-29T07:39:07Z</time>
      </trkpt>
      <trkpt lat="43.72627" lon="3.4326">
        <ele>280.6</ele>
        <time>2017-03-29T07:39:12Z</time>
      </trkpt>
      <trkpt lat="43.72634" lon="3.43252">
        <ele>281.1</ele>
        <time>2017-03-29T07:39:16Z</time>
      </trkpt>
      <trkpt lat="43.7264" lon="3.43245">
        <ele>281.7</ele>
        <time>2017-03-29T07:39:20Z</time>
      </trkpt>
      <trkpt lat="43.72646" lon="3.43238">
        <ele>282.7</ele>
        <time>2017-03-29T07:39:25Z</time>
      </trkpt>
      <trkpt lat="43.7265" lon="3.43227">
        <ele>283.6</ele>
        <time>2017-03-29T07:39:30Z</time>
      </trkpt>
      <trkpt lat="43.72652" lon="3.43216">
        <ele>284.4</ele>
        <time>2017-03-29T07:39:34Z</time>
      </trkpt>
      <trkpt lat="43.72656" lon="3.43207">
        <ele>285.3</ele>
        <time>2017-03-29T07:39:39Z</time>
      </trkpt>
      <trkpt lat="43.72658" lon="3.43198">
        <ele>286</ele>
        <time>2017-03-29T07:39:43Z</time>
      </trkpt>
      <trkpt lat="43.72659" lon="3.43187">
        <ele>286.9</ele>
        <time>2017-03-29T07:39:48Z</time>
      </trkpt>
      <trkpt lat="43.72661" lon="3.43175">
        <ele>287.7</ele>
        <time>2017-03-29T07:39:53Z</time>
      </trkpt>
      <trkpt lat="43.7266" lon="3.43164">
        <ele>288.8</ele>
        <time>2017-03-29T07:39:59Z</time>
      </trkpt>
      <trkpt lat="43.72661" lon="3.43154">
        <ele>289.5</ele>
        <time>2017-03-29T07:40:03Z</time>
      </trkpt>
      <trkpt lat="43.72661" lon="3.43144">
        <ele>290.4</ele>
        <time>2017-03-29T07:40:08Z</time>
      </trkpt>
      <trkpt lat="43.72663" lon="3.43134">
        <ele>291</ele>
        <time>2017-03-29T07:40:13Z</time>
      </trkpt>
      <trkpt lat="43.72666" lon="3.43124">
        <ele>291.4</ele>
        <time>2017-03-29T07:40:17Z</time>
      </trkpt>
      <trkpt lat="43.7267" lon="3.43113">
        <ele>292.1</ele>
        <time>2017-03-29T07:40:21Z</time>
      </trkpt>
      <trkpt lat="43.72672" lon="3.43104">
        <ele>292.7</ele>
        <time>2017-03-29T07:40:25Z</time>
      </trkpt>
      <trkpt lat="43.72675" lon="3.43094">
        <ele>292.8</ele>
        <time>2017-03-29T07:40:28Z</time>
      </trkpt>
      <trkpt lat="43.72679" lon="3.43085">
        <ele>292.8</ele>
        <time>2017-03-29T07:40:32Z</time>
      </trkpt>
      <trkpt lat="43.72686" lon="3.43082">
        <ele>293.2</ele>
        <time>2017-03-29T07:40:37Z</time>
      </trkpt>
      <trkpt lat="43.72694" lon="3.43086">
        <ele>293.6</ele>
        <time>2017-03-29T07:40:41Z</time>
      </trkpt>
      <trkpt lat="43.72701" lon="3.43091">
        <ele>293.8</ele>
        <time>2017-03-29T07:40:44Z</time>
      </trkpt>
      <trkpt lat="43.72709" lon="3.43096">
        <ele>294</ele>
        <time>2017-03-29T07:40:48Z</time>
      </trkpt>
      <trkpt lat="43.72716" lon="3.431">
        <ele>294.1</ele>
        <time>2017-03-29T07:40:52Z</time>
      </trkpt>
      <trkpt lat="43.72723" lon="3.43105">
        <ele>294.4</ele>
        <time>2017-03-29T07:40:56Z</time>
      </trkpt>
      <trkpt lat="43.7273" lon="3.4311">
        <ele>294.7</ele>
        <time>2017-03-29T07:41:00Z</time>
      </trkpt>
      <trkpt lat="43.72737" lon="3.43115">
        <ele>295</ele>
        <time>2017-03-29T07:41:04Z</time>
      </trkpt>
      <trkpt lat="43.72745" lon="3.43117">
        <ele>295.5</ele>
        <time>2017-03-29T07:41:09Z</time>
      </trkpt>
      <trkpt lat="43.72753" lon="3.43115">
        <ele>295.9</ele>
        <time>2017-03-29T07:41:13Z</time>
      </trkpt>
      <trkpt lat="43.72761" lon="3.43112">
        <ele>296.4</ele>
        <time>2017-03-29T07:41:18Z</time>
      </trkpt>
      <trkpt lat="43.72768" lon="3.4311">
        <ele>296.8</ele>
        <time>2017-03-29T07:41:22Z</time>
      </trkpt>
      <trkpt lat="43.72777" lon="3.43107">
        <ele>297.2</ele>
        <time>2017-03-29T07:41:27Z</time>
      </trkpt>
      <trkpt lat="43.72784" lon="3.43104">
        <ele>297.5</ele>
        <time>2017-03-29T07:41:31Z</time>
      </trkpt>
      <trkpt lat="43.72791" lon="3.43102">
        <ele>297.9</ele>
        <time>2017-03-29T07:41:35Z</time>
      </trkpt>
      <trkpt lat="43.72799" lon="3.43102">
        <ele>298.4</ele>
        <time>2017-03-29T07:41:40Z</time>
      </trkpt>
      <trkpt lat="43.72808" lon="3.43101">
        <ele>298.9</ele>
        <time>2017-03-29T07:41:45Z</time>
      </trkpt>
      <trkpt lat="43.72816" lon="3.43103">
        <ele>299.7</ele>
        <time>2017-03-29T07:41:50Z</time>
      </trkpt>
      <trkpt lat="43.72823" lon="3.43107">
        <ele>300.3</ele>
        <time>2017-03-29T07:41:54Z</time>
      </trkpt>
      <trkpt lat="43.72825" lon="3.43119">
        <ele>301</ele>
        <time>2017-03-29T07:42:00Z</time>
      </trkpt>
      <trkpt lat="43.72828" lon="3.43129">
        <ele>302</ele>
        <time>2017-03-29T07:42:06Z</time>
      </trkpt>
      <trkpt lat="43.72834" lon="3.43137">
        <ele>303.1</ele>
        <time>2017-03-29T07:42:12Z</time>
      </trkpt>
      <trkpt lat="43.72842" lon="3.4314">
        <ele>304.2</ele>
        <time>2017-03-29T07:42:18Z</time>
      </trkpt>
      <trkpt lat="43.72849" lon="3.43144">
        <ele>305.1</ele>
        <time>2017-03-29T07:42:23Z</time>
      </trkpt>
      <trkpt lat="43.72858" lon="3.43148">
        <ele>305.7</ele>
        <time>2017-03-29T07:42:28Z</time>
      </trkpt>
      <trkpt lat="43.72864" lon="3.43152">
        <ele>306.6</ele>
        <time>2017-03-29T07:42:33Z</time>
      </trkpt>
      <trkpt lat="43.7287" lon="3.4316">
        <ele>308</ele>
        <time>2017-03-29T07:42:39Z</time>
      </trkpt>
      <trkpt lat="43.72873" lon="3.43171">
        <ele>309.2</ele>
        <time>2017-03-29T07:42:44Z</time>
      </trkpt>
      <trkpt lat="43.72877" lon="3.43181">
        <ele>310.5</ele>
        <time>2017-03-29T07:42:50Z</time>
      </trkpt>
      <trkpt lat="43.72884" lon="3.43186">
        <ele>311.7</ele>
        <time>2017-03-29T07:42:55Z</time>
      </trkpt>
      <trkpt lat="43.72891" lon="3.43193">
        <ele>312.8</ele>
        <time>2017-03-29T07:43:00Z</time>
      </trkpt>
      <trkpt lat="43.72897" lon="3.43201">
        <ele>313.8</ele>
        <time>2017-03-29T07:43:05Z</time>
      </trkpt>
      <trkpt lat="43.72904" lon="3.43205">
        <ele>314.9</ele>
        <time>2017-03-29T07:43:09Z</time>
      </trkpt>
      <trkpt lat="43.72912" lon="3.43208">
        <ele>316.8</ele>
        <time>2017-03-29T07:43:15Z</time>
      </trkpt>
      <trkpt lat="43.72919" lon="3.4321">
        <ele>318</ele>
        <time>2017-03-29T07:43:19Z</time>
      </trkpt>
      <trkpt lat="43.72926" lon="3.43215">
        <ele>318.9</ele>
        <time>2017-03-29T07:43:25Z</time>
      </trkpt>
      <trkpt lat="43.72935" lon="3.43213">
        <ele>319.8</ele>
        <time>2017-03-29T07:43:30Z</time>
      </trkpt>
      <trkpt lat="43.72944" lon="3.43212">
        <ele>320.7</ele>
        <time>2017-03-29T07:43:35Z</time>
      </trkpt>
      <trkpt lat="43.72951" lon="3.43214">
        <ele>321.6</ele>
        <time>2017-03-29T07:43:39Z</time>
      </trkpt>
      <trkpt lat="43.72958" lon="3.43217">
        <ele>322.5</ele>
        <time>2017-03-29T07:43:43Z</time>
      </trkpt>
      <trkpt lat="43.72966" lon="3.43219">
        <ele>323.4</ele>
        <time>2017-03-29T07:43:48Z</time>
      </trkpt>
      <trkpt lat="43.72974" lon="3.4322">
        <ele>325.1</ele>
        <time>2017-03-29T07:43:54Z</time>
      </trkpt>
      <trkpt lat="43.72981" lon="3.43224">
        <ele>326.2</ele>
        <time>2017-03-29T07:43:58Z</time>
      </trkpt>
      <trkpt lat="43.72988" lon="3.43228">
        <ele>327</ele>
        <time>2017-03-29T07:44:02Z</time>
      </trkpt>
      <trkpt lat="43.72996" lon="3.43231">
        <ele>327.7</ele>
        <time>2017-03-29T07:44:07Z</time>
      </trkpt>
      <trkpt lat="43.73005" lon="3.43232">
        <ele>328.4</ele>
        <time>2017-03-29T07:44:11Z</time>
      </trkpt>
      <trkpt lat="43.73012" lon="3.43232">
        <ele>328.9</ele>
        <time>2017-03-29T07:44:15Z</time>
      </trkpt>
      <trkpt lat="43.7302" lon="3.43232">
        <ele>329.4</ele>
        <time>2017-03-29T07:44:19Z</time>
      </trkpt>
      <trkpt lat="43.73028" lon="3.43233">
        <ele>329.7</ele>
        <time>2017-03-29T07:44:24Z</time>
      </trkpt>
      <trkpt lat="43.73036" lon="3.43234">
        <ele>330.5</ele>
        <time>2017-03-29T07:44:29Z</time>
      </trkpt>
      <trkpt lat="43.73044" lon="3.43234">
        <ele>331</ele>
        <time>2017-03-29T07:44:33Z</time>
      </trkpt>
      <trkpt lat="43.73051" lon="3.43232">
        <ele>331.7</ele>
        <time>2017-03-29T07:44:37Z</time>
      </trkpt>
      <trkpt lat="43.73058" lon="3.43228">
        <ele>332.4</ele>
        <time>2017-03-29T07:44:41Z</time>
      </trkpt>
      <trkpt lat="43.7306" lon="3.43218">
        <ele>333.1</ele>
        <time>2017-03-29T07:44:45Z</time>
      </trkpt>
      <trkpt lat="43.73064" lon="3.43208">
        <ele>333.9</ele>
        <time>2017-03-29T07:44:50Z</time>
      </trkpt>
      <trkpt lat="43.7307" lon="3.43201">
        <ele>334.9</ele>
        <time>2017-03-29T07:44:55Z</time>
      </trkpt>
      <trkpt lat="43.73075" lon="3.43193">
        <ele>335.8</ele>
        <time>2017-03-29T07:44:59Z</time>
      </trkpt>
      <trkpt lat="43.73079" lon="3.43183">
        <ele>336.8</ele>
        <time>2017-03-29T07:45:05Z</time>
      </trkpt>
      <trkpt lat="43.73082" lon="3.43174">
        <ele>337.7</ele>
        <time>2017-03-29T07:45:09Z</time>
      </trkpt>
      <trkpt lat="43.73085" lon="3.43164">
        <ele>339.1</ele>
        <time>2017-03-29T07:45:15Z</time>
      </trkpt>
      <trkpt lat="43.73087" lon="3.43151">
        <ele>340.2</ele>
        <time>2017-03-29T07:45:20Z</time>
      </trkpt>
      <trkpt lat="43.73088" lon="3.4314">
        <ele>341.3</ele>
        <time>2017-03-29T07:45:25Z</time>
      </trkpt>
      <trkpt lat="43.73089" lon="3.4313">
        <ele>342.1</ele>
        <time>2017-03-29T07:45:29Z</time>
      </trkpt>
      <trkpt lat="43.7309" lon="3.43119">
        <ele>343.1</ele>
        <time>2017-03-29T07:45:34Z</time>
      </trkpt>
      <trkpt lat="43.73097" lon="3.43112">
        <ele>343.7</ele>
        <time>2017-03-29T07:45:38Z</time>
      </trkpt>
      <trkpt lat="43.73105" lon="3.4311">
        <ele>344.3</ele>
        <time>2017-03-29T07:45:42Z</time>
      </trkpt>
      <trkpt lat="43.73113" lon="3.43109">
        <ele>344.9</ele>
        <time>2017-03-29T07:45:46Z</time>
      </trkpt>
      <trkpt lat="43.73118" lon="3.43099">
        <ele>345.4</ele>
        <time>2017-03-29T07:45:51Z</time>
      </trkpt>
      <trkpt lat="43.73122" lon="3.43089">
        <ele>345.7</ele>
        <time>2017-03-29T07:45:54Z</time>
      </trkpt>
      <trkpt lat="43.73126" lon="3.4308">
        <ele>346</ele>
        <time>2017-03-29T07:45:58Z</time>
      </trkpt>
      <trkpt lat="43.73131" lon="3.4307">
        <ele>346.5</ele>
        <time>2017-03-29T07:46:02Z</time>
      </trkpt>
      <trkpt lat="43.73136" lon="3.43062">
        <ele>346.8</ele>
        <time>2017-03-29T07:46:06Z</time>
      </trkpt>
      <trkpt lat="43.73142" lon="3.43055">
        <ele>347.1</ele>
        <time>2017-03-29T07:46:10Z</time>
      </trkpt>
      <trkpt lat="43.7315" lon="3.43057">
        <ele>347.4</ele>
        <time>2017-03-29T07:46:14Z</time>
      </trkpt>
      <trkpt lat="43.73154" lon="3.43067">
        <ele>347.8</ele>
        <time>2017-03-29T07:46:18Z</time>
      </trkpt>
      <trkpt lat="43.73158" lon="3.43077">
        <ele>348.1</ele>
        <time>2017-03-29T07:46:22Z</time>
      </trkpt>
      <trkpt lat="43.73162" lon="3.43087">
        <ele>348.4</ele>
        <time>2017-03-29T07:46:26Z</time>
      </trkpt>
      <trkpt lat="43.73169" lon="3.43091">
        <ele>349.2</ele>
        <time>2017-03-29T07:46:31Z</time>
      </trkpt>
      <trkpt lat="43.73177" lon="3.43089">
        <ele>350</ele>
        <time>2017-03-29T07:46:36Z</time>
      </trkpt>
      <trkpt lat="43.73183" lon="3.43078">
        <ele>350.5</ele>
        <time>2017-03-29T07:46:40Z</time>
      </trkpt>
      <trkpt lat="43.73188" lon="3.43071">
        <ele>350.8</ele>
        <time>2017-03-29T07:46:42Z</time>
      </trkpt>
      <trkpt lat="43.73195" lon="3.43074">
        <ele>351.1</ele>
        <time>2017-03-29T07:46:45Z</time>
      </trkpt>
      <trkpt lat="43.73204" lon="3.43081">
        <ele>351.6</ele>
        <time>2017-03-29T07:46:49Z</time>
      </trkpt>
      <trkpt lat="43.73209" lon="3.4309">
        <ele>352.1</ele>
        <time>2017-03-29T07:46:53Z</time>
      </trkpt>
      <trkpt lat="43.73213" lon="3.43099">
        <ele>352.6</ele>
        <time>2017-03-29T07:46:57Z</time>
      </trkpt>
      <trkpt lat="43.73213" lon="3.43109">
        <ele>353</ele>
        <time>2017-03-29T07:47:01Z</time>
      </trkpt>
      <trkpt lat="43.73216" lon="3.4312">
        <ele>353.5</ele>
        <time>2017-03-29T07:47:06Z</time>
      </trkpt>
      <trkpt lat="43.73222" lon="3.43128">
        <ele>353.9</ele>
        <time>2017-03-29T07:47:10Z</time>
      </trkpt>
      <trkpt lat="43.73227" lon="3.43136">
        <ele>354.1</ele>
        <time>2017-03-29T07:47:13Z</time>
      </trkpt>
      <trkpt lat="43.73232" lon="3.43145">
        <ele>354.2</ele>
        <time>2017-03-29T07:47:17Z</time>
      </trkpt>
      <trkpt lat="43.73238" lon="3.43154">
        <ele>354.6</ele>
        <time>2017-03-29T07:47:22Z</time>
      </trkpt>
      <trkpt lat="43.73243" lon="3.43163">
        <ele>355</ele>
        <time>2017-03-29T07:47:26Z</time>
      </trkpt>
      <trkpt lat="43.7325" lon="3.43171">
        <ele>355.5</ele>
        <time>2017-03-29T07:47:31Z</time>
      </trkpt>
      <trkpt lat="43.73255" lon="3.43179">
        <ele>356</ele>
        <time>2017-03-29T07:47:35Z</time>
      </trkpt>
      <trkpt lat="43.73257" lon="3.43183">
        <ele>357.3</ele>
        <time>2017-03-29T07:47:42Z</time>
      </trkpt>
      <trkpt lat="43.73257" lon="3.43183">
        <ele>358.8</ele>
        <time>2017-03-29T07:48:01Z</time>
      </trkpt>
      <trkpt lat="43.73254" lon="3.43181">
        <ele>358.9</ele>
        <time>2017-03-29T07:48:22Z</time>
      </trkpt>
      <trkpt lat="43.7326" lon="3.43184">
        <ele>359.1</ele>
        <time>2017-03-29T07:48:41Z</time>
      </trkpt>
      <trkpt lat="43.7326" lon="3.43187">
        <ele>358.9</ele>
        <time>2017-03-29T07:48:47Z</time>
      </trkpt>
      <trkpt lat="43.73258" lon="3.43186">
        <ele>358.6</ele>
        <time>2017-03-29T07:48:55Z</time>
      </trkpt>
      <trkpt lat="43.73256" lon="3.43181">
        <ele>358.9</ele>
        <time>2017-03-29T07:49:22Z</time>
      </trkpt>
      <trkpt lat="43.73257" lon="3.43182">
        <ele>358.9</ele>
        <time>2017-03-29T07:49:55Z</time>
      </trkpt>
      <trkpt lat="43.73266" lon="3.43179">
        <ele>359.9</ele>
        <time>2017-03-29T07:50:09Z</time>
      </trkpt>
      <trkpt lat="43.73269" lon="3.43167">
        <ele>359.8</ele>
        <time>2017-03-29T07:50:13Z</time>
      </trkpt>
      <trkpt lat="43.73271" lon="3.43156">
        <ele>359.6</ele>
        <time>2017-03-29T07:50:16Z</time>
      </trkpt>
      <trkpt lat="43.73274" lon="3.43146">
        <ele>359.3</ele>
        <time>2017-03-29T07:50:19Z</time>
      </trkpt>
      <trkpt lat="43.73278" lon="3.43135">
        <ele>358.9</ele>
        <time>2017-03-29T07:50:22Z</time>
      </trkpt>
      <trkpt lat="43.73286" lon="3.4313">
        <ele>358.1</ele>
        <time>2017-03-29T07:50:26Z</time>
      </trkpt>
      <trkpt lat="43.73294" lon="3.43127">
        <ele>357.6</ele>
        <time>2017-03-29T07:50:28Z</time>
      </trkpt>
      <trkpt lat="43.73302" lon="3.43124">
        <ele>356.7</ele>
        <time>2017-03-29T07:50:31Z</time>
      </trkpt>
      <trkpt lat="43.73303" lon="3.43115">
        <ele>355.7</ele>
        <time>2017-03-29T07:50:34Z</time>
      </trkpt>
      <trkpt lat="43.73305" lon="3.43103">
        <ele>354.4</ele>
        <time>2017-03-29T07:50:37Z</time>
      </trkpt>
      <trkpt lat="43.73307" lon="3.43092">
        <ele>349.5</ele>
        <time>2017-03-29T07:50:39Z</time>
      </trkpt>
      <trkpt lat="43.73307" lon="3.43076">
        <ele>348.1</ele>
        <time>2017-03-29T07:50:42Z</time>
      </trkpt>
      <trkpt lat="43.73301" lon="3.43064">
        <ele>346.9</ele>
        <time>2017-03-29T07:50:45Z</time>
      </trkpt>
      <trkpt lat="43.73297" lon="3.43053">
        <ele>345.6</ele>
        <time>2017-03-29T07:50:48Z</time>
      </trkpt>
      <trkpt lat="43.73301" lon="3.43041">
        <ele>343.6</ele>
        <time>2017-03-29T07:50:52Z</time>
      </trkpt>
      <trkpt lat="43.73301" lon="3.43029">
        <ele>342</ele>
        <time>2017-03-29T07:50:55Z</time>
      </trkpt>
      <trkpt lat="43.7331" lon="3.43027">
        <ele>339</ele>
        <time>2017-03-29T07:51:00Z</time>
      </trkpt>
      <trkpt lat="43.73315" lon="3.43032">
        <ele>335.8</ele>
        <time>2017-03-29T07:51:07Z</time>
      </trkpt>
      <trkpt lat="43.73313" lon="3.43031">
        <ele>334.3</ele>
        <time>2017-03-29T07:51:21Z</time>
      </trkpt>
      <trkpt lat="43.73315" lon="3.43027">
        <ele>332</ele>
        <time>2017-03-29T07:51:34Z</time>
      </trkpt>
      <trkpt lat="43.73316" lon="3.43024">
        <ele>331.5</ele>
        <time>2017-03-29T07:51:42Z</time>
      </trkpt>
      <trkpt lat="43.73314" lon="3.43029">
        <ele>327.6</ele>
        <time>2017-03-29T07:52:01Z</time>
      </trkpt>
      <trkpt lat="43.73318" lon="3.43028">
        <ele>327.2</ele>
        <time>2017-03-29T07:52:11Z</time>
      </trkpt>
      <trkpt lat="43.73319" lon="3.43035">
        <ele>324.1</ele>
        <time>2017-03-29T07:52:41Z</time>
      </trkpt>
      <trkpt lat="43.73316" lon="3.43034">
        <ele>323.2</ele>
        <time>2017-03-29T07:52:48Z</time>
      </trkpt>
      <trkpt lat="43.73315" lon="3.43031">
        <ele>322.6</ele>
        <time>2017-03-29T07:52:55Z</time>
      </trkpt>
      <trkpt lat="43.73312" lon="3.43025">
        <ele>321.8</ele>
        <time>2017-03-29T07:53:06Z</time>
      </trkpt>
      <trkpt lat="43.73312" lon="3.43021">
        <ele>321.9</ele>
        <time>2017-03-29T07:53:13Z</time>
      </trkpt>
      <trkpt lat="43.73313" lon="3.43026">
        <ele>321.5</ele>
        <time>2017-03-29T07:53:22Z</time>
      </trkpt>
      <trkpt lat="43.73322" lon="3.4304">
        <ele>318.3</ele>
        <time>2017-03-29T07:53:46Z</time>
      </trkpt>
      <trkpt lat="43.73329" lon="3.43046">
        <ele>317.9</ele>
        <time>2017-03-29T07:53:51Z</time>
      </trkpt>
      <trkpt lat="43.73333" lon="3.43054">
        <ele>317.4</ele>
        <time>2017-03-29T07:53:56Z</time>
      </trkpt>
      <trkpt lat="43.73339" lon="3.43062">
        <ele>317.4</ele>
        <time>2017-03-29T07:54:01Z</time>
      </trkpt>
      <trkpt lat="43.73344" lon="3.43069">
        <ele>317.6</ele>
        <time>2017-03-29T07:54:06Z</time>
      </trkpt>
      <trkpt lat="43.7335" lon="3.43077">
        <ele>317.7</ele>
        <time>2017-03-29T07:54:11Z</time>
      </trkpt>
      <trkpt lat="43.73357" lon="3.43084">
        <ele>317.5</ele>
        <time>2017-03-29T07:54:15Z</time>
      </trkpt>
      <trkpt lat="43.73363" lon="3.43092">
        <ele>317.4</ele>
        <time>2017-03-29T07:54:22Z</time>
      </trkpt>
      <trkpt lat="43.73368" lon="3.431">
        <ele>317.7</ele>
        <time>2017-03-29T07:54:27Z</time>
      </trkpt>
      <trkpt lat="43.73372" lon="3.43109">
        <ele>318.2</ele>
        <time>2017-03-29T07:54:32Z</time>
      </trkpt>
      <trkpt lat="43.73378" lon="3.43117">
        <ele>318.7</ele>
        <time>2017-03-29T07:54:38Z</time>
      </trkpt>
      <trkpt lat="43.73383" lon="3.43124">
        <ele>318.9</ele>
        <time>2017-03-29T07:54:44Z</time>
      </trkpt>
      <trkpt lat="43.7339" lon="3.43117">
        <ele>319.1</ele>
        <time>2017-03-29T07:54:50Z</time>
      </trkpt>
      <trkpt lat="43.73394" lon="3.43105">
        <ele>318.9</ele>
        <time>2017-03-29T07:54:53Z</time>
      </trkpt>
      <trkpt lat="43.73391" lon="3.43095">
        <ele>318.4</ele>
        <time>2017-03-29T07:54:56Z</time>
      </trkpt>
      <trkpt lat="43.7339" lon="3.43084">
        <ele>317.7</ele>
        <time>2017-03-29T07:55:00Z</time>
      </trkpt>
      <trkpt lat="43.7339" lon="3.43073">
        <ele>316.9</ele>
        <time>2017-03-29T07:55:03Z</time>
      </trkpt>
      <trkpt lat="43.73398" lon="3.43068">
        <ele>315.4</ele>
        <time>2017-03-29T07:55:08Z</time>
      </trkpt>
      <trkpt lat="43.73402" lon="3.43058">
        <ele>314.4</ele>
        <time>2017-03-29T07:55:11Z</time>
      </trkpt>
      <trkpt lat="43.7341" lon="3.43054">
        <ele>313.3</ele>
        <time>2017-03-29T07:55:14Z</time>
      </trkpt>
      <trkpt lat="43.73418" lon="3.4305">
        <ele>312.5</ele>
        <time>2017-03-29T07:55:16Z</time>
      </trkpt>
      <trkpt lat="43.73422" lon="3.43041">
        <ele>311.3</ele>
        <time>2017-03-29T07:55:19Z</time>
      </trkpt>
      <trkpt lat="43.73425" lon="3.43029">
        <ele>309.5</ele>
        <time>2017-03-29T07:55:23Z</time>
      </trkpt>
      <trkpt lat="43.73427" lon="3.43018">
        <ele>307</ele>
        <time>2017-03-29T07:55:28Z</time>
      </trkpt>
      <trkpt lat="43.73436" lon="3.43015">
        <ele>304.8</ele>
        <time>2017-03-29T07:55:32Z</time>
      </trkpt>
      <trkpt lat="43.73444" lon="3.43013">
        <ele>303.8</ele>
        <time>2017-03-29T07:55:34Z</time>
      </trkpt>
      <trkpt lat="43.73453" lon="3.43009">
        <ele>297.9</ele>
        <time>2017-03-29T07:55:36Z</time>
      </trkpt>
      <trkpt lat="43.73461" lon="3.43005">
        <ele>297</ele>
        <time>2017-03-29T07:55:38Z</time>
      </trkpt>
      <trkpt lat="43.7347" lon="3.43008">
        <ele>295.5</ele>
        <time>2017-03-29T07:55:41Z</time>
      </trkpt>
      <trkpt lat="43.73477" lon="3.43012">
        <ele>293.9</ele>
        <time>2017-03-29T07:55:44Z</time>
      </trkpt>
      <trkpt lat="43.73485" lon="3.43015">
        <ele>291</ele>
        <time>2017-03-29T07:55:50Z</time>
      </trkpt>
      <trkpt lat="43.73492" lon="3.43014">
        <ele>287.7</ele>
        <time>2017-03-29T07:55:57Z</time>
      </trkpt>
      <trkpt lat="43.73499" lon="3.43008">
        <ele>286</ele>
        <time>2017-03-29T07:56:01Z</time>
      </trkpt>
      <trkpt lat="43.735" lon="3.42993">
        <ele>284.7</ele>
        <time>2017-03-29T07:56:05Z</time>
      </trkpt>
      <trkpt lat="43.73498" lon="3.42982">
        <ele>283.5</ele>
        <time>2017-03-29T07:56:08Z</time>
      </trkpt>
      <trkpt lat="43.73498" lon="3.4297">
        <ele>282.4</ele>
        <time>2017-03-29T07:56:11Z</time>
      </trkpt>
      <trkpt lat="43.73507" lon="3.42967">
        <ele>280.7</ele>
        <time>2017-03-29T07:56:16Z</time>
      </trkpt>
      <trkpt lat="43.73513" lon="3.42974">
        <ele>278.3</ele>
        <time>2017-03-29T07:56:23Z</time>
      </trkpt>
      <trkpt lat="43.7352" lon="3.42981">
        <ele>276.5</ele>
        <time>2017-03-29T07:56:29Z</time>
      </trkpt>
      <trkpt lat="43.73525" lon="3.42988">
        <ele>275</ele>
        <time>2017-03-29T07:56:36Z</time>
      </trkpt>
      <trkpt lat="43.7353" lon="3.42982">
        <ele>273.5</ele>
        <time>2017-03-29T07:56:43Z</time>
      </trkpt>
      <trkpt lat="43.73532" lon="3.4297">
        <ele>272.7</ele>
        <time>2017-03-29T07:56:49Z</time>
      </trkpt>
      <trkpt lat="43.73533" lon="3.42969">
        <ele>271.4</ele>
        <time>2017-03-29T07:56:56Z</time>
      </trkpt>
      <trkpt lat="43.73539" lon="3.42959">
        <ele>267.7</ele>
        <time>2017-03-29T07:57:17Z</time>
      </trkpt>
      <trkpt lat="43.73543" lon="3.42957">
        <ele>267.1</ele>
        <time>2017-03-29T07:57:24Z</time>
      </trkpt>
      <trkpt lat="43.73545" lon="3.42954">
        <ele>265.2</ele>
        <time>2017-03-29T07:57:38Z</time>
      </trkpt>
      <trkpt lat="43.73551" lon="3.42946">
        <ele>264.7</ele>
        <time>2017-03-29T07:57:42Z</time>
      </trkpt>
      <trkpt lat="43.73556" lon="3.42937">
        <ele>264.2</ele>
        <time>2017-03-29T07:57:46Z</time>
      </trkpt>
      <trkpt lat="43.73552" lon="3.42926">
        <ele>264</ele>
        <time>2017-03-29T07:57:52Z</time>
      </trkpt>
      <trkpt lat="43.73552" lon="3.42914">
        <ele>264.6</ele>
        <time>2017-03-29T07:57:57Z</time>
      </trkpt>
      <trkpt lat="43.73545" lon="3.42912">
        <ele>265.3</ele>
        <time>2017-03-29T07:58:02Z</time>
      </trkpt>
      <trkpt lat="43.73538" lon="3.42908">
        <ele>265.7</ele>
        <time>2017-03-29T07:58:09Z</time>
      </trkpt>
      <trkpt lat="43.73532" lon="3.42903">
        <ele>265.9</ele>
        <time>2017-03-29T07:58:13Z</time>
      </trkpt>
      <trkpt lat="43.73532" lon="3.42898">
        <ele>266.4</ele>
        <time>2017-03-29T07:58:20Z</time>
      </trkpt>
      <trkpt lat="43.73541" lon="3.42897">
        <ele>266.6</ele>
        <time>2017-03-29T07:58:25Z</time>
      </trkpt>
      <trkpt lat="43.73548" lon="3.42897">
        <ele>267</ele>
        <time>2017-03-29T07:58:30Z</time>
      </trkpt>
      <trkpt lat="43.73557" lon="3.42897">
        <ele>267.4</ele>
        <time>2017-03-29T07:58:36Z</time>
      </trkpt>
      <trkpt lat="43.73564" lon="3.429">
        <ele>267.9</ele>
        <time>2017-03-29T07:58:41Z</time>
      </trkpt>
      <trkpt lat="43.73572" lon="3.429">
        <ele>268.2</ele>
        <time>2017-03-29T07:58:47Z</time>
      </trkpt>
      <trkpt lat="43.73579" lon="3.42904">
        <ele>268.4</ele>
        <time>2017-03-29T07:58:51Z</time>
      </trkpt>
      <trkpt lat="43.73587" lon="3.42906">
        <ele>268.8</ele>
        <time>2017-03-29T07:58:58Z</time>
      </trkpt>
      <trkpt lat="43.73594" lon="3.42906">
        <ele>269</ele>
        <time>2017-03-29T07:59:03Z</time>
      </trkpt>
      <trkpt lat="43.73603" lon="3.42907">
        <ele>269.4</ele>
        <time>2017-03-29T07:59:08Z</time>
      </trkpt>
      <trkpt lat="43.73613" lon="3.42906">
        <ele>269.6</ele>
        <time>2017-03-29T07:59:12Z</time>
      </trkpt>
      <trkpt lat="43.7362" lon="3.42904">
        <ele>269.5</ele>
        <time>2017-03-29T07:59:15Z</time>
      </trkpt>
      <trkpt lat="43.73628" lon="3.42904">
        <ele>269.9</ele>
        <time>2017-03-29T07:59:20Z</time>
      </trkpt>
      <trkpt lat="43.73635" lon="3.42909">
        <ele>270.2</ele>
        <time>2017-03-29T07:59:25Z</time>
      </trkpt>
      <trkpt lat="43.7364" lon="3.42917">
        <ele>270.5</ele>
        <time>2017-03-29T07:59:29Z</time>
      </trkpt>
      <trkpt lat="43.73646" lon="3.42927">
        <ele>271</ele>
        <time>2017-03-29T07:59:34Z</time>
      </trkpt>
      <trkpt lat="43.73649" lon="3.42936">
        <ele>271.2</ele>
        <time>2017-03-29T07:59:37Z</time>
      </trkpt>
      <trkpt lat="43.73654" lon="3.42948">
        <ele>271.1</ele>
        <time>2017-03-29T07:59:40Z</time>
      </trkpt>
      <trkpt lat="43.73661" lon="3.42956">
        <ele>271</ele>
        <time>2017-03-29T07:59:42Z</time>
      </trkpt>
      <trkpt lat="43.73671" lon="3.42962">
        <ele>271.6</ele>
        <time>2017-03-29T07:59:44Z</time>
      </trkpt>
      <trkpt lat="43.73679" lon="3.42964">
        <ele>271.7</ele>
        <time>2017-03-29T07:59:46Z</time>
      </trkpt>
      <trkpt lat="43.73688" lon="3.42966">
        <ele>271</ele>
        <time>2017-03-29T07:59:48Z</time>
      </trkpt>
      <trkpt lat="43.73696" lon="3.42967">
        <ele>270.3</ele>
        <time>2017-03-29T07:59:50Z</time>
      </trkpt>
      <trkpt lat="43.73707" lon="3.42967">
        <ele>270.2</ele>
        <time>2017-03-29T07:59:53Z</time>
      </trkpt>
      <trkpt lat="43.73714" lon="3.42968">
        <ele>270.2</ele>
        <time>2017-03-29T07:59:55Z</time>
      </trkpt>
      <trkpt lat="43.73724" lon="3.42968">
        <ele>270.1</ele>
        <time>2017-03-29T07:59:58Z</time>
      </trkpt>
      <trkpt lat="43.73733" lon="3.42967">
        <ele>270</ele>
        <time>2017-03-29T08:00:01Z</time>
      </trkpt>
      <trkpt lat="43.73741" lon="3.42968">
        <ele>270</ele>
        <time>2017-03-29T08:00:04Z</time>
      </trkpt>
      <trkpt lat="43.7375" lon="3.42969">
        <ele>269.9</ele>
        <time>2017-03-29T08:00:07Z</time>
      </trkpt>
      <trkpt lat="43.73758" lon="3.4297">
        <ele>269.5</ele>
        <time>2017-03-29T08:00:09Z</time>
      </trkpt>
      <trkpt lat="43.73767" lon="3.42971">
        <ele>269.9</ele>
        <time>2017-03-29T08:00:11Z</time>
      </trkpt>
      <trkpt lat="43.73774" lon="3.42971">
        <ele>269.9</ele>
        <time>2017-03-29T08:00:13Z</time>
      </trkpt>
      <trkpt lat="43.73782" lon="3.42969">
        <ele>269.7</ele>
        <time>2017-03-29T08:00:17Z</time>
      </trkpt>
      <trkpt lat="43.73792" lon="3.42971">
        <ele>269.5</ele>
        <time>2017-03-29T08:00:21Z</time>
      </trkpt>
      <trkpt lat="43.73799" lon="3.42971">
        <ele>269.6</ele>
        <time>2017-03-29T08:00:24Z</time>
      </trkpt>
      <trkpt lat="43.73808" lon="3.42971">
        <ele>269.9</ele>
        <time>2017-03-29T08:00:28Z</time>
      </trkpt>
      <trkpt lat="43.73815" lon="3.4297">
        <ele>270.1</ele>
        <time>2017-03-29T08:00:31Z</time>
      </trkpt>
      <trkpt lat="43.73823" lon="3.42969">
        <ele>270.4</ele>
        <time>2017-03-29T08:00:35Z</time>
      </trkpt>
      <trkpt lat="43.73831" lon="3.42969">
        <ele>270.8</ele>
        <time>2017-03-29T08:00:39Z</time>
      </trkpt>
      <trkpt lat="43.73841" lon="3.4297">
        <ele>271.1</ele>
        <time>2017-03-29T08:00:42Z</time>
      </trkpt>
      <trkpt lat="43.7385" lon="3.42972">
        <ele>271.5</ele>
        <time>2017-03-29T08:00:45Z</time>
      </trkpt>
      <trkpt lat="43.73857" lon="3.42974">
        <ele>272.1</ele>
        <time>2017-03-29T08:00:48Z</time>
      </trkpt>
      <trkpt lat="43.73864" lon="3.42975">
        <ele>272.6</ele>
        <time>2017-03-29T08:00:52Z</time>
      </trkpt>
      <trkpt lat="43.73873" lon="3.42973">
        <ele>272.9</ele>
        <time>2017-03-29T08:00:56Z</time>
      </trkpt>
      <trkpt lat="43.7388" lon="3.4297">
        <ele>273.2</ele>
        <time>2017-03-29T08:01:00Z</time>
      </trkpt>
      <trkpt lat="43.73888" lon="3.42968">
        <ele>273.4</ele>
        <time>2017-03-29T08:01:04Z</time>
      </trkpt>
      <trkpt lat="43.73896" lon="3.42967">
        <ele>273.5</ele>
        <time>2017-03-29T08:01:08Z</time>
      </trkpt>
      <trkpt lat="43.73906" lon="3.42966">
        <ele>273.6</ele>
        <time>2017-03-29T08:01:12Z</time>
      </trkpt>
      <trkpt lat="43.73914" lon="3.42965">
        <ele>273.6</ele>
        <time>2017-03-29T08:01:15Z</time>
      </trkpt>
      <trkpt lat="43.73922" lon="3.42963">
        <ele>273.7</ele>
        <time>2017-03-29T08:01:19Z</time>
      </trkpt>
      <trkpt lat="43.7393" lon="3.42962">
        <ele>273.6</ele>
        <time>2017-03-29T08:01:24Z</time>
      </trkpt>
      <trkpt lat="43.73939" lon="3.42962">
        <ele>273.6</ele>
        <time>2017-03-29T08:01:28Z</time>
      </trkpt>
      <trkpt lat="43.73947" lon="3.42962">
        <ele>274.3</ele>
        <time>2017-03-29T08:01:33Z</time>
      </trkpt>
      <trkpt lat="43.73955" lon="3.4296">
        <ele>274.6</ele>
        <time>2017-03-29T08:01:37Z</time>
      </trkpt>
      <trkpt lat="43.73964" lon="3.42958">
        <ele>274.9</ele>
        <time>2017-03-29T08:01:42Z</time>
      </trkpt>
      <trkpt lat="43.73971" lon="3.42958">
        <ele>275.4</ele>
        <time>2017-03-29T08:01:46Z</time>
      </trkpt>
      <trkpt lat="43.73979" lon="3.42958">
        <ele>276</ele>
        <time>2017-03-29T08:01:50Z</time>
      </trkpt>
      <trkpt lat="43.73988" lon="3.42957">
        <ele>276.8</ele>
        <time>2017-03-29T08:01:55Z</time>
      </trkpt>
      <trkpt lat="43.73996" lon="3.42956">
        <ele>277.2</ele>
        <time>2017-03-29T08:01:59Z</time>
      </trkpt>
      <trkpt lat="43.74004" lon="3.42956">
        <ele>278.1</ele>
        <time>2017-03-29T08:02:04Z</time>
      </trkpt>
      <trkpt lat="43.74012" lon="3.42958">
        <ele>279.3</ele>
        <time>2017-03-29T08:02:09Z</time>
      </trkpt>
      <trkpt lat="43.74021" lon="3.4296">
        <ele>280.2</ele>
        <time>2017-03-29T08:02:13Z</time>
      </trkpt>
      <trkpt lat="43.74029" lon="3.42964">
        <ele>280.8</ele>
        <time>2017-03-29T08:02:16Z</time>
      </trkpt>
      <trkpt lat="43.74038" lon="3.4297">
        <ele>281.3</ele>
        <time>2017-03-29T08:02:19Z</time>
      </trkpt>
      <trkpt lat="43.74044" lon="3.42974">
        <ele>281.6</ele>
        <time>2017-03-29T08:02:21Z</time>
      </trkpt>
      <trkpt lat="43.74052" lon="3.42978">
        <ele>281.8</ele>
        <time>2017-03-29T08:02:23Z</time>
      </trkpt>
      <trkpt lat="43.74061" lon="3.42982">
        <ele>282.2</ele>
        <time>2017-03-29T08:02:26Z</time>
      </trkpt>
      <trkpt lat="43.74069" lon="3.42983">
        <ele>284.2</ele>
        <time>2017-03-29T08:02:28Z</time>
      </trkpt>
      <trkpt lat="43.74076" lon="3.42986">
        <ele>286.3</ele>
        <time>2017-03-29T08:02:30Z</time>
      </trkpt>
      <trkpt lat="43.74086" lon="3.42989">
        <ele>286.5</ele>
        <time>2017-03-29T08:02:33Z</time>
      </trkpt>
      <trkpt lat="43.74093" lon="3.42994">
        <ele>286.7</ele>
        <time>2017-03-29T08:02:36Z</time>
      </trkpt>
      <trkpt lat="43.74101" lon="3.43003">
        <ele>287.1</ele>
        <time>2017-03-29T08:02:39Z</time>
      </trkpt>
      <trkpt lat="43.74108" lon="3.43012">
        <ele>287.5</ele>
        <time>2017-03-29T08:02:41Z</time>
      </trkpt>
      <trkpt lat="43.74115" lon="3.43017">
        <ele>288.7</ele>
        <time>2017-03-29T08:02:43Z</time>
      </trkpt>
      <trkpt lat="43.74121" lon="3.43023">
        <ele>289.7</ele>
        <time>2017-03-29T08:02:45Z</time>
      </trkpt>
      <trkpt lat="43.74132" lon="3.43031">
        <ele>290.1</ele>
        <time>2017-03-29T08:02:47Z</time>
      </trkpt>
      <trkpt lat="43.74141" lon="3.43036">
        <ele>291</ele>
        <time>2017-03-29T08:02:49Z</time>
      </trkpt>
      <trkpt lat="43.74151" lon="3.43042">
        <ele>290.9</ele>
        <time>2017-03-29T08:02:51Z</time>
      </trkpt>
      <trkpt lat="43.74159" lon="3.43047">
        <ele>290.7</ele>
        <time>2017-03-29T08:02:53Z</time>
      </trkpt>
      <trkpt lat="43.74166" lon="3.43051">
        <ele>290.6</ele>
        <time>2017-03-29T08:02:55Z</time>
      </trkpt>
      <trkpt lat="43.74176" lon="3.43051">
        <ele>290.6</ele>
        <time>2017-03-29T08:02:58Z</time>
      </trkpt>
      <trkpt lat="43.74186" lon="3.43046">
        <ele>290.5</ele>
        <time>2017-03-29T08:03:01Z</time>
      </trkpt>
      <trkpt lat="43.74193" lon="3.43043">
        <ele>290.5</ele>
        <time>2017-03-29T08:03:04Z</time>
      </trkpt>
      <trkpt lat="43.74201" lon="3.43046">
        <ele>290.7</ele>
        <time>2017-03-29T08:03:07Z</time>
      </trkpt>
      <trkpt lat="43.74208" lon="3.4305">
        <ele>291.3</ele>
        <time>2017-03-29T08:03:09Z</time>
      </trkpt>
      <trkpt lat="43.74217" lon="3.43054">
        <ele>291.4</ele>
        <time>2017-03-29T08:03:11Z</time>
      </trkpt>
      <trkpt lat="43.74225" lon="3.43058">
        <ele>291.7</ele>
        <time>2017-03-29T08:03:13Z</time>
      </trkpt>
      <trkpt lat="43.74233" lon="3.43062">
        <ele>291.7</ele>
        <time>2017-03-29T08:03:15Z</time>
      </trkpt>
      <trkpt lat="43.74244" lon="3.43065">
        <ele>291.8</ele>
        <time>2017-03-29T08:03:18Z</time>
      </trkpt>
      <trkpt lat="43.74251" lon="3.43068">
        <ele>291.8</ele>
        <time>2017-03-29T08:03:20Z</time>
      </trkpt>
      <trkpt lat="43.74259" lon="3.4307">
        <ele>291.7</ele>
        <time>2017-03-29T08:03:23Z</time>
      </trkpt>
      <trkpt lat="43.74268" lon="3.43074">
        <ele>291.7</ele>
        <time>2017-03-29T08:03:26Z</time>
      </trkpt>
      <trkpt lat="43.74276" lon="3.43079">
        <ele>291.8</ele>
        <time>2017-03-29T08:03:29Z</time>
      </trkpt>
      <trkpt lat="43.74283" lon="3.43084">
        <ele>291.9</ele>
        <time>2017-03-29T08:03:32Z</time>
      </trkpt>
      <trkpt lat="43.74289" lon="3.43088">
        <ele>292</ele>
        <time>2017-03-29T08:03:34Z</time>
      </trkpt>
      <trkpt lat="43.74298" lon="3.43094">
        <ele>292.4</ele>
        <time>2017-03-29T08:03:37Z</time>
      </trkpt>
      <trkpt lat="43.74307" lon="3.431">
        <ele>292.7</ele>
        <time>2017-03-29T08:03:40Z</time>
      </trkpt>
      <trkpt lat="43.74314" lon="3.43105">
        <ele>292.7</ele>
        <time>2017-03-29T08:03:42Z</time>
      </trkpt>
      <trkpt lat="43.74324" lon="3.4311">
        <ele>292.7</ele>
        <time>2017-03-29T08:03:44Z</time>
      </trkpt>
      <trkpt lat="43.74333" lon="3.43113">
        <ele>291.4</ele>
        <time>2017-03-29T08:03:46Z</time>
      </trkpt>
      <trkpt lat="43.74342" lon="3.43117">
        <ele>290.3</ele>
        <time>2017-03-29T08:03:48Z</time>
      </trkpt>
      <trkpt lat="43.74349" lon="3.43118">
        <ele>290.1</ele>
        <time>2017-03-29T08:03:50Z</time>
      </trkpt>
      <trkpt lat="43.74357" lon="3.43119">
        <ele>289.9</ele>
        <time>2017-03-29T08:03:53Z</time>
      </trkpt>
      <trkpt lat="43.74366" lon="3.4312">
        <ele>289.6</ele>
        <time>2017-03-29T08:03:56Z</time>
      </trkpt>
      <trkpt lat="43.74374" lon="3.4312">
        <ele>289.7</ele>
        <time>2017-03-29T08:03:58Z</time>
      </trkpt>
      <trkpt lat="43.74384" lon="3.4312">
        <ele>289.8</ele>
        <time>2017-03-29T08:04:01Z</time>
      </trkpt>
      <trkpt lat="43.74392" lon="3.43119">
        <ele>289.8</ele>
        <time>2017-03-29T08:04:03Z</time>
      </trkpt>
      <trkpt lat="43.744" lon="3.43117">
        <ele>289.9</ele>
        <time>2017-03-29T08:04:06Z</time>
      </trkpt>
      <trkpt lat="43.74408" lon="3.43117">
        <ele>289.6</ele>
        <time>2017-03-29T08:04:08Z</time>
      </trkpt>
      <trkpt lat="43.74416" lon="3.43117">
        <ele>290.2</ele>
        <time>2017-03-29T08:04:10Z</time>
      </trkpt>
      <trkpt lat="43.74424" lon="3.43116">
        <ele>290.2</ele>
        <time>2017-03-29T08:04:12Z</time>
      </trkpt>
      <trkpt lat="43.74434" lon="3.43114">
        <ele>290.2</ele>
        <time>2017-03-29T08:04:15Z</time>
      </trkpt>
      <trkpt lat="43.74441" lon="3.43114">
        <ele>290.1</ele>
        <time>2017-03-29T08:04:17Z</time>
      </trkpt>
      <trkpt lat="43.74448" lon="3.4312">
        <ele>290.6</ele>
        <time>2017-03-29T08:04:19Z</time>
      </trkpt>
      <trkpt lat="43.74456" lon="3.43122">
        <ele>290.9</ele>
        <time>2017-03-29T08:04:23Z</time>
      </trkpt>
      <trkpt lat="43.74465" lon="3.43121">
        <ele>290.9</ele>
        <time>2017-03-29T08:04:26Z</time>
      </trkpt>
      <trkpt lat="43.74474" lon="3.43117">
        <ele>290.8</ele>
        <time>2017-03-29T08:04:29Z</time>
      </trkpt>
      <trkpt lat="43.74481" lon="3.43111">
        <ele>290.7</ele>
        <time>2017-03-29T08:04:32Z</time>
      </trkpt>
      <trkpt lat="43.7449" lon="3.4311">
        <ele>290.7</ele>
        <time>2017-03-29T08:04:35Z</time>
      </trkpt>
      <trkpt lat="43.745" lon="3.43113">
        <ele>290.8</ele>
        <time>2017-03-29T08:04:38Z</time>
      </trkpt>
      <trkpt lat="43.74508" lon="3.43117">
        <ele>290.9</ele>
        <time>2017-03-29T08:04:41Z</time>
      </trkpt>
      <trkpt lat="43.74517" lon="3.43119">
        <ele>291</ele>
        <time>2017-03-29T08:04:45Z</time>
      </trkpt>
      <trkpt lat="43.74525" lon="3.43121">
        <ele>291.2</ele>
        <time>2017-03-29T08:04:48Z</time>
      </trkpt>
      <trkpt lat="43.74534" lon="3.43124">
        <ele>291.6</ele>
        <time>2017-03-29T08:04:52Z</time>
      </trkpt>
      <trkpt lat="43.74542" lon="3.43126">
        <ele>292.1</ele>
        <time>2017-03-29T08:04:56Z</time>
      </trkpt>
      <trkpt lat="43.74549" lon="3.43131">
        <ele>292.6</ele>
        <time>2017-03-29T08:04:59Z</time>
      </trkpt>
      <trkpt lat="43.74558" lon="3.43137">
        <ele>293.5</ele>
        <time>2017-03-29T08:05:04Z</time>
      </trkpt>
      <trkpt lat="43.74566" lon="3.43143">
        <ele>294.4</ele>
        <time>2017-03-29T08:05:08Z</time>
      </trkpt>
      <trkpt lat="43.74575" lon="3.43148">
        <ele>295.2</ele>
        <time>2017-03-29T08:05:12Z</time>
      </trkpt>
      <trkpt lat="43.74583" lon="3.43151">
        <ele>295.6</ele>
        <time>2017-03-29T08:05:15Z</time>
      </trkpt>
      <trkpt lat="43.74592" lon="3.43154">
        <ele>296.1</ele>
        <time>2017-03-29T08:05:19Z</time>
      </trkpt>
      <trkpt lat="43.746" lon="3.43157">
        <ele>296.4</ele>
        <time>2017-03-29T08:05:22Z</time>
      </trkpt>
      <trkpt lat="43.74609" lon="3.4316">
        <ele>297</ele>
        <time>2017-03-29T08:05:26Z</time>
      </trkpt>
      <trkpt lat="43.74617" lon="3.43162">
        <ele>297.4</ele>
        <time>2017-03-29T08:05:30Z</time>
      </trkpt>
      <trkpt lat="43.74625" lon="3.43164">
        <ele>297.6</ele>
        <time>2017-03-29T08:05:33Z</time>
      </trkpt>
      <trkpt lat="43.74633" lon="3.43167">
        <ele>297.8</ele>
        <time>2017-03-29T08:05:37Z</time>
      </trkpt>
      <trkpt lat="43.7464" lon="3.4317">
        <ele>297.8</ele>
        <time>2017-03-29T08:05:40Z</time>
      </trkpt>
      <trkpt lat="43.74648" lon="3.43172">
        <ele>298.1</ele>
        <time>2017-03-29T08:05:44Z</time>
      </trkpt>
      <trkpt lat="43.74655" lon="3.43175">
        <ele>298.6</ele>
        <time>2017-03-29T08:05:47Z</time>
      </trkpt>
      <trkpt lat="43.74661" lon="3.43181">
        <ele>299.1</ele>
        <time>2017-03-29T08:05:50Z</time>
      </trkpt>
      <trkpt lat="43.74667" lon="3.43188">
        <ele>299.8</ele>
        <time>2017-03-29T08:05:53Z</time>
      </trkpt>
      <trkpt lat="43.74674" lon="3.43193">
        <ele>300.2</ele>
        <time>2017-03-29T08:05:56Z</time>
      </trkpt>
      <trkpt lat="43.74682" lon="3.43188">
        <ele>300.6</ele>
        <time>2017-03-29T08:06:01Z</time>
      </trkpt>
      <trkpt lat="43.74687" lon="3.4318">
        <ele>300.7</ele>
        <time>2017-03-29T08:06:03Z</time>
      </trkpt>
      <trkpt lat="43.74695" lon="3.43179">
        <ele>300.7</ele>
        <time>2017-03-29T08:06:06Z</time>
      </trkpt>
      <trkpt lat="43.74704" lon="3.43181">
        <ele>300.9</ele>
        <time>2017-03-29T08:06:11Z</time>
      </trkpt>
      <trkpt lat="43.74713" lon="3.43182">
        <ele>301.3</ele>
        <time>2017-03-29T08:06:15Z</time>
      </trkpt>
      <trkpt lat="43.74721" lon="3.43182">
        <ele>301.5</ele>
        <time>2017-03-29T08:06:19Z</time>
      </trkpt>
      <trkpt lat="43.74729" lon="3.43185">
        <ele>301.9</ele>
        <time>2017-03-29T08:06:24Z</time>
      </trkpt>
      <trkpt lat="43.74738" lon="3.43186">
        <ele>302.3</ele>
        <time>2017-03-29T08:06:28Z</time>
      </trkpt>
      <trkpt lat="43.74745" lon="3.43187">
        <ele>302.9</ele>
        <time>2017-03-29T08:06:32Z</time>
      </trkpt>
      <trkpt lat="43.74752" lon="3.43187">
        <ele>303.4</ele>
        <time>2017-03-29T08:06:35Z</time>
      </trkpt>
      <trkpt lat="43.74761" lon="3.4319">
        <ele>304.3</ele>
        <time>2017-03-29T08:06:40Z</time>
      </trkpt>
      <trkpt lat="43.74769" lon="3.43191">
        <ele>305.4</ele>
        <time>2017-03-29T08:06:44Z</time>
      </trkpt>
      <trkpt lat="43.74777" lon="3.43192">
        <ele>306.2</ele>
        <time>2017-03-29T08:06:48Z</time>
      </trkpt>
      <trkpt lat="43.74785" lon="3.43194">
        <ele>306.9</ele>
        <time>2017-03-29T08:06:52Z</time>
      </trkpt>
      <trkpt lat="43.74794" lon="3.43198">
        <ele>308</ele>
        <time>2017-03-29T08:06:57Z</time>
      </trkpt>
      <trkpt lat="43.74803" lon="3.432">
        <ele>308.7</ele>
        <time>2017-03-29T08:07:01Z</time>
      </trkpt>
      <trkpt lat="43.74811" lon="3.43201">
        <ele>309.4</ele>
        <time>2017-03-29T08:07:05Z</time>
      </trkpt>
      <trkpt lat="43.74818" lon="3.43202">
        <ele>309.7</ele>
        <time>2017-03-29T08:07:09Z</time>
      </trkpt>
      <trkpt lat="43.74826" lon="3.43204">
        <ele>310.3</ele>
        <time>2017-03-29T08:07:13Z</time>
      </trkpt>
      <trkpt lat="43.74833" lon="3.43206">
        <ele>311.1</ele>
        <time>2017-03-29T08:07:17Z</time>
      </trkpt>
      <trkpt lat="43.74843" lon="3.43207">
        <ele>311.8</ele>
        <time>2017-03-29T08:07:21Z</time>
      </trkpt>
      <trkpt lat="43.7485" lon="3.43209">
        <ele>312.3</ele>
        <time>2017-03-29T08:07:24Z</time>
      </trkpt>
      <trkpt lat="43.7486" lon="3.43211">
        <ele>312.5</ele>
        <time>2017-03-29T08:07:27Z</time>
      </trkpt>
      <trkpt lat="43.74869" lon="3.43214">
        <ele>312.6</ele>
        <time>2017-03-29T08:07:31Z</time>
      </trkpt>
      <trkpt lat="43.74878" lon="3.43213">
        <ele>312.7</ele>
        <time>2017-03-29T08:07:34Z</time>
      </trkpt>
      <trkpt lat="43.74888" lon="3.43214">
        <ele>313</ele>
        <time>2017-03-29T08:07:36Z</time>
      </trkpt>
      <trkpt lat="43.74896" lon="3.43213">
        <ele>313.5</ele>
        <time>2017-03-29T08:07:38Z</time>
      </trkpt>
      <trkpt lat="43.74904" lon="3.43212">
        <ele>313.7</ele>
        <time>2017-03-29T08:07:40Z</time>
      </trkpt>
      <trkpt lat="43.74911" lon="3.43213">
        <ele>314</ele>
        <time>2017-03-29T08:07:42Z</time>
      </trkpt>
      <trkpt lat="43.7492" lon="3.43214">
        <ele>315.2</ele>
        <time>2017-03-29T08:07:44Z</time>
      </trkpt>
      <trkpt lat="43.74928" lon="3.43216">
        <ele>314.9</ele>
        <time>2017-03-29T08:07:46Z</time>
      </trkpt>
      <trkpt lat="43.74936" lon="3.43215">
        <ele>314.8</ele>
        <time>2017-03-29T08:07:48Z</time>
      </trkpt>
      <trkpt lat="43.74944" lon="3.43212">
        <ele>313.1</ele>
        <time>2017-03-29T08:07:50Z</time>
      </trkpt>
      <trkpt lat="43.74948" lon="3.43201">
        <ele>312.9</ele>
        <time>2017-03-29T08:07:54Z</time>
      </trkpt>
      <trkpt lat="43.74943" lon="3.43193">
        <ele>313</ele>
        <time>2017-03-29T08:07:57Z</time>
      </trkpt>
      <trkpt lat="43.74935" lon="3.4319">
        <ele>313.1</ele>
        <time>2017-03-29T08:08:00Z</time>
      </trkpt>
      <trkpt lat="43.74926" lon="3.43188">
        <ele>313.5</ele>
        <time>2017-03-29T08:08:04Z</time>
      </trkpt>
      <trkpt lat="43.74917" lon="3.43186">
        <ele>314</ele>
        <time>2017-03-29T08:08:07Z</time>
      </trkpt>
      <trkpt lat="43.74909" lon="3.43183">
        <ele>314.3</ele>
        <time>2017-03-29T08:08:10Z</time>
      </trkpt>
      <trkpt lat="43.74902" lon="3.4318">
        <ele>314.7</ele>
        <time>2017-03-29T08:08:13Z</time>
      </trkpt>
      <trkpt lat="43.74895" lon="3.43177">
        <ele>315</ele>
        <time>2017-03-29T08:08:16Z</time>
      </trkpt>
      <trkpt lat="43.74887" lon="3.43173">
        <ele>315.5</ele>
        <time>2017-03-29T08:08:20Z</time>
      </trkpt>
      <trkpt lat="43.74877" lon="3.43168">
        <ele>315.7</ele>
        <time>2017-03-29T08:08:24Z</time>
      </trkpt>
      <trkpt lat="43.7487" lon="3.43164">
        <ele>316.1</ele>
        <time>2017-03-29T08:08:28Z</time>
      </trkpt>
      <trkpt lat="43.74863" lon="3.43159">
        <ele>316.3</ele>
        <time>2017-03-29T08:08:32Z</time>
      </trkpt>
      <trkpt lat="43.74855" lon="3.43154">
        <ele>316.6</ele>
        <time>2017-03-29T08:08:35Z</time>
      </trkpt>
      <trkpt lat="43.74848" lon="3.43147">
        <ele>317</ele>
        <time>2017-03-29T08:08:38Z</time>
      </trkpt>
      <trkpt lat="43.74842" lon="3.4314">
        <ele>317.4</ele>
        <time>2017-03-29T08:08:41Z</time>
      </trkpt>
      <trkpt lat="43.74835" lon="3.43131">
        <ele>318</ele>
        <time>2017-03-29T08:08:44Z</time>
      </trkpt>
      <trkpt lat="43.74827" lon="3.43123">
        <ele>318.5</ele>
        <time>2017-03-29T08:08:47Z</time>
      </trkpt>
      <trkpt lat="43.74818" lon="3.43117">
        <ele>318.8</ele>
        <time>2017-03-29T08:08:50Z</time>
      </trkpt>
      <trkpt lat="43.74811" lon="3.43111">
        <ele>319</ele>
        <time>2017-03-29T08:08:53Z</time>
      </trkpt>
      <trkpt lat="43.74803" lon="3.43105">
        <ele>319.1</ele>
        <time>2017-03-29T08:08:57Z</time>
      </trkpt>
      <trkpt lat="43.74795" lon="3.431">
        <ele>319.1</ele>
        <time>2017-03-29T08:09:01Z</time>
      </trkpt>
      <trkpt lat="43.74788" lon="3.43092">
        <ele>319.2</ele>
        <time>2017-03-29T08:09:04Z</time>
      </trkpt>
      <trkpt lat="43.74782" lon="3.43086">
        <ele>319.4</ele>
        <time>2017-03-29T08:09:07Z</time>
      </trkpt>
      <trkpt lat="43.74776" lon="3.4308">
        <ele>319.7</ele>
        <time>2017-03-29T08:09:10Z</time>
      </trkpt>
      <trkpt lat="43.74769" lon="3.43074">
        <ele>320</ele>
        <time>2017-03-29T08:09:13Z</time>
      </trkpt>
      <trkpt lat="43.74761" lon="3.43067">
        <ele>320.2</ele>
        <time>2017-03-29T08:09:16Z</time>
      </trkpt>
      <trkpt lat="43.74755" lon="3.4306">
        <ele>320.2</ele>
        <time>2017-03-29T08:09:19Z</time>
      </trkpt>
      <trkpt lat="43.74746" lon="3.43053">
        <ele>320.3</ele>
        <time>2017-03-29T08:09:23Z</time>
      </trkpt>
      <trkpt lat="43.74738" lon="3.4305">
        <ele>320.4</ele>
        <time>2017-03-29T08:09:25Z</time>
      </trkpt>
      <trkpt lat="43.7473" lon="3.43046">
        <ele>320.2</ele>
        <time>2017-03-29T08:09:28Z</time>
      </trkpt>
      <trkpt lat="43.74721" lon="3.43042">
        <ele>320.3</ele>
        <time>2017-03-29T08:09:32Z</time>
      </trkpt>
      <trkpt lat="43.74711" lon="3.43037">
        <ele>320.5</ele>
        <time>2017-03-29T08:09:35Z</time>
      </trkpt>
      <trkpt lat="43.74704" lon="3.43031">
        <ele>320.8</ele>
        <time>2017-03-29T08:09:38Z</time>
      </trkpt>
      <trkpt lat="43.74695" lon="3.43024">
        <ele>321</ele>
        <time>2017-03-29T08:09:41Z</time>
      </trkpt>
      <trkpt lat="43.74688" lon="3.43018">
        <ele>321.2</ele>
        <time>2017-03-29T08:09:44Z</time>
      </trkpt>
      <trkpt lat="43.74681" lon="3.43012">
        <ele>321.5</ele>
        <time>2017-03-29T08:09:47Z</time>
      </trkpt>
      <trkpt lat="43.74674" lon="3.43007">
        <ele>321.9</ele>
        <time>2017-03-29T08:09:50Z</time>
      </trkpt>
      <trkpt lat="43.74667" lon="3.43">
        <ele>322.3</ele>
        <time>2017-03-29T08:09:53Z</time>
      </trkpt>
      <trkpt lat="43.74659" lon="3.42993">
        <ele>322.5</ele>
        <time>2017-03-29T08:09:56Z</time>
      </trkpt>
      <trkpt lat="43.74653" lon="3.42987">
        <ele>322.7</ele>
        <time>2017-03-29T08:09:59Z</time>
      </trkpt>
      <trkpt lat="43.74645" lon="3.42982">
        <ele>322.9</ele>
        <time>2017-03-29T08:10:02Z</time>
      </trkpt>
      <trkpt lat="43.74638" lon="3.42978">
        <ele>323.2</ele>
        <time>2017-03-29T08:10:05Z</time>
      </trkpt>
      <trkpt lat="43.74629" lon="3.42977">
        <ele>323.6</ele>
        <time>2017-03-29T08:10:08Z</time>
      </trkpt>
      <trkpt lat="43.74621" lon="3.42978">
        <ele>323.9</ele>
        <time>2017-03-29T08:10:11Z</time>
      </trkpt>
      <trkpt lat="43.74613" lon="3.42978">
        <ele>324.3</ele>
        <time>2017-03-29T08:10:14Z</time>
      </trkpt>
      <trkpt lat="43.74606" lon="3.42979">
        <ele>324.3</ele>
        <time>2017-03-29T08:10:17Z</time>
      </trkpt>
      <trkpt lat="43.74598" lon="3.42976">
        <ele>324.4</ele>
        <time>2017-03-29T08:10:20Z</time>
      </trkpt>
      <trkpt lat="43.74588" lon="3.42973">
        <ele>324.6</ele>
        <time>2017-03-29T08:10:24Z</time>
      </trkpt>
      <trkpt lat="43.74581" lon="3.42969">
        <ele>324.9</ele>
        <time>2017-03-29T08:10:27Z</time>
      </trkpt>
      <trkpt lat="43.74574" lon="3.42967">
        <ele>325.1</ele>
        <time>2017-03-29T08:10:30Z</time>
      </trkpt>
      <trkpt lat="43.74564" lon="3.42965">
        <ele>325.3</ele>
        <time>2017-03-29T08:10:34Z</time>
      </trkpt>
      <trkpt lat="43.74557" lon="3.42964">
        <ele>325.6</ele>
        <time>2017-03-29T08:10:38Z</time>
      </trkpt>
      <trkpt lat="43.74547" lon="3.42962">
        <ele>326</ele>
        <time>2017-03-29T08:10:42Z</time>
      </trkpt>
      <trkpt lat="43.74538" lon="3.42961">
        <ele>326.2</ele>
        <time>2017-03-29T08:10:45Z</time>
      </trkpt>
      <trkpt lat="43.74529" lon="3.42959">
        <ele>326.7</ele>
        <time>2017-03-29T08:10:49Z</time>
      </trkpt>
      <trkpt lat="43.7452" lon="3.42957">
        <ele>327.3</ele>
        <time>2017-03-29T08:10:53Z</time>
      </trkpt>
      <trkpt lat="43.74512" lon="3.42954">
        <ele>327.8</ele>
        <time>2017-03-29T08:10:57Z</time>
      </trkpt>
      <trkpt lat="43.74505" lon="3.42951">
        <ele>328.5</ele>
        <time>2017-03-29T08:11:01Z</time>
      </trkpt>
      <trkpt lat="43.74496" lon="3.42948">
        <ele>329.3</ele>
        <time>2017-03-29T08:11:05Z</time>
      </trkpt>
      <trkpt lat="43.74487" lon="3.42943">
        <ele>330.2</ele>
        <time>2017-03-29T08:11:09Z</time>
      </trkpt>
      <trkpt lat="43.74479" lon="3.4294">
        <ele>330.9</ele>
        <time>2017-03-29T08:11:12Z</time>
      </trkpt>
      <trkpt lat="43.74472" lon="3.42938">
        <ele>332</ele>
        <time>2017-03-29T08:11:16Z</time>
      </trkpt>
      <trkpt lat="43.74462" lon="3.42939">
        <ele>332.6</ele>
        <time>2017-03-29T08:11:20Z</time>
      </trkpt>
      <trkpt lat="43.74454" lon="3.42938">
        <ele>332.9</ele>
        <time>2017-03-29T08:11:23Z</time>
      </trkpt>
      <trkpt lat="43.74446" lon="3.42938">
        <ele>333.5</ele>
        <time>2017-03-29T08:11:27Z</time>
      </trkpt>
      <trkpt lat="43.74439" lon="3.42937">
        <ele>333.9</ele>
        <time>2017-03-29T08:11:30Z</time>
      </trkpt>
      <trkpt lat="43.74431" lon="3.42934">
        <ele>334.1</ele>
        <time>2017-03-29T08:11:33Z</time>
      </trkpt>
      <trkpt lat="43.74424" lon="3.42931">
        <ele>334.4</ele>
        <time>2017-03-29T08:11:37Z</time>
      </trkpt>
      <trkpt lat="43.74416" lon="3.42926">
        <ele>334.9</ele>
        <time>2017-03-29T08:11:41Z</time>
      </trkpt>
      <trkpt lat="43.74408" lon="3.42921">
        <ele>335.6</ele>
        <time>2017-03-29T08:11:44Z</time>
      </trkpt>
      <trkpt lat="43.74401" lon="3.42915">
        <ele>336.8</ele>
        <time>2017-03-29T08:11:49Z</time>
      </trkpt>
      <trkpt lat="43.74393" lon="3.42914">
        <ele>338.2</ele>
        <time>2017-03-29T08:11:54Z</time>
      </trkpt>
      <trkpt lat="43.74383" lon="3.42913">
        <ele>339.3</ele>
        <time>2017-03-29T08:11:58Z</time>
      </trkpt>
      <trkpt lat="43.74375" lon="3.42911">
        <ele>340</ele>
        <time>2017-03-29T08:12:02Z</time>
      </trkpt>
      <trkpt lat="43.74367" lon="3.4291">
        <ele>340.5</ele>
        <time>2017-03-29T08:12:06Z</time>
      </trkpt>
      <trkpt lat="43.74359" lon="3.42909">
        <ele>341</ele>
        <time>2017-03-29T08:12:10Z</time>
      </trkpt>
      <trkpt lat="43.74351" lon="3.42907">
        <ele>341.6</ele>
        <time>2017-03-29T08:12:14Z</time>
      </trkpt>
      <trkpt lat="43.74342" lon="3.42904">
        <ele>342.3</ele>
        <time>2017-03-29T08:12:18Z</time>
      </trkpt>
      <trkpt lat="43.74335" lon="3.42902">
        <ele>342.8</ele>
        <time>2017-03-29T08:12:22Z</time>
      </trkpt>
      <trkpt lat="43.74327" lon="3.429">
        <ele>343.1</ele>
        <time>2017-03-29T08:12:25Z</time>
      </trkpt>
      <trkpt lat="43.74318" lon="3.42897">
        <ele>343.2</ele>
        <time>2017-03-29T08:12:28Z</time>
      </trkpt>
      <trkpt lat="43.7431" lon="3.42897">
        <ele>343.6</ele>
        <time>2017-03-29T08:12:33Z</time>
      </trkpt>
      <trkpt lat="43.74301" lon="3.42896">
        <ele>343.9</ele>
        <time>2017-03-29T08:12:37Z</time>
      </trkpt>
      <trkpt lat="43.74293" lon="3.42893">
        <ele>344.4</ele>
        <time>2017-03-29T08:12:41Z</time>
      </trkpt>
      <trkpt lat="43.74285" lon="3.4289">
        <ele>345</ele>
        <time>2017-03-29T08:12:45Z</time>
      </trkpt>
      <trkpt lat="43.74277" lon="3.42887">
        <ele>345.4</ele>
        <time>2017-03-29T08:12:49Z</time>
      </trkpt>
      <trkpt lat="43.7427" lon="3.42883">
        <ele>345.9</ele>
        <time>2017-03-29T08:12:53Z</time>
      </trkpt>
      <trkpt lat="43.74264" lon="3.42877">
        <ele>346.3</ele>
        <time>2017-03-29T08:12:56Z</time>
      </trkpt>
      <trkpt lat="43.74257" lon="3.4287">
        <ele>346.7</ele>
        <time>2017-03-29T08:12:59Z</time>
      </trkpt>
      <trkpt lat="43.74251" lon="3.42861">
        <ele>347.3</ele>
        <time>2017-03-29T08:13:03Z</time>
      </trkpt>
      <trkpt lat="43.74244" lon="3.42853">
        <ele>347.8</ele>
        <time>2017-03-29T08:13:08Z</time>
      </trkpt>
      <trkpt lat="43.74238" lon="3.42845">
        <ele>348.2</ele>
        <time>2017-03-29T08:13:12Z</time>
      </trkpt>
      <trkpt lat="43.74234" lon="3.42837">
        <ele>348.5</ele>
        <time>2017-03-29T08:13:16Z</time>
      </trkpt>
      <trkpt lat="43.7423" lon="3.42828">
        <ele>348.9</ele>
        <time>2017-03-29T08:13:19Z</time>
      </trkpt>
      <trkpt lat="43.74224" lon="3.42818">
        <ele>349</ele>
        <time>2017-03-29T08:13:23Z</time>
      </trkpt>
      <trkpt lat="43.7422" lon="3.42809">
        <ele>349.4</ele>
        <time>2017-03-29T08:13:27Z</time>
      </trkpt>
      <trkpt lat="43.74214" lon="3.42801">
        <ele>350</ele>
        <time>2017-03-29T08:13:31Z</time>
      </trkpt>
      <trkpt lat="43.74207" lon="3.42794">
        <ele>350.7</ele>
        <time>2017-03-29T08:13:36Z</time>
      </trkpt>
      <trkpt lat="43.742" lon="3.42789">
        <ele>351.3</ele>
        <time>2017-03-29T08:13:40Z</time>
      </trkpt>
      <trkpt lat="43.74192" lon="3.42785">
        <ele>352</ele>
        <time>2017-03-29T08:13:44Z</time>
      </trkpt>
      <trkpt lat="43.74184" lon="3.42782">
        <ele>352.8</ele>
        <time>2017-03-29T08:13:48Z</time>
      </trkpt>
      <trkpt lat="43.74176" lon="3.42779">
        <ele>353.2</ele>
        <time>2017-03-29T08:13:51Z</time>
      </trkpt>
      <trkpt lat="43.74168" lon="3.42774">
        <ele>354.2</ele>
        <time>2017-03-29T08:13:55Z</time>
      </trkpt>
      <trkpt lat="43.74161" lon="3.4277">
        <ele>355.5</ele>
        <time>2017-03-29T08:13:59Z</time>
      </trkpt>
      <trkpt lat="43.74151" lon="3.42767">
        <ele>356.6</ele>
        <time>2017-03-29T08:14:03Z</time>
      </trkpt>
      <trkpt lat="43.74144" lon="3.42762">
        <ele>357.3</ele>
        <time>2017-03-29T08:14:06Z</time>
      </trkpt>
      <trkpt lat="43.74136" lon="3.4276">
        <ele>358.2</ele>
        <time>2017-03-29T08:14:10Z</time>
      </trkpt>
      <trkpt lat="43.74127" lon="3.42757">
        <ele>359.3</ele>
        <time>2017-03-29T08:14:14Z</time>
      </trkpt>
      <trkpt lat="43.74119" lon="3.42755">
        <ele>360.1</ele>
        <time>2017-03-29T08:14:18Z</time>
      </trkpt>
      <trkpt lat="43.7411" lon="3.42753">
        <ele>360.6</ele>
        <time>2017-03-29T08:14:22Z</time>
      </trkpt>
      <trkpt lat="43.74101" lon="3.42751">
        <ele>361</ele>
        <time>2017-03-29T08:14:26Z</time>
      </trkpt>
      <trkpt lat="43.74092" lon="3.42748">
        <ele>361.1</ele>
        <time>2017-03-29T08:14:29Z</time>
      </trkpt>
      <trkpt lat="43.74083" lon="3.42744">
        <ele>361.4</ele>
        <time>2017-03-29T08:14:33Z</time>
      </trkpt>
      <trkpt lat="43.74074" lon="3.42739">
        <ele>362</ele>
        <time>2017-03-29T08:14:37Z</time>
      </trkpt>
      <trkpt lat="43.74066" lon="3.42734">
        <ele>362.7</ele>
        <time>2017-03-29T08:14:41Z</time>
      </trkpt>
      <trkpt lat="43.74058" lon="3.42731">
        <ele>363.3</ele>
        <time>2017-03-29T08:14:45Z</time>
      </trkpt>
      <trkpt lat="43.7405" lon="3.42727">
        <ele>364</ele>
        <time>2017-03-29T08:14:49Z</time>
      </trkpt>
      <trkpt lat="43.74041" lon="3.42723">
        <ele>364.8</ele>
        <time>2017-03-29T08:14:53Z</time>
      </trkpt>
      <trkpt lat="43.74034" lon="3.42719">
        <ele>365.2</ele>
        <time>2017-03-29T08:14:56Z</time>
      </trkpt>
      <trkpt lat="43.74026" lon="3.42713">
        <ele>366</ele>
        <time>2017-03-29T08:15:00Z</time>
      </trkpt>
      <trkpt lat="43.74018" lon="3.42707">
        <ele>366.6</ele>
        <time>2017-03-29T08:15:03Z</time>
      </trkpt>
      <trkpt lat="43.7401" lon="3.427">
        <ele>367.5</ele>
        <time>2017-03-29T08:15:07Z</time>
      </trkpt>
      <trkpt lat="43.74003" lon="3.42692">
        <ele>368</ele>
        <time>2017-03-29T08:15:10Z</time>
      </trkpt>
      <trkpt lat="43.73997" lon="3.42683">
        <ele>368.6</ele>
        <time>2017-03-29T08:15:13Z</time>
      </trkpt>
      <trkpt lat="43.73991" lon="3.42676">
        <ele>369</ele>
        <time>2017-03-29T08:15:16Z</time>
      </trkpt>
      <trkpt lat="43.73984" lon="3.42668">
        <ele>369.3</ele>
        <time>2017-03-29T08:15:19Z</time>
      </trkpt>
      <trkpt lat="43.73979" lon="3.4266">
        <ele>369.6</ele>
        <time>2017-03-29T08:15:22Z</time>
      </trkpt>
      <trkpt lat="43.73973" lon="3.42653">
        <ele>370.3</ele>
        <time>2017-03-29T08:15:26Z</time>
      </trkpt>
      <trkpt lat="43.73967" lon="3.42645">
        <ele>370.8</ele>
        <time>2017-03-29T08:15:29Z</time>
      </trkpt>
      <trkpt lat="43.73961" lon="3.42638">
        <ele>371.2</ele>
        <time>2017-03-29T08:15:32Z</time>
      </trkpt>
      <trkpt lat="43.73954" lon="3.42629">
        <ele>371.6</ele>
        <time>2017-03-29T08:15:36Z</time>
      </trkpt>
      <trkpt lat="43.73949" lon="3.42623">
        <ele>371.8</ele>
        <time>2017-03-29T08:15:39Z</time>
      </trkpt>
      <trkpt lat="43.73941" lon="3.42615">
        <ele>372.2</ele>
        <time>2017-03-29T08:15:42Z</time>
      </trkpt>
      <trkpt lat="43.73934" lon="3.42606">
        <ele>373</ele>
        <time>2017-03-29T08:15:46Z</time>
      </trkpt>
      <trkpt lat="43.73927" lon="3.42599">
        <ele>373.6</ele>
        <time>2017-03-29T08:15:49Z</time>
      </trkpt>
      <trkpt lat="43.7392" lon="3.42592">
        <ele>374.5</ele>
        <time>2017-03-29T08:15:53Z</time>
      </trkpt>
      <trkpt lat="43.73914" lon="3.42587">
        <ele>374.9</ele>
        <time>2017-03-29T08:15:56Z</time>
      </trkpt>
      <trkpt lat="43.73907" lon="3.42579">
        <ele>375.5</ele>
        <time>2017-03-29T08:16:01Z</time>
      </trkpt>
      <trkpt lat="43.739" lon="3.42572">
        <ele>376</ele>
        <time>2017-03-29T08:16:05Z</time>
      </trkpt>
      <trkpt lat="43.73899" lon="3.42562">
        <ele>376.9</ele>
        <time>2017-03-29T08:16:10Z</time>
      </trkpt>
      <trkpt lat="43.73906" lon="3.42562">
        <ele>377</ele>
        <time>2017-03-29T08:16:13Z</time>
      </trkpt>
      <trkpt lat="43.73913" lon="3.42567">
        <ele>377.2</ele>
        <time>2017-03-29T08:16:16Z</time>
      </trkpt>
      <trkpt lat="43.73919" lon="3.42572">
        <ele>377.4</ele>
        <time>2017-03-29T08:16:20Z</time>
      </trkpt>
      <trkpt lat="43.73927" lon="3.42579">
        <ele>377.5</ele>
        <time>2017-03-29T08:16:24Z</time>
      </trkpt>
      <trkpt lat="43.73935" lon="3.42587">
        <ele>377.7</ele>
        <time>2017-03-29T08:16:28Z</time>
      </trkpt>
      <trkpt lat="43.73943" lon="3.42592">
        <ele>377.8</ele>
        <time>2017-03-29T08:16:31Z</time>
      </trkpt>
      <trkpt lat="43.7395" lon="3.42595">
        <ele>378.1</ele>
        <time>2017-03-29T08:16:34Z</time>
      </trkpt>
      <trkpt lat="43.73959" lon="3.426">
        <ele>378.4</ele>
        <time>2017-03-29T08:16:37Z</time>
      </trkpt>
      <trkpt lat="43.73968" lon="3.42603">
        <ele>379</ele>
        <time>2017-03-29T08:16:41Z</time>
      </trkpt>
      <trkpt lat="43.73975" lon="3.42609">
        <ele>379.6</ele>
        <time>2017-03-29T08:16:45Z</time>
      </trkpt>
      <trkpt lat="43.73981" lon="3.42615">
        <ele>380</ele>
        <time>2017-03-29T08:16:48Z</time>
      </trkpt>
      <trkpt lat="43.73988" lon="3.42621">
        <ele>380.3</ele>
        <time>2017-03-29T08:16:51Z</time>
      </trkpt>
      <trkpt lat="43.73994" lon="3.42627">
        <ele>380.5</ele>
        <time>2017-03-29T08:16:54Z</time>
      </trkpt>
      <trkpt lat="43.74" lon="3.42632">
        <ele>380.7</ele>
        <time>2017-03-29T08:16:57Z</time>
      </trkpt>
      <trkpt lat="43.7401" lon="3.42638">
        <ele>381.1</ele>
        <time>2017-03-29T08:17:01Z</time>
      </trkpt>
      <trkpt lat="43.74017" lon="3.42643">
        <ele>381.2</ele>
        <time>2017-03-29T08:17:04Z</time>
      </trkpt>
      <trkpt lat="43.74024" lon="3.42647">
        <ele>381.6</ele>
        <time>2017-03-29T08:17:08Z</time>
      </trkpt>
      <trkpt lat="43.74033" lon="3.4265">
        <ele>382.1</ele>
        <time>2017-03-29T08:17:12Z</time>
      </trkpt>
      <trkpt lat="43.74042" lon="3.4265">
        <ele>382.7</ele>
        <time>2017-03-29T08:17:16Z</time>
      </trkpt>
      <trkpt lat="43.7405" lon="3.42651">
        <ele>383.1</ele>
        <time>2017-03-29T08:17:19Z</time>
      </trkpt>
      <trkpt lat="43.74059" lon="3.42649">
        <ele>383.5</ele>
        <time>2017-03-29T08:17:23Z</time>
      </trkpt>
      <trkpt lat="43.74067" lon="3.42648">
        <ele>383.8</ele>
        <time>2017-03-29T08:17:26Z</time>
      </trkpt>
      <trkpt lat="43.74075" lon="3.42646">
        <ele>384.3</ele>
        <time>2017-03-29T08:17:30Z</time>
      </trkpt>
      <trkpt lat="43.74083" lon="3.42644">
        <ele>384.7</ele>
        <time>2017-03-29T08:17:33Z</time>
      </trkpt>
      <trkpt lat="43.74092" lon="3.42643">
        <ele>385</ele>
        <time>2017-03-29T08:17:36Z</time>
      </trkpt>
      <trkpt lat="43.74101" lon="3.42643">
        <ele>385.5</ele>
        <time>2017-03-29T08:17:40Z</time>
      </trkpt>
      <trkpt lat="43.74108" lon="3.42643">
        <ele>386.1</ele>
        <time>2017-03-29T08:17:43Z</time>
      </trkpt>
      <trkpt lat="43.74118" lon="3.42643">
        <ele>386.7</ele>
        <time>2017-03-29T08:17:46Z</time>
      </trkpt>
      <trkpt lat="43.74128" lon="3.42642">
        <ele>387.5</ele>
        <time>2017-03-29T08:17:50Z</time>
      </trkpt>
      <trkpt lat="43.74137" lon="3.42642">
        <ele>388.1</ele>
        <time>2017-03-29T08:17:53Z</time>
      </trkpt>
      <trkpt lat="43.74145" lon="3.42637">
        <ele>388.5</ele>
        <time>2017-03-29T08:17:57Z</time>
      </trkpt>
      <trkpt lat="43.74153" lon="3.42631">
        <ele>388.7</ele>
        <time>2017-03-29T08:18:00Z</time>
      </trkpt>
      <trkpt lat="43.74162" lon="3.42624">
        <ele>388.8</ele>
        <time>2017-03-29T08:18:03Z</time>
      </trkpt>
      <trkpt lat="43.74169" lon="3.42614">
        <ele>388.9</ele>
        <time>2017-03-29T08:18:06Z</time>
      </trkpt>
      <trkpt lat="43.74174" lon="3.42607">
        <ele>389.1</ele>
        <time>2017-03-29T08:18:08Z</time>
      </trkpt>
      <trkpt lat="43.7418" lon="3.42599">
        <ele>389.2</ele>
        <time>2017-03-29T08:18:10Z</time>
      </trkpt>
      <trkpt lat="43.74185" lon="3.42592">
        <ele>389.3</ele>
        <time>2017-03-29T08:18:12Z</time>
      </trkpt>
      <trkpt lat="43.74191" lon="3.4258">
        <ele>389.5</ele>
        <time>2017-03-29T08:18:15Z</time>
      </trkpt>
      <trkpt lat="43.74198" lon="3.42568">
        <ele>389.7</ele>
        <time>2017-03-29T08:18:18Z</time>
      </trkpt>
      <trkpt lat="43.74202" lon="3.4256">
        <ele>389.8</ele>
        <time>2017-03-29T08:18:20Z</time>
      </trkpt>
      <trkpt lat="43.74207" lon="3.42551">
        <ele>390.2</ele>
        <time>2017-03-29T08:18:23Z</time>
      </trkpt>
      <trkpt lat="43.74212" lon="3.42543">
        <ele>390.4</ele>
        <time>2017-03-29T08:18:26Z</time>
      </trkpt>
      <trkpt lat="43.74216" lon="3.42534">
        <ele>390.6</ele>
        <time>2017-03-29T08:18:28Z</time>
      </trkpt>
      <trkpt lat="43.74221" lon="3.42525">
        <ele>390.8</ele>
        <time>2017-03-29T08:18:30Z</time>
      </trkpt>
      <trkpt lat="43.74226" lon="3.42514">
        <ele>391</ele>
        <time>2017-03-29T08:18:33Z</time>
      </trkpt>
      <trkpt lat="43.74231" lon="3.42502">
        <ele>391.3</ele>
        <time>2017-03-29T08:18:36Z</time>
      </trkpt>
      <trkpt lat="43.74234" lon="3.42492">
        <ele>391.5</ele>
        <time>2017-03-29T08:18:38Z</time>
      </trkpt>
      <trkpt lat="43.74238" lon="3.4248">
        <ele>391.7</ele>
        <time>2017-03-29T08:18:41Z</time>
      </trkpt>
      <trkpt lat="43.74242" lon="3.42466">
        <ele>392.8</ele>
        <time>2017-03-29T08:18:44Z</time>
      </trkpt>
      <trkpt lat="43.74243" lon="3.42455">
        <ele>394.4</ele>
        <time>2017-03-29T08:18:46Z</time>
      </trkpt>
      <trkpt lat="43.74245" lon="3.42443">
        <ele>394.8</ele>
        <time>2017-03-29T08:18:48Z</time>
      </trkpt>
      <trkpt lat="43.74246" lon="3.4243">
        <ele>394.8</ele>
        <time>2017-03-29T08:18:51Z</time>
      </trkpt>
      <trkpt lat="43.74247" lon="3.4242">
        <ele>394.8</ele>
        <time>2017-03-29T08:18:53Z</time>
      </trkpt>
      <trkpt lat="43.74247" lon="3.42404">
        <ele>394.7</ele>
        <time>2017-03-29T08:18:56Z</time>
      </trkpt>
      <trkpt lat="43.74247" lon="3.42394">
        <ele>394.8</ele>
        <time>2017-03-29T08:18:58Z</time>
      </trkpt>
      <trkpt lat="43.74245" lon="3.42379">
        <ele>394.8</ele>
        <time>2017-03-29T08:19:01Z</time>
      </trkpt>
      <trkpt lat="43.74244" lon="3.4237">
        <ele>394.8</ele>
        <time>2017-03-29T08:19:03Z</time>
      </trkpt>
      <trkpt lat="43.74242" lon="3.42358">
        <ele>394.9</ele>
        <time>2017-03-29T08:19:06Z</time>
      </trkpt>
      <trkpt lat="43.74241" lon="3.42344">
        <ele>395.1</ele>
        <time>2017-03-29T08:19:09Z</time>
      </trkpt>
      <trkpt lat="43.7424" lon="3.42332">
        <ele>395.2</ele>
        <time>2017-03-29T08:19:11Z</time>
      </trkpt>
      <trkpt lat="43.74239" lon="3.42322">
        <ele>396.3</ele>
        <time>2017-03-29T08:19:13Z</time>
      </trkpt>
      <trkpt lat="43.74237" lon="3.4231">
        <ele>397.3</ele>
        <time>2017-03-29T08:19:15Z</time>
      </trkpt>
      <trkpt lat="43.74235" lon="3.42297">
        <ele>397.4</ele>
        <time>2017-03-29T08:19:18Z</time>
      </trkpt>
      <trkpt lat="43.74233" lon="3.42284">
        <ele>397.5</ele>
        <time>2017-03-29T08:19:21Z</time>
      </trkpt>
      <trkpt lat="43.74231" lon="3.42271">
        <ele>397.4</ele>
        <time>2017-03-29T08:19:24Z</time>
      </trkpt>
      <trkpt lat="43.74227" lon="3.42261">
        <ele>397.3</ele>
        <time>2017-03-29T08:19:26Z</time>
      </trkpt>
      <trkpt lat="43.74218" lon="3.42253">
        <ele>397.3</ele>
        <time>2017-03-29T08:19:29Z</time>
      </trkpt>
      <trkpt lat="43.74211" lon="3.42249">
        <ele>397.3</ele>
        <time>2017-03-29T08:19:31Z</time>
      </trkpt>
      <trkpt lat="43.74201" lon="3.42244">
        <ele>397.1</ele>
        <time>2017-03-29T08:19:34Z</time>
      </trkpt>
      <trkpt lat="43.74194" lon="3.42242">
        <ele>396.9</ele>
        <time>2017-03-29T08:19:37Z</time>
      </trkpt>
      <trkpt lat="43.74186" lon="3.42238">
        <ele>396.7</ele>
        <time>2017-03-29T08:19:40Z</time>
      </trkpt>
      <trkpt lat="43.74179" lon="3.42232">
        <ele>396.7</ele>
        <time>2017-03-29T08:19:43Z</time>
      </trkpt>
      <trkpt lat="43.74172" lon="3.42222">
        <ele>396.6</ele>
        <time>2017-03-29T08:19:46Z</time>
      </trkpt>
      <trkpt lat="43.74166" lon="3.42216">
        <ele>396.5</ele>
        <time>2017-03-29T08:19:49Z</time>
      </trkpt>
      <trkpt lat="43.74161" lon="3.42208">
        <ele>396.4</ele>
        <time>2017-03-29T08:19:52Z</time>
      </trkpt>
      <trkpt lat="43.74153" lon="3.422">
        <ele>396.3</ele>
        <time>2017-03-29T08:19:55Z</time>
      </trkpt>
      <trkpt lat="43.74145" lon="3.42192">
        <ele>396.3</ele>
        <time>2017-03-29T08:19:58Z</time>
      </trkpt>
      <trkpt lat="43.74138" lon="3.42188">
        <ele>396.2</ele>
        <time>2017-03-29T08:20:01Z</time>
      </trkpt>
      <trkpt lat="43.7413" lon="3.42184">
        <ele>396.2</ele>
        <time>2017-03-29T08:20:04Z</time>
      </trkpt>
      <trkpt lat="43.74123" lon="3.42181">
        <ele>396.1</ele>
        <time>2017-03-29T08:20:07Z</time>
      </trkpt>
      <trkpt lat="43.74115" lon="3.42178">
        <ele>395.7</ele>
        <time>2017-03-29T08:20:10Z</time>
      </trkpt>
      <trkpt lat="43.74106" lon="3.42176">
        <ele>395.4</ele>
        <time>2017-03-29T08:20:13Z</time>
      </trkpt>
      <trkpt lat="43.74097" lon="3.42173">
        <ele>395.1</ele>
        <time>2017-03-29T08:20:16Z</time>
      </trkpt>
      <trkpt lat="43.74089" lon="3.42171">
        <ele>394.9</ele>
        <time>2017-03-29T08:20:19Z</time>
      </trkpt>
      <trkpt lat="43.74081" lon="3.4217">
        <ele>394.8</ele>
        <time>2017-03-29T08:20:22Z</time>
      </trkpt>
      <trkpt lat="43.74074" lon="3.42167">
        <ele>394.8</ele>
        <time>2017-03-29T08:20:25Z</time>
      </trkpt>
      <trkpt lat="43.74066" lon="3.42166">
        <ele>394.7</ele>
        <time>2017-03-29T08:20:28Z</time>
      </trkpt>
      <trkpt lat="43.74059" lon="3.42167">
        <ele>394.6</ele>
        <time>2017-03-29T08:20:31Z</time>
      </trkpt>
      <trkpt lat="43.7405" lon="3.42167">
        <ele>394.5</ele>
        <time>2017-03-29T08:20:35Z</time>
      </trkpt>
      <trkpt lat="43.74043" lon="3.42167">
        <ele>394.6</ele>
        <time>2017-03-29T08:20:41Z</time>
      </trkpt>
      <trkpt lat="43.74033" lon="3.42163">
        <ele>394.5</ele>
        <time>2017-03-29T08:20:47Z</time>
      </trkpt>
      <trkpt lat="43.74027" lon="3.42158">
        <ele>394.8</ele>
        <time>2017-03-29T08:20:50Z</time>
      </trkpt>
      <trkpt lat="43.7402" lon="3.42153">
        <ele>395.1</ele>
        <time>2017-03-29T08:20:53Z</time>
      </trkpt>
      <trkpt lat="43.74014" lon="3.42148">
        <ele>395.5</ele>
        <time>2017-03-29T08:20:58Z</time>
      </trkpt>
      <trkpt lat="43.74006" lon="3.42142">
        <ele>396.2</ele>
        <time>2017-03-29T08:21:03Z</time>
      </trkpt>
      <trkpt lat="43.73997" lon="3.42138">
        <ele>397</ele>
        <time>2017-03-29T08:21:09Z</time>
      </trkpt>
      <trkpt lat="43.73989" lon="3.42132">
        <ele>397.9</ele>
        <time>2017-03-29T08:21:14Z</time>
      </trkpt>
      <trkpt lat="43.73982" lon="3.42127">
        <ele>399</ele>
        <time>2017-03-29T08:21:20Z</time>
      </trkpt>
      <trkpt lat="43.73976" lon="3.42123">
        <ele>399.9</ele>
        <time>2017-03-29T08:21:24Z</time>
      </trkpt>
      <trkpt lat="43.73969" lon="3.42119">
        <ele>401.2</ele>
        <time>2017-03-29T08:21:29Z</time>
      </trkpt>
      <trkpt lat="43.73963" lon="3.42113">
        <ele>402</ele>
        <time>2017-03-29T08:21:33Z</time>
      </trkpt>
      <trkpt lat="43.73955" lon="3.42109">
        <ele>403.2</ele>
        <time>2017-03-29T08:21:38Z</time>
      </trkpt>
      <trkpt lat="43.73947" lon="3.42107">
        <ele>403.8</ele>
        <time>2017-03-29T08:21:42Z</time>
      </trkpt>
      <trkpt lat="43.7394" lon="3.42104">
        <ele>404.4</ele>
        <time>2017-03-29T08:21:46Z</time>
      </trkpt>
      <trkpt lat="43.73933" lon="3.421">
        <ele>405.1</ele>
        <time>2017-03-29T08:21:50Z</time>
      </trkpt>
      <trkpt lat="43.73925" lon="3.42098">
        <ele>405.7</ele>
        <time>2017-03-29T08:21:54Z</time>
      </trkpt>
      <trkpt lat="43.73917" lon="3.42095">
        <ele>406.4</ele>
        <time>2017-03-29T08:21:59Z</time>
      </trkpt>
      <trkpt lat="43.73908" lon="3.42092">
        <ele>407.1</ele>
        <time>2017-03-29T08:22:03Z</time>
      </trkpt>
      <trkpt lat="43.73901" lon="3.42089">
        <ele>407.7</ele>
        <time>2017-03-29T08:22:07Z</time>
      </trkpt>
      <trkpt lat="43.73893" lon="3.42089">
        <ele>408.7</ele>
        <time>2017-03-29T08:22:12Z</time>
      </trkpt>
      <trkpt lat="43.73884" lon="3.42089">
        <ele>409.5</ele>
        <time>2017-03-29T08:22:16Z</time>
      </trkpt>
      <trkpt lat="43.73875" lon="3.42089">
        <ele>410.1</ele>
        <time>2017-03-29T08:22:20Z</time>
      </trkpt>
      <trkpt lat="43.73867" lon="3.4209">
        <ele>410.3</ele>
        <time>2017-03-29T08:22:22Z</time>
      </trkpt>
      <trkpt lat="43.73859" lon="3.4209">
        <ele>410.7</ele>
        <time>2017-03-29T08:22:25Z</time>
      </trkpt>
      <trkpt lat="43.7385" lon="3.42088">
        <ele>411.2</ele>
        <time>2017-03-29T08:22:29Z</time>
      </trkpt>
      <trkpt lat="43.73842" lon="3.42087">
        <ele>411.8</ele>
        <time>2017-03-29T08:22:33Z</time>
      </trkpt>
      <trkpt lat="43.73834" lon="3.42085">
        <ele>412.4</ele>
        <time>2017-03-29T08:22:37Z</time>
      </trkpt>
      <trkpt lat="43.73826" lon="3.42082">
        <ele>413</ele>
        <time>2017-03-29T08:22:41Z</time>
      </trkpt>
      <trkpt lat="43.73816" lon="3.42081">
        <ele>413.7</ele>
        <time>2017-03-29T08:22:45Z</time>
      </trkpt>
      <trkpt lat="43.73809" lon="3.42079">
        <ele>414.1</ele>
        <time>2017-03-29T08:22:48Z</time>
      </trkpt>
      <trkpt lat="43.73802" lon="3.42076">
        <ele>414.4</ele>
        <time>2017-03-29T08:22:51Z</time>
      </trkpt>
      <trkpt lat="43.73794" lon="3.4207">
        <ele>415.2</ele>
        <time>2017-03-29T08:22:55Z</time>
      </trkpt>
      <trkpt lat="43.73787" lon="3.42066">
        <ele>415.8</ele>
        <time>2017-03-29T08:22:58Z</time>
      </trkpt>
      <trkpt lat="43.73779" lon="3.42063">
        <ele>416.5</ele>
        <time>2017-03-29T08:23:02Z</time>
      </trkpt>
      <trkpt lat="43.73771" lon="3.42063">
        <ele>417</ele>
        <time>2017-03-29T08:23:06Z</time>
      </trkpt>
      <trkpt lat="43.73761" lon="3.42065">
        <ele>417.3</ele>
        <time>2017-03-29T08:23:09Z</time>
      </trkpt>
      <trkpt lat="43.73753" lon="3.42066">
        <ele>417.8</ele>
        <time>2017-03-29T08:23:12Z</time>
      </trkpt>
      <trkpt lat="43.73746" lon="3.42069">
        <ele>418.3</ele>
        <time>2017-03-29T08:23:15Z</time>
      </trkpt>
      <trkpt lat="43.73737" lon="3.42072">
        <ele>418.8</ele>
        <time>2017-03-29T08:23:19Z</time>
      </trkpt>
      <trkpt lat="43.73728" lon="3.42068">
        <ele>419.4</ele>
        <time>2017-03-29T08:23:23Z</time>
      </trkpt>
      <trkpt lat="43.73722" lon="3.42061">
        <ele>420</ele>
        <time>2017-03-29T08:23:26Z</time>
      </trkpt>
      <trkpt lat="43.73715" lon="3.42057">
        <ele>420.6</ele>
        <time>2017-03-29T08:23:29Z</time>
      </trkpt>
      <trkpt lat="43.73707" lon="3.42059">
        <ele>421</ele>
        <time>2017-03-29T08:23:32Z</time>
      </trkpt>
      <trkpt lat="43.737" lon="3.42064">
        <ele>421.4</ele>
        <time>2017-03-29T08:23:35Z</time>
      </trkpt>
      <trkpt lat="43.73693" lon="3.42072">
        <ele>421.7</ele>
        <time>2017-03-29T08:23:38Z</time>
      </trkpt>
      <trkpt lat="43.73686" lon="3.42082">
        <ele>422.1</ele>
        <time>2017-03-29T08:23:41Z</time>
      </trkpt>
      <trkpt lat="43.7368" lon="3.42088">
        <ele>422.6</ele>
        <time>2017-03-29T08:23:44Z</time>
      </trkpt>
      <trkpt lat="43.7367" lon="3.4209">
        <ele>422.8</ele>
        <time>2017-03-29T08:23:47Z</time>
      </trkpt>
      <trkpt lat="43.73662" lon="3.42091">
        <ele>423</ele>
        <time>2017-03-29T08:23:49Z</time>
      </trkpt>
      <trkpt lat="43.73653" lon="3.42092">
        <ele>423.3</ele>
        <time>2017-03-29T08:23:52Z</time>
      </trkpt>
      <trkpt lat="43.73643" lon="3.42091">
        <ele>423.5</ele>
        <time>2017-03-29T08:23:55Z</time>
      </trkpt>
      <trkpt lat="43.73637" lon="3.42089">
        <ele>424.1</ele>
        <time>2017-03-29T08:24:02Z</time>
      </trkpt>
      <trkpt lat="43.73635" lon="3.42086">
        <ele>425.2</ele>
        <time>2017-03-29T08:24:25Z</time>
      </trkpt>
      <trkpt lat="43.73634" lon="3.42089">
        <ele>425.7</ele>
        <time>2017-03-29T08:24:46Z</time>
      </trkpt>
      <trkpt lat="43.7363" lon="3.42082">
        <ele>428.9</ele>
        <time>2017-03-29T08:26:12Z</time>
      </trkpt>
      <trkpt lat="43.73632" lon="3.42087">
        <ele>428.9</ele>
        <time>2017-03-29T08:26:19Z</time>
      </trkpt>
      <trkpt lat="43.73632" lon="3.42092">
        <ele>427.5</ele>
        <time>2017-03-29T08:27:09Z</time>
      </trkpt>
      <trkpt lat="43.73634" lon="3.42094">
        <ele>426.9</ele>
        <time>2017-03-29T08:27:33Z</time>
      </trkpt>
      <trkpt lat="43.73635" lon="3.42092">
        <ele>426.9</ele>
        <time>2017-03-29T08:27:41Z</time>
      </trkpt>
      <trkpt lat="43.73634" lon="3.42089">
        <ele>426.6</ele>
        <time>2017-03-29T08:28:06Z</time>
      </trkpt>
      <trkpt lat="43.73637" lon="3.4209">
        <ele>427.9</ele>
        <time>2017-03-29T08:28:29Z</time>
      </trkpt>
      <trkpt lat="43.73633" lon="3.42089">
        <ele>428.6</ele>
        <time>2017-03-29T08:28:41Z</time>
      </trkpt>
      <trkpt lat="43.73624" lon="3.42088">
        <ele>428.6</ele>
        <time>2017-03-29T08:28:44Z</time>
      </trkpt>
      <trkpt lat="43.73611" lon="3.4209">
        <ele>426.8</ele>
        <time>2017-03-29T08:28:46Z</time>
      </trkpt>
      <trkpt lat="43.73603" lon="3.42092">
        <ele>425.9</ele>
        <time>2017-03-29T08:28:47Z</time>
      </trkpt>
      <trkpt lat="43.73595" lon="3.42091">
        <ele>424.6</ele>
        <time>2017-03-29T08:28:48Z</time>
      </trkpt>
      <trkpt lat="43.73582" lon="3.42094">
        <ele>422.8</ele>
        <time>2017-03-29T08:28:50Z</time>
      </trkpt>
      <trkpt lat="43.73573" lon="3.421">
        <ele>421.9</ele>
        <time>2017-03-29T08:28:52Z</time>
      </trkpt>
      <trkpt lat="43.73565" lon="3.42106">
        <ele>421.5</ele>
        <time>2017-03-29T08:28:55Z</time>
      </trkpt>
      <trkpt lat="43.73561" lon="3.42116">
        <ele>420.8</ele>
        <time>2017-03-29T08:28:58Z</time>
      </trkpt>
      <trkpt lat="43.73556" lon="3.42127">
        <ele>416.8</ele>
        <time>2017-03-29T08:29:00Z</time>
      </trkpt>
      <trkpt lat="43.73556" lon="3.42139">
        <ele>416.5</ele>
        <time>2017-03-29T08:29:02Z</time>
      </trkpt>
      <trkpt lat="43.73561" lon="3.42151">
        <ele>415.8</ele>
        <time>2017-03-29T08:29:05Z</time>
      </trkpt>
      <trkpt lat="43.73565" lon="3.4216">
        <ele>412.3</ele>
        <time>2017-03-29T08:29:08Z</time>
      </trkpt>
      <trkpt lat="43.73559" lon="3.42171">
        <ele>411.5</ele>
        <time>2017-03-29T08:29:11Z</time>
      </trkpt>
      <trkpt lat="43.73551" lon="3.42175">
        <ele>410.7</ele>
        <time>2017-03-29T08:29:14Z</time>
      </trkpt>
      <trkpt lat="43.73545" lon="3.42181">
        <ele>410.1</ele>
        <time>2017-03-29T08:29:16Z</time>
      </trkpt>
      <trkpt lat="43.73541" lon="3.42194">
        <ele>409.2</ele>
        <time>2017-03-29T08:29:19Z</time>
      </trkpt>
      <trkpt lat="43.73536" lon="3.42204">
        <ele>408</ele>
        <time>2017-03-29T08:29:22Z</time>
      </trkpt>
      <trkpt lat="43.73534" lon="3.42216">
        <ele>406.7</ele>
        <time>2017-03-29T08:29:25Z</time>
      </trkpt>
      <trkpt lat="43.73534" lon="3.42228">
        <ele>405.2</ele>
        <time>2017-03-29T08:29:28Z</time>
      </trkpt>
      <trkpt lat="43.73528" lon="3.42239">
        <ele>403.6</ele>
        <time>2017-03-29T08:29:31Z</time>
      </trkpt>
      <trkpt lat="43.73524" lon="3.42248">
        <ele>398</ele>
        <time>2017-03-29T08:29:33Z</time>
      </trkpt>
      <trkpt lat="43.73518" lon="3.42257">
        <ele>393</ele>
        <time>2017-03-29T08:29:35Z</time>
      </trkpt>
      <trkpt lat="43.73509" lon="3.42265">
        <ele>385.3</ele>
        <time>2017-03-29T08:29:37Z</time>
      </trkpt>
      <trkpt lat="43.73501" lon="3.42268">
        <ele>384.7</ele>
        <time>2017-03-29T08:29:39Z</time>
      </trkpt>
      <trkpt lat="43.73492" lon="3.4227">
        <ele>384.2</ele>
        <time>2017-03-29T08:29:41Z</time>
      </trkpt>
      <trkpt lat="43.73485" lon="3.42275">
        <ele>379.7</ele>
        <time>2017-03-29T08:29:43Z</time>
      </trkpt>
      <trkpt lat="43.73481" lon="3.42285">
        <ele>377</ele>
        <time>2017-03-29T08:29:45Z</time>
      </trkpt>
      <trkpt lat="43.73473" lon="3.42293">
        <ele>372.6</ele>
        <time>2017-03-29T08:29:47Z</time>
      </trkpt>
      <trkpt lat="43.73465" lon="3.42301">
        <ele>367.6</ele>
        <time>2017-03-29T08:29:50Z</time>
      </trkpt>
      <trkpt lat="43.73459" lon="3.42308">
        <ele>367.2</ele>
        <time>2017-03-29T08:29:53Z</time>
      </trkpt>
      <trkpt lat="43.73456" lon="3.42318">
        <ele>366.5</ele>
        <time>2017-03-29T08:29:57Z</time>
      </trkpt>
      <trkpt lat="43.73457" lon="3.4233">
        <ele>365.8</ele>
        <time>2017-03-29T08:30:00Z</time>
      </trkpt>
      <trkpt lat="43.73465" lon="3.42339">
        <ele>363.5</ele>
        <time>2017-03-29T08:30:03Z</time>
      </trkpt>
      <trkpt lat="43.73469" lon="3.42351">
        <ele>359.6</ele>
        <time>2017-03-29T08:30:05Z</time>
      </trkpt>
      <trkpt lat="43.73462" lon="3.42358">
        <ele>359</ele>
        <time>2017-03-29T08:30:08Z</time>
      </trkpt>
      <trkpt lat="43.73452" lon="3.42361">
        <ele>355.8</ele>
        <time>2017-03-29T08:30:11Z</time>
      </trkpt>
      <trkpt lat="43.73444" lon="3.42366">
        <ele>354.8</ele>
        <time>2017-03-29T08:30:13Z</time>
      </trkpt>
      <trkpt lat="43.73438" lon="3.42376">
        <ele>351.8</ele>
        <time>2017-03-29T08:30:15Z</time>
      </trkpt>
      <trkpt lat="43.7343" lon="3.42388">
        <ele>348.5</ele>
        <time>2017-03-29T08:30:17Z</time>
      </trkpt>
      <trkpt lat="43.73427" lon="3.424">
        <ele>348.2</ele>
        <time>2017-03-29T08:30:19Z</time>
      </trkpt>
      <trkpt lat="43.73434" lon="3.42404">
        <ele>347.7</ele>
        <time>2017-03-29T08:30:22Z</time>
      </trkpt>
      <trkpt lat="43.73435" lon="3.42415">
        <ele>347.1</ele>
        <time>2017-03-29T08:30:25Z</time>
      </trkpt>
      <trkpt lat="43.73442" lon="3.42423">
        <ele>346</ele>
        <time>2017-03-29T08:30:31Z</time>
      </trkpt>
      <trkpt lat="43.73443" lon="3.42433">
        <ele>345.6</ele>
        <time>2017-03-29T08:30:33Z</time>
      </trkpt>
      <trkpt lat="43.73437" lon="3.42446">
        <ele>341.5</ele>
        <time>2017-03-29T08:30:36Z</time>
      </trkpt>
      <trkpt lat="43.73439" lon="3.42459">
        <ele>338.1</ele>
        <time>2017-03-29T08:30:38Z</time>
      </trkpt>
      <trkpt lat="43.73436" lon="3.42468">
        <ele>337.6</ele>
        <time>2017-03-29T08:30:40Z</time>
      </trkpt>
      <trkpt lat="43.73437" lon="3.42479">
        <ele>336.9</ele>
        <time>2017-03-29T08:30:43Z</time>
      </trkpt>
      <trkpt lat="43.73441" lon="3.42488">
        <ele>333.8</ele>
        <time>2017-03-29T08:30:45Z</time>
      </trkpt>
      <trkpt lat="43.73443" lon="3.42503">
        <ele>327.4</ele>
        <time>2017-03-29T08:30:48Z</time>
      </trkpt>
      <trkpt lat="43.73437" lon="3.42516">
        <ele>323.1</ele>
        <time>2017-03-29T08:30:50Z</time>
      </trkpt>
      <trkpt lat="43.7343" lon="3.42529">
        <ele>320.1</ele>
        <time>2017-03-29T08:30:52Z</time>
      </trkpt>
      <trkpt lat="43.7342" lon="3.42541">
        <ele>317.8</ele>
        <time>2017-03-29T08:30:54Z</time>
      </trkpt>
      <trkpt lat="43.73413" lon="3.42551">
        <ele>314.7</ele>
        <time>2017-03-29T08:30:56Z</time>
      </trkpt>
      <trkpt lat="43.73406" lon="3.42555">
        <ele>314.6</ele>
        <time>2017-03-29T08:30:58Z</time>
      </trkpt>
      <trkpt lat="43.73397" lon="3.42561">
        <ele>314.5</ele>
        <time>2017-03-29T08:31:00Z</time>
      </trkpt>
      <trkpt lat="43.7339" lon="3.42571">
        <ele>314.5</ele>
        <time>2017-03-29T08:31:03Z</time>
      </trkpt>
      <trkpt lat="43.73383" lon="3.42585">
        <ele>314.2</ele>
        <time>2017-03-29T08:31:06Z</time>
      </trkpt>
      <trkpt lat="43.73378" lon="3.42598">
        <ele>311.8</ele>
        <time>2017-03-29T08:31:08Z</time>
      </trkpt>
      <trkpt lat="43.73376" lon="3.42608">
        <ele>311.6</ele>
        <time>2017-03-29T08:31:10Z</time>
      </trkpt>
      <trkpt lat="43.73374" lon="3.42625">
        <ele>309.2</ele>
        <time>2017-03-29T08:31:13Z</time>
      </trkpt>
      <trkpt lat="43.73367" lon="3.42636">
        <ele>308.7</ele>
        <time>2017-03-29T08:31:16Z</time>
      </trkpt>
      <trkpt lat="43.73367" lon="3.42648">
        <ele>307.3</ele>
        <time>2017-03-29T08:31:18Z</time>
      </trkpt>
      <trkpt lat="43.73365" lon="3.4266">
        <ele>306.2</ele>
        <time>2017-03-29T08:31:20Z</time>
      </trkpt>
      <trkpt lat="43.73366" lon="3.42675">
        <ele>305.8</ele>
        <time>2017-03-29T08:31:23Z</time>
      </trkpt>
      <trkpt lat="43.73364" lon="3.42689">
        <ele>302.8</ele>
        <time>2017-03-29T08:31:26Z</time>
      </trkpt>
      <trkpt lat="43.73362" lon="3.42703">
        <ele>302.1</ele>
        <time>2017-03-29T08:31:29Z</time>
      </trkpt>
      <trkpt lat="43.73366" lon="3.42712">
        <ele>298.8</ele>
        <time>2017-03-29T08:31:31Z</time>
      </trkpt>
      <trkpt lat="43.73365" lon="3.42727">
        <ele>295.1</ele>
        <time>2017-03-29T08:31:34Z</time>
      </trkpt>
      <trkpt lat="43.73367" lon="3.42732">
        <ele>293.7</ele>
        <time>2017-03-29T08:31:41Z</time>
      </trkpt>
      <trkpt lat="43.73373" lon="3.4274">
        <ele>291.8</ele>
        <time>2017-03-29T08:31:51Z</time>
      </trkpt>
      <trkpt lat="43.73377" lon="3.42751">
        <ele>291.3</ele>
        <time>2017-03-29T08:31:53Z</time>
      </trkpt>
      <trkpt lat="43.73373" lon="3.42766">
        <ele>284.3</ele>
        <time>2017-03-29T08:31:57Z</time>
      </trkpt>
      <trkpt lat="43.73367" lon="3.42774">
        <ele>283.3</ele>
        <time>2017-03-29T08:32:00Z</time>
      </trkpt>
      <trkpt lat="43.73357" lon="3.42778">
        <ele>277.4</ele>
        <time>2017-03-29T08:32:46Z</time>
      </trkpt>
      <trkpt lat="43.73351" lon="3.42788">
        <ele>271.8</ele>
        <time>2017-03-29T08:32:48Z</time>
      </trkpt>
      <trkpt lat="43.73343" lon="3.428">
        <ele>267.6</ele>
        <time>2017-03-29T08:32:50Z</time>
      </trkpt>
      <trkpt lat="43.73335" lon="3.42813">
        <ele>264.1</ele>
        <time>2017-03-29T08:32:52Z</time>
      </trkpt>
      <trkpt lat="43.73323" lon="3.42815">
        <ele>263.8</ele>
        <time>2017-03-29T08:32:55Z</time>
      </trkpt>
      <trkpt lat="43.73316" lon="3.42807">
        <ele>263.1</ele>
        <time>2017-03-29T08:32:57Z</time>
      </trkpt>
      <trkpt lat="43.73308" lon="3.428">
        <ele>262.3</ele>
        <time>2017-03-29T08:32:59Z</time>
      </trkpt>
      <trkpt lat="43.73298" lon="3.42794">
        <ele>261.7</ele>
        <time>2017-03-29T08:33:01Z</time>
      </trkpt>
      <trkpt lat="43.73291" lon="3.42788">
        <ele>262.7</ele>
        <time>2017-03-29T08:33:03Z</time>
      </trkpt>
      <trkpt lat="43.73283" lon="3.42783">
        <ele>263.3</ele>
        <time>2017-03-29T08:33:05Z</time>
      </trkpt>
      <trkpt lat="43.73274" lon="3.42777">
        <ele>263.7</ele>
        <time>2017-03-29T08:33:07Z</time>
      </trkpt>
      <trkpt lat="43.73266" lon="3.42771">
        <ele>263.3</ele>
        <time>2017-03-29T08:33:09Z</time>
      </trkpt>
      <trkpt lat="43.73259" lon="3.42765">
        <ele>262.9</ele>
        <time>2017-03-29T08:33:11Z</time>
      </trkpt>
      <trkpt lat="43.73251" lon="3.42759">
        <ele>262.7</ele>
        <time>2017-03-29T08:33:13Z</time>
      </trkpt>
      <trkpt lat="43.73242" lon="3.42751">
        <ele>262</ele>
        <time>2017-03-29T08:33:15Z</time>
      </trkpt>
      <trkpt lat="43.73232" lon="3.42743">
        <ele>261.8</ele>
        <time>2017-03-29T08:33:17Z</time>
      </trkpt>
      <trkpt lat="43.73223" lon="3.42735">
        <ele>262.3</ele>
        <time>2017-03-29T08:33:19Z</time>
      </trkpt>
      <trkpt lat="43.73211" lon="3.42727">
        <ele>262.5</ele>
        <time>2017-03-29T08:33:21Z</time>
      </trkpt>
      <trkpt lat="43.73199" lon="3.42721">
        <ele>262.1</ele>
        <time>2017-03-29T08:33:23Z</time>
      </trkpt>
      <trkpt lat="43.73186" lon="3.42714">
        <ele>261.3</ele>
        <time>2017-03-29T08:33:25Z</time>
      </trkpt>
      <trkpt lat="43.73175" lon="3.42707">
        <ele>260.2</ele>
        <time>2017-03-29T08:33:27Z</time>
      </trkpt>
      <trkpt lat="43.73163" lon="3.427">
        <ele>258.9</ele>
        <time>2017-03-29T08:33:29Z</time>
      </trkpt>
      <trkpt lat="43.73152" lon="3.42692">
        <ele>258.2</ele>
        <time>2017-03-29T08:33:31Z</time>
      </trkpt>
      <trkpt lat="43.73139" lon="3.42683">
        <ele>258</ele>
        <time>2017-03-29T08:33:33Z</time>
      </trkpt>
      <trkpt lat="43.73128" lon="3.42677">
        <ele>258.1</ele>
        <time>2017-03-29T08:33:35Z</time>
      </trkpt>
      <trkpt lat="43.73116" lon="3.42671">
        <ele>257.2</ele>
        <time>2017-03-29T08:33:37Z</time>
      </trkpt>
      <trkpt lat="43.73109" lon="3.42668">
        <ele>256.5</ele>
        <time>2017-03-29T08:33:38Z</time>
      </trkpt>
      <trkpt lat="43.73099" lon="3.42654">
        <ele>254.5</ele>
        <time>2017-03-29T08:33:40Z</time>
      </trkpt>
      <trkpt lat="43.73093" lon="3.42642">
        <ele>253.7</ele>
        <time>2017-03-29T08:33:42Z</time>
      </trkpt>
      <trkpt lat="43.73087" lon="3.42634">
        <ele>253.7</ele>
        <time>2017-03-29T08:33:44Z</time>
      </trkpt>
      <trkpt lat="43.7308" lon="3.42627">
        <ele>254.5</ele>
        <time>2017-03-29T08:33:47Z</time>
      </trkpt>
      <trkpt lat="43.73073" lon="3.42622">
        <ele>254.5</ele>
        <time>2017-03-29T08:33:49Z</time>
      </trkpt>
      <trkpt lat="43.73062" lon="3.42619">
        <ele>255.3</ele>
        <time>2017-03-29T08:33:52Z</time>
      </trkpt>
      <trkpt lat="43.73055" lon="3.42615">
        <ele>255.4</ele>
        <time>2017-03-29T08:33:54Z</time>
      </trkpt>
      <trkpt lat="43.73045" lon="3.42609">
        <ele>255.7</ele>
        <time>2017-03-29T08:33:57Z</time>
      </trkpt>
      <trkpt lat="43.73037" lon="3.42604">
        <ele>256.3</ele>
        <time>2017-03-29T08:34:00Z</time>
      </trkpt>
      <trkpt lat="43.73028" lon="3.42598">
        <ele>256.9</ele>
        <time>2017-03-29T08:34:03Z</time>
      </trkpt>
      <trkpt lat="43.73019" lon="3.42592">
        <ele>257.6</ele>
        <time>2017-03-29T08:34:07Z</time>
      </trkpt>
      <trkpt lat="43.73012" lon="3.42589">
        <ele>257.9</ele>
        <time>2017-03-29T08:34:09Z</time>
      </trkpt>
      <trkpt lat="43.73003" lon="3.42584">
        <ele>258.3</ele>
        <time>2017-03-29T08:34:12Z</time>
      </trkpt>
      <trkpt lat="43.72993" lon="3.42578">
        <ele>258.8</ele>
        <time>2017-03-29T08:34:15Z</time>
      </trkpt>
      <trkpt lat="43.72985" lon="3.42574">
        <ele>259.1</ele>
        <time>2017-03-29T08:34:17Z</time>
      </trkpt>
      <trkpt lat="43.72977" lon="3.4257">
        <ele>261.1</ele>
        <time>2017-03-29T08:34:19Z</time>
      </trkpt>
      <trkpt lat="43.72969" lon="3.42565">
        <ele>262.9</ele>
        <time>2017-03-29T08:34:21Z</time>
      </trkpt>
      <trkpt lat="43.72962" lon="3.42562">
        <ele>263.8</ele>
        <time>2017-03-29T08:34:22Z</time>
      </trkpt>
      <trkpt lat="43.72955" lon="3.42557">
        <ele>264</ele>
        <time>2017-03-29T08:34:25Z</time>
      </trkpt>
      <trkpt lat="43.72947" lon="3.42553">
        <ele>264.1</ele>
        <time>2017-03-29T08:34:27Z</time>
      </trkpt>
      <trkpt lat="43.72939" lon="3.42551">
        <ele>264.1</ele>
        <time>2017-03-29T08:34:29Z</time>
      </trkpt>
      <trkpt lat="43.72932" lon="3.42548">
        <ele>264.7</ele>
        <time>2017-03-29T08:34:31Z</time>
      </trkpt>
      <trkpt lat="43.72924" lon="3.42545">
        <ele>264.9</ele>
        <time>2017-03-29T08:34:33Z</time>
      </trkpt>
      <trkpt lat="43.72916" lon="3.42543">
        <ele>264.9</ele>
        <time>2017-03-29T08:34:35Z</time>
      </trkpt>
      <trkpt lat="43.72908" lon="3.4254">
        <ele>264.9</ele>
        <time>2017-03-29T08:34:37Z</time>
      </trkpt>
      <trkpt lat="43.72899" lon="3.42535">
        <ele>265.1</ele>
        <time>2017-03-29T08:34:39Z</time>
      </trkpt>
      <trkpt lat="43.72888" lon="3.42531">
        <ele>264.6</ele>
        <time>2017-03-29T08:34:41Z</time>
      </trkpt>
      <trkpt lat="43.7288" lon="3.42531">
        <ele>263.5</ele>
        <time>2017-03-29T08:34:42Z</time>
      </trkpt>
      <trkpt lat="43.72867" lon="3.42529">
        <ele>261.7</ele>
        <time>2017-03-29T08:34:45Z</time>
      </trkpt>
      <trkpt lat="43.72855" lon="3.42528">
        <ele>260.3</ele>
        <time>2017-03-29T08:34:47Z</time>
      </trkpt>
      <trkpt lat="43.72842" lon="3.42522">
        <ele>259.8</ele>
        <time>2017-03-29T08:34:49Z</time>
      </trkpt>
      <trkpt lat="43.7283" lon="3.42514">
        <ele>259.8</ele>
        <time>2017-03-29T08:34:51Z</time>
      </trkpt>
      <trkpt lat="43.72818" lon="3.42506">
        <ele>261.4</ele>
        <time>2017-03-29T08:34:53Z</time>
      </trkpt>
      <trkpt lat="43.72808" lon="3.42502">
        <ele>260.7</ele>
        <time>2017-03-29T08:34:55Z</time>
      </trkpt>
      <trkpt lat="43.72798" lon="3.42499">
        <ele>258.7</ele>
        <time>2017-03-29T08:34:57Z</time>
      </trkpt>
      <trkpt lat="43.72789" lon="3.42498">
        <ele>257</ele>
        <time>2017-03-29T08:34:59Z</time>
      </trkpt>
      <trkpt lat="43.72776" lon="3.42498">
        <ele>255.4</ele>
        <time>2017-03-29T08:35:01Z</time>
      </trkpt>
      <trkpt lat="43.72763" lon="3.42498">
        <ele>254.2</ele>
        <time>2017-03-29T08:35:03Z</time>
      </trkpt>
      <trkpt lat="43.72755" lon="3.42499">
        <ele>253.5</ele>
        <time>2017-03-29T08:35:04Z</time>
      </trkpt>
      <trkpt lat="43.72746" lon="3.42499">
        <ele>252.6</ele>
        <time>2017-03-29T08:35:05Z</time>
      </trkpt>
      <trkpt lat="43.72739" lon="3.425">
        <ele>251.6</ele>
        <time>2017-03-29T08:35:06Z</time>
      </trkpt>
      <trkpt lat="43.7273" lon="3.42501">
        <ele>250.6</ele>
        <time>2017-03-29T08:35:07Z</time>
      </trkpt>
      <trkpt lat="43.72722" lon="3.42502">
        <ele>250</ele>
        <time>2017-03-29T08:35:08Z</time>
      </trkpt>
      <trkpt lat="43.72714" lon="3.42503">
        <ele>249.3</ele>
        <time>2017-03-29T08:35:09Z</time>
      </trkpt>
      <trkpt lat="43.727" lon="3.42505">
        <ele>247.9</ele>
        <time>2017-03-29T08:35:11Z</time>
      </trkpt>
      <trkpt lat="43.72686" lon="3.42504">
        <ele>246.6</ele>
        <time>2017-03-29T08:35:13Z</time>
      </trkpt>
      <trkpt lat="43.72671" lon="3.42501">
        <ele>246.1</ele>
        <time>2017-03-29T08:35:15Z</time>
      </trkpt>
      <trkpt lat="43.72662" lon="3.42498">
        <ele>245.9</ele>
        <time>2017-03-29T08:35:16Z</time>
      </trkpt>
      <trkpt lat="43.72654" lon="3.42494">
        <ele>245.5</ele>
        <time>2017-03-29T08:35:17Z</time>
      </trkpt>
      <trkpt lat="43.72647" lon="3.42491">
        <ele>245.1</ele>
        <time>2017-03-29T08:35:18Z</time>
      </trkpt>
      <trkpt lat="43.72633" lon="3.42482">
        <ele>245</ele>
        <time>2017-03-29T08:35:20Z</time>
      </trkpt>
      <trkpt lat="43.72627" lon="3.42476">
        <ele>245</ele>
        <time>2017-03-29T08:35:21Z</time>
      </trkpt>
      <trkpt lat="43.7262" lon="3.42469">
        <ele>244.9</ele>
        <time>2017-03-29T08:35:22Z</time>
      </trkpt>
      <trkpt lat="43.72613" lon="3.42462">
        <ele>244.5</ele>
        <time>2017-03-29T08:35:23Z</time>
      </trkpt>
      <trkpt lat="43.72605" lon="3.4246">
        <ele>244.3</ele>
        <time>2017-03-29T08:35:24Z</time>
      </trkpt>
      <trkpt lat="43.72597" lon="3.42458">
        <ele>243.5</ele>
        <time>2017-03-29T08:35:25Z</time>
      </trkpt>
      <trkpt lat="43.7259" lon="3.4246">
        <ele>243</ele>
        <time>2017-03-29T08:35:26Z</time>
      </trkpt>
      <trkpt lat="43.72578" lon="3.42464">
        <ele>242.8</ele>
        <time>2017-03-29T08:35:28Z</time>
      </trkpt>
      <trkpt lat="43.72567" lon="3.42469">
        <ele>243.9</ele>
        <time>2017-03-29T08:35:30Z</time>
      </trkpt>
      <trkpt lat="43.72556" lon="3.42475">
        <ele>243.9</ele>
        <time>2017-03-29T08:35:32Z</time>
      </trkpt>
      <trkpt lat="43.72547" lon="3.42479">
        <ele>244.4</ele>
        <time>2017-03-29T08:35:34Z</time>
      </trkpt>
      <trkpt lat="43.72538" lon="3.42481">
        <ele>244.1</ele>
        <time>2017-03-29T08:35:36Z</time>
      </trkpt>
      <trkpt lat="43.7253" lon="3.42483">
        <ele>244.3</ele>
        <time>2017-03-29T08:35:38Z</time>
      </trkpt>
      <trkpt lat="43.72521" lon="3.42483">
        <ele>244.9</ele>
        <time>2017-03-29T08:35:40Z</time>
      </trkpt>
      <trkpt lat="43.72511" lon="3.42484">
        <ele>244.8</ele>
        <time>2017-03-29T08:35:42Z</time>
      </trkpt>
      <trkpt lat="43.72501" lon="3.42487">
        <ele>244</ele>
        <time>2017-03-29T08:35:44Z</time>
      </trkpt>
      <trkpt lat="43.72492" lon="3.4249">
        <ele>243.7</ele>
        <time>2017-03-29T08:35:46Z</time>
      </trkpt>
      <trkpt lat="43.72481" lon="3.42493">
        <ele>243.4</ele>
        <time>2017-03-29T08:35:48Z</time>
      </trkpt>
      <trkpt lat="43.72469" lon="3.42496">
        <ele>242.7</ele>
        <time>2017-03-29T08:35:50Z</time>
      </trkpt>
      <trkpt lat="43.72454" lon="3.42499">
        <ele>241.8</ele>
        <time>2017-03-29T08:35:52Z</time>
      </trkpt>
      <trkpt lat="43.72446" lon="3.42499">
        <ele>241.1</ele>
        <time>2017-03-29T08:35:53Z</time>
      </trkpt>
      <trkpt lat="43.72437" lon="3.42499">
        <ele>240.3</ele>
        <time>2017-03-29T08:35:54Z</time>
      </trkpt>
      <trkpt lat="43.72428" lon="3.42499">
        <ele>239.6</ele>
        <time>2017-03-29T08:35:55Z</time>
      </trkpt>
      <trkpt lat="43.72419" lon="3.42498">
        <ele>239</ele>
        <time>2017-03-29T08:35:56Z</time>
      </trkpt>
      <trkpt lat="43.72407" lon="3.42496">
        <ele>238.8</ele>
        <time>2017-03-29T08:35:58Z</time>
      </trkpt>
      <trkpt lat="43.72396" lon="3.42495">
        <ele>238.8</ele>
        <time>2017-03-29T08:36:00Z</time>
      </trkpt>
      <trkpt lat="43.72383" lon="3.42492">
        <ele>237.4</ele>
        <time>2017-03-29T08:36:02Z</time>
      </trkpt>
      <trkpt lat="43.72372" lon="3.42485">
        <ele>236.2</ele>
        <time>2017-03-29T08:36:04Z</time>
      </trkpt>
      <trkpt lat="43.72362" lon="3.42476">
        <ele>235.9</ele>
        <time>2017-03-29T08:36:06Z</time>
      </trkpt>
      <trkpt lat="43.7235" lon="3.42471">
        <ele>235.5</ele>
        <time>2017-03-29T08:36:08Z</time>
      </trkpt>
      <trkpt lat="43.72336" lon="3.42463">
        <ele>234.8</ele>
        <time>2017-03-29T08:36:10Z</time>
      </trkpt>
      <trkpt lat="43.72325" lon="3.42455">
        <ele>234.8</ele>
        <time>2017-03-29T08:36:12Z</time>
      </trkpt>
      <trkpt lat="43.72315" lon="3.42447">
        <ele>235.5</ele>
        <time>2017-03-29T08:36:14Z</time>
      </trkpt>
      <trkpt lat="43.72306" lon="3.4244">
        <ele>236</ele>
        <time>2017-03-29T08:36:16Z</time>
      </trkpt>
      <trkpt lat="43.72295" lon="3.42434">
        <ele>235.6</ele>
        <time>2017-03-29T08:36:18Z</time>
      </trkpt>
      <trkpt lat="43.72283" lon="3.42427">
        <ele>235.4</ele>
        <time>2017-03-29T08:36:20Z</time>
      </trkpt>
      <trkpt lat="43.72271" lon="3.4242">
        <ele>235.5</ele>
        <time>2017-03-29T08:36:22Z</time>
      </trkpt>
      <trkpt lat="43.7226" lon="3.42413">
        <ele>235.5</ele>
        <time>2017-03-29T08:36:24Z</time>
      </trkpt>
      <trkpt lat="43.72249" lon="3.42413">
        <ele>235.8</ele>
        <time>2017-03-29T08:36:26Z</time>
      </trkpt>
      <trkpt lat="43.7224" lon="3.42415">
        <ele>235.8</ele>
        <time>2017-03-29T08:36:28Z</time>
      </trkpt>
      <trkpt lat="43.7223" lon="3.42418">
        <ele>235.9</ele>
        <time>2017-03-29T08:36:30Z</time>
      </trkpt>
      <trkpt lat="43.72219" lon="3.42421">
        <ele>236</ele>
        <time>2017-03-29T08:36:32Z</time>
      </trkpt>
      <trkpt lat="43.72208" lon="3.42423">
        <ele>235.6</ele>
        <time>2017-03-29T08:36:34Z</time>
      </trkpt>
      <trkpt lat="43.72198" lon="3.42426">
        <ele>235.2</ele>
        <time>2017-03-29T08:36:36Z</time>
      </trkpt>
      <trkpt lat="43.72187" lon="3.42427">
        <ele>234.8</ele>
        <time>2017-03-29T08:36:38Z</time>
      </trkpt>
      <trkpt lat="43.72176" lon="3.42427">
        <ele>234.8</ele>
        <time>2017-03-29T08:36:40Z</time>
      </trkpt>
      <trkpt lat="43.72167" lon="3.42427">
        <ele>235</ele>
        <time>2017-03-29T08:36:42Z</time>
      </trkpt>
      <trkpt lat="43.72158" lon="3.42428">
        <ele>235.2</ele>
        <time>2017-03-29T08:36:45Z</time>
      </trkpt>
      <trkpt lat="43.72149" lon="3.42428">
        <ele>235.3</ele>
        <time>2017-03-29T08:36:47Z</time>
      </trkpt>
      <trkpt lat="43.72142" lon="3.42428">
        <ele>235.3</ele>
        <time>2017-03-29T08:36:49Z</time>
      </trkpt>
      <trkpt lat="43.72135" lon="3.42427">
        <ele>235.5</ele>
        <time>2017-03-29T08:36:51Z</time>
      </trkpt>
      <trkpt lat="43.72125" lon="3.42426">
        <ele>236.3</ele>
        <time>2017-03-29T08:36:53Z</time>
      </trkpt>
      <trkpt lat="43.72116" lon="3.42425">
        <ele>236.4</ele>
        <time>2017-03-29T08:36:55Z</time>
      </trkpt>
      <trkpt lat="43.72106" lon="3.42423">
        <ele>235.7</ele>
        <time>2017-03-29T08:36:57Z</time>
      </trkpt>
      <trkpt lat="43.72096" lon="3.42421">
        <ele>235.7</ele>
        <time>2017-03-29T08:36:59Z</time>
      </trkpt>
      <trkpt lat="43.72086" lon="3.4242">
        <ele>235</ele>
        <time>2017-03-29T08:37:01Z</time>
      </trkpt>
      <trkpt lat="43.72079" lon="3.42421">
        <ele>234.2</ele>
        <time>2017-03-29T08:37:03Z</time>
      </trkpt>
      <trkpt lat="43.72067" lon="3.4242">
        <ele>234.1</ele>
        <time>2017-03-29T08:37:06Z</time>
      </trkpt>
      <trkpt lat="43.72058" lon="3.42418">
        <ele>234.5</ele>
        <time>2017-03-29T08:37:08Z</time>
      </trkpt>
      <trkpt lat="43.7205" lon="3.42415">
        <ele>235.7</ele>
        <time>2017-03-29T08:37:10Z</time>
      </trkpt>
      <trkpt lat="43.72042" lon="3.42412">
        <ele>236.3</ele>
        <time>2017-03-29T08:37:12Z</time>
      </trkpt>
      <trkpt lat="43.72032" lon="3.42409">
        <ele>235.9</ele>
        <time>2017-03-29T08:37:14Z</time>
      </trkpt>
      <trkpt lat="43.72022" lon="3.42407">
        <ele>234.9</ele>
        <time>2017-03-29T08:37:16Z</time>
      </trkpt>
      <trkpt lat="43.72011" lon="3.42407">
        <ele>234.2</ele>
        <time>2017-03-29T08:37:18Z</time>
      </trkpt>
      <trkpt lat="43.71999" lon="3.42407">
        <ele>233.8</ele>
        <time>2017-03-29T08:37:20Z</time>
      </trkpt>
      <trkpt lat="43.71986" lon="3.42405">
        <ele>232.8</ele>
        <time>2017-03-29T08:37:22Z</time>
      </trkpt>
      <trkpt lat="43.71971" lon="3.42402">
        <ele>232</ele>
        <time>2017-03-29T08:37:24Z</time>
      </trkpt>
      <trkpt lat="43.71964" lon="3.42401">
        <ele>231.2</ele>
        <time>2017-03-29T08:37:25Z</time>
      </trkpt>
      <trkpt lat="43.71952" lon="3.42401">
        <ele>230.3</ele>
        <time>2017-03-29T08:37:27Z</time>
      </trkpt>
      <trkpt lat="43.71942" lon="3.42403">
        <ele>229.4</ele>
        <time>2017-03-29T08:37:29Z</time>
      </trkpt>
      <trkpt lat="43.71931" lon="3.42405">
        <ele>229.2</ele>
        <time>2017-03-29T08:37:31Z</time>
      </trkpt>
      <trkpt lat="43.71921" lon="3.42407">
        <ele>229</ele>
        <time>2017-03-29T08:37:33Z</time>
      </trkpt>
      <trkpt lat="43.7191" lon="3.42406">
        <ele>227.9</ele>
        <time>2017-03-29T08:37:35Z</time>
      </trkpt>
      <trkpt lat="43.719" lon="3.42402">
        <ele>227.3</ele>
        <time>2017-03-29T08:37:37Z</time>
      </trkpt>
      <trkpt lat="43.71889" lon="3.42395">
        <ele>226.4</ele>
        <time>2017-03-29T08:37:39Z</time>
      </trkpt>
      <trkpt lat="43.71882" lon="3.42392">
        <ele>226.1</ele>
        <time>2017-03-29T08:37:40Z</time>
      </trkpt>
      <trkpt lat="43.71869" lon="3.42393">
        <ele>225.5</ele>
        <time>2017-03-29T08:37:42Z</time>
      </trkpt>
      <trkpt lat="43.71858" lon="3.42397">
        <ele>224.5</ele>
        <time>2017-03-29T08:37:44Z</time>
      </trkpt>
      <trkpt lat="43.71846" lon="3.42401">
        <ele>224</ele>
        <time>2017-03-29T08:37:46Z</time>
      </trkpt>
      <trkpt lat="43.71834" lon="3.424">
        <ele>223.1</ele>
        <time>2017-03-29T08:37:48Z</time>
      </trkpt>
      <trkpt lat="43.71823" lon="3.42399">
        <ele>222.7</ele>
        <time>2017-03-29T08:37:50Z</time>
      </trkpt>
      <trkpt lat="43.71812" lon="3.42398">
        <ele>222.7</ele>
        <time>2017-03-29T08:37:52Z</time>
      </trkpt>
      <trkpt lat="43.71799" lon="3.42394">
        <ele>223</ele>
        <time>2017-03-29T08:37:54Z</time>
      </trkpt>
      <trkpt lat="43.71787" lon="3.42387">
        <ele>222.3</ele>
        <time>2017-03-29T08:37:56Z</time>
      </trkpt>
      <trkpt lat="43.71776" lon="3.42383">
        <ele>221.3</ele>
        <time>2017-03-29T08:37:58Z</time>
      </trkpt>
      <trkpt lat="43.71766" lon="3.42379">
        <ele>220.6</ele>
        <time>2017-03-29T08:38:00Z</time>
      </trkpt>
      <trkpt lat="43.71755" lon="3.42376">
        <ele>220.8</ele>
        <time>2017-03-29T08:38:02Z</time>
      </trkpt>
      <trkpt lat="43.71746" lon="3.42372">
        <ele>220.4</ele>
        <time>2017-03-29T08:38:04Z</time>
      </trkpt>
      <trkpt lat="43.71737" lon="3.42368">
        <ele>220</ele>
        <time>2017-03-29T08:38:06Z</time>
      </trkpt>
      <trkpt lat="43.71728" lon="3.42362">
        <ele>220.3</ele>
        <time>2017-03-29T08:38:08Z</time>
      </trkpt>
      <trkpt lat="43.71719" lon="3.42358">
        <ele>220.5</ele>
        <time>2017-03-29T08:38:10Z</time>
      </trkpt>
      <trkpt lat="43.71711" lon="3.42354">
        <ele>220.6</ele>
        <time>2017-03-29T08:38:12Z</time>
      </trkpt>
      <trkpt lat="43.717" lon="3.4235">
        <ele>221.3</ele>
        <time>2017-03-29T08:38:14Z</time>
      </trkpt>
      <trkpt lat="43.7169" lon="3.42348">
        <ele>221.3</ele>
        <time>2017-03-29T08:38:16Z</time>
      </trkpt>
      <trkpt lat="43.71677" lon="3.42347">
        <ele>220.8</ele>
        <time>2017-03-29T08:38:18Z</time>
      </trkpt>
      <trkpt lat="43.71663" lon="3.42346">
        <ele>220.1</ele>
        <time>2017-03-29T08:38:20Z</time>
      </trkpt>
      <trkpt lat="43.7165" lon="3.42347">
        <ele>219.4</ele>
        <time>2017-03-29T08:38:22Z</time>
      </trkpt>
      <trkpt lat="43.71642" lon="3.42347">
        <ele>219.4</ele>
        <time>2017-03-29T08:38:23Z</time>
      </trkpt>
      <trkpt lat="43.71634" lon="3.42348">
        <ele>219.3</ele>
        <time>2017-03-29T08:38:24Z</time>
      </trkpt>
      <trkpt lat="43.71622" lon="3.42348">
        <ele>218.9</ele>
        <time>2017-03-29T08:38:26Z</time>
      </trkpt>
      <trkpt lat="43.71612" lon="3.42349">
        <ele>218.4</ele>
        <time>2017-03-29T08:38:28Z</time>
      </trkpt>
      <trkpt lat="43.71604" lon="3.4235">
        <ele>218.3</ele>
        <time>2017-03-29T08:38:30Z</time>
      </trkpt>
      <trkpt lat="43.71594" lon="3.42351">
        <ele>218</ele>
        <time>2017-03-29T08:38:32Z</time>
      </trkpt>
      <trkpt lat="43.71584" lon="3.42352">
        <ele>217.7</ele>
        <time>2017-03-29T08:38:34Z</time>
      </trkpt>
      <trkpt lat="43.71576" lon="3.42352">
        <ele>217.6</ele>
        <time>2017-03-29T08:38:36Z</time>
      </trkpt>
      <trkpt lat="43.71568" lon="3.42351">
        <ele>217.4</ele>
        <time>2017-03-29T08:38:38Z</time>
      </trkpt>
      <trkpt lat="43.71558" lon="3.4235">
        <ele>217.6</ele>
        <time>2017-03-29T08:38:41Z</time>
      </trkpt>
      <trkpt lat="43.7155" lon="3.4235">
        <ele>218.7</ele>
        <time>2017-03-29T08:38:43Z</time>
      </trkpt>
      <trkpt lat="43.71542" lon="3.42351">
        <ele>218.9</ele>
        <time>2017-03-29T08:38:46Z</time>
      </trkpt>
      <trkpt lat="43.71539" lon="3.42361">
        <ele>218.8</ele>
        <time>2017-03-29T08:38:50Z</time>
      </trkpt>
      <trkpt lat="43.71532" lon="3.42366">
        <ele>218.8</ele>
        <time>2017-03-29T08:38:52Z</time>
      </trkpt>
      <trkpt lat="43.71521" lon="3.4237">
        <ele>218.8</ele>
        <time>2017-03-29T08:38:54Z</time>
      </trkpt>
      <trkpt lat="43.71513" lon="3.42371">
        <ele>218.6</ele>
        <time>2017-03-29T08:38:57Z</time>
      </trkpt>
      <trkpt lat="43.71513" lon="3.42383">
        <ele>218.6</ele>
        <time>2017-03-29T08:38:59Z</time>
      </trkpt>
      <trkpt lat="43.71517" lon="3.424">
        <ele>217.7</ele>
        <time>2017-03-29T08:39:01Z</time>
      </trkpt>
      <trkpt lat="43.71517" lon="3.42417">
        <ele>215</ele>
        <time>2017-03-29T08:39:03Z</time>
      </trkpt>
      <trkpt lat="43.71512" lon="3.42425">
        <ele>214.5</ele>
        <time>2017-03-29T08:39:06Z</time>
      </trkpt>
      <trkpt lat="43.71504" lon="3.42425">
        <ele>214.3</ele>
        <time>2017-03-29T08:39:08Z</time>
      </trkpt>
      <trkpt lat="43.71495" lon="3.42425">
        <ele>214.1</ele>
        <time>2017-03-29T08:39:11Z</time>
      </trkpt>
      <trkpt lat="43.71488" lon="3.42427">
        <ele>214</ele>
        <time>2017-03-29T08:39:14Z</time>
      </trkpt>
      <trkpt lat="43.71479" lon="3.42422">
        <ele>214.6</ele>
        <time>2017-03-29T08:39:19Z</time>
      </trkpt>
      <trkpt lat="43.71479" lon="3.42432">
        <ele>215.1</ele>
        <time>2017-03-29T08:39:26Z</time>
      </trkpt>
      <trkpt lat="43.71473" lon="3.4244">
        <ele>215.6</ele>
        <time>2017-03-29T08:44:42Z</time>
      </trkpt>
      <trkpt lat="43.71473" lon="3.42448">
        <ele>216.8</ele>
        <time>2017-03-29T08:44:56Z</time>
      </trkpt>
      <trkpt lat="43.71473" lon="3.42461">
        <ele>216.9</ele>
        <time>2017-03-29T08:44:57Z</time>
      </trkpt>
      <trkpt lat="43.71474" lon="3.42472">
        <ele>216.8</ele>
        <time>2017-03-29T08:44:59Z</time>
      </trkpt>
      <trkpt lat="43.71475" lon="3.42484">
        <ele>215.8</ele>
        <time>2017-03-29T08:45:01Z</time>
      </trkpt>
      <trkpt lat="43.71475" lon="3.42498">
        <ele>215.4</ele>
        <time>2017-03-29T08:45:04Z</time>
      </trkpt>
      <trkpt lat="43.71476" lon="3.42513">
        <ele>215</ele>
        <time>2017-03-29T08:45:05Z</time>
      </trkpt>
      <trkpt lat="43.71476" lon="3.4253">
        <ele>214.2</ele>
        <time>2017-03-29T08:45:08Z</time>
      </trkpt>
      <trkpt lat="43.71476" lon="3.42543">
        <ele>213.2</ele>
        <time>2017-03-29T08:45:10Z</time>
      </trkpt>
      <trkpt lat="43.71476" lon="3.42554">
        <ele>213</ele>
        <time>2017-03-29T08:45:12Z</time>
      </trkpt>
      <trkpt lat="43.71474" lon="3.42565">
        <ele>213.8</ele>
        <time>2017-03-29T08:45:14Z</time>
      </trkpt>
      <trkpt lat="43.71473" lon="3.4258">
        <ele>213.9</ele>
        <time>2017-03-29T08:45:17Z</time>
      </trkpt>
      <trkpt lat="43.71471" lon="3.42589">
        <ele>214</ele>
        <time>2017-03-29T08:45:19Z</time>
      </trkpt>
      <trkpt lat="43.71466" lon="3.42597">
        <ele>213.5</ele>
        <time>2017-03-29T08:45:21Z</time>
      </trkpt>
      <trkpt lat="43.71458" lon="3.42602">
        <ele>213.6</ele>
        <time>2017-03-29T08:45:23Z</time>
      </trkpt>
      <trkpt lat="43.71451" lon="3.42606">
        <ele>214.5</ele>
        <time>2017-03-29T08:45:25Z</time>
      </trkpt>
      <trkpt lat="43.71444" lon="3.42611">
        <ele>214.6</ele>
        <time>2017-03-29T08:45:27Z</time>
      </trkpt>
      <trkpt lat="43.71438" lon="3.42619">
        <ele>214.6</ele>
        <time>2017-03-29T08:45:29Z</time>
      </trkpt>
      <trkpt lat="43.71431" lon="3.42629">
        <ele>214.4</ele>
        <time>2017-03-29T08:45:31Z</time>
      </trkpt>
      <trkpt lat="43.71424" lon="3.42638">
        <ele>214.3</ele>
        <time>2017-03-29T08:45:35Z</time>
      </trkpt>
      <trkpt lat="43.71418" lon="3.4265">
        <ele>214.2</ele>
        <time>2017-03-29T08:45:38Z</time>
      </trkpt>
      <trkpt lat="43.71415" lon="3.42662">
        <ele>214.1</ele>
        <time>2017-03-29T08:45:41Z</time>
      </trkpt>
      <trkpt lat="43.71412" lon="3.42676">
        <ele>213.2</ele>
        <time>2017-03-29T08:45:43Z</time>
      </trkpt>
      <trkpt lat="43.71411" lon="3.42686">
        <ele>211.4</ele>
        <time>2017-03-29T08:45:45Z</time>
      </trkpt>
      <trkpt lat="43.7141" lon="3.42698">
        <ele>209.9</ele>
        <time>2017-03-29T08:45:48Z</time>
      </trkpt>
      <trkpt lat="43.71407" lon="3.42712">
        <ele>210.2</ele>
        <time>2017-03-29T08:45:50Z</time>
      </trkpt>
      <trkpt lat="43.71404" lon="3.42725">
        <ele>211.3</ele>
        <time>2017-03-29T08:45:52Z</time>
      </trkpt>
      <trkpt lat="43.71401" lon="3.42736">
        <ele>212.3</ele>
        <time>2017-03-29T08:45:54Z</time>
      </trkpt>
      <trkpt lat="43.71399" lon="3.42748">
        <ele>213.1</ele>
        <time>2017-03-29T08:45:56Z</time>
      </trkpt>
      <trkpt lat="43.71397" lon="3.42758">
        <ele>214</ele>
        <time>2017-03-29T08:45:58Z</time>
      </trkpt>
      <trkpt lat="43.71395" lon="3.42768">
        <ele>214.7</ele>
        <time>2017-03-29T08:46:00Z</time>
      </trkpt>
      <trkpt lat="43.71393" lon="3.42778">
        <ele>214.7</ele>
        <time>2017-03-29T08:46:02Z</time>
      </trkpt>
      <trkpt lat="43.71391" lon="3.42791">
        <ele>214.8</ele>
        <time>2017-03-29T08:46:05Z</time>
      </trkpt>
      <trkpt lat="43.71388" lon="3.42802">
        <ele>215</ele>
        <time>2017-03-29T08:46:08Z</time>
      </trkpt>
      <trkpt lat="43.71385" lon="3.42816">
        <ele>215.1</ele>
        <time>2017-03-29T08:46:11Z</time>
      </trkpt>
      <trkpt lat="43.71382" lon="3.42828">
        <ele>215.3</ele>
        <time>2017-03-29T08:46:14Z</time>
      </trkpt>
      <trkpt lat="43.71381" lon="3.42838">
        <ele>215.5</ele>
        <time>2017-03-29T08:46:17Z</time>
      </trkpt>
      <trkpt lat="43.7138" lon="3.4285">
        <ele>215.8</ele>
        <time>2017-03-29T08:46:20Z</time>
      </trkpt>
      <trkpt lat="43.7138" lon="3.42861">
        <ele>216.1</ele>
        <time>2017-03-29T08:46:23Z</time>
      </trkpt>
      <trkpt lat="43.71382" lon="3.42872">
        <ele>216.3</ele>
        <time>2017-03-29T08:46:26Z</time>
      </trkpt>
      <trkpt lat="43.71384" lon="3.42884">
        <ele>216.6</ele>
        <time>2017-03-29T08:46:29Z</time>
      </trkpt>
      <trkpt lat="43.71387" lon="3.42895">
        <ele>216.9</ele>
        <time>2017-03-29T08:46:32Z</time>
      </trkpt>
      <trkpt lat="43.71392" lon="3.42906">
        <ele>217.1</ele>
        <time>2017-03-29T08:46:35Z</time>
      </trkpt>
      <trkpt lat="43.71397" lon="3.42915">
        <ele>217.3</ele>
        <time>2017-03-29T08:46:38Z</time>
      </trkpt>
      <trkpt lat="43.71401" lon="3.42926">
        <ele>217.5</ele>
        <time>2017-03-29T08:46:41Z</time>
      </trkpt>
      <trkpt lat="43.71406" lon="3.42936">
        <ele>217.8</ele>
        <time>2017-03-29T08:46:44Z</time>
      </trkpt>
      <trkpt lat="43.7141" lon="3.42946">
        <ele>218</ele>
        <time>2017-03-29T08:46:47Z</time>
      </trkpt>
      <trkpt lat="43.71413" lon="3.42956">
        <ele>218.4</ele>
        <time>2017-03-29T08:46:50Z</time>
      </trkpt>
      <trkpt lat="43.71416" lon="3.42966">
        <ele>218.7</ele>
        <time>2017-03-29T08:46:53Z</time>
      </trkpt>
      <trkpt lat="43.71419" lon="3.42978">
        <ele>219</ele>
        <time>2017-03-29T08:46:56Z</time>
      </trkpt>
      <trkpt lat="43.71421" lon="3.4299">
        <ele>219.3</ele>
        <time>2017-03-29T08:46:59Z</time>
      </trkpt>
      <trkpt lat="43.71421" lon="3.43001">
        <ele>221.1</ele>
        <time>2017-03-29T08:47:01Z</time>
      </trkpt>
      <trkpt lat="43.71423" lon="3.43011">
        <ele>221.2</ele>
        <time>2017-03-29T08:47:03Z</time>
      </trkpt>
      <trkpt lat="43.71424" lon="3.43024">
        <ele>221.4</ele>
        <time>2017-03-29T08:47:06Z</time>
      </trkpt>
      <trkpt lat="43.71424" lon="3.43037">
        <ele>221.6</ele>
        <time>2017-03-29T08:47:09Z</time>
      </trkpt>
      <trkpt lat="43.71423" lon="3.4305">
        <ele>221.9</ele>
        <time>2017-03-29T08:47:12Z</time>
      </trkpt>
      <trkpt lat="43.71422" lon="3.43059">
        <ele>222.2</ele>
        <time>2017-03-29T08:47:15Z</time>
      </trkpt>
      <trkpt lat="43.71421" lon="3.43072">
        <ele>222.5</ele>
        <time>2017-03-29T08:47:18Z</time>
      </trkpt>
      <trkpt lat="43.71419" lon="3.43085">
        <ele>222.6</ele>
        <time>2017-03-29T08:47:21Z</time>
      </trkpt>
      <trkpt lat="43.71417" lon="3.43095">
        <ele>222.9</ele>
        <time>2017-03-29T08:47:24Z</time>
      </trkpt>
      <trkpt lat="43.71414" lon="3.43107">
        <ele>223.2</ele>
        <time>2017-03-29T08:47:27Z</time>
      </trkpt>
      <trkpt lat="43.71411" lon="3.43121">
        <ele>223.5</ele>
        <time>2017-03-29T08:47:30Z</time>
      </trkpt>
      <trkpt lat="43.71408" lon="3.43134">
        <ele>223.9</ele>
        <time>2017-03-29T08:47:33Z</time>
      </trkpt>
      <trkpt lat="43.71407" lon="3.43144">
        <ele>224.3</ele>
        <time>2017-03-29T08:47:36Z</time>
      </trkpt>
      <trkpt lat="43.71404" lon="3.43156">
        <ele>224.7</ele>
        <time>2017-03-29T08:47:39Z</time>
      </trkpt>
      <trkpt lat="43.71402" lon="3.43166">
        <ele>225.1</ele>
        <time>2017-03-29T08:47:42Z</time>
      </trkpt>
      <trkpt lat="43.71399" lon="3.43179">
        <ele>225.6</ele>
        <time>2017-03-29T08:47:45Z</time>
      </trkpt>
      <trkpt lat="43.71397" lon="3.4319">
        <ele>226</ele>
        <time>2017-03-29T08:47:48Z</time>
      </trkpt>
      <trkpt lat="43.71396" lon="3.43202">
        <ele>226.3</ele>
        <time>2017-03-29T08:47:51Z</time>
      </trkpt>
      <trkpt lat="43.71395" lon="3.43213">
        <ele>226.5</ele>
        <time>2017-03-29T08:47:54Z</time>
      </trkpt>
      <trkpt lat="43.71395" lon="3.43228">
        <ele>226.9</ele>
        <time>2017-03-29T08:47:57Z</time>
      </trkpt>
      <trkpt lat="43.71396" lon="3.4324">
        <ele>227.2</ele>
        <time>2017-03-29T08:48:00Z</time>
      </trkpt>
      <trkpt lat="43.71396" lon="3.43252">
        <ele>227.6</ele>
        <time>2017-03-29T08:48:03Z</time>
      </trkpt>
      <trkpt lat="43.71396" lon="3.43264">
        <ele>227.9</ele>
        <time>2017-03-29T08:48:06Z</time>
      </trkpt>
      <trkpt lat="43.71395" lon="3.43277">
        <ele>228.2</ele>
        <time>2017-03-29T08:48:09Z</time>
      </trkpt>
      <trkpt lat="43.71393" lon="3.43288">
        <ele>228.4</ele>
        <time>2017-03-29T08:48:12Z</time>
      </trkpt>
      <trkpt lat="43.7139" lon="3.433">
        <ele>228.6</ele>
        <time>2017-03-29T08:48:15Z</time>
      </trkpt>
      <trkpt lat="43.71386" lon="3.43313">
        <ele>228.9</ele>
        <time>2017-03-29T08:48:18Z</time>
      </trkpt>
      <trkpt lat="43.71382" lon="3.43324">
        <ele>229.2</ele>
        <time>2017-03-29T08:48:21Z</time>
      </trkpt>
      <trkpt lat="43.71377" lon="3.43336">
        <ele>229.6</ele>
        <time>2017-03-29T08:48:24Z</time>
      </trkpt>
      <trkpt lat="43.71372" lon="3.43348">
        <ele>230.1</ele>
        <time>2017-03-29T08:48:27Z</time>
      </trkpt>
      <trkpt lat="43.71368" lon="3.43359">
        <ele>230.6</ele>
        <time>2017-03-29T08:48:30Z</time>
      </trkpt>
      <trkpt lat="43.71363" lon="3.4337">
        <ele>231</ele>
        <time>2017-03-29T08:48:33Z</time>
      </trkpt>
      <trkpt lat="43.7136" lon="3.4338">
        <ele>231.3</ele>
        <time>2017-03-29T08:48:36Z</time>
      </trkpt>
      <trkpt lat="43.71355" lon="3.43393">
        <ele>231.7</ele>
        <time>2017-03-29T08:48:39Z</time>
      </trkpt>
      <trkpt lat="43.71352" lon="3.43404">
        <ele>232.2</ele>
        <time>2017-03-29T08:48:42Z</time>
      </trkpt>
      <trkpt lat="43.71347" lon="3.43415">
        <ele>232.7</ele>
        <time>2017-03-29T08:48:45Z</time>
      </trkpt>
      <trkpt lat="43.71342" lon="3.43426">
        <ele>233.2</ele>
        <time>2017-03-29T08:48:48Z</time>
      </trkpt>
      <trkpt lat="43.71338" lon="3.43436">
        <ele>233.8</ele>
        <time>2017-03-29T08:48:51Z</time>
      </trkpt>
      <trkpt lat="43.71334" lon="3.43446">
        <ele>234.2</ele>
        <time>2017-03-29T08:48:54Z</time>
      </trkpt>
      <trkpt lat="43.7133" lon="3.43458">
        <ele>234.8</ele>
        <time>2017-03-29T08:48:57Z</time>
      </trkpt>
      <trkpt lat="43.71325" lon="3.43468">
        <ele>235.3</ele>
        <time>2017-03-29T08:49:00Z</time>
      </trkpt>
      <trkpt lat="43.71321" lon="3.43479">
        <ele>235.8</ele>
        <time>2017-03-29T08:49:03Z</time>
      </trkpt>
      <trkpt lat="43.71318" lon="3.43489">
        <ele>236.2</ele>
        <time>2017-03-29T08:49:06Z</time>
      </trkpt>
      <trkpt lat="43.71314" lon="3.435">
        <ele>236.8</ele>
        <time>2017-03-29T08:49:09Z</time>
      </trkpt>
      <trkpt lat="43.71313" lon="3.43512">
        <ele>237.5</ele>
        <time>2017-03-29T08:49:12Z</time>
      </trkpt>
      <trkpt lat="43.71315" lon="3.43524">
        <ele>238</ele>
        <time>2017-03-29T08:49:15Z</time>
      </trkpt>
      <trkpt lat="43.71316" lon="3.43537">
        <ele>238.5</ele>
        <time>2017-03-29T08:49:18Z</time>
      </trkpt>
      <trkpt lat="43.71318" lon="3.4355">
        <ele>238.9</ele>
        <time>2017-03-29T08:49:21Z</time>
      </trkpt>
      <trkpt lat="43.71319" lon="3.43563">
        <ele>239.3</ele>
        <time>2017-03-29T08:49:24Z</time>
      </trkpt>
      <trkpt lat="43.7132" lon="3.43574">
        <ele>239.7</ele>
        <time>2017-03-29T08:49:27Z</time>
      </trkpt>
      <trkpt lat="43.71321" lon="3.43585">
        <ele>240.1</ele>
        <time>2017-03-29T08:49:30Z</time>
      </trkpt>
      <trkpt lat="43.71323" lon="3.436">
        <ele>242.4</ele>
        <time>2017-03-29T08:49:33Z</time>
      </trkpt>
      <trkpt lat="43.71325" lon="3.43613">
        <ele>244.3</ele>
        <time>2017-03-29T08:49:35Z</time>
      </trkpt>
      <trkpt lat="43.71327" lon="3.43626">
        <ele>244.8</ele>
        <time>2017-03-29T08:49:37Z</time>
      </trkpt>
      <trkpt lat="43.7133" lon="3.43636">
        <ele>245.4</ele>
        <time>2017-03-29T08:49:39Z</time>
      </trkpt>
      <trkpt lat="43.71332" lon="3.43651">
        <ele>245.6</ele>
        <time>2017-03-29T08:49:42Z</time>
      </trkpt>
      <trkpt lat="43.71334" lon="3.43661">
        <ele>245.7</ele>
        <time>2017-03-29T08:49:44Z</time>
      </trkpt>
      <trkpt lat="43.71335" lon="3.43673">
        <ele>246</ele>
        <time>2017-03-29T08:49:47Z</time>
      </trkpt>
      <trkpt lat="43.71336" lon="3.43684">
        <ele>246.1</ele>
        <time>2017-03-29T08:49:50Z</time>
      </trkpt>
      <trkpt lat="43.71338" lon="3.43694">
        <ele>246.4</ele>
        <time>2017-03-29T08:49:53Z</time>
      </trkpt>
      <trkpt lat="43.71343" lon="3.43704">
        <ele>246.9</ele>
        <time>2017-03-29T08:49:57Z</time>
      </trkpt>
      <trkpt lat="43.7135" lon="3.43711">
        <ele>247.4</ele>
        <time>2017-03-29T08:50:02Z</time>
      </trkpt>
      <trkpt lat="43.71356" lon="3.43718">
        <ele>248</ele>
        <time>2017-03-29T08:50:06Z</time>
      </trkpt>
      <trkpt lat="43.71362" lon="3.43725">
        <ele>248.5</ele>
        <time>2017-03-29T08:50:10Z</time>
      </trkpt>
      <trkpt lat="43.71368" lon="3.43731">
        <ele>249</ele>
        <time>2017-03-29T08:50:14Z</time>
      </trkpt>
      <trkpt lat="43.71376" lon="3.43738">
        <ele>249.5</ele>
        <time>2017-03-29T08:50:19Z</time>
      </trkpt>
      <trkpt lat="43.71384" lon="3.43744">
        <ele>249.8</ele>
        <time>2017-03-29T08:50:23Z</time>
      </trkpt>
      <trkpt lat="43.71391" lon="3.43749">
        <ele>250.2</ele>
        <time>2017-03-29T08:50:27Z</time>
      </trkpt>
      <trkpt lat="43.71398" lon="3.43754">
        <ele>250.6</ele>
        <time>2017-03-29T08:50:31Z</time>
      </trkpt>
      <trkpt lat="43.71406" lon="3.4376">
        <ele>251</ele>
        <time>2017-03-29T08:50:35Z</time>
      </trkpt>
      <trkpt lat="43.71412" lon="3.43765">
        <ele>251.5</ele>
        <time>2017-03-29T08:50:39Z</time>
      </trkpt>
      <trkpt lat="43.7142" lon="3.4377">
        <ele>252.1</ele>
        <time>2017-03-29T08:50:44Z</time>
      </trkpt>
      <trkpt lat="43.71427" lon="3.43776">
        <ele>252.6</ele>
        <time>2017-03-29T08:50:48Z</time>
      </trkpt>
      <trkpt lat="43.71433" lon="3.43782">
        <ele>253.2</ele>
        <time>2017-03-29T08:50:52Z</time>
      </trkpt>
      <trkpt lat="43.71439" lon="3.43788">
        <ele>253.8</ele>
        <time>2017-03-29T08:50:56Z</time>
      </trkpt>
      <trkpt lat="43.71446" lon="3.43793">
        <ele>254.3</ele>
        <time>2017-03-29T08:51:00Z</time>
      </trkpt>
      <trkpt lat="43.71453" lon="3.43798">
        <ele>254.9</ele>
        <time>2017-03-29T08:51:04Z</time>
      </trkpt>
      <trkpt lat="43.71459" lon="3.43804">
        <ele>255.4</ele>
        <time>2017-03-29T08:51:08Z</time>
      </trkpt>
      <trkpt lat="43.71468" lon="3.43806">
        <ele>255.9</ele>
        <time>2017-03-29T08:51:12Z</time>
      </trkpt>
      <trkpt lat="43.71476" lon="3.43809">
        <ele>256.3</ele>
        <time>2017-03-29T08:51:16Z</time>
      </trkpt>
      <trkpt lat="43.71483" lon="3.43814">
        <ele>256.9</ele>
        <time>2017-03-29T08:51:20Z</time>
      </trkpt>
      <trkpt lat="43.7149" lon="3.43818">
        <ele>257.4</ele>
        <time>2017-03-29T08:51:24Z</time>
      </trkpt>
      <trkpt lat="43.71498" lon="3.43822">
        <ele>257.9</ele>
        <time>2017-03-29T08:51:28Z</time>
      </trkpt>
      <trkpt lat="43.71505" lon="3.43825">
        <ele>258.5</ele>
        <time>2017-03-29T08:51:32Z</time>
      </trkpt>
      <trkpt lat="43.71513" lon="3.43828">
        <ele>259</ele>
        <time>2017-03-29T08:51:36Z</time>
      </trkpt>
      <trkpt lat="43.7152" lon="3.4383">
        <ele>259.5</ele>
        <time>2017-03-29T08:51:40Z</time>
      </trkpt>
      <trkpt lat="43.71526" lon="3.43838">
        <ele>260.5</ele>
        <time>2017-03-29T08:51:46Z</time>
      </trkpt>
      <trkpt lat="43.71526" lon="3.43834">
        <ele>261.5</ele>
        <time>2017-03-29T08:51:53Z</time>
      </trkpt>
      <trkpt lat="43.71522" lon="3.43828">
        <ele>262.5</ele>
        <time>2017-03-29T08:52:00Z</time>
      </trkpt>
      <trkpt lat="43.71527" lon="3.43836">
        <ele>263.1</ele>
        <time>2017-03-29T08:52:06Z</time>
      </trkpt>
      <trkpt lat="43.71527" lon="3.43837">
        <ele>263.5</ele>
        <time>2017-03-29T08:52:13Z</time>
      </trkpt>
      <trkpt lat="43.71522" lon="3.43829">
        <ele>263.9</ele>
        <time>2017-03-29T08:52:18Z</time>
      </trkpt>
      <trkpt lat="43.71521" lon="3.43831">
        <ele>264.6</ele>
        <time>2017-03-29T08:52:25Z</time>
      </trkpt>
      <trkpt lat="43.7152" lon="3.43827">
        <ele>265.4</ele>
        <time>2017-03-29T08:52:32Z</time>
      </trkpt>
      <trkpt lat="43.71519" lon="3.43829">
        <ele>266.2</ele>
        <time>2017-03-29T08:52:39Z</time>
      </trkpt>
      <trkpt lat="43.71521" lon="3.43827">
        <ele>266.6</ele>
        <time>2017-03-29T08:52:46Z</time>
      </trkpt>
      <trkpt lat="43.71519" lon="3.43827">
        <ele>267.1</ele>
        <time>2017-03-29T08:52:53Z</time>
      </trkpt>
      <trkpt lat="43.71523" lon="3.4383">
        <ele>267.5</ele>
        <time>2017-03-29T08:53:00Z</time>
      </trkpt>
      <trkpt lat="43.71519" lon="3.43826">
        <ele>267.7</ele>
        <time>2017-03-29T08:53:07Z</time>
      </trkpt>
      <trkpt lat="43.71521" lon="3.43829">
        <ele>268.7</ele>
        <time>2017-03-29T08:53:52Z</time>
      </trkpt>
      <trkpt lat="43.71526" lon="3.43836">
        <ele>269</ele>
        <time>2017-03-29T08:53:56Z</time>
      </trkpt>
      <trkpt lat="43.71531" lon="3.43842">
        <ele>269</ele>
        <time>2017-03-29T08:53:59Z</time>
      </trkpt>
      <trkpt lat="43.71538" lon="3.43851">
        <ele>268.9</ele>
        <time>2017-03-29T08:54:03Z</time>
      </trkpt>
      <trkpt lat="43.71544" lon="3.4386">
        <ele>268.9</ele>
        <time>2017-03-29T08:54:07Z</time>
      </trkpt>
      <trkpt lat="43.7155" lon="3.43869">
        <ele>268.9</ele>
        <time>2017-03-29T08:54:11Z</time>
      </trkpt>
      <trkpt lat="43.71555" lon="3.43877">
        <ele>269</ele>
        <time>2017-03-29T08:54:14Z</time>
      </trkpt>
      <trkpt lat="43.71561" lon="3.43886">
        <ele>269.2</ele>
        <time>2017-03-29T08:54:18Z</time>
      </trkpt>
      <trkpt lat="43.71567" lon="3.43892">
        <ele>269.4</ele>
        <time>2017-03-29T08:54:21Z</time>
      </trkpt>
      <trkpt lat="43.71574" lon="3.43897">
        <ele>269.6</ele>
        <time>2017-03-29T08:54:26Z</time>
      </trkpt>
      <trkpt lat="43.71581" lon="3.43902">
        <ele>269.8</ele>
        <time>2017-03-29T08:54:30Z</time>
      </trkpt>
      <trkpt lat="43.71588" lon="3.43907">
        <ele>270.3</ele>
        <time>2017-03-29T08:54:35Z</time>
      </trkpt>
      <trkpt lat="43.71594" lon="3.43911">
        <ele>270.7</ele>
        <time>2017-03-29T08:54:39Z</time>
      </trkpt>
      <trkpt lat="43.71603" lon="3.43915">
        <ele>271.3</ele>
        <time>2017-03-29T08:54:44Z</time>
      </trkpt>
      <trkpt lat="43.71611" lon="3.43917">
        <ele>271.8</ele>
        <time>2017-03-29T08:54:48Z</time>
      </trkpt>
      <trkpt lat="43.71619" lon="3.43922">
        <ele>272.4</ele>
        <time>2017-03-29T08:54:53Z</time>
      </trkpt>
      <trkpt lat="43.71627" lon="3.43928">
        <ele>272.8</ele>
        <time>2017-03-29T08:54:57Z</time>
      </trkpt>
      <trkpt lat="43.71633" lon="3.43934">
        <ele>273.4</ele>
        <time>2017-03-29T08:55:01Z</time>
      </trkpt>
      <trkpt lat="43.7164" lon="3.4394">
        <ele>274</ele>
        <time>2017-03-29T08:55:04Z</time>
      </trkpt>
      <trkpt lat="43.71648" lon="3.43946">
        <ele>274.5</ele>
        <time>2017-03-29T08:55:10Z</time>
      </trkpt>
      <trkpt lat="43.71656" lon="3.43951">
        <ele>275</ele>
        <time>2017-03-29T08:55:14Z</time>
      </trkpt>
      <trkpt lat="43.71662" lon="3.43958">
        <ele>275.8</ele>
        <time>2017-03-29T08:55:20Z</time>
      </trkpt>
      <trkpt lat="43.71669" lon="3.43966">
        <ele>276.6</ele>
        <time>2017-03-29T08:55:25Z</time>
      </trkpt>
      <trkpt lat="43.71675" lon="3.43974">
        <ele>277.2</ele>
        <time>2017-03-29T08:55:29Z</time>
      </trkpt>
      <trkpt lat="43.71683" lon="3.43981">
        <ele>277.7</ele>
        <time>2017-03-29T08:55:33Z</time>
      </trkpt>
      <trkpt lat="43.7169" lon="3.43985">
        <ele>278.3</ele>
        <time>2017-03-29T08:55:37Z</time>
      </trkpt>
      <trkpt lat="43.71698" lon="3.43989">
        <ele>279.1</ele>
        <time>2017-03-29T08:55:41Z</time>
      </trkpt>
      <trkpt lat="43.71705" lon="3.43993">
        <ele>279.8</ele>
        <time>2017-03-29T08:55:46Z</time>
      </trkpt>
      <trkpt lat="43.71712" lon="3.43997">
        <ele>280.6</ele>
        <time>2017-03-29T08:55:49Z</time>
      </trkpt>
      <trkpt lat="43.71718" lon="3.44004">
        <ele>281.3</ele>
        <time>2017-03-29T08:55:54Z</time>
      </trkpt>
      <trkpt lat="43.71725" lon="3.44012">
        <ele>282</ele>
        <time>2017-03-29T08:55:58Z</time>
      </trkpt>
      <trkpt lat="43.7173" lon="3.44019">
        <ele>282.6</ele>
        <time>2017-03-29T08:56:01Z</time>
      </trkpt>
      <trkpt lat="43.71735" lon="3.44028">
        <ele>283.3</ele>
        <time>2017-03-29T08:56:06Z</time>
      </trkpt>
      <trkpt lat="43.71741" lon="3.44036">
        <ele>284.3</ele>
        <time>2017-03-29T08:56:11Z</time>
      </trkpt>
      <trkpt lat="43.71747" lon="3.44044">
        <ele>285.2</ele>
        <time>2017-03-29T08:56:16Z</time>
      </trkpt>
      <trkpt lat="43.71754" lon="3.4405">
        <ele>286</ele>
        <time>2017-03-29T08:56:19Z</time>
      </trkpt>
      <trkpt lat="43.71762" lon="3.44055">
        <ele>286.7</ele>
        <time>2017-03-29T08:56:24Z</time>
      </trkpt>
      <trkpt lat="43.7177" lon="3.44059">
        <ele>287.3</ele>
        <time>2017-03-29T08:56:28Z</time>
      </trkpt>
      <trkpt lat="43.71778" lon="3.4406">
        <ele>288.2</ele>
        <time>2017-03-29T08:56:32Z</time>
      </trkpt>
      <trkpt lat="43.71785" lon="3.44061">
        <ele>288.9</ele>
        <time>2017-03-29T08:56:37Z</time>
      </trkpt>
      <trkpt lat="43.7179" lon="3.44069">
        <ele>289.5</ele>
        <time>2017-03-29T08:56:41Z</time>
      </trkpt>
      <trkpt lat="43.71786" lon="3.44079">
        <ele>290.6</ele>
        <time>2017-03-29T08:56:46Z</time>
      </trkpt>
      <trkpt lat="43.71779" lon="3.44082">
        <ele>291.4</ele>
        <time>2017-03-29T08:56:50Z</time>
      </trkpt>
      <trkpt lat="43.71771" lon="3.44081">
        <ele>292.3</ele>
        <time>2017-03-29T08:56:55Z</time>
      </trkpt>
      <trkpt lat="43.71763" lon="3.44082">
        <ele>293.4</ele>
        <time>2017-03-29T08:57:00Z</time>
      </trkpt>
      <trkpt lat="43.71755" lon="3.44086">
        <ele>294.4</ele>
        <time>2017-03-29T08:57:04Z</time>
      </trkpt>
      <trkpt lat="43.71746" lon="3.4409">
        <ele>295.5</ele>
        <time>2017-03-29T08:57:09Z</time>
      </trkpt>
      <trkpt lat="43.71739" lon="3.44097">
        <ele>296.3</ele>
        <time>2017-03-29T08:57:13Z</time>
      </trkpt>
      <trkpt lat="43.71732" lon="3.44101">
        <ele>297.1</ele>
        <time>2017-03-29T08:57:17Z</time>
      </trkpt>
      <trkpt lat="43.71725" lon="3.44105">
        <ele>297.9</ele>
        <time>2017-03-29T08:57:21Z</time>
      </trkpt>
      <trkpt lat="43.71717" lon="3.44107">
        <ele>298.8</ele>
        <time>2017-03-29T08:57:26Z</time>
      </trkpt>
      <trkpt lat="43.71708" lon="3.44109">
        <ele>299.4</ele>
        <time>2017-03-29T08:57:29Z</time>
      </trkpt>
      <trkpt lat="43.71701" lon="3.44112">
        <ele>300.1</ele>
        <time>2017-03-29T08:57:33Z</time>
      </trkpt>
      <trkpt lat="43.71692" lon="3.44117">
        <ele>300.7</ele>
        <time>2017-03-29T08:57:37Z</time>
      </trkpt>
      <trkpt lat="43.71684" lon="3.44123">
        <ele>301.2</ele>
        <time>2017-03-29T08:57:42Z</time>
      </trkpt>
      <trkpt lat="43.71677" lon="3.44128">
        <ele>301.6</ele>
        <time>2017-03-29T08:57:45Z</time>
      </trkpt>
      <trkpt lat="43.7167" lon="3.44132">
        <ele>302.2</ele>
        <time>2017-03-29T08:57:47Z</time>
      </trkpt>
      <trkpt lat="43.71662" lon="3.44134">
        <ele>302.7</ele>
        <time>2017-03-29T08:57:50Z</time>
      </trkpt>
      <trkpt lat="43.71655" lon="3.44135">
        <ele>303.2</ele>
        <time>2017-03-29T08:57:53Z</time>
      </trkpt>
      <trkpt lat="43.7165" lon="3.44144">
        <ele>303.6</ele>
        <time>2017-03-29T08:57:57Z</time>
      </trkpt>
      <trkpt lat="43.71653" lon="3.44153">
        <ele>304.2</ele>
        <time>2017-03-29T08:58:01Z</time>
      </trkpt>
      <trkpt lat="43.71661" lon="3.44152">
        <ele>304.5</ele>
        <time>2017-03-29T08:58:04Z</time>
      </trkpt>
      <trkpt lat="43.71669" lon="3.44151">
        <ele>304.7</ele>
        <time>2017-03-29T08:58:07Z</time>
      </trkpt>
      <trkpt lat="43.71676" lon="3.44151">
        <ele>304.8</ele>
        <time>2017-03-29T08:58:10Z</time>
      </trkpt>
      <trkpt lat="43.71684" lon="3.44151">
        <ele>305</ele>
        <time>2017-03-29T08:58:13Z</time>
      </trkpt>
      <trkpt lat="43.71691" lon="3.44151">
        <ele>305.4</ele>
        <time>2017-03-29T08:58:16Z</time>
      </trkpt>
      <trkpt lat="43.71699" lon="3.4415">
        <ele>305.7</ele>
        <time>2017-03-29T08:58:18Z</time>
      </trkpt>
      <trkpt lat="43.71707" lon="3.44148">
        <ele>306</ele>
        <time>2017-03-29T08:58:22Z</time>
      </trkpt>
      <trkpt lat="43.71716" lon="3.44149">
        <ele>306.4</ele>
        <time>2017-03-29T08:58:25Z</time>
      </trkpt>
      <trkpt lat="43.71724" lon="3.4415">
        <ele>306.8</ele>
        <time>2017-03-29T08:58:28Z</time>
      </trkpt>
      <trkpt lat="43.71732" lon="3.4415">
        <ele>307.3</ele>
        <time>2017-03-29T08:58:33Z</time>
      </trkpt>
      <trkpt lat="43.71741" lon="3.44151">
        <ele>307.9</ele>
        <time>2017-03-29T08:58:36Z</time>
      </trkpt>
      <trkpt lat="43.7175" lon="3.44152">
        <ele>308.6</ele>
        <time>2017-03-29T08:58:40Z</time>
      </trkpt>
      <trkpt lat="43.71758" lon="3.44153">
        <ele>309.4</ele>
        <time>2017-03-29T08:58:44Z</time>
      </trkpt>
      <trkpt lat="43.71765" lon="3.44155">
        <ele>310.1</ele>
        <time>2017-03-29T08:58:47Z</time>
      </trkpt>
      <trkpt lat="43.71774" lon="3.44159">
        <ele>310.6</ele>
        <time>2017-03-29T08:58:50Z</time>
      </trkpt>
      <trkpt lat="43.71783" lon="3.44165">
        <ele>311.3</ele>
        <time>2017-03-29T08:58:54Z</time>
      </trkpt>
      <trkpt lat="43.71788" lon="3.44172">
        <ele>311.8</ele>
        <time>2017-03-29T08:58:58Z</time>
      </trkpt>
      <trkpt lat="43.71792" lon="3.44181">
        <ele>312.4</ele>
        <time>2017-03-29T08:59:01Z</time>
      </trkpt>
      <trkpt lat="43.71795" lon="3.44191">
        <ele>313.1</ele>
        <time>2017-03-29T08:59:04Z</time>
      </trkpt>
      <trkpt lat="43.71798" lon="3.44201">
        <ele>313.8</ele>
        <time>2017-03-29T08:59:06Z</time>
      </trkpt>
      <trkpt lat="43.71801" lon="3.44211">
        <ele>314.4</ele>
        <time>2017-03-29T08:59:09Z</time>
      </trkpt>
      <trkpt lat="43.71809" lon="3.44215">
        <ele>315.2</ele>
        <time>2017-03-29T08:59:13Z</time>
      </trkpt>
      <trkpt lat="43.71816" lon="3.44209">
        <ele>315.9</ele>
        <time>2017-03-29T08:59:16Z</time>
      </trkpt>
      <trkpt lat="43.71821" lon="3.44201">
        <ele>316.4</ele>
        <time>2017-03-29T08:59:18Z</time>
      </trkpt>
      <trkpt lat="43.71827" lon="3.44193">
        <ele>317.1</ele>
        <time>2017-03-29T08:59:21Z</time>
      </trkpt>
      <trkpt lat="43.71831" lon="3.44184">
        <ele>317.7</ele>
        <time>2017-03-29T08:59:24Z</time>
      </trkpt>
      <trkpt lat="43.71837" lon="3.44175">
        <ele>318.2</ele>
        <time>2017-03-29T08:59:28Z</time>
      </trkpt>
      <trkpt lat="43.71844" lon="3.44168">
        <ele>318.8</ele>
        <time>2017-03-29T08:59:30Z</time>
      </trkpt>
      <trkpt lat="43.71851" lon="3.44163">
        <ele>319.4</ele>
        <time>2017-03-29T08:59:33Z</time>
      </trkpt>
      <trkpt lat="43.71859" lon="3.44159">
        <ele>320.3</ele>
        <time>2017-03-29T08:59:37Z</time>
      </trkpt>
      <trkpt lat="43.71866" lon="3.44158">
        <ele>321</ele>
        <time>2017-03-29T08:59:40Z</time>
      </trkpt>
      <trkpt lat="43.71874" lon="3.44156">
        <ele>321.4</ele>
        <time>2017-03-29T08:59:43Z</time>
      </trkpt>
      <trkpt lat="43.71881" lon="3.44154">
        <ele>321.8</ele>
        <time>2017-03-29T08:59:44Z</time>
      </trkpt>
      <trkpt lat="43.7189" lon="3.44149">
        <ele>322.2</ele>
        <time>2017-03-29T08:59:48Z</time>
      </trkpt>
      <trkpt lat="43.71898" lon="3.44148">
        <ele>322.5</ele>
        <time>2017-03-29T08:59:51Z</time>
      </trkpt>
      <trkpt lat="43.71905" lon="3.44148">
        <ele>322.8</ele>
        <time>2017-03-29T08:59:54Z</time>
      </trkpt>
      <trkpt lat="43.71904" lon="3.44158">
        <ele>323.9</ele>
        <time>2017-03-29T09:00:01Z</time>
      </trkpt>
      <trkpt lat="43.71896" lon="3.44161">
        <ele>324.7</ele>
        <time>2017-03-29T09:00:05Z</time>
      </trkpt>
      <trkpt lat="43.71889" lon="3.44165">
        <ele>325.3</ele>
        <time>2017-03-29T09:00:09Z</time>
      </trkpt>
      <trkpt lat="43.71883" lon="3.44171">
        <ele>326</ele>
        <time>2017-03-29T09:00:11Z</time>
      </trkpt>
      <trkpt lat="43.71875" lon="3.4418">
        <ele>326.7</ele>
        <time>2017-03-29T09:00:15Z</time>
      </trkpt>
      <trkpt lat="43.71869" lon="3.44187">
        <ele>327.4</ele>
        <time>2017-03-29T09:00:18Z</time>
      </trkpt>
      <trkpt lat="43.71862" lon="3.44195">
        <ele>328.4</ele>
        <time>2017-03-29T09:00:22Z</time>
      </trkpt>
      <trkpt lat="43.71857" lon="3.44204">
        <ele>329.3</ele>
        <time>2017-03-29T09:00:25Z</time>
      </trkpt>
      <trkpt lat="43.71852" lon="3.44214">
        <ele>330.2</ele>
        <time>2017-03-29T09:00:28Z</time>
      </trkpt>
      <trkpt lat="43.71847" lon="3.44222">
        <ele>330.8</ele>
        <time>2017-03-29T09:00:30Z</time>
      </trkpt>
      <trkpt lat="43.71842" lon="3.44232">
        <ele>331.6</ele>
        <time>2017-03-29T09:00:33Z</time>
      </trkpt>
      <trkpt lat="43.71838" lon="3.44241">
        <ele>332.2</ele>
        <time>2017-03-29T09:00:36Z</time>
      </trkpt>
      <trkpt lat="43.71832" lon="3.44252">
        <ele>333.2</ele>
        <time>2017-03-29T09:00:40Z</time>
      </trkpt>
      <trkpt lat="43.71826" lon="3.44263">
        <ele>334</ele>
        <time>2017-03-29T09:00:44Z</time>
      </trkpt>
      <trkpt lat="43.71819" lon="3.44271">
        <ele>335</ele>
        <time>2017-03-29T09:00:47Z</time>
      </trkpt>
      <trkpt lat="43.71812" lon="3.44274">
        <ele>335.4</ele>
        <time>2017-03-29T09:00:50Z</time>
      </trkpt>
      <trkpt lat="43.71803" lon="3.44274">
        <ele>335.9</ele>
        <time>2017-03-29T09:00:53Z</time>
      </trkpt>
      <trkpt lat="43.71793" lon="3.44273">
        <ele>336.4</ele>
        <time>2017-03-29T09:00:56Z</time>
      </trkpt>
      <trkpt lat="43.71784" lon="3.44273">
        <ele>336.6</ele>
        <time>2017-03-29T09:00:59Z</time>
      </trkpt>
      <trkpt lat="43.71776" lon="3.44271">
        <ele>337</ele>
        <time>2017-03-29T09:01:02Z</time>
      </trkpt>
      <trkpt lat="43.71767" lon="3.4427">
        <ele>337.4</ele>
        <time>2017-03-29T09:01:05Z</time>
      </trkpt>
      <trkpt lat="43.71758" lon="3.44272">
        <ele>337.9</ele>
        <time>2017-03-29T09:01:09Z</time>
      </trkpt>
      <trkpt lat="43.71751" lon="3.44279">
        <ele>338.3</ele>
        <time>2017-03-29T09:01:11Z</time>
      </trkpt>
      <trkpt lat="43.71745" lon="3.4429">
        <ele>338.7</ele>
        <time>2017-03-29T09:01:14Z</time>
      </trkpt>
      <trkpt lat="43.7174" lon="3.44298">
        <ele>339</ele>
        <time>2017-03-29T09:01:16Z</time>
      </trkpt>
      <trkpt lat="43.71736" lon="3.44307">
        <ele>339.4</ele>
        <time>2017-03-29T09:01:19Z</time>
      </trkpt>
      <trkpt lat="43.71733" lon="3.44319">
        <ele>339.9</ele>
        <time>2017-03-29T09:01:22Z</time>
      </trkpt>
      <trkpt lat="43.71728" lon="3.44329">
        <ele>340.4</ele>
        <time>2017-03-29T09:01:26Z</time>
      </trkpt>
      <trkpt lat="43.71723" lon="3.44338">
        <ele>341</ele>
        <time>2017-03-29T09:01:28Z</time>
      </trkpt>
      <trkpt lat="43.71718" lon="3.44348">
        <ele>341.4</ele>
        <time>2017-03-29T09:01:32Z</time>
      </trkpt>
      <trkpt lat="43.71715" lon="3.44358">
        <ele>341.9</ele>
        <time>2017-03-29T09:01:34Z</time>
      </trkpt>
      <trkpt lat="43.71712" lon="3.44371">
        <ele>342.7</ele>
        <time>2017-03-29T09:01:38Z</time>
      </trkpt>
      <trkpt lat="43.7171" lon="3.44382">
        <ele>343.1</ele>
        <time>2017-03-29T09:01:42Z</time>
      </trkpt>
      <trkpt lat="43.71706" lon="3.44392">
        <ele>343.5</ele>
        <time>2017-03-29T09:01:45Z</time>
      </trkpt>
      <trkpt lat="43.71702" lon="3.44399">
        <ele>344</ele>
        <time>2017-03-29T09:01:47Z</time>
      </trkpt>
      <trkpt lat="43.71695" lon="3.44407">
        <ele>344.7</ele>
        <time>2017-03-29T09:01:52Z</time>
      </trkpt>
      <trkpt lat="43.71691" lon="3.44416">
        <ele>345.2</ele>
        <time>2017-03-29T09:01:55Z</time>
      </trkpt>
      <trkpt lat="43.7169" lon="3.44428">
        <ele>345.9</ele>
        <time>2017-03-29T09:01:58Z</time>
      </trkpt>
      <trkpt lat="43.71698" lon="3.44428">
        <ele>346.6</ele>
        <time>2017-03-29T09:02:02Z</time>
      </trkpt>
      <trkpt lat="43.71706" lon="3.44423">
        <ele>347.1</ele>
        <time>2017-03-29T09:02:06Z</time>
      </trkpt>
      <trkpt lat="43.71712" lon="3.44418">
        <ele>347.7</ele>
        <time>2017-03-29T09:02:08Z</time>
      </trkpt>
      <trkpt lat="43.71719" lon="3.44413">
        <ele>348.4</ele>
        <time>2017-03-29T09:02:11Z</time>
      </trkpt>
      <trkpt lat="43.71726" lon="3.44405">
        <ele>349.3</ele>
        <time>2017-03-29T09:02:16Z</time>
      </trkpt>
      <trkpt lat="43.71732" lon="3.444">
        <ele>349.9</ele>
        <time>2017-03-29T09:02:18Z</time>
      </trkpt>
      <trkpt lat="43.71739" lon="3.44393">
        <ele>350.6</ele>
        <time>2017-03-29T09:02:22Z</time>
      </trkpt>
      <trkpt lat="43.71747" lon="3.44388">
        <ele>351.2</ele>
        <time>2017-03-29T09:02:26Z</time>
      </trkpt>
      <trkpt lat="43.71756" lon="3.44386">
        <ele>351.8</ele>
        <time>2017-03-29T09:02:30Z</time>
      </trkpt>
      <trkpt lat="43.71763" lon="3.44383">
        <ele>352.3</ele>
        <time>2017-03-29T09:02:33Z</time>
      </trkpt>
      <trkpt lat="43.7177" lon="3.44379">
        <ele>352.8</ele>
        <time>2017-03-29T09:02:36Z</time>
      </trkpt>
      <trkpt lat="43.71777" lon="3.44375">
        <ele>353.7</ele>
        <time>2017-03-29T09:02:41Z</time>
      </trkpt>
      <trkpt lat="43.71775" lon="3.44371">
        <ele>354.4</ele>
        <time>2017-03-29T09:03:13Z</time>
      </trkpt>
      <trkpt lat="43.71771" lon="3.44369">
        <ele>354.7</ele>
        <time>2017-03-29T09:03:25Z</time>
      </trkpt>
      <trkpt lat="43.71769" lon="3.44373">
        <ele>354.6</ele>
        <time>2017-03-29T09:03:33Z</time>
      </trkpt>
      <trkpt lat="43.71764" lon="3.4437">
        <ele>354</ele>
        <time>2017-03-29T09:03:44Z</time>
      </trkpt>
      <trkpt lat="43.71766" lon="3.44358">
        <ele>353.6</ele>
        <time>2017-03-29T09:03:46Z</time>
      </trkpt>
      <trkpt lat="43.71767" lon="3.44347">
        <ele>352.2</ele>
        <time>2017-03-29T09:03:48Z</time>
      </trkpt>
      <trkpt lat="43.71762" lon="3.44331">
        <ele>350.3</ele>
        <time>2017-03-29T09:03:51Z</time>
      </trkpt>
      <trkpt lat="43.71762" lon="3.44319">
        <ele>350.2</ele>
        <time>2017-03-29T09:03:52Z</time>
      </trkpt>
      <trkpt lat="43.71761" lon="3.44305">
        <ele>351</ele>
        <time>2017-03-29T09:03:55Z</time>
      </trkpt>
      <trkpt lat="43.71759" lon="3.44292">
        <ele>350.7</ele>
        <time>2017-03-29T09:03:58Z</time>
      </trkpt>
      <trkpt lat="43.71757" lon="3.44279">
        <ele>350.7</ele>
        <time>2017-03-29T09:04:00Z</time>
      </trkpt>
      <trkpt lat="43.71754" lon="3.44268">
        <ele>349.4</ele>
        <time>2017-03-29T09:04:03Z</time>
      </trkpt>
      <trkpt lat="43.71751" lon="3.44254">
        <ele>346.7</ele>
        <time>2017-03-29T09:04:05Z</time>
      </trkpt>
      <trkpt lat="43.71749" lon="3.4424">
        <ele>345.3</ele>
        <time>2017-03-29T09:04:07Z</time>
      </trkpt>
      <trkpt lat="43.71743" lon="3.44231">
        <ele>343.9</ele>
        <time>2017-03-29T09:04:09Z</time>
      </trkpt>
      <trkpt lat="43.71734" lon="3.44228">
        <ele>343.5</ele>
        <time>2017-03-29T09:04:12Z</time>
      </trkpt>
      <trkpt lat="43.71732" lon="3.44214">
        <ele>342.9</ele>
        <time>2017-03-29T09:04:16Z</time>
      </trkpt>
      <trkpt lat="43.71731" lon="3.44203">
        <ele>342.5</ele>
        <time>2017-03-29T09:04:18Z</time>
      </trkpt>
      <trkpt lat="43.71729" lon="3.44193">
        <ele>342</ele>
        <time>2017-03-29T09:04:20Z</time>
      </trkpt>
      <trkpt lat="43.71726" lon="3.44184">
        <ele>341.4</ele>
        <time>2017-03-29T09:04:22Z</time>
      </trkpt>
      <trkpt lat="43.71725" lon="3.44174">
        <ele>340.9</ele>
        <time>2017-03-29T09:04:24Z</time>
      </trkpt>
      <trkpt lat="43.71724" lon="3.44163">
        <ele>340</ele>
        <time>2017-03-29T09:04:27Z</time>
      </trkpt>
      <trkpt lat="43.71724" lon="3.44151">
        <ele>339</ele>
        <time>2017-03-29T09:04:30Z</time>
      </trkpt>
      <trkpt lat="43.71723" lon="3.44138">
        <ele>333.8</ele>
        <time>2017-03-29T09:04:33Z</time>
      </trkpt>
      <trkpt lat="43.71722" lon="3.44124">
        <ele>325.7</ele>
        <time>2017-03-29T09:04:35Z</time>
      </trkpt>
      <trkpt lat="43.71722" lon="3.44113">
        <ele>324.8</ele>
        <time>2017-03-29T09:04:38Z</time>
      </trkpt>
      <trkpt lat="43.71722" lon="3.44101">
        <ele>318.6</ele>
        <time>2017-03-29T09:04:41Z</time>
      </trkpt>
      <trkpt lat="43.71722" lon="3.44094">
        <ele>316.6</ele>
        <time>2017-03-29T09:04:48Z</time>
      </trkpt>
      <trkpt lat="43.71722" lon="3.44095">
        <ele>313.6</ele>
        <time>2017-03-29T09:05:06Z</time>
      </trkpt>
      <trkpt lat="43.71731" lon="3.44082">
        <ele>310.7</ele>
        <time>2017-03-29T09:05:29Z</time>
      </trkpt>
      <trkpt lat="43.71735" lon="3.44073">
        <ele>310.1</ele>
        <time>2017-03-29T09:05:30Z</time>
      </trkpt>
      <trkpt lat="43.71741" lon="3.44062">
        <ele>306.1</ele>
        <time>2017-03-29T09:05:32Z</time>
      </trkpt>
      <trkpt lat="43.71744" lon="3.4405">
        <ele>305.8</ele>
        <time>2017-03-29T09:05:34Z</time>
      </trkpt>
      <trkpt lat="43.71744" lon="3.44031">
        <ele>303.4</ele>
        <time>2017-03-29T09:05:36Z</time>
      </trkpt>
      <trkpt lat="43.71739" lon="3.44022">
        <ele>301.8</ele>
        <time>2017-03-29T09:05:38Z</time>
      </trkpt>
      <trkpt lat="43.71737" lon="3.44027">
        <ele>300.8</ele>
        <time>2017-03-29T09:05:45Z</time>
      </trkpt>
      <trkpt lat="43.7174" lon="3.44031">
        <ele>300</ele>
        <time>2017-03-29T09:05:52Z</time>
      </trkpt>
      <trkpt lat="43.71743" lon="3.44035">
        <ele>299.5</ele>
        <time>2017-03-29T09:05:59Z</time>
      </trkpt>
      <trkpt lat="43.71746" lon="3.44039">
        <ele>299.5</ele>
        <time>2017-03-29T09:06:15Z</time>
      </trkpt>
      <trkpt lat="43.71744" lon="3.44043">
        <ele>298.7</ele>
        <time>2017-03-29T09:06:41Z</time>
      </trkpt>
      <trkpt lat="43.71745" lon="3.44038">
        <ele>297.3</ele>
        <time>2017-03-29T09:07:03Z</time>
      </trkpt>
      <trkpt lat="43.71744" lon="3.44041">
        <ele>295.6</ele>
        <time>2017-03-29T09:07:40Z</time>
      </trkpt>
      <trkpt lat="43.71747" lon="3.44039">
        <ele>294.8</ele>
        <time>2017-03-29T09:07:53Z</time>
      </trkpt>
      <trkpt lat="43.71744" lon="3.44041">
        <ele>294.8</ele>
        <time>2017-03-29T09:07:59Z</time>
      </trkpt>
      <trkpt lat="43.71743" lon="3.44042">
        <ele>294.5</ele>
        <time>2017-03-29T09:08:06Z</time>
      </trkpt>
      <trkpt lat="43.7175" lon="3.44045">
        <ele>293.2</ele>
        <time>2017-03-29T09:08:28Z</time>
      </trkpt>
      <trkpt lat="43.71757" lon="3.44051">
        <ele>293.1</ele>
        <time>2017-03-29T09:08:31Z</time>
      </trkpt>
      <trkpt lat="43.71763" lon="3.44057">
        <ele>293.2</ele>
        <time>2017-03-29T09:08:35Z</time>
      </trkpt>
      <trkpt lat="43.71771" lon="3.4406">
        <ele>293.6</ele>
        <time>2017-03-29T09:08:39Z</time>
      </trkpt>
      <trkpt lat="43.71779" lon="3.44061">
        <ele>294.1</ele>
        <time>2017-03-29T09:08:43Z</time>
      </trkpt>
      <trkpt lat="43.71787" lon="3.44065">
        <ele>294.4</ele>
        <time>2017-03-29T09:08:47Z</time>
      </trkpt>
      <trkpt lat="43.71786" lon="3.44077">
        <ele>295.1</ele>
        <time>2017-03-29T09:08:53Z</time>
      </trkpt>
      <trkpt lat="43.71778" lon="3.4408">
        <ele>295.7</ele>
        <time>2017-03-29T09:08:59Z</time>
      </trkpt>
      <trkpt lat="43.7177" lon="3.4408">
        <ele>296.2</ele>
        <time>2017-03-29T09:09:03Z</time>
      </trkpt>
      <trkpt lat="43.71762" lon="3.44082">
        <ele>296.9</ele>
        <time>2017-03-29T09:09:07Z</time>
      </trkpt>
      <trkpt lat="43.71755" lon="3.44086">
        <ele>297.5</ele>
        <time>2017-03-29T09:09:11Z</time>
      </trkpt>
      <trkpt lat="43.71747" lon="3.4409">
        <ele>298.3</ele>
        <time>2017-03-29T09:09:16Z</time>
      </trkpt>
      <trkpt lat="43.71741" lon="3.44095">
        <ele>298.7</ele>
        <time>2017-03-29T09:09:20Z</time>
      </trkpt>
      <trkpt lat="43.71732" lon="3.441">
        <ele>299.2</ele>
        <time>2017-03-29T09:09:23Z</time>
      </trkpt>
      <trkpt lat="43.71725" lon="3.44102">
        <ele>299.7</ele>
        <time>2017-03-29T09:09:26Z</time>
      </trkpt>
      <trkpt lat="43.71717" lon="3.44104">
        <ele>300.5</ele>
        <time>2017-03-29T09:09:31Z</time>
      </trkpt>
      <trkpt lat="43.7171" lon="3.44108">
        <ele>301.3</ele>
        <time>2017-03-29T09:09:34Z</time>
      </trkpt>
      <trkpt lat="43.71702" lon="3.44111">
        <ele>301.8</ele>
        <time>2017-03-29T09:09:39Z</time>
      </trkpt>
      <trkpt lat="43.71694" lon="3.44116">
        <ele>302.5</ele>
        <time>2017-03-29T09:09:45Z</time>
      </trkpt>
      <trkpt lat="43.71688" lon="3.44121">
        <ele>303.1</ele>
        <time>2017-03-29T09:09:50Z</time>
      </trkpt>
      <trkpt lat="43.7168" lon="3.44128">
        <ele>303.5</ele>
        <time>2017-03-29T09:09:55Z</time>
      </trkpt>
      <trkpt lat="43.71673" lon="3.44133">
        <ele>304.1</ele>
        <time>2017-03-29T09:09:59Z</time>
      </trkpt>
      <trkpt lat="43.71665" lon="3.44134">
        <ele>304.8</ele>
        <time>2017-03-29T09:10:03Z</time>
      </trkpt>
      <trkpt lat="43.71657" lon="3.44135">
        <ele>305.3</ele>
        <time>2017-03-29T09:10:07Z</time>
      </trkpt>
      <trkpt lat="43.71651" lon="3.44141">
        <ele>305.7</ele>
        <time>2017-03-29T09:10:11Z</time>
      </trkpt>
      <trkpt lat="43.7165" lon="3.44153">
        <ele>306.3</ele>
        <time>2017-03-29T09:10:15Z</time>
      </trkpt>
      <trkpt lat="43.71658" lon="3.44156">
        <ele>307.1</ele>
        <time>2017-03-29T09:10:20Z</time>
      </trkpt>
      <trkpt lat="43.71666" lon="3.44155">
        <ele>307.5</ele>
        <time>2017-03-29T09:10:24Z</time>
      </trkpt>
      <trkpt lat="43.71675" lon="3.44153">
        <ele>308</ele>
        <time>2017-03-29T09:10:29Z</time>
      </trkpt>
      <trkpt lat="43.71683" lon="3.44151">
        <ele>308.5</ele>
        <time>2017-03-29T09:10:33Z</time>
      </trkpt>
      <trkpt lat="43.71692" lon="3.44149">
        <ele>309</ele>
        <time>2017-03-29T09:10:38Z</time>
      </trkpt>
      <trkpt lat="43.71699" lon="3.44148">
        <ele>309.4</ele>
        <time>2017-03-29T09:10:42Z</time>
      </trkpt>
      <trkpt lat="43.71706" lon="3.44147">
        <ele>309.8</ele>
        <time>2017-03-29T09:10:46Z</time>
      </trkpt>
      <trkpt lat="43.71714" lon="3.44147">
        <ele>310.1</ele>
        <time>2017-03-29T09:10:50Z</time>
      </trkpt>
      <trkpt lat="43.71723" lon="3.44149">
        <ele>310.6</ele>
        <time>2017-03-29T09:10:54Z</time>
      </trkpt>
      <trkpt lat="43.71731" lon="3.4415">
        <ele>311.3</ele>
        <time>2017-03-29T09:11:01Z</time>
      </trkpt>
      <trkpt lat="43.71738" lon="3.44149">
        <ele>311.7</ele>
        <time>2017-03-29T09:11:06Z</time>
      </trkpt>
      <trkpt lat="43.71746" lon="3.4415">
        <ele>312.1</ele>
        <time>2017-03-29T09:11:11Z</time>
      </trkpt>
      <trkpt lat="43.71755" lon="3.44152">
        <ele>312.7</ele>
        <time>2017-03-29T09:11:16Z</time>
      </trkpt>
      <trkpt lat="43.71763" lon="3.44154">
        <ele>313.4</ele>
        <time>2017-03-29T09:11:20Z</time>
      </trkpt>
      <trkpt lat="43.71771" lon="3.44156">
        <ele>314.4</ele>
        <time>2017-03-29T09:11:25Z</time>
      </trkpt>
      <trkpt lat="43.71779" lon="3.44161">
        <ele>315</ele>
        <time>2017-03-29T09:11:29Z</time>
      </trkpt>
      <trkpt lat="43.71785" lon="3.44167">
        <ele>315.7</ele>
        <time>2017-03-29T09:11:33Z</time>
      </trkpt>
      <trkpt lat="43.71791" lon="3.44174">
        <ele>316.4</ele>
        <time>2017-03-29T09:11:37Z</time>
      </trkpt>
      <trkpt lat="43.71795" lon="3.44184">
        <ele>317.1</ele>
        <time>2017-03-29T09:11:41Z</time>
      </trkpt>
      <trkpt lat="43.71797" lon="3.44196">
        <ele>317.8</ele>
        <time>2017-03-29T09:11:45Z</time>
      </trkpt>
      <trkpt lat="43.718" lon="3.44205">
        <ele>318.4</ele>
        <time>2017-03-29T09:11:48Z</time>
      </trkpt>
      <trkpt lat="43.71805" lon="3.44214">
        <ele>319.4</ele>
        <time>2017-03-29T09:11:53Z</time>
      </trkpt>
      <trkpt lat="43.71813" lon="3.4421">
        <ele>320.6</ele>
        <time>2017-03-29T09:11:58Z</time>
      </trkpt>
      <trkpt lat="43.71819" lon="3.44201">
        <ele>321.4</ele>
        <time>2017-03-29T09:12:02Z</time>
      </trkpt>
      <trkpt lat="43.71825" lon="3.44192">
        <ele>322.1</ele>
        <time>2017-03-29T09:12:07Z</time>
      </trkpt>
      <trkpt lat="43.7183" lon="3.44183">
        <ele>322.7</ele>
        <time>2017-03-29T09:12:10Z</time>
      </trkpt>
      <trkpt lat="43.71835" lon="3.44174">
        <ele>323.2</ele>
        <time>2017-03-29T09:12:14Z</time>
      </trkpt>
      <trkpt lat="43.71842" lon="3.44167">
        <ele>323.8</ele>
        <time>2017-03-29T09:12:18Z</time>
      </trkpt>
      <trkpt lat="43.71848" lon="3.44163">
        <ele>324.6</ele>
        <time>2017-03-29T09:12:22Z</time>
      </trkpt>
      <trkpt lat="43.71856" lon="3.44159">
        <ele>325.5</ele>
        <time>2017-03-29T09:12:26Z</time>
      </trkpt>
      <trkpt lat="43.71864" lon="3.44157">
        <ele>326.4</ele>
        <time>2017-03-29T09:12:31Z</time>
      </trkpt>
      <trkpt lat="43.71872" lon="3.44156">
        <ele>326.7</ele>
        <time>2017-03-29T09:12:34Z</time>
      </trkpt>
      <trkpt lat="43.71881" lon="3.44153">
        <ele>327</ele>
        <time>2017-03-29T09:12:38Z</time>
      </trkpt>
      <trkpt lat="43.71889" lon="3.4415">
        <ele>327.2</ele>
        <time>2017-03-29T09:12:43Z</time>
      </trkpt>
      <trkpt lat="43.71897" lon="3.44148">
        <ele>327.5</ele>
        <time>2017-03-29T09:12:47Z</time>
      </trkpt>
      <trkpt lat="43.71905" lon="3.44148">
        <ele>327.7</ele>
        <time>2017-03-29T09:12:52Z</time>
      </trkpt>
      <trkpt lat="43.7191" lon="3.44155">
        <ele>328.1</ele>
        <time>2017-03-29T09:12:58Z</time>
      </trkpt>
      <trkpt lat="43.71903" lon="3.4416">
        <ele>329</ele>
        <time>2017-03-29T09:13:05Z</time>
      </trkpt>
      <trkpt lat="43.71895" lon="3.44163">
        <ele>329.8</ele>
        <time>2017-03-29T09:13:08Z</time>
      </trkpt>
      <trkpt lat="43.71888" lon="3.44167">
        <ele>330.5</ele>
        <time>2017-03-29T09:13:12Z</time>
      </trkpt>
      <trkpt lat="43.71881" lon="3.44174">
        <ele>331.2</ele>
        <time>2017-03-29T09:13:18Z</time>
      </trkpt>
      <trkpt lat="43.71875" lon="3.44182">
        <ele>331.9</ele>
        <time>2017-03-29T09:13:22Z</time>
      </trkpt>
      <trkpt lat="43.71868" lon="3.44187">
        <ele>332.8</ele>
        <time>2017-03-29T09:13:27Z</time>
      </trkpt>
      <trkpt lat="43.71862" lon="3.44194">
        <ele>333.6</ele>
        <time>2017-03-29T09:13:31Z</time>
      </trkpt>
      <trkpt lat="43.71857" lon="3.44202">
        <ele>334.5</ele>
        <time>2017-03-29T09:13:35Z</time>
      </trkpt>
      <trkpt lat="43.71852" lon="3.44209">
        <ele>335.5</ele>
        <time>2017-03-29T09:13:39Z</time>
      </trkpt>
      <trkpt lat="43.71847" lon="3.44219">
        <ele>336.3</ele>
        <time>2017-03-29T09:13:43Z</time>
      </trkpt>
      <trkpt lat="43.71843" lon="3.44228">
        <ele>337.2</ele>
        <time>2017-03-29T09:13:47Z</time>
      </trkpt>
      <trkpt lat="43.7184" lon="3.44238">
        <ele>338.2</ele>
        <time>2017-03-29T09:13:52Z</time>
      </trkpt>
      <trkpt lat="43.71837" lon="3.44247">
        <ele>339.3</ele>
        <time>2017-03-29T09:13:59Z</time>
      </trkpt>
      <trkpt lat="43.71831" lon="3.44254">
        <ele>340</ele>
        <time>2017-03-29T09:14:04Z</time>
      </trkpt>
      <trkpt lat="43.71828" lon="3.44261">
        <ele>340.8</ele>
        <time>2017-03-29T09:14:11Z</time>
      </trkpt>
      <trkpt lat="43.71823" lon="3.44267">
        <ele>341.6</ele>
        <time>2017-03-29T09:14:18Z</time>
      </trkpt>
      <trkpt lat="43.71816" lon="3.44273">
        <ele>342.2</ele>
        <time>2017-03-29T09:14:23Z</time>
      </trkpt>
      <trkpt lat="43.71809" lon="3.44274">
        <ele>342.8</ele>
        <time>2017-03-29T09:14:27Z</time>
      </trkpt>
      <trkpt lat="43.71801" lon="3.44275">
        <ele>343.1</ele>
        <time>2017-03-29T09:14:32Z</time>
      </trkpt>
      <trkpt lat="43.71794" lon="3.44274">
        <ele>343.6</ele>
        <time>2017-03-29T09:14:36Z</time>
      </trkpt>
      <trkpt lat="43.71786" lon="3.44275">
        <ele>343.9</ele>
        <time>2017-03-29T09:14:40Z</time>
      </trkpt>
      <trkpt lat="43.71776" lon="3.44273">
        <ele>344.1</ele>
        <time>2017-03-29T09:14:44Z</time>
      </trkpt>
      <trkpt lat="43.71767" lon="3.44272">
        <ele>344.3</ele>
        <time>2017-03-29T09:14:48Z</time>
      </trkpt>
      <trkpt lat="43.71757" lon="3.44276">
        <ele>344.5</ele>
        <time>2017-03-29T09:14:52Z</time>
      </trkpt>
      <trkpt lat="43.71752" lon="3.44281">
        <ele>344.8</ele>
        <time>2017-03-29T09:14:55Z</time>
      </trkpt>
      <trkpt lat="43.71746" lon="3.44291">
        <ele>345.3</ele>
        <time>2017-03-29T09:14:59Z</time>
      </trkpt>
      <trkpt lat="43.71741" lon="3.44302">
        <ele>345.6</ele>
        <time>2017-03-29T09:15:02Z</time>
      </trkpt>
      <trkpt lat="43.71737" lon="3.4431">
        <ele>346.1</ele>
        <time>2017-03-29T09:15:06Z</time>
      </trkpt>
      <trkpt lat="43.71734" lon="3.4432">
        <ele>346.5</ele>
        <time>2017-03-29T09:15:09Z</time>
      </trkpt>
      <trkpt lat="43.7173" lon="3.44329">
        <ele>347</ele>
        <time>2017-03-29T09:15:12Z</time>
      </trkpt>
      <trkpt lat="43.71724" lon="3.44337">
        <ele>347.4</ele>
        <time>2017-03-29T09:15:16Z</time>
      </trkpt>
      <trkpt lat="43.71719" lon="3.44347">
        <ele>348</ele>
        <time>2017-03-29T09:15:20Z</time>
      </trkpt>
      <trkpt lat="43.71716" lon="3.44356">
        <ele>348.6</ele>
        <time>2017-03-29T09:15:24Z</time>
      </trkpt>
      <trkpt lat="43.71714" lon="3.44366">
        <ele>349.3</ele>
        <time>2017-03-29T09:15:28Z</time>
      </trkpt>
      <trkpt lat="43.71711" lon="3.44379">
        <ele>350.1</ele>
        <time>2017-03-29T09:15:33Z</time>
      </trkpt>
      <trkpt lat="43.71708" lon="3.4439">
        <ele>350.8</ele>
        <time>2017-03-29T09:15:37Z</time>
      </trkpt>
      <trkpt lat="43.71702" lon="3.444">
        <ele>351.3</ele>
        <time>2017-03-29T09:15:41Z</time>
      </trkpt>
      <trkpt lat="43.71696" lon="3.44408">
        <ele>351.6</ele>
        <time>2017-03-29T09:15:45Z</time>
      </trkpt>
      <trkpt lat="43.71691" lon="3.44418">
        <ele>351.9</ele>
        <time>2017-03-29T09:15:49Z</time>
      </trkpt>
      <trkpt lat="43.7169" lon="3.44428">
        <ele>352.4</ele>
        <time>2017-03-29T09:15:54Z</time>
      </trkpt>
      <trkpt lat="43.71698" lon="3.44427">
        <ele>352.8</ele>
        <time>2017-03-29T09:15:58Z</time>
      </trkpt>
      <trkpt lat="43.71705" lon="3.44422">
        <ele>353.1</ele>
        <time>2017-03-29T09:16:01Z</time>
      </trkpt>
      <trkpt lat="43.71713" lon="3.44416">
        <ele>353.6</ele>
        <time>2017-03-29T09:16:05Z</time>
      </trkpt>
      <trkpt lat="43.71721" lon="3.44411">
        <ele>353.9</ele>
        <time>2017-03-29T09:16:09Z</time>
      </trkpt>
      <trkpt lat="43.71728" lon="3.44405">
        <ele>354.3</ele>
        <time>2017-03-29T09:16:13Z</time>
      </trkpt>
      <trkpt lat="43.71735" lon="3.44398">
        <ele>354.6</ele>
        <time>2017-03-29T09:16:17Z</time>
      </trkpt>
      <trkpt lat="43.71741" lon="3.44392">
        <ele>354.9</ele>
        <time>2017-03-29T09:16:20Z</time>
      </trkpt>
      <trkpt lat="43.71749" lon="3.44389">
        <ele>355.1</ele>
        <time>2017-03-29T09:16:24Z</time>
      </trkpt>
      <trkpt lat="43.71757" lon="3.44388">
        <ele>355.3</ele>
        <time>2017-03-29T09:16:28Z</time>
      </trkpt>
      <trkpt lat="43.71765" lon="3.44384">
        <ele>355.6</ele>
        <time>2017-03-29T09:16:32Z</time>
      </trkpt>
      <trkpt lat="43.71771" lon="3.44379">
        <ele>355.7</ele>
        <time>2017-03-29T09:16:35Z</time>
      </trkpt>
      <trkpt lat="43.71778" lon="3.44375">
        <ele>355.9</ele>
        <time>2017-03-29T09:16:38Z</time>
      </trkpt>
      <trkpt lat="43.71787" lon="3.44372">
        <ele>356.3</ele>
        <time>2017-03-29T09:16:42Z</time>
      </trkpt>
      <trkpt lat="43.71794" lon="3.44369">
        <ele>356.8</ele>
        <time>2017-03-29T09:16:46Z</time>
      </trkpt>
      <trkpt lat="43.71802" lon="3.44364">
        <ele>357.2</ele>
        <time>2017-03-29T09:16:50Z</time>
      </trkpt>
      <trkpt lat="43.7181" lon="3.4436">
        <ele>357.7</ele>
        <time>2017-03-29T09:16:53Z</time>
      </trkpt>
      <trkpt lat="43.71817" lon="3.44358">
        <ele>358.2</ele>
        <time>2017-03-29T09:16:56Z</time>
      </trkpt>
      <trkpt lat="43.71824" lon="3.44357">
        <ele>358.6</ele>
        <time>2017-03-29T09:16:59Z</time>
      </trkpt>
      <trkpt lat="43.71832" lon="3.44357">
        <ele>358.9</ele>
        <time>2017-03-29T09:17:02Z</time>
      </trkpt>
      <trkpt lat="43.71841" lon="3.44355">
        <ele>359.4</ele>
        <time>2017-03-29T09:17:06Z</time>
      </trkpt>
      <trkpt lat="43.71848" lon="3.44349">
        <ele>359.9</ele>
        <time>2017-03-29T09:17:09Z</time>
      </trkpt>
      <trkpt lat="43.71856" lon="3.44342">
        <ele>360.5</ele>
        <time>2017-03-29T09:17:13Z</time>
      </trkpt>
      <trkpt lat="43.71864" lon="3.44335">
        <ele>361.3</ele>
        <time>2017-03-29T09:17:17Z</time>
      </trkpt>
      <trkpt lat="43.71871" lon="3.44331">
        <ele>362</ele>
        <time>2017-03-29T09:17:20Z</time>
      </trkpt>
      <trkpt lat="43.7188" lon="3.44328">
        <ele>362.7</ele>
        <time>2017-03-29T09:17:24Z</time>
      </trkpt>
      <trkpt lat="43.71889" lon="3.44325">
        <ele>363.1</ele>
        <time>2017-03-29T09:17:28Z</time>
      </trkpt>
      <trkpt lat="43.71898" lon="3.44324">
        <ele>363.2</ele>
        <time>2017-03-29T09:17:32Z</time>
      </trkpt>
      <trkpt lat="43.71907" lon="3.44324">
        <ele>363.6</ele>
        <time>2017-03-29T09:17:36Z</time>
      </trkpt>
      <trkpt lat="43.71916" lon="3.44323">
        <ele>364</ele>
        <time>2017-03-29T09:17:40Z</time>
      </trkpt>
      <trkpt lat="43.71925" lon="3.44322">
        <ele>364.4</ele>
        <time>2017-03-29T09:17:44Z</time>
      </trkpt>
      <trkpt lat="43.71934" lon="3.4432">
        <ele>364.7</ele>
        <time>2017-03-29T09:17:48Z</time>
      </trkpt>
      <trkpt lat="43.71943" lon="3.4432">
        <ele>365.2</ele>
        <time>2017-03-29T09:17:52Z</time>
      </trkpt>
      <trkpt lat="43.71952" lon="3.44322">
        <ele>365.8</ele>
        <time>2017-03-29T09:17:56Z</time>
      </trkpt>
      <trkpt lat="43.7196" lon="3.44324">
        <ele>366.7</ele>
        <time>2017-03-29T09:18:00Z</time>
      </trkpt>
      <trkpt lat="43.71967" lon="3.44327">
        <ele>367.4</ele>
        <time>2017-03-29T09:18:03Z</time>
      </trkpt>
      <trkpt lat="43.71974" lon="3.4433">
        <ele>368.2</ele>
        <time>2017-03-29T09:18:06Z</time>
      </trkpt>
      <trkpt lat="43.71982" lon="3.44333">
        <ele>369.1</ele>
        <time>2017-03-29T09:18:09Z</time>
      </trkpt>
      <trkpt lat="43.71989" lon="3.44336">
        <ele>369.9</ele>
        <time>2017-03-29T09:18:12Z</time>
      </trkpt>
      <trkpt lat="43.71998" lon="3.44336">
        <ele>370.7</ele>
        <time>2017-03-29T09:18:15Z</time>
      </trkpt>
      <trkpt lat="43.72005" lon="3.44331">
        <ele>371.4</ele>
        <time>2017-03-29T09:18:18Z</time>
      </trkpt>
      <trkpt lat="43.72012" lon="3.44326">
        <ele>372.3</ele>
        <time>2017-03-29T09:18:21Z</time>
      </trkpt>
      <trkpt lat="43.72018" lon="3.44319">
        <ele>373.2</ele>
        <time>2017-03-29T09:18:24Z</time>
      </trkpt>
      <trkpt lat="43.72023" lon="3.44314">
        <ele>374.1</ele>
        <time>2017-03-29T09:18:27Z</time>
      </trkpt>
      <trkpt lat="43.72031" lon="3.4431">
        <ele>374.9</ele>
        <time>2017-03-29T09:18:30Z</time>
      </trkpt>
      <trkpt lat="43.72039" lon="3.44309">
        <ele>375.9</ele>
        <time>2017-03-29T09:18:34Z</time>
      </trkpt>
      <trkpt lat="43.72048" lon="3.44306">
        <ele>376.9</ele>
        <time>2017-03-29T09:18:38Z</time>
      </trkpt>
      <trkpt lat="43.72055" lon="3.44303">
        <ele>377.7</ele>
        <time>2017-03-29T09:18:41Z</time>
      </trkpt>
      <trkpt lat="43.72064" lon="3.44299">
        <ele>378.7</ele>
        <time>2017-03-29T09:18:45Z</time>
      </trkpt>
      <trkpt lat="43.72072" lon="3.44294">
        <ele>379.4</ele>
        <time>2017-03-29T09:18:48Z</time>
      </trkpt>
      <trkpt lat="43.7208" lon="3.44287">
        <ele>380.3</ele>
        <time>2017-03-29T09:18:52Z</time>
      </trkpt>
      <trkpt lat="43.72087" lon="3.44281">
        <ele>381</ele>
        <time>2017-03-29T09:18:55Z</time>
      </trkpt>
      <trkpt lat="43.72093" lon="3.44273">
        <ele>381.8</ele>
        <time>2017-03-29T09:18:59Z</time>
      </trkpt>
      <trkpt lat="43.72099" lon="3.44267">
        <ele>382</ele>
        <time>2017-03-29T09:19:02Z</time>
      </trkpt>
      <trkpt lat="43.72106" lon="3.44259">
        <ele>382.3</ele>
        <time>2017-03-29T09:19:06Z</time>
      </trkpt>
      <trkpt lat="43.72112" lon="3.44252">
        <ele>382.7</ele>
        <time>2017-03-29T09:19:09Z</time>
      </trkpt>
      <trkpt lat="43.72118" lon="3.44245">
        <ele>383.2</ele>
        <time>2017-03-29T09:19:12Z</time>
      </trkpt>
      <trkpt lat="43.72125" lon="3.44236">
        <ele>383.7</ele>
        <time>2017-03-29T09:19:16Z</time>
      </trkpt>
      <trkpt lat="43.72131" lon="3.44228">
        <ele>384.3</ele>
        <time>2017-03-29T09:19:19Z</time>
      </trkpt>
      <trkpt lat="43.72138" lon="3.44221">
        <ele>385.3</ele>
        <time>2017-03-29T09:19:23Z</time>
      </trkpt>
      <trkpt lat="43.72144" lon="3.44211">
        <ele>386.4</ele>
        <time>2017-03-29T09:19:27Z</time>
      </trkpt>
      <trkpt lat="43.7215" lon="3.44204">
        <ele>387.2</ele>
        <time>2017-03-29T09:19:30Z</time>
      </trkpt>
      <trkpt lat="43.72156" lon="3.44198">
        <ele>388</ele>
        <time>2017-03-29T09:19:34Z</time>
      </trkpt>
      <trkpt lat="43.72162" lon="3.44193">
        <ele>388.6</ele>
        <time>2017-03-29T09:19:37Z</time>
      </trkpt>
      <trkpt lat="43.72171" lon="3.44188">
        <ele>389.3</ele>
        <time>2017-03-29T09:19:41Z</time>
      </trkpt>
      <trkpt lat="43.72178" lon="3.44185">
        <ele>389.8</ele>
        <time>2017-03-29T09:19:44Z</time>
      </trkpt>
      <trkpt lat="43.72186" lon="3.44181">
        <ele>390.4</ele>
        <time>2017-03-29T09:19:48Z</time>
      </trkpt>
      <trkpt lat="43.72195" lon="3.44176">
        <ele>391.4</ele>
        <time>2017-03-29T09:19:52Z</time>
      </trkpt>
      <trkpt lat="43.72203" lon="3.44172">
        <ele>392.4</ele>
        <time>2017-03-29T09:19:56Z</time>
      </trkpt>
      <trkpt lat="43.72211" lon="3.44173">
        <ele>393.3</ele>
        <time>2017-03-29T09:20:00Z</time>
      </trkpt>
      <trkpt lat="43.72212" lon="3.44182">
        <ele>394.1</ele>
        <time>2017-03-29T09:20:05Z</time>
      </trkpt>
      <trkpt lat="43.72209" lon="3.44194">
        <ele>395.3</ele>
        <time>2017-03-29T09:20:10Z</time>
      </trkpt>
      <trkpt lat="43.72205" lon="3.44203">
        <ele>396</ele>
        <time>2017-03-29T09:20:13Z</time>
      </trkpt>
      <trkpt lat="43.72201" lon="3.44212">
        <ele>396.7</ele>
        <time>2017-03-29T09:20:16Z</time>
      </trkpt>
      <trkpt lat="43.72196" lon="3.44222">
        <ele>397.5</ele>
        <time>2017-03-29T09:20:20Z</time>
      </trkpt>
      <trkpt lat="43.72189" lon="3.44228">
        <ele>398.4</ele>
        <time>2017-03-29T09:20:24Z</time>
      </trkpt>
      <trkpt lat="43.72182" lon="3.44233">
        <ele>399.3</ele>
        <time>2017-03-29T09:20:28Z</time>
      </trkpt>
      <trkpt lat="43.72175" lon="3.4424">
        <ele>400.1</ele>
        <time>2017-03-29T09:20:31Z</time>
      </trkpt>
      <trkpt lat="43.7217" lon="3.44248">
        <ele>400.8</ele>
        <time>2017-03-29T09:20:34Z</time>
      </trkpt>
      <trkpt lat="43.72165" lon="3.44257">
        <ele>401.5</ele>
        <time>2017-03-29T09:20:38Z</time>
      </trkpt>
      <trkpt lat="43.72162" lon="3.44266">
        <ele>401.9</ele>
        <time>2017-03-29T09:20:41Z</time>
      </trkpt>
      <trkpt lat="43.72158" lon="3.44276">
        <ele>402.6</ele>
        <time>2017-03-29T09:20:45Z</time>
      </trkpt>
      <trkpt lat="43.72153" lon="3.44285">
        <ele>403.2</ele>
        <time>2017-03-29T09:20:49Z</time>
      </trkpt>
      <trkpt lat="43.72149" lon="3.44296">
        <ele>403.9</ele>
        <time>2017-03-29T09:20:53Z</time>
      </trkpt>
      <trkpt lat="43.72144" lon="3.44306">
        <ele>404.6</ele>
        <time>2017-03-29T09:20:57Z</time>
      </trkpt>
      <trkpt lat="43.7214" lon="3.44317">
        <ele>405.2</ele>
        <time>2017-03-29T09:21:01Z</time>
      </trkpt>
      <trkpt lat="43.72137" lon="3.44328">
        <ele>405.9</ele>
        <time>2017-03-29T09:21:05Z</time>
      </trkpt>
      <trkpt lat="43.72133" lon="3.44337">
        <ele>406.4</ele>
        <time>2017-03-29T09:21:08Z</time>
      </trkpt>
      <trkpt lat="43.72129" lon="3.44346">
        <ele>407.1</ele>
        <time>2017-03-29T09:21:12Z</time>
      </trkpt>
      <trkpt lat="43.72125" lon="3.44357">
        <ele>407.8</ele>
        <time>2017-03-29T09:21:16Z</time>
      </trkpt>
      <trkpt lat="43.72121" lon="3.44367">
        <ele>408.4</ele>
        <time>2017-03-29T09:21:19Z</time>
      </trkpt>
      <trkpt lat="43.72116" lon="3.44378">
        <ele>409.2</ele>
        <time>2017-03-29T09:21:23Z</time>
      </trkpt>
      <trkpt lat="43.72111" lon="3.44387">
        <ele>409.6</ele>
        <time>2017-03-29T09:21:26Z</time>
      </trkpt>
      <trkpt lat="43.72107" lon="3.44395">
        <ele>410.3</ele>
        <time>2017-03-29T09:21:29Z</time>
      </trkpt>
      <trkpt lat="43.721" lon="3.44404">
        <ele>411.3</ele>
        <time>2017-03-29T09:21:33Z</time>
      </trkpt>
      <trkpt lat="43.72094" lon="3.4441">
        <ele>412</ele>
        <time>2017-03-29T09:21:36Z</time>
      </trkpt>
      <trkpt lat="43.72087" lon="3.44418">
        <ele>413</ele>
        <time>2017-03-29T09:21:40Z</time>
      </trkpt>
      <trkpt lat="43.72081" lon="3.44425">
        <ele>413.6</ele>
        <time>2017-03-29T09:21:43Z</time>
      </trkpt>
      <trkpt lat="43.72074" lon="3.44436">
        <ele>414.1</ele>
        <time>2017-03-29T09:21:47Z</time>
      </trkpt>
      <trkpt lat="43.72068" lon="3.44444">
        <ele>414.3</ele>
        <time>2017-03-29T09:21:50Z</time>
      </trkpt>
      <trkpt lat="43.72063" lon="3.44453">
        <ele>414.8</ele>
        <time>2017-03-29T09:21:54Z</time>
      </trkpt>
      <trkpt lat="43.72056" lon="3.44461">
        <ele>415.2</ele>
        <time>2017-03-29T09:21:57Z</time>
      </trkpt>
      <trkpt lat="43.72048" lon="3.44467">
        <ele>415.5</ele>
        <time>2017-03-29T09:22:00Z</time>
      </trkpt>
      <trkpt lat="43.7204" lon="3.44471">
        <ele>416</ele>
        <time>2017-03-29T09:22:04Z</time>
      </trkpt>
      <trkpt lat="43.72033" lon="3.44476">
        <ele>416.3</ele>
        <time>2017-03-29T09:22:07Z</time>
      </trkpt>
      <trkpt lat="43.72025" lon="3.44481">
        <ele>416.8</ele>
        <time>2017-03-29T09:22:11Z</time>
      </trkpt>
      <trkpt lat="43.72015" lon="3.44484">
        <ele>417.2</ele>
        <time>2017-03-29T09:22:15Z</time>
      </trkpt>
      <trkpt lat="43.72005" lon="3.44484">
        <ele>417.7</ele>
        <time>2017-03-29T09:22:19Z</time>
      </trkpt>
      <trkpt lat="43.71998" lon="3.44482">
        <ele>418.2</ele>
        <time>2017-03-29T09:22:22Z</time>
      </trkpt>
      <trkpt lat="43.71988" lon="3.44476">
        <ele>419</ele>
        <time>2017-03-29T09:22:26Z</time>
      </trkpt>
      <trkpt lat="43.71979" lon="3.4447">
        <ele>419.5</ele>
        <time>2017-03-29T09:22:29Z</time>
      </trkpt>
      <trkpt lat="43.71971" lon="3.44466">
        <ele>419.9</ele>
        <time>2017-03-29T09:22:32Z</time>
      </trkpt>
      <trkpt lat="43.71963" lon="3.44462">
        <ele>420.2</ele>
        <time>2017-03-29T09:22:35Z</time>
      </trkpt>
      <trkpt lat="43.71955" lon="3.4446">
        <ele>420.5</ele>
        <time>2017-03-29T09:22:38Z</time>
      </trkpt>
      <trkpt lat="43.71947" lon="3.4446">
        <ele>420.8</ele>
        <time>2017-03-29T09:22:41Z</time>
      </trkpt>
      <trkpt lat="43.71939" lon="3.44463">
        <ele>421.1</ele>
        <time>2017-03-29T09:22:44Z</time>
      </trkpt>
      <trkpt lat="43.71931" lon="3.4447">
        <ele>421.5</ele>
        <time>2017-03-29T09:22:47Z</time>
      </trkpt>
      <trkpt lat="43.71925" lon="3.44479">
        <ele>422</ele>
        <time>2017-03-29T09:22:50Z</time>
      </trkpt>
      <trkpt lat="43.7192" lon="3.44486">
        <ele>422.6</ele>
        <time>2017-03-29T09:22:53Z</time>
      </trkpt>
      <trkpt lat="43.71914" lon="3.44492">
        <ele>423</ele>
        <time>2017-03-29T09:22:56Z</time>
      </trkpt>
      <trkpt lat="43.71907" lon="3.44496">
        <ele>423.4</ele>
        <time>2017-03-29T09:22:59Z</time>
      </trkpt>
      <trkpt lat="43.71897" lon="3.44497">
        <ele>423.8</ele>
        <time>2017-03-29T09:23:02Z</time>
      </trkpt>
      <trkpt lat="43.71889" lon="3.44498">
        <ele>424.1</ele>
        <time>2017-03-29T09:23:05Z</time>
      </trkpt>
      <trkpt lat="43.7188" lon="3.44502">
        <ele>424.4</ele>
        <time>2017-03-29T09:23:08Z</time>
      </trkpt>
      <trkpt lat="43.71872" lon="3.44508">
        <ele>424.5</ele>
        <time>2017-03-29T09:23:11Z</time>
      </trkpt>
      <trkpt lat="43.71865" lon="3.44514">
        <ele>424.8</ele>
        <time>2017-03-29T09:23:14Z</time>
      </trkpt>
      <trkpt lat="43.71859" lon="3.44523">
        <ele>425.3</ele>
        <time>2017-03-29T09:23:17Z</time>
      </trkpt>
      <trkpt lat="43.71854" lon="3.44534">
        <ele>426</ele>
        <time>2017-03-29T09:23:21Z</time>
      </trkpt>
      <trkpt lat="43.7185" lon="3.44544">
        <ele>426.6</ele>
        <time>2017-03-29T09:23:24Z</time>
      </trkpt>
      <trkpt lat="43.71845" lon="3.44553">
        <ele>427.2</ele>
        <time>2017-03-29T09:23:27Z</time>
      </trkpt>
      <trkpt lat="43.71839" lon="3.44565">
        <ele>427.7</ele>
        <time>2017-03-29T09:23:30Z</time>
      </trkpt>
      <trkpt lat="43.71833" lon="3.44574">
        <ele>428.2</ele>
        <time>2017-03-29T09:23:33Z</time>
      </trkpt>
      <trkpt lat="43.71829" lon="3.44583">
        <ele>428.6</ele>
        <time>2017-03-29T09:23:36Z</time>
      </trkpt>
      <trkpt lat="43.71828" lon="3.44595">
        <ele>429</ele>
        <time>2017-03-29T09:23:39Z</time>
      </trkpt>
      <trkpt lat="43.71837" lon="3.44598">
        <ele>429.3</ele>
        <time>2017-03-29T09:23:43Z</time>
      </trkpt>
      <trkpt lat="43.71842" lon="3.44587">
        <ele>429.8</ele>
        <time>2017-03-29T09:23:47Z</time>
      </trkpt>
      <trkpt lat="43.71847" lon="3.44577">
        <ele>430.2</ele>
        <time>2017-03-29T09:23:50Z</time>
      </trkpt>
      <trkpt lat="43.71853" lon="3.44568">
        <ele>430.7</ele>
        <time>2017-03-29T09:23:53Z</time>
      </trkpt>
      <trkpt lat="43.71861" lon="3.44562">
        <ele>431.6</ele>
        <time>2017-03-29T09:23:57Z</time>
      </trkpt>
      <trkpt lat="43.71868" lon="3.44557">
        <ele>432.2</ele>
        <time>2017-03-29T09:24:00Z</time>
      </trkpt>
      <trkpt lat="43.71876" lon="3.44551">
        <ele>432.8</ele>
        <time>2017-03-29T09:24:03Z</time>
      </trkpt>
      <trkpt lat="43.71883" lon="3.44547">
        <ele>433.4</ele>
        <time>2017-03-29T09:24:06Z</time>
      </trkpt>
      <trkpt lat="43.71892" lon="3.44543">
        <ele>433.9</ele>
        <time>2017-03-29T09:24:09Z</time>
      </trkpt>
      <trkpt lat="43.71899" lon="3.4454">
        <ele>434.3</ele>
        <time>2017-03-29T09:24:12Z</time>
      </trkpt>
      <trkpt lat="43.71907" lon="3.44537">
        <ele>434.7</ele>
        <time>2017-03-29T09:24:15Z</time>
      </trkpt>
      <trkpt lat="43.71916" lon="3.44535">
        <ele>435.2</ele>
        <time>2017-03-29T09:24:18Z</time>
      </trkpt>
      <trkpt lat="43.71924" lon="3.44533">
        <ele>435.7</ele>
        <time>2017-03-29T09:24:21Z</time>
      </trkpt>
      <trkpt lat="43.71932" lon="3.44533">
        <ele>436.2</ele>
        <time>2017-03-29T09:24:24Z</time>
      </trkpt>
      <trkpt lat="43.7194" lon="3.44534">
        <ele>436.6</ele>
        <time>2017-03-29T09:24:27Z</time>
      </trkpt>
      <trkpt lat="43.71947" lon="3.44536">
        <ele>437</ele>
        <time>2017-03-29T09:24:30Z</time>
      </trkpt>
      <trkpt lat="43.71956" lon="3.44541">
        <ele>437.3</ele>
        <time>2017-03-29T09:24:33Z</time>
      </trkpt>
      <trkpt lat="43.71965" lon="3.44546">
        <ele>437.7</ele>
        <time>2017-03-29T09:24:36Z</time>
      </trkpt>
      <trkpt lat="43.71973" lon="3.4455">
        <ele>438.2</ele>
        <time>2017-03-29T09:24:39Z</time>
      </trkpt>
      <trkpt lat="43.71981" lon="3.44554">
        <ele>438.6</ele>
        <time>2017-03-29T09:24:42Z</time>
      </trkpt>
      <trkpt lat="43.7199" lon="3.44559">
        <ele>439.1</ele>
        <time>2017-03-29T09:24:45Z</time>
      </trkpt>
      <trkpt lat="43.71999" lon="3.44562">
        <ele>439.6</ele>
        <time>2017-03-29T09:24:48Z</time>
      </trkpt>
      <trkpt lat="43.72009" lon="3.44566">
        <ele>440.1</ele>
        <time>2017-03-29T09:24:51Z</time>
      </trkpt>
      <trkpt lat="43.72017" lon="3.44568">
        <ele>440.8</ele>
        <time>2017-03-29T09:24:54Z</time>
      </trkpt>
      <trkpt lat="43.72026" lon="3.44571">
        <ele>441.5</ele>
        <time>2017-03-29T09:24:57Z</time>
      </trkpt>
      <trkpt lat="43.72035" lon="3.44571">
        <ele>442.1</ele>
        <time>2017-03-29T09:25:00Z</time>
      </trkpt>
      <trkpt lat="43.72043" lon="3.4457">
        <ele>442.7</ele>
        <time>2017-03-29T09:25:03Z</time>
      </trkpt>
      <trkpt lat="43.72052" lon="3.44567">
        <ele>443.4</ele>
        <time>2017-03-29T09:25:06Z</time>
      </trkpt>
      <trkpt lat="43.7206" lon="3.44566">
        <ele>444.2</ele>
        <time>2017-03-29T09:25:09Z</time>
      </trkpt>
      <trkpt lat="43.72068" lon="3.44565">
        <ele>445</ele>
        <time>2017-03-29T09:25:12Z</time>
      </trkpt>
      <trkpt lat="43.72075" lon="3.44562">
        <ele>446.2</ele>
        <time>2017-03-29T09:25:15Z</time>
      </trkpt>
      <trkpt lat="43.72082" lon="3.44557">
        <ele>447.5</ele>
        <time>2017-03-29T09:25:18Z</time>
      </trkpt>
      <trkpt lat="43.7209" lon="3.44552">
        <ele>449.3</ele>
        <time>2017-03-29T09:25:22Z</time>
      </trkpt>
      <trkpt lat="43.72097" lon="3.44546">
        <ele>450.8</ele>
        <time>2017-03-29T09:25:25Z</time>
      </trkpt>
      <trkpt lat="43.72104" lon="3.4454">
        <ele>452.2</ele>
        <time>2017-03-29T09:25:28Z</time>
      </trkpt>
      <trkpt lat="43.72111" lon="3.44535">
        <ele>453.6</ele>
        <time>2017-03-29T09:25:31Z</time>
      </trkpt>
      <trkpt lat="43.72119" lon="3.44529">
        <ele>454.8</ele>
        <time>2017-03-29T09:25:34Z</time>
      </trkpt>
      <trkpt lat="43.72126" lon="3.44523">
        <ele>455.6</ele>
        <time>2017-03-29T09:25:36Z</time>
      </trkpt>
      <trkpt lat="43.72131" lon="3.44514">
        <ele>456.7</ele>
        <time>2017-03-29T09:25:39Z</time>
      </trkpt>
      <trkpt lat="43.72138" lon="3.44503">
        <ele>457.3</ele>
        <time>2017-03-29T09:25:42Z</time>
      </trkpt>
      <trkpt lat="43.72144" lon="3.44494">
        <ele>457.6</ele>
        <time>2017-03-29T09:25:45Z</time>
      </trkpt>
      <trkpt lat="43.72148" lon="3.44484">
        <ele>458.1</ele>
        <time>2017-03-29T09:25:48Z</time>
      </trkpt>
      <trkpt lat="43.72154" lon="3.44474">
        <ele>460.4</ele>
        <time>2017-03-29T09:25:50Z</time>
      </trkpt>
      <trkpt lat="43.72158" lon="3.44462">
        <ele>461.2</ele>
        <time>2017-03-29T09:25:52Z</time>
      </trkpt>
      <trkpt lat="43.7216" lon="3.44452">
        <ele>462.3</ele>
        <time>2017-03-29T09:25:54Z</time>
      </trkpt>
      <trkpt lat="43.72164" lon="3.44438">
        <ele>462.3</ele>
        <time>2017-03-29T09:25:56Z</time>
      </trkpt>
      <trkpt lat="43.72168" lon="3.44419">
        <ele>461.1</ele>
        <time>2017-03-29T09:25:58Z</time>
      </trkpt>
      <trkpt lat="43.7217" lon="3.4441">
        <ele>460.6</ele>
        <time>2017-03-29T09:25:59Z</time>
      </trkpt>
      <trkpt lat="43.72173" lon="3.44398">
        <ele>460</ele>
        <time>2017-03-29T09:26:00Z</time>
      </trkpt>
      <trkpt lat="43.72179" lon="3.4439">
        <ele>458.9</ele>
        <time>2017-03-29T09:26:01Z</time>
      </trkpt>
      <trkpt lat="43.72184" lon="3.44383">
        <ele>458.3</ele>
        <time>2017-03-29T09:26:02Z</time>
      </trkpt>
      <trkpt lat="43.72196" lon="3.44371">
        <ele>457.7</ele>
        <time>2017-03-29T09:26:04Z</time>
      </trkpt>
      <trkpt lat="43.72203" lon="3.44368">
        <ele>457.4</ele>
        <time>2017-03-29T09:26:05Z</time>
      </trkpt>
      <trkpt lat="43.72215" lon="3.44364">
        <ele>457.6</ele>
        <time>2017-03-29T09:26:07Z</time>
      </trkpt>
      <trkpt lat="43.72227" lon="3.44363">
        <ele>458.1</ele>
        <time>2017-03-29T09:26:09Z</time>
      </trkpt>
      <trkpt lat="43.72238" lon="3.44362">
        <ele>458.2</ele>
        <time>2017-03-29T09:26:11Z</time>
      </trkpt>
      <trkpt lat="43.7225" lon="3.44356">
        <ele>458.7</ele>
        <time>2017-03-29T09:26:13Z</time>
      </trkpt>
      <trkpt lat="43.72258" lon="3.44349">
        <ele>458.7</ele>
        <time>2017-03-29T09:26:15Z</time>
      </trkpt>
      <trkpt lat="43.72265" lon="3.44343">
        <ele>458.3</ele>
        <time>2017-03-29T09:26:17Z</time>
      </trkpt>
      <trkpt lat="43.72273" lon="3.44336">
        <ele>458.4</ele>
        <time>2017-03-29T09:26:19Z</time>
      </trkpt>
      <trkpt lat="43.72281" lon="3.44329">
        <ele>458.4</ele>
        <time>2017-03-29T09:26:21Z</time>
      </trkpt>
      <trkpt lat="43.72289" lon="3.44322">
        <ele>458.2</ele>
        <time>2017-03-29T09:26:23Z</time>
      </trkpt>
      <trkpt lat="43.72297" lon="3.44314">
        <ele>457.9</ele>
        <time>2017-03-29T09:26:25Z</time>
      </trkpt>
      <trkpt lat="43.72303" lon="3.44305">
        <ele>455.9</ele>
        <time>2017-03-29T09:26:27Z</time>
      </trkpt>
      <trkpt lat="43.72311" lon="3.44295">
        <ele>454.1</ele>
        <time>2017-03-29T09:26:30Z</time>
      </trkpt>
      <trkpt lat="43.72317" lon="3.44283">
        <ele>451.9</ele>
        <time>2017-03-29T09:26:33Z</time>
      </trkpt>
      <trkpt lat="43.72323" lon="3.44274">
        <ele>449.1</ele>
        <time>2017-03-29T09:26:35Z</time>
      </trkpt>
      <trkpt lat="43.72329" lon="3.44265">
        <ele>447.8</ele>
        <time>2017-03-29T09:26:37Z</time>
      </trkpt>
      <trkpt lat="43.72334" lon="3.44259">
        <ele>446.4</ele>
        <time>2017-03-29T09:26:39Z</time>
      </trkpt>
      <trkpt lat="43.72345" lon="3.44257">
        <ele>446.2</ele>
        <time>2017-03-29T09:26:42Z</time>
      </trkpt>
      <trkpt lat="43.72353" lon="3.44258">
        <ele>446.9</ele>
        <time>2017-03-29T09:26:44Z</time>
      </trkpt>
      <trkpt lat="43.72361" lon="3.44262">
        <ele>447.9</ele>
        <time>2017-03-29T09:26:46Z</time>
      </trkpt>
      <trkpt lat="43.72369" lon="3.44269">
        <ele>448.6</ele>
        <time>2017-03-29T09:26:48Z</time>
      </trkpt>
      <trkpt lat="43.72378" lon="3.44279">
        <ele>449</ele>
        <time>2017-03-29T09:26:50Z</time>
      </trkpt>
      <trkpt lat="43.72383" lon="3.44286">
        <ele>448.5</ele>
        <time>2017-03-29T09:26:51Z</time>
      </trkpt>
      <trkpt lat="43.72393" lon="3.44297">
        <ele>449</ele>
        <time>2017-03-29T09:26:53Z</time>
      </trkpt>
      <trkpt lat="43.72404" lon="3.44308">
        <ele>449.5</ele>
        <time>2017-03-29T09:26:55Z</time>
      </trkpt>
      <trkpt lat="43.72417" lon="3.44319">
        <ele>449</ele>
        <time>2017-03-29T09:26:57Z</time>
      </trkpt>
      <trkpt lat="43.72428" lon="3.4433">
        <ele>448.1</ele>
        <time>2017-03-29T09:26:59Z</time>
      </trkpt>
      <trkpt lat="43.72435" lon="3.44337">
        <ele>447.1</ele>
        <time>2017-03-29T09:27:00Z</time>
      </trkpt>
      <trkpt lat="43.7244" lon="3.44344">
        <ele>447</ele>
        <time>2017-03-29T09:27:01Z</time>
      </trkpt>
      <trkpt lat="43.72446" lon="3.44351">
        <ele>446.6</ele>
        <time>2017-03-29T09:27:02Z</time>
      </trkpt>
      <trkpt lat="43.72453" lon="3.44361">
        <ele>446.6</ele>
        <time>2017-03-29T09:27:03Z</time>
      </trkpt>
      <trkpt lat="43.72458" lon="3.44369">
        <ele>446.3</ele>
        <time>2017-03-29T09:27:04Z</time>
      </trkpt>
      <trkpt lat="43.72467" lon="3.44383">
        <ele>446.4</ele>
        <time>2017-03-29T09:27:06Z</time>
      </trkpt>
      <trkpt lat="43.72478" lon="3.44392">
        <ele>446.8</ele>
        <time>2017-03-29T09:27:08Z</time>
      </trkpt>
      <trkpt lat="43.72488" lon="3.44395">
        <ele>447.4</ele>
        <time>2017-03-29T09:27:10Z</time>
      </trkpt>
      <trkpt lat="43.72498" lon="3.44394">
        <ele>448.5</ele>
        <time>2017-03-29T09:27:12Z</time>
      </trkpt>
      <trkpt lat="43.72509" lon="3.44391">
        <ele>450.1</ele>
        <time>2017-03-29T09:27:14Z</time>
      </trkpt>
      <trkpt lat="43.72519" lon="3.44387">
        <ele>451.5</ele>
        <time>2017-03-29T09:27:16Z</time>
      </trkpt>
      <trkpt lat="43.72526" lon="3.44386">
        <ele>451.7</ele>
        <time>2017-03-29T09:27:18Z</time>
      </trkpt>
      <trkpt lat="43.72523" lon="3.44389">
        <ele>451.7</ele>
        <time>2017-03-29T09:27:25Z</time>
      </trkpt>
      <trkpt lat="43.72514" lon="3.4439">
        <ele>451.2</ele>
        <time>2017-03-29T09:27:28Z</time>
      </trkpt>
      <trkpt lat="43.72507" lon="3.44397">
        <ele>450.7</ele>
        <time>2017-03-29T09:27:31Z</time>
      </trkpt>
      <trkpt lat="43.72507" lon="3.44408">
        <ele>450.5</ele>
        <time>2017-03-29T09:27:34Z</time>
      </trkpt>
      <trkpt lat="43.72518" lon="3.44408">
        <ele>450.4</ele>
        <time>2017-03-29T09:27:38Z</time>
      </trkpt>
      <trkpt lat="43.72528" lon="3.4441">
        <ele>450.5</ele>
        <time>2017-03-29T09:27:41Z</time>
      </trkpt>
      <trkpt lat="43.72536" lon="3.44415">
        <ele>450.6</ele>
        <time>2017-03-29T09:27:45Z</time>
      </trkpt>
      <trkpt lat="43.72544" lon="3.44422">
        <ele>450.9</ele>
        <time>2017-03-29T09:27:49Z</time>
      </trkpt>
      <trkpt lat="43.72551" lon="3.44425">
        <ele>451.1</ele>
        <time>2017-03-29T09:27:52Z</time>
      </trkpt>
      <trkpt lat="43.72559" lon="3.44432">
        <ele>451.4</ele>
        <time>2017-03-29T09:27:56Z</time>
      </trkpt>
      <trkpt lat="43.72565" lon="3.44437">
        <ele>451.7</ele>
        <time>2017-03-29T09:27:59Z</time>
      </trkpt>
      <trkpt lat="43.72572" lon="3.44445">
        <ele>452.5</ele>
        <time>2017-03-29T09:28:03Z</time>
      </trkpt>
      <trkpt lat="43.72579" lon="3.44454">
        <ele>452.9</ele>
        <time>2017-03-29T09:28:07Z</time>
      </trkpt>
      <trkpt lat="43.72585" lon="3.44461">
        <ele>453.2</ele>
        <time>2017-03-29T09:28:11Z</time>
      </trkpt>
      <trkpt lat="43.72592" lon="3.44469">
        <ele>453.6</ele>
        <time>2017-03-29T09:28:15Z</time>
      </trkpt>
      <trkpt lat="43.72599" lon="3.44476">
        <ele>454</ele>
        <time>2017-03-29T09:28:19Z</time>
      </trkpt>
      <trkpt lat="43.72605" lon="3.44483">
        <ele>454.3</ele>
        <time>2017-03-29T09:28:22Z</time>
      </trkpt>
      <trkpt lat="43.7261" lon="3.44493">
        <ele>454.8</ele>
        <time>2017-03-29T09:28:26Z</time>
      </trkpt>
      <trkpt lat="43.72612" lon="3.44504">
        <ele>455.3</ele>
        <time>2017-03-29T09:28:30Z</time>
      </trkpt>
      <trkpt lat="43.7261" lon="3.44516">
        <ele>455.8</ele>
        <time>2017-03-29T09:28:34Z</time>
      </trkpt>
      <trkpt lat="43.72607" lon="3.44526">
        <ele>456.5</ele>
        <time>2017-03-29T09:28:38Z</time>
      </trkpt>
      <trkpt lat="43.72603" lon="3.44535">
        <ele>457.2</ele>
        <time>2017-03-29T09:28:41Z</time>
      </trkpt>
      <trkpt lat="43.72604" lon="3.44547">
        <ele>457.6</ele>
        <time>2017-03-29T09:28:44Z</time>
      </trkpt>
      <trkpt lat="43.72609" lon="3.44558">
        <ele>458.4</ele>
        <time>2017-03-29T09:28:48Z</time>
      </trkpt>
      <trkpt lat="43.72615" lon="3.44565">
        <ele>459</ele>
        <time>2017-03-29T09:28:51Z</time>
      </trkpt>
      <trkpt lat="43.72621" lon="3.44572">
        <ele>459.4</ele>
        <time>2017-03-29T09:28:54Z</time>
      </trkpt>
      <trkpt lat="43.72628" lon="3.4458">
        <ele>459.6</ele>
        <time>2017-03-29T09:28:58Z</time>
      </trkpt>
      <trkpt lat="43.72634" lon="3.44587">
        <ele>460.3</ele>
        <time>2017-03-29T09:29:02Z</time>
      </trkpt>
      <trkpt lat="43.72643" lon="3.44592">
        <ele>460.9</ele>
        <time>2017-03-29T09:29:05Z</time>
      </trkpt>
      <trkpt lat="43.7265" lon="3.44597">
        <ele>462</ele>
        <time>2017-03-29T09:29:08Z</time>
      </trkpt>
      <trkpt lat="43.72658" lon="3.44605">
        <ele>463.2</ele>
        <time>2017-03-29T09:29:12Z</time>
      </trkpt>
      <trkpt lat="43.72664" lon="3.44611">
        <ele>464.2</ele>
        <time>2017-03-29T09:29:15Z</time>
      </trkpt>
      <trkpt lat="43.7267" lon="3.44617">
        <ele>465.2</ele>
        <time>2017-03-29T09:29:18Z</time>
      </trkpt>
      <trkpt lat="43.72675" lon="3.44624">
        <ele>465.9</ele>
        <time>2017-03-29T09:29:21Z</time>
      </trkpt>
      <trkpt lat="43.7268" lon="3.44633">
        <ele>466.5</ele>
        <time>2017-03-29T09:29:24Z</time>
      </trkpt>
      <trkpt lat="43.72685" lon="3.44641">
        <ele>467.4</ele>
        <time>2017-03-29T09:29:27Z</time>
      </trkpt>
      <trkpt lat="43.72692" lon="3.44648">
        <ele>468</ele>
        <time>2017-03-29T09:29:30Z</time>
      </trkpt>
      <trkpt lat="43.72699" lon="3.44654">
        <ele>468.6</ele>
        <time>2017-03-29T09:29:33Z</time>
      </trkpt>
      <trkpt lat="43.72707" lon="3.44658">
        <ele>469</ele>
        <time>2017-03-29T09:29:37Z</time>
      </trkpt>
      <trkpt lat="43.72714" lon="3.44662">
        <ele>469.7</ele>
        <time>2017-03-29T09:29:40Z</time>
      </trkpt>
      <trkpt lat="43.72722" lon="3.44666">
        <ele>470.5</ele>
        <time>2017-03-29T09:29:43Z</time>
      </trkpt>
      <trkpt lat="43.7273" lon="3.4467">
        <ele>471.6</ele>
        <time>2017-03-29T09:29:46Z</time>
      </trkpt>
      <trkpt lat="43.72738" lon="3.44673">
        <ele>472.5</ele>
        <time>2017-03-29T09:29:49Z</time>
      </trkpt>
      <trkpt lat="43.72747" lon="3.44673">
        <ele>473.9</ele>
        <time>2017-03-29T09:29:53Z</time>
      </trkpt>
      <trkpt lat="43.72755" lon="3.4467">
        <ele>475.1</ele>
        <time>2017-03-29T09:29:56Z</time>
      </trkpt>
      <trkpt lat="43.72763" lon="3.44666">
        <ele>476.4</ele>
        <time>2017-03-29T09:29:59Z</time>
      </trkpt>
      <trkpt lat="43.72772" lon="3.44665">
        <ele>477.7</ele>
        <time>2017-03-29T09:30:03Z</time>
      </trkpt>
      <trkpt lat="43.72781" lon="3.44664">
        <ele>479.2</ele>
        <time>2017-03-29T09:30:07Z</time>
      </trkpt>
      <trkpt lat="43.7279" lon="3.44663">
        <ele>480.3</ele>
        <time>2017-03-29T09:30:10Z</time>
      </trkpt>
      <trkpt lat="43.72798" lon="3.44662">
        <ele>481.3</ele>
        <time>2017-03-29T09:30:13Z</time>
      </trkpt>
      <trkpt lat="43.72806" lon="3.4466">
        <ele>482.2</ele>
        <time>2017-03-29T09:30:16Z</time>
      </trkpt>
      <trkpt lat="43.72814" lon="3.44657">
        <ele>483.2</ele>
        <time>2017-03-29T09:30:20Z</time>
      </trkpt>
      <trkpt lat="43.72821" lon="3.44654">
        <ele>484.1</ele>
        <time>2017-03-29T09:30:23Z</time>
      </trkpt>
      <trkpt lat="43.7283" lon="3.44651">
        <ele>485</ele>
        <time>2017-03-29T09:30:26Z</time>
      </trkpt>
      <trkpt lat="43.72837" lon="3.44646">
        <ele>486.4</ele>
        <time>2017-03-29T09:30:30Z</time>
      </trkpt>
      <trkpt lat="43.72845" lon="3.44639">
        <ele>487.6</ele>
        <time>2017-03-29T09:30:33Z</time>
      </trkpt>
      <trkpt lat="43.72852" lon="3.44633">
        <ele>488.6</ele>
        <time>2017-03-29T09:30:36Z</time>
      </trkpt>
      <trkpt lat="43.7286" lon="3.44628">
        <ele>489.7</ele>
        <time>2017-03-29T09:30:39Z</time>
      </trkpt>
      <trkpt lat="43.72867" lon="3.44623">
        <ele>490.5</ele>
        <time>2017-03-29T09:30:42Z</time>
      </trkpt>
      <trkpt lat="43.72874" lon="3.4462">
        <ele>491.4</ele>
        <time>2017-03-29T09:30:45Z</time>
      </trkpt>
      <trkpt lat="43.72884" lon="3.44619">
        <ele>492.5</ele>
        <time>2017-03-29T09:30:49Z</time>
      </trkpt>
      <trkpt lat="43.72892" lon="3.44615">
        <ele>493</ele>
        <time>2017-03-29T09:30:52Z</time>
      </trkpt>
      <trkpt lat="43.729" lon="3.44611">
        <ele>493.6</ele>
        <time>2017-03-29T09:30:55Z</time>
      </trkpt>
      <trkpt lat="43.72908" lon="3.44608">
        <ele>494.4</ele>
        <time>2017-03-29T09:30:59Z</time>
      </trkpt>
      <trkpt lat="43.72915" lon="3.44606">
        <ele>495.3</ele>
        <time>2017-03-29T09:31:02Z</time>
      </trkpt>
      <trkpt lat="43.72925" lon="3.44604">
        <ele>496.7</ele>
        <time>2017-03-29T09:31:06Z</time>
      </trkpt>
      <trkpt lat="43.72934" lon="3.44602">
        <ele>497.7</ele>
        <time>2017-03-29T09:31:09Z</time>
      </trkpt>
      <trkpt lat="43.72942" lon="3.44599">
        <ele>498.5</ele>
        <time>2017-03-29T09:31:12Z</time>
      </trkpt>
      <trkpt lat="43.7295" lon="3.44594">
        <ele>499.2</ele>
        <time>2017-03-29T09:31:16Z</time>
      </trkpt>
      <trkpt lat="43.72959" lon="3.44589">
        <ele>499.8</ele>
        <time>2017-03-29T09:31:19Z</time>
      </trkpt>
      <trkpt lat="43.72966" lon="3.44583">
        <ele>500.3</ele>
        <time>2017-03-29T09:31:22Z</time>
      </trkpt>
      <trkpt lat="43.72974" lon="3.44579">
        <ele>501</ele>
        <time>2017-03-29T09:31:25Z</time>
      </trkpt>
      <trkpt lat="43.72981" lon="3.44574">
        <ele>501.6</ele>
        <time>2017-03-29T09:31:28Z</time>
      </trkpt>
      <trkpt lat="43.7299" lon="3.4457">
        <ele>501.9</ele>
        <time>2017-03-29T09:31:31Z</time>
      </trkpt>
      <trkpt lat="43.72999" lon="3.44568">
        <ele>502.2</ele>
        <time>2017-03-29T09:31:34Z</time>
      </trkpt>
      <trkpt lat="43.73009" lon="3.44567">
        <ele>502.5</ele>
        <time>2017-03-29T09:31:37Z</time>
      </trkpt>
      <trkpt lat="43.73018" lon="3.44568">
        <ele>503</ele>
        <time>2017-03-29T09:31:40Z</time>
      </trkpt>
      <trkpt lat="43.73026" lon="3.4457">
        <ele>502.9</ele>
        <time>2017-03-29T09:31:43Z</time>
      </trkpt>
      <trkpt lat="43.73032" lon="3.44576">
        <ele>502.6</ele>
        <time>2017-03-29T09:31:46Z</time>
      </trkpt>
      <trkpt lat="43.73037" lon="3.44584">
        <ele>502.5</ele>
        <time>2017-03-29T09:31:48Z</time>
      </trkpt>
      <trkpt lat="43.73044" lon="3.44593">
        <ele>502.5</ele>
        <time>2017-03-29T09:31:51Z</time>
      </trkpt>
      <trkpt lat="43.73049" lon="3.446">
        <ele>502.5</ele>
        <time>2017-03-29T09:31:53Z</time>
      </trkpt>
      <trkpt lat="43.73055" lon="3.44607">
        <ele>502.5</ele>
        <time>2017-03-29T09:31:56Z</time>
      </trkpt>
      <trkpt lat="43.7306" lon="3.44615">
        <ele>502.3</ele>
        <time>2017-03-29T09:31:59Z</time>
      </trkpt>
      <trkpt lat="43.73066" lon="3.44626">
        <ele>502.2</ele>
        <time>2017-03-29T09:32:02Z</time>
      </trkpt>
      <trkpt lat="43.7307" lon="3.44636">
        <ele>502</ele>
        <time>2017-03-29T09:32:04Z</time>
      </trkpt>
      <trkpt lat="43.73075" lon="3.44648">
        <ele>501.7</ele>
        <time>2017-03-29T09:32:07Z</time>
      </trkpt>
      <trkpt lat="43.73079" lon="3.44659">
        <ele>501.6</ele>
        <time>2017-03-29T09:32:10Z</time>
      </trkpt>
      <trkpt lat="43.73083" lon="3.44671">
        <ele>501.6</ele>
        <time>2017-03-29T09:32:13Z</time>
      </trkpt>
      <trkpt lat="43.73085" lon="3.44684">
        <ele>501.5</ele>
        <time>2017-03-29T09:32:16Z</time>
      </trkpt>
      <trkpt lat="43.73088" lon="3.44696">
        <ele>501.6</ele>
        <time>2017-03-29T09:32:19Z</time>
      </trkpt>
      <trkpt lat="43.73091" lon="3.44707">
        <ele>501.5</ele>
        <time>2017-03-29T09:32:22Z</time>
      </trkpt>
      <trkpt lat="43.73093" lon="3.44718">
        <ele>501.6</ele>
        <time>2017-03-29T09:32:24Z</time>
      </trkpt>
      <trkpt lat="43.73096" lon="3.44728">
        <ele>501.7</ele>
        <time>2017-03-29T09:32:26Z</time>
      </trkpt>
      <trkpt lat="43.73098" lon="3.44738">
        <ele>502</ele>
        <time>2017-03-29T09:32:29Z</time>
      </trkpt>
      <trkpt lat="43.73098" lon="3.44751">
        <ele>502.4</ele>
        <time>2017-03-29T09:32:32Z</time>
      </trkpt>
      <trkpt lat="43.73099" lon="3.44765">
        <ele>502.9</ele>
        <time>2017-03-29T09:32:35Z</time>
      </trkpt>
      <trkpt lat="43.731" lon="3.44776">
        <ele>503.4</ele>
        <time>2017-03-29T09:32:37Z</time>
      </trkpt>
      <trkpt lat="43.73102" lon="3.44789">
        <ele>504</ele>
        <time>2017-03-29T09:32:40Z</time>
      </trkpt>
      <trkpt lat="43.73105" lon="3.44804">
        <ele>506.1</ele>
        <time>2017-03-29T09:32:43Z</time>
      </trkpt>
      <trkpt lat="43.7311" lon="3.44815">
        <ele>506.3</ele>
        <time>2017-03-29T09:32:46Z</time>
      </trkpt>
      <trkpt lat="43.73115" lon="3.44824">
        <ele>506.4</ele>
        <time>2017-03-29T09:32:49Z</time>
      </trkpt>
      <trkpt lat="43.7312" lon="3.44831">
        <ele>506.3</ele>
        <time>2017-03-29T09:32:52Z</time>
      </trkpt>
      <trkpt lat="43.73128" lon="3.44836">
        <ele>506</ele>
        <time>2017-03-29T09:32:55Z</time>
      </trkpt>
      <trkpt lat="43.73136" lon="3.44845">
        <ele>505.2</ele>
        <time>2017-03-29T09:32:57Z</time>
      </trkpt>
      <trkpt lat="43.73143" lon="3.44853">
        <ele>504.1</ele>
        <time>2017-03-29T09:32:59Z</time>
      </trkpt>
      <trkpt lat="43.73148" lon="3.44861">
        <ele>503.8</ele>
        <time>2017-03-29T09:33:01Z</time>
      </trkpt>
      <trkpt lat="43.73151" lon="3.44872">
        <ele>503.9</ele>
        <time>2017-03-29T09:33:04Z</time>
      </trkpt>
      <trkpt lat="43.73149" lon="3.44872">
        <ele>504.3</ele>
        <time>2017-03-29T09:33:11Z</time>
      </trkpt>
      <trkpt lat="43.73143" lon="3.4488">
        <ele>504.5</ele>
        <time>2017-03-29T09:33:14Z</time>
      </trkpt>
      <trkpt lat="43.73145" lon="3.44894">
        <ele>504.5</ele>
        <time>2017-03-29T09:33:17Z</time>
      </trkpt>
      <trkpt lat="43.73152" lon="3.4491">
        <ele>503.7</ele>
        <time>2017-03-29T09:33:19Z</time>
      </trkpt>
      <trkpt lat="43.73157" lon="3.44916">
        <ele>503.3</ele>
        <time>2017-03-29T09:33:20Z</time>
      </trkpt>
      <trkpt lat="43.7317" lon="3.44928">
        <ele>501</ele>
        <time>2017-03-29T09:33:22Z</time>
      </trkpt>
      <trkpt lat="43.73181" lon="3.44937">
        <ele>498.3</ele>
        <time>2017-03-29T09:33:24Z</time>
      </trkpt>
      <trkpt lat="43.73192" lon="3.4495">
        <ele>497</ele>
        <time>2017-03-29T09:33:26Z</time>
      </trkpt>
      <trkpt lat="43.73198" lon="3.44959">
        <ele>496.5</ele>
        <time>2017-03-29T09:33:27Z</time>
      </trkpt>
      <trkpt lat="43.73204" lon="3.44967">
        <ele>496.1</ele>
        <time>2017-03-29T09:33:28Z</time>
      </trkpt>
      <trkpt lat="43.7321" lon="3.44976">
        <ele>495.5</ele>
        <time>2017-03-29T09:33:29Z</time>
      </trkpt>
      <trkpt lat="43.73216" lon="3.44984">
        <ele>495.1</ele>
        <time>2017-03-29T09:33:30Z</time>
      </trkpt>
      <trkpt lat="43.73222" lon="3.44993">
        <ele>494.9</ele>
        <time>2017-03-29T09:33:31Z</time>
      </trkpt>
      <trkpt lat="43.73228" lon="3.45004">
        <ele>494.2</ele>
        <time>2017-03-29T09:33:32Z</time>
      </trkpt>
      <trkpt lat="43.73233" lon="3.45014">
        <ele>493.5</ele>
        <time>2017-03-29T09:33:33Z</time>
      </trkpt>
      <trkpt lat="43.73236" lon="3.45026">
        <ele>493</ele>
        <time>2017-03-29T09:33:34Z</time>
      </trkpt>
      <trkpt lat="43.73239" lon="3.45036">
        <ele>492.7</ele>
        <time>2017-03-29T09:33:35Z</time>
      </trkpt>
      <trkpt lat="43.73241" lon="3.45047">
        <ele>492</ele>
        <time>2017-03-29T09:33:36Z</time>
      </trkpt>
      <trkpt lat="43.73244" lon="3.45059">
        <ele>491.3</ele>
        <time>2017-03-29T09:33:37Z</time>
      </trkpt>
      <trkpt lat="43.73247" lon="3.4507">
        <ele>490.5</ele>
        <time>2017-03-29T09:33:38Z</time>
      </trkpt>
      <trkpt lat="43.7325" lon="3.45082">
        <ele>489.7</ele>
        <time>2017-03-29T09:33:39Z</time>
      </trkpt>
      <trkpt lat="43.73252" lon="3.45095">
        <ele>489</ele>
        <time>2017-03-29T09:33:40Z</time>
      </trkpt>
      <trkpt lat="43.73253" lon="3.45108">
        <ele>488.4</ele>
        <time>2017-03-29T09:33:41Z</time>
      </trkpt>
      <trkpt lat="43.73253" lon="3.4512">
        <ele>487.8</ele>
        <time>2017-03-29T09:33:42Z</time>
      </trkpt>
      <trkpt lat="43.73253" lon="3.45133">
        <ele>487.1</ele>
        <time>2017-03-29T09:33:43Z</time>
      </trkpt>
      <trkpt lat="43.7325" lon="3.45153">
        <ele>486.3</ele>
        <time>2017-03-29T09:33:45Z</time>
      </trkpt>
      <trkpt lat="43.73245" lon="3.45165">
        <ele>485.7</ele>
        <time>2017-03-29T09:33:46Z</time>
      </trkpt>
      <trkpt lat="43.73241" lon="3.45174">
        <ele>484.4</ele>
        <time>2017-03-29T09:33:47Z</time>
      </trkpt>
      <trkpt lat="43.73236" lon="3.45183">
        <ele>482.7</ele>
        <time>2017-03-29T09:33:48Z</time>
      </trkpt>
      <trkpt lat="43.73228" lon="3.45185">
        <ele>481.1</ele>
        <time>2017-03-29T09:33:49Z</time>
      </trkpt>
      <trkpt lat="43.7322" lon="3.45187">
        <ele>479.7</ele>
        <time>2017-03-29T09:33:50Z</time>
      </trkpt>
      <trkpt lat="43.73212" lon="3.45187">
        <ele>478.5</ele>
        <time>2017-03-29T09:33:51Z</time>
      </trkpt>
      <trkpt lat="43.73203" lon="3.45185">
        <ele>477.8</ele>
        <time>2017-03-29T09:33:52Z</time>
      </trkpt>
      <trkpt lat="43.73194" lon="3.45186">
        <ele>476.9</ele>
        <time>2017-03-29T09:33:53Z</time>
      </trkpt>
      <trkpt lat="43.73185" lon="3.4519">
        <ele>475.8</ele>
        <time>2017-03-29T09:33:54Z</time>
      </trkpt>
      <trkpt lat="43.73177" lon="3.45195">
        <ele>475.1</ele>
        <time>2017-03-29T09:33:55Z</time>
      </trkpt>
      <trkpt lat="43.73171" lon="3.45205">
        <ele>473.5</ele>
        <time>2017-03-29T09:33:56Z</time>
      </trkpt>
      <trkpt lat="43.73168" lon="3.45214">
        <ele>472.1</ele>
        <time>2017-03-29T09:33:57Z</time>
      </trkpt>
      <trkpt lat="43.73167" lon="3.45225">
        <ele>470.9</ele>
        <time>2017-03-29T09:33:58Z</time>
      </trkpt>
      <trkpt lat="43.73166" lon="3.45239">
        <ele>469.8</ele>
        <time>2017-03-29T09:33:59Z</time>
      </trkpt>
      <trkpt lat="43.73165" lon="3.45251">
        <ele>469.2</ele>
        <time>2017-03-29T09:34:00Z</time>
      </trkpt>
      <trkpt lat="43.73164" lon="3.45262">
        <ele>468.7</ele>
        <time>2017-03-29T09:34:01Z</time>
      </trkpt>
      <trkpt lat="43.7316" lon="3.45272">
        <ele>467.7</ele>
        <time>2017-03-29T09:34:02Z</time>
      </trkpt>
      <trkpt lat="43.73156" lon="3.45282">
        <ele>466.4</ele>
        <time>2017-03-29T09:34:03Z</time>
      </trkpt>
      <trkpt lat="43.7315" lon="3.45292">
        <ele>465.8</ele>
        <time>2017-03-29T09:34:04Z</time>
      </trkpt>
      <trkpt lat="43.73144" lon="3.45302">
        <ele>464.7</ele>
        <time>2017-03-29T09:34:05Z</time>
      </trkpt>
      <trkpt lat="43.73138" lon="3.45311">
        <ele>463.6</ele>
        <time>2017-03-29T09:34:06Z</time>
      </trkpt>
      <trkpt lat="43.73133" lon="3.45321">
        <ele>462.5</ele>
        <time>2017-03-29T09:34:07Z</time>
      </trkpt>
      <trkpt lat="43.73128" lon="3.45331">
        <ele>461.6</ele>
        <time>2017-03-29T09:34:08Z</time>
      </trkpt>
      <trkpt lat="43.73122" lon="3.45341">
        <ele>460.7</ele>
        <time>2017-03-29T09:34:09Z</time>
      </trkpt>
      <trkpt lat="43.73117" lon="3.45353">
        <ele>459.5</ele>
        <time>2017-03-29T09:34:11Z</time>
      </trkpt>
      <trkpt lat="43.73115" lon="3.45345">
        <ele>458.8</ele>
        <time>2017-03-29T09:34:18Z</time>
      </trkpt>
      <trkpt lat="43.73118" lon="3.45335">
        <ele>456.2</ele>
        <time>2017-03-29T09:34:20Z</time>
      </trkpt>
      <trkpt lat="43.7312" lon="3.45321">
        <ele>453.8</ele>
        <time>2017-03-29T09:34:22Z</time>
      </trkpt>
      <trkpt lat="43.7312" lon="3.45307">
        <ele>452.1</ele>
        <time>2017-03-29T09:34:24Z</time>
      </trkpt>
      <trkpt lat="43.73116" lon="3.45291">
        <ele>450</ele>
        <time>2017-03-29T09:34:26Z</time>
      </trkpt>
      <trkpt lat="43.73111" lon="3.45283">
        <ele>449.1</ele>
        <time>2017-03-29T09:34:27Z</time>
      </trkpt>
      <trkpt lat="43.73105" lon="3.45274">
        <ele>448.2</ele>
        <time>2017-03-29T09:34:28Z</time>
      </trkpt>
      <trkpt lat="43.73096" lon="3.4526">
        <ele>446.9</ele>
        <time>2017-03-29T09:34:30Z</time>
      </trkpt>
      <trkpt lat="43.73091" lon="3.45251">
        <ele>446.4</ele>
        <time>2017-03-29T09:34:31Z</time>
      </trkpt>
      <trkpt lat="43.73085" lon="3.45243">
        <ele>446</ele>
        <time>2017-03-29T09:34:32Z</time>
      </trkpt>
      <trkpt lat="43.73079" lon="3.45234">
        <ele>445.4</ele>
        <time>2017-03-29T09:34:33Z</time>
      </trkpt>
      <trkpt lat="43.73074" lon="3.45225">
        <ele>444.4</ele>
        <time>2017-03-29T09:34:34Z</time>
      </trkpt>
      <trkpt lat="43.73068" lon="3.45216">
        <ele>443.5</ele>
        <time>2017-03-29T09:34:35Z</time>
      </trkpt>
      <trkpt lat="43.73063" lon="3.45207">
        <ele>443</ele>
        <time>2017-03-29T09:34:36Z</time>
      </trkpt>
      <trkpt lat="43.73053" lon="3.45197">
        <ele>441.8</ele>
        <time>2017-03-29T09:34:38Z</time>
      </trkpt>
      <trkpt lat="43.73041" lon="3.45198">
        <ele>440.3</ele>
        <time>2017-03-29T09:34:40Z</time>
      </trkpt>
      <trkpt lat="43.73029" lon="3.45205">
        <ele>439.1</ele>
        <time>2017-03-29T09:34:42Z</time>
      </trkpt>
      <trkpt lat="43.73017" lon="3.4521">
        <ele>438.7</ele>
        <time>2017-03-29T09:34:44Z</time>
      </trkpt>
      <trkpt lat="43.73004" lon="3.45216">
        <ele>438.6</ele>
        <time>2017-03-29T09:34:46Z</time>
      </trkpt>
      <trkpt lat="43.72991" lon="3.45221">
        <ele>438</ele>
        <time>2017-03-29T09:34:48Z</time>
      </trkpt>
      <trkpt lat="43.72977" lon="3.45226">
        <ele>437.9</ele>
        <time>2017-03-29T09:34:50Z</time>
      </trkpt>
      <trkpt lat="43.72963" lon="3.45231">
        <ele>438.4</ele>
        <time>2017-03-29T09:34:52Z</time>
      </trkpt>
      <trkpt lat="43.7295" lon="3.45237">
        <ele>438.1</ele>
        <time>2017-03-29T09:34:54Z</time>
      </trkpt>
      <trkpt lat="43.72943" lon="3.4524">
        <ele>438.2</ele>
        <time>2017-03-29T09:34:55Z</time>
      </trkpt>
      <trkpt lat="43.72929" lon="3.45243">
        <ele>438.4</ele>
        <time>2017-03-29T09:34:57Z</time>
      </trkpt>
      <trkpt lat="43.72921" lon="3.45245">
        <ele>439.2</ele>
        <time>2017-03-29T09:34:58Z</time>
      </trkpt>
      <trkpt lat="43.72914" lon="3.45245">
        <ele>439.3</ele>
        <time>2017-03-29T09:34:59Z</time>
      </trkpt>
      <trkpt lat="43.72906" lon="3.45246">
        <ele>439.3</ele>
        <time>2017-03-29T09:35:00Z</time>
      </trkpt>
      <trkpt lat="43.72899" lon="3.45247">
        <ele>439.4</ele>
        <time>2017-03-29T09:35:01Z</time>
      </trkpt>
      <trkpt lat="43.72891" lon="3.45247">
        <ele>439.8</ele>
        <time>2017-03-29T09:35:02Z</time>
      </trkpt>
      <trkpt lat="43.72883" lon="3.45249">
        <ele>440</ele>
        <time>2017-03-29T09:35:03Z</time>
      </trkpt>
      <trkpt lat="43.72876" lon="3.4525">
        <ele>440.3</ele>
        <time>2017-03-29T09:35:04Z</time>
      </trkpt>
      <trkpt lat="43.72869" lon="3.45252">
        <ele>440.5</ele>
        <time>2017-03-29T09:35:05Z</time>
      </trkpt>
      <trkpt lat="43.72861" lon="3.45253">
        <ele>439.9</ele>
        <time>2017-03-29T09:35:06Z</time>
      </trkpt>
      <trkpt lat="43.72854" lon="3.45254">
        <ele>439.4</ele>
        <time>2017-03-29T09:35:07Z</time>
      </trkpt>
      <trkpt lat="43.72846" lon="3.45254">
        <ele>439.2</ele>
        <time>2017-03-29T09:35:08Z</time>
      </trkpt>
      <trkpt lat="43.72838" lon="3.45254">
        <ele>439.3</ele>
        <time>2017-03-29T09:35:09Z</time>
      </trkpt>
      <trkpt lat="43.72831" lon="3.45254">
        <ele>438.7</ele>
        <time>2017-03-29T09:35:10Z</time>
      </trkpt>
      <trkpt lat="43.72823" lon="3.45253">
        <ele>438.2</ele>
        <time>2017-03-29T09:35:11Z</time>
      </trkpt>
      <trkpt lat="43.72816" lon="3.45253">
        <ele>438.1</ele>
        <time>2017-03-29T09:35:12Z</time>
      </trkpt>
      <trkpt lat="43.72808" lon="3.45252">
        <ele>437.7</ele>
        <time>2017-03-29T09:35:13Z</time>
      </trkpt>
      <trkpt lat="43.728" lon="3.45253">
        <ele>436.7</ele>
        <time>2017-03-29T09:35:14Z</time>
      </trkpt>
      <trkpt lat="43.72792" lon="3.45253">
        <ele>436.3</ele>
        <time>2017-03-29T09:35:15Z</time>
      </trkpt>
      <trkpt lat="43.72779" lon="3.45254">
        <ele>435.4</ele>
        <time>2017-03-29T09:35:17Z</time>
      </trkpt>
      <trkpt lat="43.72767" lon="3.45254">
        <ele>434.4</ele>
        <time>2017-03-29T09:35:19Z</time>
      </trkpt>
      <trkpt lat="43.72756" lon="3.45254">
        <ele>433.9</ele>
        <time>2017-03-29T09:35:21Z</time>
      </trkpt>
      <trkpt lat="43.72748" lon="3.45255">
        <ele>433.8</ele>
        <time>2017-03-29T09:35:23Z</time>
      </trkpt>
      <trkpt lat="43.72738" lon="3.45256">
        <ele>433.3</ele>
        <time>2017-03-29T09:35:25Z</time>
      </trkpt>
      <trkpt lat="43.72725" lon="3.45259">
        <ele>433.4</ele>
        <time>2017-03-29T09:35:27Z</time>
      </trkpt>
      <trkpt lat="43.72712" lon="3.45264">
        <ele>432.8</ele>
        <time>2017-03-29T09:35:29Z</time>
      </trkpt>
      <trkpt lat="43.72701" lon="3.45268">
        <ele>432</ele>
        <time>2017-03-29T09:35:31Z</time>
      </trkpt>
      <trkpt lat="43.7269" lon="3.45273">
        <ele>430.9</ele>
        <time>2017-03-29T09:35:33Z</time>
      </trkpt>
      <trkpt lat="43.72677" lon="3.45278">
        <ele>429.2</ele>
        <time>2017-03-29T09:35:35Z</time>
      </trkpt>
      <trkpt lat="43.72665" lon="3.45281">
        <ele>428.5</ele>
        <time>2017-03-29T09:35:37Z</time>
      </trkpt>
      <trkpt lat="43.72654" lon="3.45284">
        <ele>427.5</ele>
        <time>2017-03-29T09:35:39Z</time>
      </trkpt>
      <trkpt lat="43.72643" lon="3.45286">
        <ele>426.9</ele>
        <time>2017-03-29T09:35:41Z</time>
      </trkpt>
      <trkpt lat="43.72631" lon="3.45286">
        <ele>426.7</ele>
        <time>2017-03-29T09:35:43Z</time>
      </trkpt>
      <trkpt lat="43.72621" lon="3.45286">
        <ele>427</ele>
        <time>2017-03-29T09:35:45Z</time>
      </trkpt>
      <trkpt lat="43.72608" lon="3.45283">
        <ele>428.2</ele>
        <time>2017-03-29T09:35:47Z</time>
      </trkpt>
      <trkpt lat="43.726" lon="3.45283">
        <ele>428.4</ele>
        <time>2017-03-29T09:35:48Z</time>
      </trkpt>
      <trkpt lat="43.72593" lon="3.45281">
        <ele>428.5</ele>
        <time>2017-03-29T09:35:49Z</time>
      </trkpt>
      <trkpt lat="43.72585" lon="3.4528">
        <ele>428.6</ele>
        <time>2017-03-29T09:35:50Z</time>
      </trkpt>
      <trkpt lat="43.72578" lon="3.45278">
        <ele>428.9</ele>
        <time>2017-03-29T09:35:51Z</time>
      </trkpt>
      <trkpt lat="43.7257" lon="3.45277">
        <ele>429.5</ele>
        <time>2017-03-29T09:35:52Z</time>
      </trkpt>
      <trkpt lat="43.72562" lon="3.45275">
        <ele>429.7</ele>
        <time>2017-03-29T09:35:53Z</time>
      </trkpt>
      <trkpt lat="43.72554" lon="3.45273">
        <ele>429.8</ele>
        <time>2017-03-29T09:35:54Z</time>
      </trkpt>
      <trkpt lat="43.72547" lon="3.45272">
        <ele>429.5</ele>
        <time>2017-03-29T09:35:55Z</time>
      </trkpt>
      <trkpt lat="43.72538" lon="3.45271">
        <ele>428.6</ele>
        <time>2017-03-29T09:35:56Z</time>
      </trkpt>
      <trkpt lat="43.72531" lon="3.45269">
        <ele>427.8</ele>
        <time>2017-03-29T09:35:57Z</time>
      </trkpt>
      <trkpt lat="43.72524" lon="3.45267">
        <ele>427.4</ele>
        <time>2017-03-29T09:35:58Z</time>
      </trkpt>
      <trkpt lat="43.7251" lon="3.45269">
        <ele>426.6</ele>
        <time>2017-03-29T09:36:00Z</time>
      </trkpt>
      <trkpt lat="43.725" lon="3.4528">
        <ele>425.9</ele>
        <time>2017-03-29T09:36:02Z</time>
      </trkpt>
      <trkpt lat="43.72501" lon="3.45295">
        <ele>424.6</ele>
        <time>2017-03-29T09:36:04Z</time>
      </trkpt>
      <trkpt lat="43.72503" lon="3.45312">
        <ele>425.1</ele>
        <time>2017-03-29T09:36:06Z</time>
      </trkpt>
      <trkpt lat="43.72505" lon="3.45326">
        <ele>425.7</ele>
        <time>2017-03-29T09:36:08Z</time>
      </trkpt>
      <trkpt lat="43.72504" lon="3.45342">
        <ele>424.9</ele>
        <time>2017-03-29T09:36:10Z</time>
      </trkpt>
      <trkpt lat="43.72503" lon="3.45357">
        <ele>423.7</ele>
        <time>2017-03-29T09:36:12Z</time>
      </trkpt>
      <trkpt lat="43.72501" lon="3.45373">
        <ele>423.8</ele>
        <time>2017-03-29T09:36:14Z</time>
      </trkpt>
      <trkpt lat="43.72499" lon="3.45387">
        <ele>424.4</ele>
        <time>2017-03-29T09:36:16Z</time>
      </trkpt>
      <trkpt lat="43.72497" lon="3.45404">
        <ele>424.7</ele>
        <time>2017-03-29T09:36:18Z</time>
      </trkpt>
      <trkpt lat="43.72495" lon="3.4542">
        <ele>424.6</ele>
        <time>2017-03-29T09:36:20Z</time>
      </trkpt>
      <trkpt lat="43.72492" lon="3.45439">
        <ele>423.9</ele>
        <time>2017-03-29T09:36:22Z</time>
      </trkpt>
      <trkpt lat="43.72489" lon="3.45456">
        <ele>423.9</ele>
        <time>2017-03-29T09:36:24Z</time>
      </trkpt>
      <trkpt lat="43.72486" lon="3.45473">
        <ele>424.7</ele>
        <time>2017-03-29T09:36:26Z</time>
      </trkpt>
      <trkpt lat="43.72485" lon="3.45487">
        <ele>425.3</ele>
        <time>2017-03-29T09:36:28Z</time>
      </trkpt>
      <trkpt lat="43.72485" lon="3.455">
        <ele>426.3</ele>
        <time>2017-03-29T09:36:30Z</time>
      </trkpt>
      <trkpt lat="43.72484" lon="3.45516">
        <ele>426.9</ele>
        <time>2017-03-29T09:36:32Z</time>
      </trkpt>
      <trkpt lat="43.72484" lon="3.45529">
        <ele>427.3</ele>
        <time>2017-03-29T09:36:34Z</time>
      </trkpt>
      <trkpt lat="43.72483" lon="3.45543">
        <ele>428.4</ele>
        <time>2017-03-29T09:36:36Z</time>
      </trkpt>
      <trkpt lat="43.72481" lon="3.45557">
        <ele>428.6</ele>
        <time>2017-03-29T09:36:38Z</time>
      </trkpt>
      <trkpt lat="43.72478" lon="3.45569">
        <ele>428.2</ele>
        <time>2017-03-29T09:36:40Z</time>
      </trkpt>
      <trkpt lat="43.72474" lon="3.45581">
        <ele>427.9</ele>
        <time>2017-03-29T09:36:42Z</time>
      </trkpt>
      <trkpt lat="43.72469" lon="3.45593">
        <ele>426.5</ele>
        <time>2017-03-29T09:36:44Z</time>
      </trkpt>
      <trkpt lat="43.72464" lon="3.45605">
        <ele>424.8</ele>
        <time>2017-03-29T09:36:46Z</time>
      </trkpt>
      <trkpt lat="43.72458" lon="3.45617">
        <ele>423.6</ele>
        <time>2017-03-29T09:36:48Z</time>
      </trkpt>
      <trkpt lat="43.72455" lon="3.45626">
        <ele>423.2</ele>
        <time>2017-03-29T09:36:50Z</time>
      </trkpt>
      <trkpt lat="43.7245" lon="3.45636">
        <ele>423.5</ele>
        <time>2017-03-29T09:36:52Z</time>
      </trkpt>
      <trkpt lat="43.72445" lon="3.45646">
        <ele>423.6</ele>
        <time>2017-03-29T09:36:54Z</time>
      </trkpt>
      <trkpt lat="43.72438" lon="3.45656">
        <ele>424.1</ele>
        <time>2017-03-29T09:36:56Z</time>
      </trkpt>
      <trkpt lat="43.72432" lon="3.45668">
        <ele>424</ele>
        <time>2017-03-29T09:36:58Z</time>
      </trkpt>
      <trkpt lat="43.72426" lon="3.45678">
        <ele>423.5</ele>
        <time>2017-03-29T09:37:00Z</time>
      </trkpt>
      <trkpt lat="43.72421" lon="3.45688">
        <ele>423.5</ele>
        <time>2017-03-29T09:37:02Z</time>
      </trkpt>
      <trkpt lat="43.72416" lon="3.45698">
        <ele>423.2</ele>
        <time>2017-03-29T09:37:04Z</time>
      </trkpt>
      <trkpt lat="43.7241" lon="3.45708">
        <ele>423.8</ele>
        <time>2017-03-29T09:37:06Z</time>
      </trkpt>
      <trkpt lat="43.72405" lon="3.4572">
        <ele>423.7</ele>
        <time>2017-03-29T09:37:08Z</time>
      </trkpt>
      <trkpt lat="43.72402" lon="3.45732">
        <ele>421.7</ele>
        <time>2017-03-29T09:37:10Z</time>
      </trkpt>
      <trkpt lat="43.724" lon="3.45747">
        <ele>420.7</ele>
        <time>2017-03-29T09:37:12Z</time>
      </trkpt>
      <trkpt lat="43.72398" lon="3.4576">
        <ele>422.2</ele>
        <time>2017-03-29T09:37:15Z</time>
      </trkpt>
      <trkpt lat="43.72392" lon="3.45769">
        <ele>421.7</ele>
        <time>2017-03-29T09:37:17Z</time>
      </trkpt>
      <trkpt lat="43.72385" lon="3.45776">
        <ele>420.7</ele>
        <time>2017-03-29T09:37:19Z</time>
      </trkpt>
      <trkpt lat="43.72378" lon="3.45784">
        <ele>421.5</ele>
        <time>2017-03-29T09:37:21Z</time>
      </trkpt>
      <trkpt lat="43.72369" lon="3.45792">
        <ele>421.7</ele>
        <time>2017-03-29T09:37:23Z</time>
      </trkpt>
      <trkpt lat="43.72362" lon="3.458">
        <ele>421</ele>
        <time>2017-03-29T09:37:25Z</time>
      </trkpt>
      <trkpt lat="43.72355" lon="3.45807">
        <ele>420.8</ele>
        <time>2017-03-29T09:37:27Z</time>
      </trkpt>
      <trkpt lat="43.72345" lon="3.4581">
        <ele>420.7</ele>
        <time>2017-03-29T09:37:30Z</time>
      </trkpt>
      <trkpt lat="43.72336" lon="3.45811">
        <ele>420.5</ele>
        <time>2017-03-29T09:37:33Z</time>
      </trkpt>
      <trkpt lat="43.72328" lon="3.45812">
        <ele>420.3</ele>
        <time>2017-03-29T09:37:35Z</time>
      </trkpt>
      <trkpt lat="43.72317" lon="3.45812">
        <ele>420.2</ele>
        <time>2017-03-29T09:37:38Z</time>
      </trkpt>
      <trkpt lat="43.72309" lon="3.45815">
        <ele>420.3</ele>
        <time>2017-03-29T09:37:41Z</time>
      </trkpt>
      <trkpt lat="43.72302" lon="3.45818">
        <ele>420.4</ele>
        <time>2017-03-29T09:37:43Z</time>
      </trkpt>
      <trkpt lat="43.72294" lon="3.45822">
        <ele>420.5</ele>
        <time>2017-03-29T09:37:45Z</time>
      </trkpt>
      <trkpt lat="43.72284" lon="3.45827">
        <ele>421.1</ele>
        <time>2017-03-29T09:37:48Z</time>
      </trkpt>
      <trkpt lat="43.72276" lon="3.4583">
        <ele>421</ele>
        <time>2017-03-29T09:37:50Z</time>
      </trkpt>
      <trkpt lat="43.72265" lon="3.45833">
        <ele>421</ele>
        <time>2017-03-29T09:37:53Z</time>
      </trkpt>
      <trkpt lat="43.72258" lon="3.45834">
        <ele>420.7</ele>
        <time>2017-03-29T09:37:55Z</time>
      </trkpt>
      <trkpt lat="43.72248" lon="3.45835">
        <ele>421</ele>
        <time>2017-03-29T09:37:58Z</time>
      </trkpt>
      <trkpt lat="43.7224" lon="3.45837">
        <ele>421.1</ele>
        <time>2017-03-29T09:38:00Z</time>
      </trkpt>
      <trkpt lat="43.72229" lon="3.4584">
        <ele>421.3</ele>
        <time>2017-03-29T09:38:03Z</time>
      </trkpt>
      <trkpt lat="43.7222" lon="3.45842">
        <ele>421.4</ele>
        <time>2017-03-29T09:38:05Z</time>
      </trkpt>
      <trkpt lat="43.72212" lon="3.45847">
        <ele>421.6</ele>
        <time>2017-03-29T09:38:07Z</time>
      </trkpt>
      <trkpt lat="43.72205" lon="3.45853">
        <ele>421.8</ele>
        <time>2017-03-29T09:38:10Z</time>
      </trkpt>
      <trkpt lat="43.72197" lon="3.45858">
        <ele>422</ele>
        <time>2017-03-29T09:38:13Z</time>
      </trkpt>
      <trkpt lat="43.7219" lon="3.45863">
        <ele>422.1</ele>
        <time>2017-03-29T09:38:15Z</time>
      </trkpt>
      <trkpt lat="43.72182" lon="3.4587">
        <ele>422.3</ele>
        <time>2017-03-29T09:38:18Z</time>
      </trkpt>
      <trkpt lat="43.72175" lon="3.45877">
        <ele>422.9</ele>
        <time>2017-03-29T09:38:21Z</time>
      </trkpt>
      <trkpt lat="43.72165" lon="3.45884">
        <ele>423.3</ele>
        <time>2017-03-29T09:38:24Z</time>
      </trkpt>
      <trkpt lat="43.72157" lon="3.4589">
        <ele>423.6</ele>
        <time>2017-03-29T09:38:27Z</time>
      </trkpt>
      <trkpt lat="43.72149" lon="3.45895">
        <ele>423.9</ele>
        <time>2017-03-29T09:38:30Z</time>
      </trkpt>
      <trkpt lat="43.7214" lon="3.45899">
        <ele>424.3</ele>
        <time>2017-03-29T09:38:33Z</time>
      </trkpt>
      <trkpt lat="43.72131" lon="3.45902">
        <ele>425</ele>
        <time>2017-03-29T09:38:36Z</time>
      </trkpt>
      <trkpt lat="43.72122" lon="3.45907">
        <ele>425.8</ele>
        <time>2017-03-29T09:38:39Z</time>
      </trkpt>
      <trkpt lat="43.72114" lon="3.4591">
        <ele>426.6</ele>
        <time>2017-03-29T09:38:42Z</time>
      </trkpt>
      <trkpt lat="43.72106" lon="3.45917">
        <ele>427.3</ele>
        <time>2017-03-29T09:38:45Z</time>
      </trkpt>
      <trkpt lat="43.72099" lon="3.45922">
        <ele>427.8</ele>
        <time>2017-03-29T09:38:48Z</time>
      </trkpt>
      <trkpt lat="43.7209" lon="3.4593">
        <ele>428.1</ele>
        <time>2017-03-29T09:38:51Z</time>
      </trkpt>
      <trkpt lat="43.72082" lon="3.45936">
        <ele>428.5</ele>
        <time>2017-03-29T09:38:54Z</time>
      </trkpt>
      <trkpt lat="43.72075" lon="3.45941">
        <ele>429.1</ele>
        <time>2017-03-29T09:38:57Z</time>
      </trkpt>
      <trkpt lat="43.72069" lon="3.45947">
        <ele>429.5</ele>
        <time>2017-03-29T09:39:00Z</time>
      </trkpt>
      <trkpt lat="43.72062" lon="3.45953">
        <ele>430</ele>
        <time>2017-03-29T09:39:03Z</time>
      </trkpt>
      <trkpt lat="43.72055" lon="3.45958">
        <ele>431</ele>
        <time>2017-03-29T09:39:07Z</time>
      </trkpt>
      <trkpt lat="43.72047" lon="3.45961">
        <ele>431.9</ele>
        <time>2017-03-29T09:39:10Z</time>
      </trkpt>
      <trkpt lat="43.72039" lon="3.45964">
        <ele>432.8</ele>
        <time>2017-03-29T09:39:13Z</time>
      </trkpt>
      <trkpt lat="43.72031" lon="3.4597">
        <ele>433.7</ele>
        <time>2017-03-29T09:39:17Z</time>
      </trkpt>
      <trkpt lat="43.72023" lon="3.45971">
        <ele>434.3</ele>
        <time>2017-03-29T09:39:20Z</time>
      </trkpt>
      <trkpt lat="43.72016" lon="3.45965">
        <ele>434.9</ele>
        <time>2017-03-29T09:39:23Z</time>
      </trkpt>
      <trkpt lat="43.72011" lon="3.45957">
        <ele>435.4</ele>
        <time>2017-03-29T09:39:26Z</time>
      </trkpt>
      <trkpt lat="43.72005" lon="3.45947">
        <ele>436.1</ele>
        <time>2017-03-29T09:39:30Z</time>
      </trkpt>
      <trkpt lat="43.71999" lon="3.45938">
        <ele>436.4</ele>
        <time>2017-03-29T09:39:33Z</time>
      </trkpt>
      <trkpt lat="43.71992" lon="3.4593">
        <ele>436.6</ele>
        <time>2017-03-29T09:39:36Z</time>
      </trkpt>
      <trkpt lat="43.71984" lon="3.45924">
        <ele>436.8</ele>
        <time>2017-03-29T09:39:39Z</time>
      </trkpt>
      <trkpt lat="43.71976" lon="3.45917">
        <ele>436.9</ele>
        <time>2017-03-29T09:39:41Z</time>
      </trkpt>
      <trkpt lat="43.7197" lon="3.45911">
        <ele>437.7</ele>
        <time>2017-03-29T09:39:43Z</time>
      </trkpt>
      <trkpt lat="43.71963" lon="3.45905">
        <ele>438.1</ele>
        <time>2017-03-29T09:39:45Z</time>
      </trkpt>
      <trkpt lat="43.71956" lon="3.45898">
        <ele>438.7</ele>
        <time>2017-03-29T09:39:47Z</time>
      </trkpt>
      <trkpt lat="43.71949" lon="3.45891">
        <ele>439.3</ele>
        <time>2017-03-29T09:39:49Z</time>
      </trkpt>
      <trkpt lat="43.71942" lon="3.45885">
        <ele>439.3</ele>
        <time>2017-03-29T09:39:51Z</time>
      </trkpt>
      <trkpt lat="43.71934" lon="3.45881">
        <ele>439.6</ele>
        <time>2017-03-29T09:39:53Z</time>
      </trkpt>
      <trkpt lat="43.71925" lon="3.45877">
        <ele>441</ele>
        <time>2017-03-29T09:39:55Z</time>
      </trkpt>
      <trkpt lat="43.71917" lon="3.45878">
        <ele>442.9</ele>
        <time>2017-03-29T09:39:57Z</time>
      </trkpt>
      <trkpt lat="43.71907" lon="3.45884">
        <ele>443.2</ele>
        <time>2017-03-29T09:40:00Z</time>
      </trkpt>
      <trkpt lat="43.71898" lon="3.45892">
        <ele>442.7</ele>
        <time>2017-03-29T09:40:03Z</time>
      </trkpt>
      <trkpt lat="43.71891" lon="3.45896">
        <ele>441.3</ele>
        <time>2017-03-29T09:40:05Z</time>
      </trkpt>
      <trkpt lat="43.71883" lon="3.459">
        <ele>439.9</ele>
        <time>2017-03-29T09:40:07Z</time>
      </trkpt>
      <trkpt lat="43.71873" lon="3.45904">
        <ele>439.9</ele>
        <time>2017-03-29T09:40:09Z</time>
      </trkpt>
      <trkpt lat="43.71864" lon="3.45911">
        <ele>440.5</ele>
        <time>2017-03-29T09:40:11Z</time>
      </trkpt>
      <trkpt lat="43.71858" lon="3.4592">
        <ele>441.3</ele>
        <time>2017-03-29T09:40:13Z</time>
      </trkpt>
      <trkpt lat="43.71852" lon="3.45928">
        <ele>441.9</ele>
        <time>2017-03-29T09:40:15Z</time>
      </trkpt>
      <trkpt lat="43.71844" lon="3.45936">
        <ele>441.6</ele>
        <time>2017-03-29T09:40:17Z</time>
      </trkpt>
      <trkpt lat="43.71835" lon="3.45941">
        <ele>440.4</ele>
        <time>2017-03-29T09:40:19Z</time>
      </trkpt>
      <trkpt lat="43.71827" lon="3.45945">
        <ele>439.6</ele>
        <time>2017-03-29T09:40:21Z</time>
      </trkpt>
      <trkpt lat="43.71816" lon="3.4595">
        <ele>439.1</ele>
        <time>2017-03-29T09:40:23Z</time>
      </trkpt>
      <trkpt lat="43.71805" lon="3.45954">
        <ele>439.1</ele>
        <time>2017-03-29T09:40:25Z</time>
      </trkpt>
      <trkpt lat="43.71795" lon="3.45957">
        <ele>439.3</ele>
        <time>2017-03-29T09:40:27Z</time>
      </trkpt>
      <trkpt lat="43.71786" lon="3.45958">
        <ele>439.5</ele>
        <time>2017-03-29T09:40:29Z</time>
      </trkpt>
      <trkpt lat="43.71778" lon="3.4596">
        <ele>439.8</ele>
        <time>2017-03-29T09:40:31Z</time>
      </trkpt>
      <trkpt lat="43.71769" lon="3.45964">
        <ele>440.8</ele>
        <time>2017-03-29T09:40:33Z</time>
      </trkpt>
      <trkpt lat="43.71762" lon="3.45974">
        <ele>441.8</ele>
        <time>2017-03-29T09:40:35Z</time>
      </trkpt>
      <trkpt lat="43.71754" lon="3.45986">
        <ele>442.3</ele>
        <time>2017-03-29T09:40:37Z</time>
      </trkpt>
      <trkpt lat="43.71747" lon="3.46">
        <ele>442</ele>
        <time>2017-03-29T09:40:39Z</time>
      </trkpt>
      <trkpt lat="43.71739" lon="3.46011">
        <ele>441.9</ele>
        <time>2017-03-29T09:40:41Z</time>
      </trkpt>
      <trkpt lat="43.71731" lon="3.46021">
        <ele>441.4</ele>
        <time>2017-03-29T09:40:43Z</time>
      </trkpt>
      <trkpt lat="43.71724" lon="3.46031">
        <ele>441.5</ele>
        <time>2017-03-29T09:40:45Z</time>
      </trkpt>
      <trkpt lat="43.71718" lon="3.46044">
        <ele>443</ele>
        <time>2017-03-29T09:40:47Z</time>
      </trkpt>
      <trkpt lat="43.71713" lon="3.46059">
        <ele>443.9</ele>
        <time>2017-03-29T09:40:49Z</time>
      </trkpt>
      <trkpt lat="43.7171" lon="3.46073">
        <ele>443.8</ele>
        <time>2017-03-29T09:40:51Z</time>
      </trkpt>
      <trkpt lat="43.71706" lon="3.46088">
        <ele>442.4</ele>
        <time>2017-03-29T09:40:53Z</time>
      </trkpt>
      <trkpt lat="43.71701" lon="3.46104">
        <ele>439.8</ele>
        <time>2017-03-29T09:40:55Z</time>
      </trkpt>
      <trkpt lat="43.71696" lon="3.46117">
        <ele>438.7</ele>
        <time>2017-03-29T09:40:57Z</time>
      </trkpt>
      <trkpt lat="43.71688" lon="3.4613">
        <ele>437.4</ele>
        <time>2017-03-29T09:40:59Z</time>
      </trkpt>
      <trkpt lat="43.71681" lon="3.46143">
        <ele>436.7</ele>
        <time>2017-03-29T09:41:01Z</time>
      </trkpt>
      <trkpt lat="43.71673" lon="3.46154">
        <ele>436</ele>
        <time>2017-03-29T09:41:03Z</time>
      </trkpt>
      <trkpt lat="43.71666" lon="3.46166">
        <ele>435.7</ele>
        <time>2017-03-29T09:41:05Z</time>
      </trkpt>
      <trkpt lat="43.7166" lon="3.4618">
        <ele>435.6</ele>
        <time>2017-03-29T09:41:07Z</time>
      </trkpt>
      <trkpt lat="43.71655" lon="3.46191">
        <ele>436.2</ele>
        <time>2017-03-29T09:41:09Z</time>
      </trkpt>
      <trkpt lat="43.71652" lon="3.46205">
        <ele>436.4</ele>
        <time>2017-03-29T09:41:11Z</time>
      </trkpt>
      <trkpt lat="43.71649" lon="3.46219">
        <ele>437.6</ele>
        <time>2017-03-29T09:41:13Z</time>
      </trkpt>
      <trkpt lat="43.71647" lon="3.46234">
        <ele>438.9</ele>
        <time>2017-03-29T09:41:15Z</time>
      </trkpt>
      <trkpt lat="43.71645" lon="3.4625">
        <ele>439.6</ele>
        <time>2017-03-29T09:41:17Z</time>
      </trkpt>
      <trkpt lat="43.71642" lon="3.46265">
        <ele>439.6</ele>
        <time>2017-03-29T09:41:19Z</time>
      </trkpt>
      <trkpt lat="43.71637" lon="3.4628">
        <ele>439.4</ele>
        <time>2017-03-29T09:41:21Z</time>
      </trkpt>
      <trkpt lat="43.71632" lon="3.46296">
        <ele>438.9</ele>
        <time>2017-03-29T09:41:23Z</time>
      </trkpt>
      <trkpt lat="43.71625" lon="3.4631">
        <ele>438.2</ele>
        <time>2017-03-29T09:41:25Z</time>
      </trkpt>
      <trkpt lat="43.71618" lon="3.46324">
        <ele>437.5</ele>
        <time>2017-03-29T09:41:27Z</time>
      </trkpt>
      <trkpt lat="43.7161" lon="3.46338">
        <ele>437</ele>
        <time>2017-03-29T09:41:29Z</time>
      </trkpt>
      <trkpt lat="43.71603" lon="3.46354">
        <ele>436</ele>
        <time>2017-03-29T09:41:31Z</time>
      </trkpt>
      <trkpt lat="43.71596" lon="3.46368">
        <ele>434.6</ele>
        <time>2017-03-29T09:41:33Z</time>
      </trkpt>
      <trkpt lat="43.71587" lon="3.46383">
        <ele>432.9</ele>
        <time>2017-03-29T09:41:35Z</time>
      </trkpt>
      <trkpt lat="43.71582" lon="3.46389">
        <ele>432.1</ele>
        <time>2017-03-29T09:41:36Z</time>
      </trkpt>
      <trkpt lat="43.71572" lon="3.46398">
        <ele>429.9</ele>
        <time>2017-03-29T09:41:38Z</time>
      </trkpt>
      <trkpt lat="43.7156" lon="3.46407">
        <ele>427.5</ele>
        <time>2017-03-29T09:41:40Z</time>
      </trkpt>
      <trkpt lat="43.71549" lon="3.46415">
        <ele>426.8</ele>
        <time>2017-03-29T09:41:42Z</time>
      </trkpt>
      <trkpt lat="43.71537" lon="3.46424">
        <ele>427</ele>
        <time>2017-03-29T09:41:44Z</time>
      </trkpt>
      <trkpt lat="43.71527" lon="3.46433">
        <ele>428.2</ele>
        <time>2017-03-29T09:41:46Z</time>
      </trkpt>
      <trkpt lat="43.71521" lon="3.4644">
        <ele>428.4</ele>
        <time>2017-03-29T09:41:47Z</time>
      </trkpt>
      <trkpt lat="43.71512" lon="3.46456">
        <ele>428.6</ele>
        <time>2017-03-29T09:41:49Z</time>
      </trkpt>
      <trkpt lat="43.71508" lon="3.46465">
        <ele>428.7</ele>
        <time>2017-03-29T09:41:50Z</time>
      </trkpt>
      <trkpt lat="43.71503" lon="3.46474">
        <ele>428.4</ele>
        <time>2017-03-29T09:41:51Z</time>
      </trkpt>
      <trkpt lat="43.71499" lon="3.46484">
        <ele>428.3</ele>
        <time>2017-03-29T09:41:52Z</time>
      </trkpt>
      <trkpt lat="43.71495" lon="3.46494">
        <ele>428.3</ele>
        <time>2017-03-29T09:41:53Z</time>
      </trkpt>
      <trkpt lat="43.71491" lon="3.46503">
        <ele>428.4</ele>
        <time>2017-03-29T09:41:54Z</time>
      </trkpt>
      <trkpt lat="43.71487" lon="3.46512">
        <ele>428.7</ele>
        <time>2017-03-29T09:41:55Z</time>
      </trkpt>
      <trkpt lat="43.71481" lon="3.46519">
        <ele>429.3</ele>
        <time>2017-03-29T09:41:56Z</time>
      </trkpt>
      <trkpt lat="43.7147" lon="3.46528">
        <ele>430</ele>
        <time>2017-03-29T09:41:58Z</time>
      </trkpt>
      <trkpt lat="43.71459" lon="3.46535">
        <ele>430.1</ele>
        <time>2017-03-29T09:42:00Z</time>
      </trkpt>
      <trkpt lat="43.71446" lon="3.46539">
        <ele>430.6</ele>
        <time>2017-03-29T09:42:02Z</time>
      </trkpt>
      <trkpt lat="43.71436" lon="3.46543">
        <ele>430.2</ele>
        <time>2017-03-29T09:42:04Z</time>
      </trkpt>
      <trkpt lat="43.71424" lon="3.46546">
        <ele>430.1</ele>
        <time>2017-03-29T09:42:06Z</time>
      </trkpt>
      <trkpt lat="43.71412" lon="3.46549">
        <ele>429.7</ele>
        <time>2017-03-29T09:42:08Z</time>
      </trkpt>
      <trkpt lat="43.71399" lon="3.46553">
        <ele>429</ele>
        <time>2017-03-29T09:42:10Z</time>
      </trkpt>
      <trkpt lat="43.71387" lon="3.46556">
        <ele>427.8</ele>
        <time>2017-03-29T09:42:12Z</time>
      </trkpt>
      <trkpt lat="43.71374" lon="3.4656">
        <ele>426.7</ele>
        <time>2017-03-29T09:42:14Z</time>
      </trkpt>
      <trkpt lat="43.71361" lon="3.46563">
        <ele>426.9</ele>
        <time>2017-03-29T09:42:16Z</time>
      </trkpt>
      <trkpt lat="43.71349" lon="3.46563">
        <ele>427.1</ele>
        <time>2017-03-29T09:42:18Z</time>
      </trkpt>
      <trkpt lat="43.71337" lon="3.46561">
        <ele>426.9</ele>
        <time>2017-03-29T09:42:20Z</time>
      </trkpt>
      <trkpt lat="43.71325" lon="3.4656">
        <ele>426.2</ele>
        <time>2017-03-29T09:42:22Z</time>
      </trkpt>
      <trkpt lat="43.71312" lon="3.46559">
        <ele>425.6</ele>
        <time>2017-03-29T09:42:24Z</time>
      </trkpt>
      <trkpt lat="43.71301" lon="3.4656">
        <ele>425.6</ele>
        <time>2017-03-29T09:42:26Z</time>
      </trkpt>
      <trkpt lat="43.71289" lon="3.46562">
        <ele>425.8</ele>
        <time>2017-03-29T09:42:28Z</time>
      </trkpt>
      <trkpt lat="43.71277" lon="3.46564">
        <ele>425.6</ele>
        <time>2017-03-29T09:42:30Z</time>
      </trkpt>
      <trkpt lat="43.71266" lon="3.46568">
        <ele>425.6</ele>
        <time>2017-03-29T09:42:32Z</time>
      </trkpt>
      <trkpt lat="43.71255" lon="3.46572">
        <ele>425.5</ele>
        <time>2017-03-29T09:42:34Z</time>
      </trkpt>
      <trkpt lat="43.71248" lon="3.46583">
        <ele>425.5</ele>
        <time>2017-03-29T09:42:36Z</time>
      </trkpt>
      <trkpt lat="43.71244" lon="3.46594">
        <ele>425.9</ele>
        <time>2017-03-29T09:42:38Z</time>
      </trkpt>
      <trkpt lat="43.71241" lon="3.46609">
        <ele>427.4</ele>
        <time>2017-03-29T09:42:40Z</time>
      </trkpt>
      <trkpt lat="43.71239" lon="3.46624">
        <ele>429.7</ele>
        <time>2017-03-29T09:42:42Z</time>
      </trkpt>
      <trkpt lat="43.71237" lon="3.46635">
        <ele>431.3</ele>
        <time>2017-03-29T09:42:44Z</time>
      </trkpt>
      <trkpt lat="43.71233" lon="3.46644">
        <ele>430.9</ele>
        <time>2017-03-29T09:42:46Z</time>
      </trkpt>
      <trkpt lat="43.71231" lon="3.46654">
        <ele>430.6</ele>
        <time>2017-03-29T09:42:49Z</time>
      </trkpt>
      <trkpt lat="43.71222" lon="3.46657">
        <ele>430.4</ele>
        <time>2017-03-29T09:42:53Z</time>
      </trkpt>
      <trkpt lat="43.71216" lon="3.46667">
        <ele>430.2</ele>
        <time>2017-03-29T09:42:57Z</time>
      </trkpt>
      <trkpt lat="43.71212" lon="3.46676">
        <ele>429.9</ele>
        <time>2017-03-29T09:43:00Z</time>
      </trkpt>
      <trkpt lat="43.71211" lon="3.46678">
        <ele>429</ele>
        <time>2017-03-29T09:43:07Z</time>
      </trkpt>
      <trkpt lat="43.71201" lon="3.4668">
        <ele>428.7</ele>
        <time>2017-03-29T09:43:21Z</time>
      </trkpt>
      <trkpt lat="43.71191" lon="3.46685">
        <ele>428.1</ele>
        <time>2017-03-29T09:43:23Z</time>
      </trkpt>
      <trkpt lat="43.71184" lon="3.46687">
        <ele>426.8</ele>
        <time>2017-03-29T09:43:24Z</time>
      </trkpt>
      <trkpt lat="43.71172" lon="3.4669">
        <ele>425.7</ele>
        <time>2017-03-29T09:43:26Z</time>
      </trkpt>
      <trkpt lat="43.71161" lon="3.467">
        <ele>424.6</ele>
        <time>2017-03-29T09:43:28Z</time>
      </trkpt>
      <trkpt lat="43.71152" lon="3.46709">
        <ele>422.5</ele>
        <time>2017-03-29T09:43:30Z</time>
      </trkpt>
      <trkpt lat="43.7114" lon="3.46721">
        <ele>419.7</ele>
        <time>2017-03-29T09:43:32Z</time>
      </trkpt>
      <trkpt lat="43.71128" lon="3.4673">
        <ele>416.9</ele>
        <time>2017-03-29T09:43:34Z</time>
      </trkpt>
      <trkpt lat="43.7112" lon="3.46729">
        <ele>413.4</ele>
        <time>2017-03-29T09:43:36Z</time>
      </trkpt>
      <trkpt lat="43.71108" lon="3.46723">
        <ele>409.5</ele>
        <time>2017-03-29T09:43:38Z</time>
      </trkpt>
      <trkpt lat="43.71097" lon="3.46725">
        <ele>405.9</ele>
        <time>2017-03-29T09:43:40Z</time>
      </trkpt>
      <trkpt lat="43.71088" lon="3.46743">
        <ele>403.8</ele>
        <time>2017-03-29T09:43:42Z</time>
      </trkpt>
      <trkpt lat="43.71077" lon="3.46752">
        <ele>400.5</ele>
        <time>2017-03-29T09:43:44Z</time>
      </trkpt>
      <trkpt lat="43.71065" lon="3.4676">
        <ele>398.1</ele>
        <time>2017-03-29T09:43:46Z</time>
      </trkpt>
      <trkpt lat="43.71055" lon="3.46766">
        <ele>396.4</ele>
        <time>2017-03-29T09:43:48Z</time>
      </trkpt>
      <trkpt lat="43.71048" lon="3.46769">
        <ele>395.5</ele>
        <time>2017-03-29T09:43:49Z</time>
      </trkpt>
      <trkpt lat="43.71037" lon="3.46779">
        <ele>393.8</ele>
        <time>2017-03-29T09:43:51Z</time>
      </trkpt>
      <trkpt lat="43.71031" lon="3.46796">
        <ele>391.9</ele>
        <time>2017-03-29T09:43:53Z</time>
      </trkpt>
      <trkpt lat="43.71023" lon="3.4681">
        <ele>389.8</ele>
        <time>2017-03-29T09:43:55Z</time>
      </trkpt>
      <trkpt lat="43.71016" lon="3.46825">
        <ele>388.5</ele>
        <time>2017-03-29T09:43:57Z</time>
      </trkpt>
      <trkpt lat="43.71011" lon="3.46832">
        <ele>387.6</ele>
        <time>2017-03-29T09:43:58Z</time>
      </trkpt>
      <trkpt lat="43.71" lon="3.46846">
        <ele>386.1</ele>
        <time>2017-03-29T09:44:00Z</time>
      </trkpt>
      <trkpt lat="43.70995" lon="3.46854">
        <ele>384.8</ele>
        <time>2017-03-29T09:44:01Z</time>
      </trkpt>
      <trkpt lat="43.70988" lon="3.46864">
        <ele>383.8</ele>
        <time>2017-03-29T09:44:02Z</time>
      </trkpt>
      <trkpt lat="43.70982" lon="3.46871">
        <ele>382.6</ele>
        <time>2017-03-29T09:44:03Z</time>
      </trkpt>
      <trkpt lat="43.70976" lon="3.46877">
        <ele>381.3</ele>
        <time>2017-03-29T09:44:04Z</time>
      </trkpt>
      <trkpt lat="43.70967" lon="3.46887">
        <ele>378.8</ele>
        <time>2017-03-29T09:44:06Z</time>
      </trkpt>
      <trkpt lat="43.70957" lon="3.46889">
        <ele>377.9</ele>
        <time>2017-03-29T09:44:08Z</time>
      </trkpt>
      <trkpt lat="43.70947" lon="3.46883">
        <ele>376</ele>
        <time>2017-03-29T09:44:10Z</time>
      </trkpt>
      <trkpt lat="43.70936" lon="3.46876">
        <ele>373.2</ele>
        <time>2017-03-29T09:44:12Z</time>
      </trkpt>
      <trkpt lat="43.70927" lon="3.46868">
        <ele>369.6</ele>
        <time>2017-03-29T09:44:14Z</time>
      </trkpt>
      <trkpt lat="43.70917" lon="3.46861">
        <ele>366.5</ele>
        <time>2017-03-29T09:44:16Z</time>
      </trkpt>
      <trkpt lat="43.7091" lon="3.46859">
        <ele>365.6</ele>
        <time>2017-03-29T09:44:18Z</time>
      </trkpt>
      <trkpt lat="43.709" lon="3.46857">
        <ele>365.3</ele>
        <time>2017-03-29T09:44:20Z</time>
      </trkpt>
      <trkpt lat="43.70893" lon="3.46856">
        <ele>365.1</ele>
        <time>2017-03-29T09:44:22Z</time>
      </trkpt>
      <trkpt lat="43.70884" lon="3.46854">
        <ele>363.6</ele>
        <time>2017-03-29T09:44:24Z</time>
      </trkpt>
      <trkpt lat="43.70875" lon="3.46847">
        <ele>361.4</ele>
        <time>2017-03-29T09:44:26Z</time>
      </trkpt>
      <trkpt lat="43.70867" lon="3.46837">
        <ele>359.8</ele>
        <time>2017-03-29T09:44:28Z</time>
      </trkpt>
      <trkpt lat="43.70855" lon="3.46835">
        <ele>358.1</ele>
        <time>2017-03-29T09:44:30Z</time>
      </trkpt>
      <trkpt lat="43.70841" lon="3.4683">
        <ele>356.7</ele>
        <time>2017-03-29T09:44:32Z</time>
      </trkpt>
      <trkpt lat="43.70829" lon="3.46829">
        <ele>355.6</ele>
        <time>2017-03-29T09:44:34Z</time>
      </trkpt>
      <trkpt lat="43.70818" lon="3.46829">
        <ele>354</ele>
        <time>2017-03-29T09:44:36Z</time>
      </trkpt>
      <trkpt lat="43.70807" lon="3.46827">
        <ele>352</ele>
        <time>2017-03-29T09:44:38Z</time>
      </trkpt>
      <trkpt lat="43.70799" lon="3.46826">
        <ele>350.9</ele>
        <time>2017-03-29T09:44:39Z</time>
      </trkpt>
      <trkpt lat="43.70786" lon="3.46823">
        <ele>347.8</ele>
        <time>2017-03-29T09:44:41Z</time>
      </trkpt>
      <trkpt lat="43.70778" lon="3.46815">
        <ele>345.8</ele>
        <time>2017-03-29T09:44:43Z</time>
      </trkpt>
      <trkpt lat="43.70764" lon="3.46809">
        <ele>344.8</ele>
        <time>2017-03-29T09:44:45Z</time>
      </trkpt>
      <trkpt lat="43.70755" lon="3.46804">
        <ele>344.3</ele>
        <time>2017-03-29T09:44:46Z</time>
      </trkpt>
      <trkpt lat="43.70747" lon="3.46799">
        <ele>343.8</ele>
        <time>2017-03-29T09:44:47Z</time>
      </trkpt>
      <trkpt lat="43.7074" lon="3.46794">
        <ele>343.7</ele>
        <time>2017-03-29T09:44:48Z</time>
      </trkpt>
      <trkpt lat="43.70733" lon="3.4679">
        <ele>343.2</ele>
        <time>2017-03-29T09:44:49Z</time>
      </trkpt>
      <trkpt lat="43.70723" lon="3.46783">
        <ele>342.6</ele>
        <time>2017-03-29T09:44:51Z</time>
      </trkpt>
      <trkpt lat="43.70713" lon="3.46777">
        <ele>341.9</ele>
        <time>2017-03-29T09:44:53Z</time>
      </trkpt>
      <trkpt lat="43.70704" lon="3.46772">
        <ele>341.8</ele>
        <time>2017-03-29T09:44:55Z</time>
      </trkpt>
      <trkpt lat="43.70695" lon="3.46771">
        <ele>341.4</ele>
        <time>2017-03-29T09:44:57Z</time>
      </trkpt>
      <trkpt lat="43.70687" lon="3.46776">
        <ele>340.8</ele>
        <time>2017-03-29T09:44:59Z</time>
      </trkpt>
      <trkpt lat="43.70679" lon="3.46777">
        <ele>340.6</ele>
        <time>2017-03-29T09:45:01Z</time>
      </trkpt>
      <trkpt lat="43.70673" lon="3.46778">
        <ele>340.3</ele>
        <time>2017-03-29T09:45:08Z</time>
      </trkpt>
    </trkseg>
  </trk>
</gpx>